<?xml version="1.0" encoding="UTF-8" standalone="no" ?>
<gpx xmlns="http://www.topografix.com/GPX/1/1" xmlns:xsi="http://www.w3.org/2001/XMLSchema-instance" xsi:schemaLocation="http://www.topografix.com/GPX/1/1 http://www.topografix.com/GPX/1/1/gpx.xsd" version="1.1" creator="VisuGPX - https://www.visugpx.com">
  <metadata>
    <name>CMC Le Roc de l'Orri d'Ignaux</name>
    <desc><![CDATA[Merci à notre animateur de nous avoir fait sortir le samedi. Temps superbe et bonne ambiance.]]></desc>
  </metadata>
  <trk>
    <name><![CDATA[CMC Le Roc de l'Orri d'Ignaux_1]]></name>
    <trkseg>
      <trkpt lat="42.73014" lon="1.85188">
        <ele>1062</ele>
        <time>2016-11-12T09:23:07Z</time>
      </trkpt>
      <trkpt lat="42.73013" lon="1.85186">
        <ele>1062</ele>
        <time>2016-11-12T09:23:12Z</time>
      </trkpt>
      <trkpt lat="42.7301" lon="1.85184">
        <ele>1062</ele>
        <time>2016-11-12T09:23:17Z</time>
      </trkpt>
      <trkpt lat="42.73008" lon="1.85181">
        <ele>1062</ele>
        <time>2016-11-12T09:23:22Z</time>
      </trkpt>
      <trkpt lat="42.73005" lon="1.85176">
        <ele>1062</ele>
        <time>2016-11-12T09:23:27Z</time>
      </trkpt>
      <trkpt lat="42.73005" lon="1.85175">
        <ele>1062</ele>
        <time>2016-11-12T09:23:32Z</time>
      </trkpt>
      <trkpt lat="42.73005" lon="1.85175">
        <ele>1062</ele>
        <time>2016-11-12T09:23:37Z</time>
      </trkpt>
      <trkpt lat="42.73004" lon="1.85173">
        <ele>1062</ele>
        <time>2016-11-12T09:23:42Z</time>
      </trkpt>
      <trkpt lat="42.72994" lon="1.85172">
        <ele>1062</ele>
        <time>2016-11-12T09:23:47Z</time>
      </trkpt>
      <trkpt lat="42.72984" lon="1.85168">
        <ele>1062</ele>
        <time>2016-11-12T09:23:52Z</time>
      </trkpt>
      <trkpt lat="42.72977" lon="1.85167">
        <ele>1062</ele>
        <time>2016-11-12T09:23:57Z</time>
      </trkpt>
      <trkpt lat="42.72971" lon="1.85162">
        <ele>1062</ele>
        <time>2016-11-12T09:24:02Z</time>
      </trkpt>
      <trkpt lat="42.72966" lon="1.85161">
        <ele>1062</ele>
        <time>2016-11-12T09:24:07Z</time>
      </trkpt>
      <trkpt lat="42.72962" lon="1.85162">
        <ele>1062</ele>
        <time>2016-11-12T09:24:12Z</time>
      </trkpt>
      <trkpt lat="42.72958" lon="1.85162">
        <ele>1059</ele>
        <time>2016-11-12T09:24:17Z</time>
      </trkpt>
      <trkpt lat="42.72952" lon="1.85163">
        <ele>1059</ele>
        <time>2016-11-12T09:24:22Z</time>
      </trkpt>
      <trkpt lat="42.72946" lon="1.85165">
        <ele>1059</ele>
        <time>2016-11-12T09:24:27Z</time>
      </trkpt>
      <trkpt lat="42.72938" lon="1.85166">
        <ele>1059</ele>
        <time>2016-11-12T09:24:32Z</time>
      </trkpt>
      <trkpt lat="42.72932" lon="1.85163">
        <ele>1059</ele>
        <time>2016-11-12T09:24:37Z</time>
      </trkpt>
      <trkpt lat="42.72926" lon="1.85164">
        <ele>1059</ele>
        <time>2016-11-12T09:24:42Z</time>
      </trkpt>
      <trkpt lat="42.72921" lon="1.85161">
        <ele>1059</ele>
        <time>2016-11-12T09:24:47Z</time>
      </trkpt>
      <trkpt lat="42.72918" lon="1.85157">
        <ele>1059</ele>
        <time>2016-11-12T09:24:52Z</time>
      </trkpt>
      <trkpt lat="42.72914" lon="1.85155">
        <ele>1059</ele>
        <time>2016-11-12T09:24:57Z</time>
      </trkpt>
      <trkpt lat="42.72909" lon="1.85153">
        <ele>1059</ele>
        <time>2016-11-12T09:25:02Z</time>
      </trkpt>
      <trkpt lat="42.72905" lon="1.85151">
        <ele>1059</ele>
        <time>2016-11-12T09:25:07Z</time>
      </trkpt>
      <trkpt lat="42.72902" lon="1.85145">
        <ele>1059</ele>
        <time>2016-11-12T09:25:12Z</time>
      </trkpt>
      <trkpt lat="42.72897" lon="1.8514">
        <ele>1059</ele>
        <time>2016-11-12T09:25:17Z</time>
      </trkpt>
      <trkpt lat="42.72891" lon="1.85134">
        <ele>1059</ele>
        <time>2016-11-12T09:25:22Z</time>
      </trkpt>
      <trkpt lat="42.72885" lon="1.85128">
        <ele>1059</ele>
        <time>2016-11-12T09:25:27Z</time>
      </trkpt>
      <trkpt lat="42.72881" lon="1.85122">
        <ele>1054</ele>
        <time>2016-11-12T09:25:32Z</time>
      </trkpt>
      <trkpt lat="42.72876" lon="1.85119">
        <ele>1054</ele>
        <time>2016-11-12T09:25:37Z</time>
      </trkpt>
      <trkpt lat="42.72872" lon="1.85116">
        <ele>1043</ele>
        <time>2016-11-12T09:25:42Z</time>
      </trkpt>
      <trkpt lat="42.72868" lon="1.8512">
        <ele>1043</ele>
        <time>2016-11-12T09:25:47Z</time>
      </trkpt>
      <trkpt lat="42.72866" lon="1.85121">
        <ele>1043</ele>
        <time>2016-11-12T09:25:52Z</time>
      </trkpt>
      <trkpt lat="42.72864" lon="1.85128">
        <ele>1050</ele>
        <time>2016-11-12T09:25:57Z</time>
      </trkpt>
      <trkpt lat="42.72862" lon="1.85134">
        <ele>1050</ele>
        <time>2016-11-12T09:26:02Z</time>
      </trkpt>
      <trkpt lat="42.72858" lon="1.85139">
        <ele>1050</ele>
        <time>2016-11-12T09:26:07Z</time>
      </trkpt>
      <trkpt lat="42.72855" lon="1.85146">
        <ele>1050</ele>
        <time>2016-11-12T09:26:12Z</time>
      </trkpt>
      <trkpt lat="42.72852" lon="1.85153">
        <ele>1050</ele>
        <time>2016-11-12T09:26:17Z</time>
      </trkpt>
      <trkpt lat="42.7285" lon="1.85162">
        <ele>1050</ele>
        <time>2016-11-12T09:26:22Z</time>
      </trkpt>
      <trkpt lat="42.7285" lon="1.8517">
        <ele>1050</ele>
        <time>2016-11-12T09:26:27Z</time>
      </trkpt>
      <trkpt lat="42.72847" lon="1.85178">
        <ele>1050</ele>
        <time>2016-11-12T09:26:32Z</time>
      </trkpt>
      <trkpt lat="42.72843" lon="1.85184">
        <ele>1050</ele>
        <time>2016-11-12T09:26:37Z</time>
      </trkpt>
      <trkpt lat="42.72841" lon="1.85191">
        <ele>1050</ele>
        <time>2016-11-12T09:26:42Z</time>
      </trkpt>
      <trkpt lat="42.72839" lon="1.85201">
        <ele>1050</ele>
        <time>2016-11-12T09:26:47Z</time>
      </trkpt>
      <trkpt lat="42.72836" lon="1.85208">
        <ele>1057</ele>
        <time>2016-11-12T09:26:52Z</time>
      </trkpt>
      <trkpt lat="42.72834" lon="1.85217">
        <ele>1057</ele>
        <time>2016-11-12T09:26:57Z</time>
      </trkpt>
      <trkpt lat="42.7283" lon="1.85225">
        <ele>1057</ele>
        <time>2016-11-12T09:27:02Z</time>
      </trkpt>
      <trkpt lat="42.72826" lon="1.85233">
        <ele>1057</ele>
        <time>2016-11-12T09:27:07Z</time>
      </trkpt>
      <trkpt lat="42.72822" lon="1.8524">
        <ele>1057</ele>
        <time>2016-11-12T09:27:12Z</time>
      </trkpt>
      <trkpt lat="42.72819" lon="1.85247">
        <ele>1057</ele>
        <time>2016-11-12T09:27:17Z</time>
      </trkpt>
      <trkpt lat="42.72816" lon="1.85255">
        <ele>1057</ele>
        <time>2016-11-12T09:27:22Z</time>
      </trkpt>
      <trkpt lat="42.72811" lon="1.85264">
        <ele>1057</ele>
        <time>2016-11-12T09:27:27Z</time>
      </trkpt>
      <trkpt lat="42.72808" lon="1.85271">
        <ele>1057</ele>
        <time>2016-11-12T09:27:32Z</time>
      </trkpt>
      <trkpt lat="42.72805" lon="1.8528">
        <ele>1057</ele>
        <time>2016-11-12T09:27:37Z</time>
      </trkpt>
      <trkpt lat="42.72802" lon="1.85287">
        <ele>1057</ele>
        <time>2016-11-12T09:27:42Z</time>
      </trkpt>
      <trkpt lat="42.72799" lon="1.85295">
        <ele>1062</ele>
        <time>2016-11-12T09:27:47Z</time>
      </trkpt>
      <trkpt lat="42.72795" lon="1.85304">
        <ele>1062</ele>
        <time>2016-11-12T09:27:52Z</time>
      </trkpt>
      <trkpt lat="42.72791" lon="1.85312">
        <ele>1053</ele>
        <time>2016-11-12T09:27:57Z</time>
      </trkpt>
      <trkpt lat="42.72791" lon="1.85319">
        <ele>1053</ele>
        <time>2016-11-12T09:28:02Z</time>
      </trkpt>
      <trkpt lat="42.72789" lon="1.85325">
        <ele>1053</ele>
        <time>2016-11-12T09:28:07Z</time>
      </trkpt>
      <trkpt lat="42.72787" lon="1.8533">
        <ele>1053</ele>
        <time>2016-11-12T09:28:12Z</time>
      </trkpt>
      <trkpt lat="42.72785" lon="1.85334">
        <ele>1053</ele>
        <time>2016-11-12T09:28:17Z</time>
      </trkpt>
      <trkpt lat="42.72781" lon="1.85339">
        <ele>1053</ele>
        <time>2016-11-12T09:28:22Z</time>
      </trkpt>
      <trkpt lat="42.72778" lon="1.85343">
        <ele>1053</ele>
        <time>2016-11-12T09:28:27Z</time>
      </trkpt>
      <trkpt lat="42.72774" lon="1.85347">
        <ele>1053</ele>
        <time>2016-11-12T09:28:32Z</time>
      </trkpt>
      <trkpt lat="42.72773" lon="1.85352">
        <ele>1053</ele>
        <time>2016-11-12T09:28:37Z</time>
      </trkpt>
      <trkpt lat="42.7277" lon="1.85358">
        <ele>1053</ele>
        <time>2016-11-12T09:28:42Z</time>
      </trkpt>
      <trkpt lat="42.72765" lon="1.85364">
        <ele>1053</ele>
        <time>2016-11-12T09:28:47Z</time>
      </trkpt>
      <trkpt lat="42.72759" lon="1.8537">
        <ele>1053</ele>
        <time>2016-11-12T09:28:52Z</time>
      </trkpt>
      <trkpt lat="42.72756" lon="1.85376">
        <ele>1059</ele>
        <time>2016-11-12T09:28:57Z</time>
      </trkpt>
      <trkpt lat="42.72751" lon="1.85381">
        <ele>1059</ele>
        <time>2016-11-12T09:29:02Z</time>
      </trkpt>
      <trkpt lat="42.72747" lon="1.85388">
        <ele>1059</ele>
        <time>2016-11-12T09:29:07Z</time>
      </trkpt>
      <trkpt lat="42.72745" lon="1.85397">
        <ele>1059</ele>
        <time>2016-11-12T09:29:12Z</time>
      </trkpt>
      <trkpt lat="42.72744" lon="1.85406">
        <ele>1059</ele>
        <time>2016-11-12T09:29:17Z</time>
      </trkpt>
      <trkpt lat="42.72742" lon="1.85414">
        <ele>1059</ele>
        <time>2016-11-12T09:29:22Z</time>
      </trkpt>
      <trkpt lat="42.72738" lon="1.85418">
        <ele>1059</ele>
        <time>2016-11-12T09:29:27Z</time>
      </trkpt>
      <trkpt lat="42.72731" lon="1.85425">
        <ele>1059</ele>
        <time>2016-11-12T09:29:32Z</time>
      </trkpt>
      <trkpt lat="42.72726" lon="1.85432">
        <ele>1059</ele>
        <time>2016-11-12T09:29:37Z</time>
      </trkpt>
      <trkpt lat="42.7272" lon="1.85438">
        <ele>1059</ele>
        <time>2016-11-12T09:29:42Z</time>
      </trkpt>
      <trkpt lat="42.72716" lon="1.85444">
        <ele>1059</ele>
        <time>2016-11-12T09:29:47Z</time>
      </trkpt>
      <trkpt lat="42.72712" lon="1.85448">
        <ele>1059</ele>
        <time>2016-11-12T09:29:52Z</time>
      </trkpt>
      <trkpt lat="42.72708" lon="1.85452">
        <ele>1052</ele>
        <time>2016-11-12T09:29:57Z</time>
      </trkpt>
      <trkpt lat="42.72704" lon="1.85455">
        <ele>1052</ele>
        <time>2016-11-12T09:30:02Z</time>
      </trkpt>
      <trkpt lat="42.72701" lon="1.85457">
        <ele>1052</ele>
        <time>2016-11-12T09:30:07Z</time>
      </trkpt>
      <trkpt lat="42.72698" lon="1.85461">
        <ele>1057</ele>
        <time>2016-11-12T09:30:12Z</time>
      </trkpt>
      <trkpt lat="42.72694" lon="1.85463">
        <ele>1057</ele>
        <time>2016-11-12T09:30:17Z</time>
      </trkpt>
      <trkpt lat="42.72689" lon="1.85467">
        <ele>1057</ele>
        <time>2016-11-12T09:30:22Z</time>
      </trkpt>
      <trkpt lat="42.72685" lon="1.85473">
        <ele>1057</ele>
        <time>2016-11-12T09:30:27Z</time>
      </trkpt>
      <trkpt lat="42.72685" lon="1.85474">
        <ele>1057</ele>
        <time>2016-11-12T09:30:32Z</time>
      </trkpt>
      <trkpt lat="42.72684" lon="1.85475">
        <ele>1057</ele>
        <time>2016-11-12T09:30:37Z</time>
      </trkpt>
      <trkpt lat="42.72684" lon="1.85475">
        <ele>1057</ele>
        <time>2016-11-12T09:30:42Z</time>
      </trkpt>
      <trkpt lat="42.72684" lon="1.85475">
        <ele>1057</ele>
        <time>2016-11-12T09:30:47Z</time>
      </trkpt>
      <trkpt lat="42.72684" lon="1.85475">
        <ele>1057</ele>
        <time>2016-11-12T09:30:52Z</time>
      </trkpt>
      <trkpt lat="42.72684" lon="1.85475">
        <ele>1057</ele>
        <time>2016-11-12T09:30:57Z</time>
      </trkpt>
      <trkpt lat="42.72684" lon="1.85475">
        <ele>1057</ele>
        <time>2016-11-12T09:31:02Z</time>
      </trkpt>
      <trkpt lat="42.72683" lon="1.85474">
        <ele>1057</ele>
        <time>2016-11-12T09:31:07Z</time>
      </trkpt>
      <trkpt lat="42.72686" lon="1.85468">
        <ele>1057</ele>
        <time>2016-11-12T09:31:12Z</time>
      </trkpt>
      <trkpt lat="42.72691" lon="1.85461">
        <ele>1057</ele>
        <time>2016-11-12T09:31:17Z</time>
      </trkpt>
      <trkpt lat="42.72693" lon="1.85457">
        <ele>1052</ele>
        <time>2016-11-12T09:31:22Z</time>
      </trkpt>
      <trkpt lat="42.72695" lon="1.85453">
        <ele>1052</ele>
        <time>2016-11-12T09:31:27Z</time>
      </trkpt>
      <trkpt lat="42.727" lon="1.85448">
        <ele>1052</ele>
        <time>2016-11-12T09:31:32Z</time>
      </trkpt>
      <trkpt lat="42.72703" lon="1.85443">
        <ele>1052</ele>
        <time>2016-11-12T09:31:37Z</time>
      </trkpt>
      <trkpt lat="42.72711" lon="1.85434">
        <ele>1059</ele>
        <time>2016-11-12T09:31:42Z</time>
      </trkpt>
      <trkpt lat="42.72718" lon="1.85426">
        <ele>1059</ele>
        <time>2016-11-12T09:31:47Z</time>
      </trkpt>
      <trkpt lat="42.72723" lon="1.85422">
        <ele>1059</ele>
        <time>2016-11-12T09:31:52Z</time>
      </trkpt>
      <trkpt lat="42.72729" lon="1.85416">
        <ele>1059</ele>
        <time>2016-11-12T09:31:57Z</time>
      </trkpt>
      <trkpt lat="42.72732" lon="1.8541">
        <ele>1059</ele>
        <time>2016-11-12T09:32:02Z</time>
      </trkpt>
      <trkpt lat="42.72736" lon="1.85403">
        <ele>1059</ele>
        <time>2016-11-12T09:32:07Z</time>
      </trkpt>
      <trkpt lat="42.72738" lon="1.85394">
        <ele>1059</ele>
        <time>2016-11-12T09:32:12Z</time>
      </trkpt>
      <trkpt lat="42.72741" lon="1.85387">
        <ele>1059</ele>
        <time>2016-11-12T09:32:17Z</time>
      </trkpt>
      <trkpt lat="42.72745" lon="1.85381">
        <ele>1059</ele>
        <time>2016-11-12T09:32:22Z</time>
      </trkpt>
      <trkpt lat="42.72749" lon="1.85373">
        <ele>1053</ele>
        <time>2016-11-12T09:32:27Z</time>
      </trkpt>
      <trkpt lat="42.72754" lon="1.85367">
        <ele>1053</ele>
        <time>2016-11-12T09:32:32Z</time>
      </trkpt>
      <trkpt lat="42.7276" lon="1.85361">
        <ele>1053</ele>
        <time>2016-11-12T09:32:37Z</time>
      </trkpt>
      <trkpt lat="42.72763" lon="1.85355">
        <ele>1053</ele>
        <time>2016-11-12T09:32:42Z</time>
      </trkpt>
      <trkpt lat="42.72767" lon="1.8535">
        <ele>1053</ele>
        <time>2016-11-12T09:32:47Z</time>
      </trkpt>
      <trkpt lat="42.72772" lon="1.85343">
        <ele>1053</ele>
        <time>2016-11-12T09:32:52Z</time>
      </trkpt>
      <trkpt lat="42.72777" lon="1.85335">
        <ele>1053</ele>
        <time>2016-11-12T09:32:57Z</time>
      </trkpt>
      <trkpt lat="42.7278" lon="1.8533">
        <ele>1053</ele>
        <time>2016-11-12T09:33:02Z</time>
      </trkpt>
      <trkpt lat="42.72784" lon="1.8533">
        <ele>1053</ele>
        <time>2016-11-12T09:33:07Z</time>
      </trkpt>
      <trkpt lat="42.72789" lon="1.85331">
        <ele>1053</ele>
        <time>2016-11-12T09:33:12Z</time>
      </trkpt>
      <trkpt lat="42.72795" lon="1.85329">
        <ele>1062</ele>
        <time>2016-11-12T09:33:17Z</time>
      </trkpt>
      <trkpt lat="42.72804" lon="1.85325">
        <ele>1062</ele>
        <time>2016-11-12T09:33:22Z</time>
      </trkpt>
      <trkpt lat="42.72811" lon="1.85321">
        <ele>1062</ele>
        <time>2016-11-12T09:33:27Z</time>
      </trkpt>
      <trkpt lat="42.72812" lon="1.85321">
        <ele>1062</ele>
        <time>2016-11-12T09:33:32Z</time>
      </trkpt>
      <trkpt lat="42.72806" lon="1.85327">
        <ele>1062</ele>
        <time>2016-11-12T09:33:37Z</time>
      </trkpt>
      <trkpt lat="42.72801" lon="1.85327">
        <ele>1062</ele>
        <time>2016-11-12T09:33:42Z</time>
      </trkpt>
      <trkpt lat="42.72794" lon="1.8533">
        <ele>1062</ele>
        <time>2016-11-12T09:33:47Z</time>
      </trkpt>
      <trkpt lat="42.72787" lon="1.85326">
        <ele>1053</ele>
        <time>2016-11-12T09:33:52Z</time>
      </trkpt>
      <trkpt lat="42.72786" lon="1.85317">
        <ele>1053</ele>
        <time>2016-11-12T09:33:57Z</time>
      </trkpt>
      <trkpt lat="42.72789" lon="1.85308">
        <ele>1053</ele>
        <time>2016-11-12T09:34:02Z</time>
      </trkpt>
      <trkpt lat="42.72793" lon="1.85299">
        <ele>1062</ele>
        <time>2016-11-12T09:34:07Z</time>
      </trkpt>
      <trkpt lat="42.72797" lon="1.85292">
        <ele>1062</ele>
        <time>2016-11-12T09:34:12Z</time>
      </trkpt>
      <trkpt lat="42.728" lon="1.85285">
        <ele>1057</ele>
        <time>2016-11-12T09:34:17Z</time>
      </trkpt>
      <trkpt lat="42.72803" lon="1.85277">
        <ele>1057</ele>
        <time>2016-11-12T09:34:22Z</time>
      </trkpt>
      <trkpt lat="42.72806" lon="1.85269">
        <ele>1057</ele>
        <time>2016-11-12T09:34:27Z</time>
      </trkpt>
      <trkpt lat="42.72809" lon="1.85261">
        <ele>1057</ele>
        <time>2016-11-12T09:34:32Z</time>
      </trkpt>
      <trkpt lat="42.72812" lon="1.85253">
        <ele>1057</ele>
        <time>2016-11-12T09:34:37Z</time>
      </trkpt>
      <trkpt lat="42.72815" lon="1.85247">
        <ele>1057</ele>
        <time>2016-11-12T09:34:42Z</time>
      </trkpt>
      <trkpt lat="42.72817" lon="1.85239">
        <ele>1057</ele>
        <time>2016-11-12T09:34:47Z</time>
      </trkpt>
      <trkpt lat="42.72821" lon="1.85232">
        <ele>1057</ele>
        <time>2016-11-12T09:34:52Z</time>
      </trkpt>
      <trkpt lat="42.72824" lon="1.85225">
        <ele>1057</ele>
        <time>2016-11-12T09:34:57Z</time>
      </trkpt>
      <trkpt lat="42.72826" lon="1.85219">
        <ele>1057</ele>
        <time>2016-11-12T09:35:02Z</time>
      </trkpt>
      <trkpt lat="42.7283" lon="1.85213">
        <ele>1057</ele>
        <time>2016-11-12T09:35:07Z</time>
      </trkpt>
      <trkpt lat="42.72835" lon="1.85205">
        <ele>1050</ele>
        <time>2016-11-12T09:35:12Z</time>
      </trkpt>
      <trkpt lat="42.72839" lon="1.85198">
        <ele>1050</ele>
        <time>2016-11-12T09:35:17Z</time>
      </trkpt>
      <trkpt lat="42.72841" lon="1.8519">
        <ele>1050</ele>
        <time>2016-11-12T09:35:22Z</time>
      </trkpt>
      <trkpt lat="42.72844" lon="1.85181">
        <ele>1050</ele>
        <time>2016-11-12T09:35:27Z</time>
      </trkpt>
      <trkpt lat="42.72848" lon="1.85172">
        <ele>1050</ele>
        <time>2016-11-12T09:35:32Z</time>
      </trkpt>
      <trkpt lat="42.7285" lon="1.85167">
        <ele>1050</ele>
        <time>2016-11-12T09:35:37Z</time>
      </trkpt>
      <trkpt lat="42.72851" lon="1.8516">
        <ele>1050</ele>
        <time>2016-11-12T09:35:42Z</time>
      </trkpt>
      <trkpt lat="42.72853" lon="1.85151">
        <ele>1050</ele>
        <time>2016-11-12T09:35:47Z</time>
      </trkpt>
      <trkpt lat="42.72855" lon="1.85145">
        <ele>1050</ele>
        <time>2016-11-12T09:35:52Z</time>
      </trkpt>
      <trkpt lat="42.72859" lon="1.85137">
        <ele>1050</ele>
        <time>2016-11-12T09:35:57Z</time>
      </trkpt>
      <trkpt lat="42.72863" lon="1.85132">
        <ele>1050</ele>
        <time>2016-11-12T09:36:02Z</time>
      </trkpt>
      <trkpt lat="42.72866" lon="1.85124">
        <ele>1043</ele>
        <time>2016-11-12T09:36:07Z</time>
      </trkpt>
      <trkpt lat="42.72869" lon="1.85118">
        <ele>1043</ele>
        <time>2016-11-12T09:36:12Z</time>
      </trkpt>
      <trkpt lat="42.72874" lon="1.85118">
        <ele>1043</ele>
        <time>2016-11-12T09:36:17Z</time>
      </trkpt>
      <trkpt lat="42.72878" lon="1.85122">
        <ele>1054</ele>
        <time>2016-11-12T09:36:22Z</time>
      </trkpt>
      <trkpt lat="42.72882" lon="1.85127">
        <ele>1059</ele>
        <time>2016-11-12T09:36:27Z</time>
      </trkpt>
      <trkpt lat="42.72887" lon="1.85131">
        <ele>1059</ele>
        <time>2016-11-12T09:36:32Z</time>
      </trkpt>
      <trkpt lat="42.7289" lon="1.85133">
        <ele>1059</ele>
        <time>2016-11-12T09:36:37Z</time>
      </trkpt>
      <trkpt lat="42.72895" lon="1.85136">
        <ele>1059</ele>
        <time>2016-11-12T09:36:42Z</time>
      </trkpt>
      <trkpt lat="42.72902" lon="1.85144">
        <ele>1059</ele>
        <time>2016-11-12T09:36:47Z</time>
      </trkpt>
      <trkpt lat="42.72904" lon="1.85147">
        <ele>1059</ele>
        <time>2016-11-12T09:36:52Z</time>
      </trkpt>
      <trkpt lat="42.72908" lon="1.85153">
        <ele>1059</ele>
        <time>2016-11-12T09:36:57Z</time>
      </trkpt>
      <trkpt lat="42.72912" lon="1.85159">
        <ele>1059</ele>
        <time>2016-11-12T09:37:02Z</time>
      </trkpt>
      <trkpt lat="42.72919" lon="1.85164">
        <ele>1059</ele>
        <time>2016-11-12T09:37:07Z</time>
      </trkpt>
      <trkpt lat="42.72924" lon="1.85166">
        <ele>1059</ele>
        <time>2016-11-12T09:37:12Z</time>
      </trkpt>
      <trkpt lat="42.72931" lon="1.8517">
        <ele>1059</ele>
        <time>2016-11-12T09:37:17Z</time>
      </trkpt>
      <trkpt lat="42.72938" lon="1.85172">
        <ele>1059</ele>
        <time>2016-11-12T09:37:22Z</time>
      </trkpt>
      <trkpt lat="42.72944" lon="1.85171">
        <ele>1059</ele>
        <time>2016-11-12T09:37:27Z</time>
      </trkpt>
      <trkpt lat="42.7295" lon="1.85167">
        <ele>1059</ele>
        <time>2016-11-12T09:37:32Z</time>
      </trkpt>
      <trkpt lat="42.72951" lon="1.85165">
        <ele>1059</ele>
        <time>2016-11-12T09:37:37Z</time>
      </trkpt>
      <trkpt lat="42.72959" lon="1.85163">
        <ele>1062</ele>
        <time>2016-11-12T09:37:42Z</time>
      </trkpt>
      <trkpt lat="42.72965" lon="1.85159">
        <ele>1062</ele>
        <time>2016-11-12T09:37:47Z</time>
      </trkpt>
      <trkpt lat="42.7297" lon="1.85158">
        <ele>1062</ele>
        <time>2016-11-12T09:37:52Z</time>
      </trkpt>
      <trkpt lat="42.72974" lon="1.85158">
        <ele>1062</ele>
        <time>2016-11-12T09:37:57Z</time>
      </trkpt>
      <trkpt lat="42.7298" lon="1.85161">
        <ele>1062</ele>
        <time>2016-11-12T09:38:02Z</time>
      </trkpt>
      <trkpt lat="42.72983" lon="1.85165">
        <ele>1062</ele>
        <time>2016-11-12T09:38:07Z</time>
      </trkpt>
      <trkpt lat="42.72989" lon="1.85168">
        <ele>1062</ele>
        <time>2016-11-12T09:38:12Z</time>
      </trkpt>
      <trkpt lat="42.72995" lon="1.85169">
        <ele>1062</ele>
        <time>2016-11-12T09:38:17Z</time>
      </trkpt>
      <trkpt lat="42.73002" lon="1.85176">
        <ele>1062</ele>
        <time>2016-11-12T09:38:22Z</time>
      </trkpt>
      <trkpt lat="42.73006" lon="1.85183">
        <ele>1062</ele>
        <time>2016-11-12T09:38:27Z</time>
      </trkpt>
      <trkpt lat="42.7301" lon="1.85188">
        <ele>1062</ele>
        <time>2016-11-12T09:38:32Z</time>
      </trkpt>
      <trkpt lat="42.73014" lon="1.85195">
        <ele>1062</ele>
        <time>2016-11-12T09:38:37Z</time>
      </trkpt>
      <trkpt lat="42.73018" lon="1.85202">
        <ele>1062</ele>
        <time>2016-11-12T09:38:42Z</time>
      </trkpt>
      <trkpt lat="42.73019" lon="1.85208">
        <ele>1072</ele>
        <time>2016-11-12T09:38:47Z</time>
      </trkpt>
      <trkpt lat="42.7302" lon="1.85214">
        <ele>1072</ele>
        <time>2016-11-12T09:38:52Z</time>
      </trkpt>
      <trkpt lat="42.73021" lon="1.85222">
        <ele>1072</ele>
        <time>2016-11-12T09:38:57Z</time>
      </trkpt>
      <trkpt lat="42.73024" lon="1.8523">
        <ele>1072</ele>
        <time>2016-11-12T09:39:02Z</time>
      </trkpt>
      <trkpt lat="42.73025" lon="1.85236">
        <ele>1072</ele>
        <time>2016-11-12T09:39:07Z</time>
      </trkpt>
      <trkpt lat="42.73025" lon="1.85237">
        <ele>1072</ele>
        <time>2016-11-12T09:39:12Z</time>
      </trkpt>
      <trkpt lat="42.73023" lon="1.85244">
        <ele>1072</ele>
        <time>2016-11-12T09:39:17Z</time>
      </trkpt>
      <trkpt lat="42.73025" lon="1.85249">
        <ele>1072</ele>
        <time>2016-11-12T09:39:22Z</time>
      </trkpt>
      <trkpt lat="42.73028" lon="1.85257">
        <ele>1072</ele>
        <time>2016-11-12T09:39:27Z</time>
      </trkpt>
      <trkpt lat="42.7303" lon="1.85265">
        <ele>1072</ele>
        <time>2016-11-12T09:39:32Z</time>
      </trkpt>
      <trkpt lat="42.7303" lon="1.85275">
        <ele>1072</ele>
        <time>2016-11-12T09:39:37Z</time>
      </trkpt>
      <trkpt lat="42.73031" lon="1.85283">
        <ele>1072</ele>
        <time>2016-11-12T09:39:42Z</time>
      </trkpt>
      <trkpt lat="42.73032" lon="1.8529">
        <ele>1072</ele>
        <time>2016-11-12T09:39:47Z</time>
      </trkpt>
      <trkpt lat="42.73031" lon="1.85297">
        <ele>1078</ele>
        <time>2016-11-12T09:39:52Z</time>
      </trkpt>
      <trkpt lat="42.73031" lon="1.85305">
        <ele>1078</ele>
        <time>2016-11-12T09:39:57Z</time>
      </trkpt>
      <trkpt lat="42.73031" lon="1.85315">
        <ele>1078</ele>
        <time>2016-11-12T09:40:02Z</time>
      </trkpt>
      <trkpt lat="42.73033" lon="1.85324">
        <ele>1078</ele>
        <time>2016-11-12T09:40:07Z</time>
      </trkpt>
      <trkpt lat="42.73031" lon="1.85332">
        <ele>1078</ele>
        <time>2016-11-12T09:40:12Z</time>
      </trkpt>
      <trkpt lat="42.73029" lon="1.8534">
        <ele>1078</ele>
        <time>2016-11-12T09:40:17Z</time>
      </trkpt>
      <trkpt lat="42.73028" lon="1.85348">
        <ele>1078</ele>
        <time>2016-11-12T09:40:22Z</time>
      </trkpt>
      <trkpt lat="42.73025" lon="1.85356">
        <ele>1078</ele>
        <time>2016-11-12T09:40:27Z</time>
      </trkpt>
      <trkpt lat="42.73024" lon="1.85362">
        <ele>1078</ele>
        <time>2016-11-12T09:40:32Z</time>
      </trkpt>
      <trkpt lat="42.73023" lon="1.85371">
        <ele>1078</ele>
        <time>2016-11-12T09:40:37Z</time>
      </trkpt>
      <trkpt lat="42.73022" lon="1.85377">
        <ele>1086</ele>
        <time>2016-11-12T09:40:42Z</time>
      </trkpt>
      <trkpt lat="42.7302" lon="1.85386">
        <ele>1086</ele>
        <time>2016-11-12T09:40:47Z</time>
      </trkpt>
      <trkpt lat="42.73019" lon="1.85392">
        <ele>1086</ele>
        <time>2016-11-12T09:40:52Z</time>
      </trkpt>
      <trkpt lat="42.73018" lon="1.854">
        <ele>1086</ele>
        <time>2016-11-12T09:40:57Z</time>
      </trkpt>
      <trkpt lat="42.73018" lon="1.85406">
        <ele>1086</ele>
        <time>2016-11-12T09:41:02Z</time>
      </trkpt>
      <trkpt lat="42.73016" lon="1.85412">
        <ele>1086</ele>
        <time>2016-11-12T09:41:07Z</time>
      </trkpt>
      <trkpt lat="42.73017" lon="1.85418">
        <ele>1086</ele>
        <time>2016-11-12T09:41:12Z</time>
      </trkpt>
      <trkpt lat="42.73019" lon="1.85423">
        <ele>1086</ele>
        <time>2016-11-12T09:41:17Z</time>
      </trkpt>
      <trkpt lat="42.7302" lon="1.85428">
        <ele>1086</ele>
        <time>2016-11-12T09:41:22Z</time>
      </trkpt>
      <trkpt lat="42.73023" lon="1.85439">
        <ele>1086</ele>
        <time>2016-11-12T09:41:27Z</time>
      </trkpt>
      <trkpt lat="42.73023" lon="1.85446">
        <ele>1086</ele>
        <time>2016-11-12T09:41:32Z</time>
      </trkpt>
      <trkpt lat="42.73024" lon="1.85453">
        <ele>1086</ele>
        <time>2016-11-12T09:41:37Z</time>
      </trkpt>
      <trkpt lat="42.73023" lon="1.8546">
        <ele>1095</ele>
        <time>2016-11-12T09:41:42Z</time>
      </trkpt>
      <trkpt lat="42.73022" lon="1.85467">
        <ele>1095</ele>
        <time>2016-11-12T09:41:47Z</time>
      </trkpt>
      <trkpt lat="42.73022" lon="1.8547">
        <ele>1095</ele>
        <time>2016-11-12T09:41:52Z</time>
      </trkpt>
      <trkpt lat="42.7302" lon="1.85475">
        <ele>1095</ele>
        <time>2016-11-12T09:41:57Z</time>
      </trkpt>
      <trkpt lat="42.7302" lon="1.85481">
        <ele>1095</ele>
        <time>2016-11-12T09:42:02Z</time>
      </trkpt>
      <trkpt lat="42.73023" lon="1.85487">
        <ele>1095</ele>
        <time>2016-11-12T09:42:07Z</time>
      </trkpt>
      <trkpt lat="42.73024" lon="1.85493">
        <ele>1095</ele>
        <time>2016-11-12T09:42:12Z</time>
      </trkpt>
      <trkpt lat="42.73025" lon="1.85503">
        <ele>1095</ele>
        <time>2016-11-12T09:42:17Z</time>
      </trkpt>
      <trkpt lat="42.73026" lon="1.8551">
        <ele>1095</ele>
        <time>2016-11-12T09:42:22Z</time>
      </trkpt>
      <trkpt lat="42.73026" lon="1.85518">
        <ele>1095</ele>
        <time>2016-11-12T09:42:27Z</time>
      </trkpt>
      <trkpt lat="42.73026" lon="1.85526">
        <ele>1095</ele>
        <time>2016-11-12T09:42:32Z</time>
      </trkpt>
      <trkpt lat="42.7303" lon="1.85533">
        <ele>1095</ele>
        <time>2016-11-12T09:42:37Z</time>
      </trkpt>
      <trkpt lat="42.73033" lon="1.8554">
        <ele>1095</ele>
        <time>2016-11-12T09:42:42Z</time>
      </trkpt>
      <trkpt lat="42.73033" lon="1.85544">
        <ele>1104</ele>
        <time>2016-11-12T09:42:47Z</time>
      </trkpt>
      <trkpt lat="42.73033" lon="1.85551">
        <ele>1104</ele>
        <time>2016-11-12T09:42:52Z</time>
      </trkpt>
      <trkpt lat="42.73033" lon="1.85555">
        <ele>1104</ele>
        <time>2016-11-12T09:42:57Z</time>
      </trkpt>
      <trkpt lat="42.73034" lon="1.85563">
        <ele>1104</ele>
        <time>2016-11-12T09:43:02Z</time>
      </trkpt>
      <trkpt lat="42.73035" lon="1.85569">
        <ele>1104</ele>
        <time>2016-11-12T09:43:07Z</time>
      </trkpt>
      <trkpt lat="42.73037" lon="1.85576">
        <ele>1104</ele>
        <time>2016-11-12T09:43:12Z</time>
      </trkpt>
      <trkpt lat="42.73039" lon="1.85587">
        <ele>1104</ele>
        <time>2016-11-12T09:43:17Z</time>
      </trkpt>
      <trkpt lat="42.73038" lon="1.85592">
        <ele>1104</ele>
        <time>2016-11-12T09:43:22Z</time>
      </trkpt>
      <trkpt lat="42.73039" lon="1.85599">
        <ele>1104</ele>
        <time>2016-11-12T09:43:27Z</time>
      </trkpt>
      <trkpt lat="42.7304" lon="1.85608">
        <ele>1104</ele>
        <time>2016-11-12T09:43:32Z</time>
      </trkpt>
      <trkpt lat="42.7304" lon="1.85617">
        <ele>1104</ele>
        <time>2016-11-12T09:43:37Z</time>
      </trkpt>
      <trkpt lat="42.73043" lon="1.8562">
        <ele>1092</ele>
        <time>2016-11-12T09:43:42Z</time>
      </trkpt>
      <trkpt lat="42.73043" lon="1.85627">
        <ele>1100</ele>
        <time>2016-11-12T09:43:47Z</time>
      </trkpt>
      <trkpt lat="42.73043" lon="1.85632">
        <ele>1100</ele>
        <time>2016-11-12T09:43:52Z</time>
      </trkpt>
      <trkpt lat="42.73043" lon="1.8564">
        <ele>1100</ele>
        <time>2016-11-12T09:43:57Z</time>
      </trkpt>
      <trkpt lat="42.73043" lon="1.85647">
        <ele>1100</ele>
        <time>2016-11-12T09:44:02Z</time>
      </trkpt>
      <trkpt lat="42.73044" lon="1.85654">
        <ele>1100</ele>
        <time>2016-11-12T09:44:07Z</time>
      </trkpt>
      <trkpt lat="42.73043" lon="1.8566">
        <ele>1100</ele>
        <time>2016-11-12T09:44:12Z</time>
      </trkpt>
      <trkpt lat="42.73043" lon="1.85667">
        <ele>1100</ele>
        <time>2016-11-12T09:44:17Z</time>
      </trkpt>
      <trkpt lat="42.73041" lon="1.85674">
        <ele>1111</ele>
        <time>2016-11-12T09:44:22Z</time>
      </trkpt>
      <trkpt lat="42.73038" lon="1.8568">
        <ele>1111</ele>
        <time>2016-11-12T09:44:27Z</time>
      </trkpt>
      <trkpt lat="42.73038" lon="1.85684">
        <ele>1111</ele>
        <time>2016-11-12T09:44:32Z</time>
      </trkpt>
      <trkpt lat="42.73035" lon="1.85688">
        <ele>1111</ele>
        <time>2016-11-12T09:44:37Z</time>
      </trkpt>
      <trkpt lat="42.73033" lon="1.85695">
        <ele>1111</ele>
        <time>2016-11-12T09:44:42Z</time>
      </trkpt>
      <trkpt lat="42.73033" lon="1.85704">
        <ele>1111</ele>
        <time>2016-11-12T09:44:47Z</time>
      </trkpt>
      <trkpt lat="42.73031" lon="1.8571">
        <ele>1113</ele>
        <time>2016-11-12T09:44:52Z</time>
      </trkpt>
      <trkpt lat="42.73032" lon="1.85719">
        <ele>1113</ele>
        <time>2016-11-12T09:44:57Z</time>
      </trkpt>
      <trkpt lat="42.73033" lon="1.85725">
        <ele>1113</ele>
        <time>2016-11-12T09:45:02Z</time>
      </trkpt>
      <trkpt lat="42.73034" lon="1.85727">
        <ele>1113</ele>
        <time>2016-11-12T09:45:07Z</time>
      </trkpt>
      <trkpt lat="42.73034" lon="1.85727">
        <ele>1113</ele>
        <time>2016-11-12T09:45:12Z</time>
      </trkpt>
      <trkpt lat="42.73035" lon="1.85727">
        <ele>1113</ele>
        <time>2016-11-12T09:45:17Z</time>
      </trkpt>
      <trkpt lat="42.73035" lon="1.85727">
        <ele>1113</ele>
        <time>2016-11-12T09:45:22Z</time>
      </trkpt>
      <trkpt lat="42.73035" lon="1.85727">
        <ele>1113</ele>
        <time>2016-11-12T09:45:27Z</time>
      </trkpt>
      <trkpt lat="42.73035" lon="1.85727">
        <ele>1113</ele>
        <time>2016-11-12T09:45:32Z</time>
      </trkpt>
      <trkpt lat="42.73035" lon="1.85728">
        <ele>1113</ele>
        <time>2016-11-12T09:45:37Z</time>
      </trkpt>
      <trkpt lat="42.73035" lon="1.85728">
        <ele>1113</ele>
        <time>2016-11-12T09:45:42Z</time>
      </trkpt>
      <trkpt lat="42.73035" lon="1.85728">
        <ele>1113</ele>
        <time>2016-11-12T09:45:47Z</time>
      </trkpt>
      <trkpt lat="42.73035" lon="1.85727">
        <ele>1113</ele>
        <time>2016-11-12T09:45:52Z</time>
      </trkpt>
      <trkpt lat="42.73035" lon="1.8573">
        <ele>1113</ele>
        <time>2016-11-12T09:45:57Z</time>
      </trkpt>
      <trkpt lat="42.73035" lon="1.85736">
        <ele>1113</ele>
        <time>2016-11-12T09:46:02Z</time>
      </trkpt>
      <trkpt lat="42.73034" lon="1.85744">
        <ele>1113</ele>
        <time>2016-11-12T09:46:07Z</time>
      </trkpt>
      <trkpt lat="42.73034" lon="1.8575">
        <ele>1113</ele>
        <time>2016-11-12T09:46:12Z</time>
      </trkpt>
      <trkpt lat="42.73035" lon="1.8576">
        <ele>1113</ele>
        <time>2016-11-12T09:46:17Z</time>
      </trkpt>
      <trkpt lat="42.73038" lon="1.85768">
        <ele>1113</ele>
        <time>2016-11-12T09:46:22Z</time>
      </trkpt>
      <trkpt lat="42.73038" lon="1.85775">
        <ele>1113</ele>
        <time>2016-11-12T09:46:27Z</time>
      </trkpt>
      <trkpt lat="42.73036" lon="1.85785">
        <ele>1113</ele>
        <time>2016-11-12T09:46:32Z</time>
      </trkpt>
      <trkpt lat="42.73032" lon="1.85792">
        <ele>1109</ele>
        <time>2016-11-12T09:46:37Z</time>
      </trkpt>
      <trkpt lat="42.73031" lon="1.85801">
        <ele>1109</ele>
        <time>2016-11-12T09:46:42Z</time>
      </trkpt>
      <trkpt lat="42.73029" lon="1.85808">
        <ele>1109</ele>
        <time>2016-11-12T09:46:47Z</time>
      </trkpt>
      <trkpt lat="42.73025" lon="1.85816">
        <ele>1109</ele>
        <time>2016-11-12T09:46:52Z</time>
      </trkpt>
      <trkpt lat="42.73022" lon="1.85823">
        <ele>1109</ele>
        <time>2016-11-12T09:46:57Z</time>
      </trkpt>
      <trkpt lat="42.7302" lon="1.85831">
        <ele>1109</ele>
        <time>2016-11-12T09:47:02Z</time>
      </trkpt>
      <trkpt lat="42.73016" lon="1.85837">
        <ele>1109</ele>
        <time>2016-11-12T09:47:07Z</time>
      </trkpt>
      <trkpt lat="42.73012" lon="1.85846">
        <ele>1109</ele>
        <time>2016-11-12T09:47:12Z</time>
      </trkpt>
      <trkpt lat="42.73007" lon="1.85853">
        <ele>1109</ele>
        <time>2016-11-12T09:47:17Z</time>
      </trkpt>
      <trkpt lat="42.73003" lon="1.85862">
        <ele>1109</ele>
        <time>2016-11-12T09:47:22Z</time>
      </trkpt>
      <trkpt lat="42.73" lon="1.85868">
        <ele>1109</ele>
        <time>2016-11-12T09:47:27Z</time>
      </trkpt>
      <trkpt lat="42.72997" lon="1.85877">
        <ele>1108</ele>
        <time>2016-11-12T09:47:32Z</time>
      </trkpt>
      <trkpt lat="42.72996" lon="1.85884">
        <ele>1108</ele>
        <time>2016-11-12T09:47:37Z</time>
      </trkpt>
      <trkpt lat="42.72997" lon="1.85892">
        <ele>1108</ele>
        <time>2016-11-12T09:47:42Z</time>
      </trkpt>
      <trkpt lat="42.72997" lon="1.85899">
        <ele>1108</ele>
        <time>2016-11-12T09:47:47Z</time>
      </trkpt>
      <trkpt lat="42.72997" lon="1.85909">
        <ele>1108</ele>
        <time>2016-11-12T09:47:52Z</time>
      </trkpt>
      <trkpt lat="42.72997" lon="1.85917">
        <ele>1108</ele>
        <time>2016-11-12T09:47:57Z</time>
      </trkpt>
      <trkpt lat="42.72997" lon="1.85921">
        <ele>1108</ele>
        <time>2016-11-12T09:48:02Z</time>
      </trkpt>
      <trkpt lat="42.72999" lon="1.85923">
        <ele>1108</ele>
        <time>2016-11-12T09:48:07Z</time>
      </trkpt>
      <trkpt lat="42.72999" lon="1.85923">
        <ele>1108</ele>
        <time>2016-11-12T09:48:12Z</time>
      </trkpt>
      <trkpt lat="42.72999" lon="1.85923">
        <ele>1108</ele>
        <time>2016-11-12T09:48:17Z</time>
      </trkpt>
      <trkpt lat="42.72999" lon="1.85923">
        <ele>1108</ele>
        <time>2016-11-12T09:48:22Z</time>
      </trkpt>
      <trkpt lat="42.72999" lon="1.85923">
        <ele>1108</ele>
        <time>2016-11-12T09:48:27Z</time>
      </trkpt>
      <trkpt lat="42.72999" lon="1.85923">
        <ele>1108</ele>
        <time>2016-11-12T09:48:32Z</time>
      </trkpt>
      <trkpt lat="42.72999" lon="1.85923">
        <ele>1108</ele>
        <time>2016-11-12T09:48:37Z</time>
      </trkpt>
      <trkpt lat="42.73" lon="1.85923">
        <ele>1108</ele>
        <time>2016-11-12T09:48:42Z</time>
      </trkpt>
      <trkpt lat="42.73" lon="1.85923">
        <ele>1108</ele>
        <time>2016-11-12T09:48:47Z</time>
      </trkpt>
      <trkpt lat="42.73" lon="1.85924">
        <ele>1108</ele>
        <time>2016-11-12T09:48:52Z</time>
      </trkpt>
      <trkpt lat="42.73001" lon="1.85925">
        <ele>1108</ele>
        <time>2016-11-12T09:48:57Z</time>
      </trkpt>
      <trkpt lat="42.73001" lon="1.85925">
        <ele>1108</ele>
        <time>2016-11-12T09:49:02Z</time>
      </trkpt>
      <trkpt lat="42.73" lon="1.85926">
        <ele>1108</ele>
        <time>2016-11-12T09:49:07Z</time>
      </trkpt>
      <trkpt lat="42.73" lon="1.85926">
        <ele>1108</ele>
        <time>2016-11-12T09:49:12Z</time>
      </trkpt>
      <trkpt lat="42.73001" lon="1.85926">
        <ele>1108</ele>
        <time>2016-11-12T09:49:17Z</time>
      </trkpt>
      <trkpt lat="42.73001" lon="1.85925">
        <ele>1108</ele>
        <time>2016-11-12T09:49:22Z</time>
      </trkpt>
      <trkpt lat="42.73" lon="1.85925">
        <ele>1108</ele>
        <time>2016-11-12T09:49:27Z</time>
      </trkpt>
      <trkpt lat="42.73" lon="1.85925">
        <ele>1108</ele>
        <time>2016-11-12T09:49:32Z</time>
      </trkpt>
      <trkpt lat="42.73001" lon="1.85925">
        <ele>1108</ele>
        <time>2016-11-12T09:49:37Z</time>
      </trkpt>
      <trkpt lat="42.73001" lon="1.85925">
        <ele>1108</ele>
        <time>2016-11-12T09:49:42Z</time>
      </trkpt>
      <trkpt lat="42.73001" lon="1.85925">
        <ele>1108</ele>
        <time>2016-11-12T09:49:47Z</time>
      </trkpt>
      <trkpt lat="42.73001" lon="1.85925">
        <ele>1108</ele>
        <time>2016-11-12T09:49:52Z</time>
      </trkpt>
      <trkpt lat="42.73001" lon="1.85926">
        <ele>1108</ele>
        <time>2016-11-12T09:49:57Z</time>
      </trkpt>
      <trkpt lat="42.73001" lon="1.85926">
        <ele>1108</ele>
        <time>2016-11-12T09:50:02Z</time>
      </trkpt>
      <trkpt lat="42.73002" lon="1.85926">
        <ele>1108</ele>
        <time>2016-11-12T09:50:07Z</time>
      </trkpt>
      <trkpt lat="42.73002" lon="1.85926">
        <ele>1108</ele>
        <time>2016-11-12T09:50:12Z</time>
      </trkpt>
      <trkpt lat="42.73002" lon="1.85926">
        <ele>1108</ele>
        <time>2016-11-12T09:50:17Z</time>
      </trkpt>
      <trkpt lat="42.73003" lon="1.85926">
        <ele>1108</ele>
        <time>2016-11-12T09:50:22Z</time>
      </trkpt>
      <trkpt lat="42.73003" lon="1.85926">
        <ele>1108</ele>
        <time>2016-11-12T09:50:27Z</time>
      </trkpt>
      <trkpt lat="42.73003" lon="1.85927">
        <ele>1108</ele>
        <time>2016-11-12T09:50:32Z</time>
      </trkpt>
      <trkpt lat="42.73003" lon="1.85927">
        <ele>1108</ele>
        <time>2016-11-12T09:50:37Z</time>
      </trkpt>
      <trkpt lat="42.73003" lon="1.85927">
        <ele>1108</ele>
        <time>2016-11-12T09:50:42Z</time>
      </trkpt>
      <trkpt lat="42.73003" lon="1.85927">
        <ele>1108</ele>
        <time>2016-11-12T09:50:47Z</time>
      </trkpt>
      <trkpt lat="42.73003" lon="1.85927">
        <ele>1108</ele>
        <time>2016-11-12T09:50:52Z</time>
      </trkpt>
      <trkpt lat="42.73003" lon="1.85926">
        <ele>1108</ele>
        <time>2016-11-12T09:50:57Z</time>
      </trkpt>
      <trkpt lat="42.73004" lon="1.85925">
        <ele>1108</ele>
        <time>2016-11-12T09:51:02Z</time>
      </trkpt>
      <trkpt lat="42.73005" lon="1.85928">
        <ele>1108</ele>
        <time>2016-11-12T09:51:07Z</time>
      </trkpt>
      <trkpt lat="42.73005" lon="1.85928">
        <ele>1108</ele>
        <time>2016-11-12T09:51:12Z</time>
      </trkpt>
      <trkpt lat="42.73006" lon="1.85929">
        <ele>1108</ele>
        <time>2016-11-12T09:51:17Z</time>
      </trkpt>
      <trkpt lat="42.73007" lon="1.85934">
        <ele>1108</ele>
        <time>2016-11-12T09:51:22Z</time>
      </trkpt>
      <trkpt lat="42.73008" lon="1.85942">
        <ele>1108</ele>
        <time>2016-11-12T09:51:27Z</time>
      </trkpt>
      <trkpt lat="42.73009" lon="1.85951">
        <ele>1108</ele>
        <time>2016-11-12T09:51:32Z</time>
      </trkpt>
      <trkpt lat="42.7301" lon="1.85959">
        <ele>1112</ele>
        <time>2016-11-12T09:51:37Z</time>
      </trkpt>
      <trkpt lat="42.73009" lon="1.85966">
        <ele>1112</ele>
        <time>2016-11-12T09:51:42Z</time>
      </trkpt>
      <trkpt lat="42.73009" lon="1.85979">
        <ele>1112</ele>
        <time>2016-11-12T09:51:47Z</time>
      </trkpt>
      <trkpt lat="42.73008" lon="1.85989">
        <ele>1112</ele>
        <time>2016-11-12T09:51:52Z</time>
      </trkpt>
      <trkpt lat="42.73009" lon="1.85996">
        <ele>1112</ele>
        <time>2016-11-12T09:51:57Z</time>
      </trkpt>
      <trkpt lat="42.73007" lon="1.86002">
        <ele>1112</ele>
        <time>2016-11-12T09:52:02Z</time>
      </trkpt>
      <trkpt lat="42.73006" lon="1.86009">
        <ele>1112</ele>
        <time>2016-11-12T09:52:07Z</time>
      </trkpt>
      <trkpt lat="42.73005" lon="1.86017">
        <ele>1112</ele>
        <time>2016-11-12T09:52:12Z</time>
      </trkpt>
      <trkpt lat="42.73004" lon="1.86026">
        <ele>1112</ele>
        <time>2016-11-12T09:52:17Z</time>
      </trkpt>
      <trkpt lat="42.73004" lon="1.86033">
        <ele>1112</ele>
        <time>2016-11-12T09:52:22Z</time>
      </trkpt>
      <trkpt lat="42.73003" lon="1.8604">
        <ele>1112</ele>
        <time>2016-11-12T09:52:27Z</time>
      </trkpt>
      <trkpt lat="42.73003" lon="1.86048">
        <ele>1118</ele>
        <time>2016-11-12T09:52:32Z</time>
      </trkpt>
      <trkpt lat="42.73003" lon="1.86056">
        <ele>1118</ele>
        <time>2016-11-12T09:52:37Z</time>
      </trkpt>
      <trkpt lat="42.73004" lon="1.86062">
        <ele>1118</ele>
        <time>2016-11-12T09:52:42Z</time>
      </trkpt>
      <trkpt lat="42.73005" lon="1.8607">
        <ele>1118</ele>
        <time>2016-11-12T09:52:47Z</time>
      </trkpt>
      <trkpt lat="42.73005" lon="1.86077">
        <ele>1118</ele>
        <time>2016-11-12T09:52:52Z</time>
      </trkpt>
      <trkpt lat="42.73005" lon="1.86083">
        <ele>1118</ele>
        <time>2016-11-12T09:52:57Z</time>
      </trkpt>
      <trkpt lat="42.73004" lon="1.8609">
        <ele>1118</ele>
        <time>2016-11-12T09:53:02Z</time>
      </trkpt>
      <trkpt lat="42.73004" lon="1.86099">
        <ele>1118</ele>
        <time>2016-11-12T09:53:07Z</time>
      </trkpt>
      <trkpt lat="42.73005" lon="1.86107">
        <ele>1118</ele>
        <time>2016-11-12T09:53:12Z</time>
      </trkpt>
      <trkpt lat="42.73004" lon="1.86115">
        <ele>1118</ele>
        <time>2016-11-12T09:53:17Z</time>
      </trkpt>
      <trkpt lat="42.73002" lon="1.86122">
        <ele>1118</ele>
        <time>2016-11-12T09:53:22Z</time>
      </trkpt>
      <trkpt lat="42.73001" lon="1.86129">
        <ele>1128</ele>
        <time>2016-11-12T09:53:27Z</time>
      </trkpt>
      <trkpt lat="42.73001" lon="1.86134">
        <ele>1128</ele>
        <time>2016-11-12T09:53:32Z</time>
      </trkpt>
      <trkpt lat="42.73" lon="1.86137">
        <ele>1128</ele>
        <time>2016-11-12T09:53:37Z</time>
      </trkpt>
      <trkpt lat="42.72998" lon="1.86144">
        <ele>1128</ele>
        <time>2016-11-12T09:53:42Z</time>
      </trkpt>
      <trkpt lat="42.72997" lon="1.86152">
        <ele>1128</ele>
        <time>2016-11-12T09:53:47Z</time>
      </trkpt>
      <trkpt lat="42.72995" lon="1.86158">
        <ele>1128</ele>
        <time>2016-11-12T09:53:52Z</time>
      </trkpt>
      <trkpt lat="42.72996" lon="1.86163">
        <ele>1128</ele>
        <time>2016-11-12T09:53:57Z</time>
      </trkpt>
      <trkpt lat="42.72994" lon="1.86167">
        <ele>1128</ele>
        <time>2016-11-12T09:54:02Z</time>
      </trkpt>
      <trkpt lat="42.72993" lon="1.86172">
        <ele>1128</ele>
        <time>2016-11-12T09:54:07Z</time>
      </trkpt>
      <trkpt lat="42.72991" lon="1.86177">
        <ele>1128</ele>
        <time>2016-11-12T09:54:12Z</time>
      </trkpt>
      <trkpt lat="42.72988" lon="1.86184">
        <ele>1128</ele>
        <time>2016-11-12T09:54:17Z</time>
      </trkpt>
      <trkpt lat="42.72987" lon="1.86188">
        <ele>1128</ele>
        <time>2016-11-12T09:54:22Z</time>
      </trkpt>
      <trkpt lat="42.72984" lon="1.86193">
        <ele>1128</ele>
        <time>2016-11-12T09:54:27Z</time>
      </trkpt>
      <trkpt lat="42.72981" lon="1.86198">
        <ele>1128</ele>
        <time>2016-11-12T09:54:32Z</time>
      </trkpt>
      <trkpt lat="42.72978" lon="1.86201">
        <ele>1128</ele>
        <time>2016-11-12T09:54:37Z</time>
      </trkpt>
      <trkpt lat="42.72976" lon="1.86206">
        <ele>1128</ele>
        <time>2016-11-12T09:54:42Z</time>
      </trkpt>
      <trkpt lat="42.72973" lon="1.86211">
        <ele>1138</ele>
        <time>2016-11-12T09:54:47Z</time>
      </trkpt>
      <trkpt lat="42.72973" lon="1.86214">
        <ele>1138</ele>
        <time>2016-11-12T09:54:52Z</time>
      </trkpt>
      <trkpt lat="42.72973" lon="1.8622">
        <ele>1138</ele>
        <time>2016-11-12T09:54:57Z</time>
      </trkpt>
      <trkpt lat="42.72972" lon="1.86225">
        <ele>1138</ele>
        <time>2016-11-12T09:55:02Z</time>
      </trkpt>
      <trkpt lat="42.72972" lon="1.86231">
        <ele>1138</ele>
        <time>2016-11-12T09:55:07Z</time>
      </trkpt>
      <trkpt lat="42.72971" lon="1.86238">
        <ele>1138</ele>
        <time>2016-11-12T09:55:12Z</time>
      </trkpt>
      <trkpt lat="42.72971" lon="1.86243">
        <ele>1138</ele>
        <time>2016-11-12T09:55:17Z</time>
      </trkpt>
      <trkpt lat="42.7297" lon="1.86248">
        <ele>1138</ele>
        <time>2016-11-12T09:55:22Z</time>
      </trkpt>
      <trkpt lat="42.72971" lon="1.86254">
        <ele>1138</ele>
        <time>2016-11-12T09:55:27Z</time>
      </trkpt>
      <trkpt lat="42.7297" lon="1.86259">
        <ele>1138</ele>
        <time>2016-11-12T09:55:32Z</time>
      </trkpt>
      <trkpt lat="42.72969" lon="1.86264">
        <ele>1138</ele>
        <time>2016-11-12T09:55:37Z</time>
      </trkpt>
      <trkpt lat="42.72969" lon="1.86268">
        <ele>1138</ele>
        <time>2016-11-12T09:55:42Z</time>
      </trkpt>
      <trkpt lat="42.72969" lon="1.8627">
        <ele>1138</ele>
        <time>2016-11-12T09:55:47Z</time>
      </trkpt>
      <trkpt lat="42.7297" lon="1.86273">
        <ele>1138</ele>
        <time>2016-11-12T09:55:52Z</time>
      </trkpt>
      <trkpt lat="42.7297" lon="1.86279">
        <ele>1138</ele>
        <time>2016-11-12T09:55:57Z</time>
      </trkpt>
      <trkpt lat="42.7297" lon="1.86285">
        <ele>1138</ele>
        <time>2016-11-12T09:56:02Z</time>
      </trkpt>
      <trkpt lat="42.72971" lon="1.86291">
        <ele>1138</ele>
        <time>2016-11-12T09:56:07Z</time>
      </trkpt>
      <trkpt lat="42.72971" lon="1.86295">
        <ele>1150</ele>
        <time>2016-11-12T09:56:12Z</time>
      </trkpt>
      <trkpt lat="42.72969" lon="1.863">
        <ele>1150</ele>
        <time>2016-11-12T09:56:17Z</time>
      </trkpt>
      <trkpt lat="42.72969" lon="1.86304">
        <ele>1150</ele>
        <time>2016-11-12T09:56:22Z</time>
      </trkpt>
      <trkpt lat="42.72971" lon="1.8631">
        <ele>1150</ele>
        <time>2016-11-12T09:56:27Z</time>
      </trkpt>
      <trkpt lat="42.72972" lon="1.86315">
        <ele>1150</ele>
        <time>2016-11-12T09:56:32Z</time>
      </trkpt>
      <trkpt lat="42.72973" lon="1.86319">
        <ele>1150</ele>
        <time>2016-11-12T09:56:37Z</time>
      </trkpt>
      <trkpt lat="42.72972" lon="1.86324">
        <ele>1150</ele>
        <time>2016-11-12T09:56:42Z</time>
      </trkpt>
      <trkpt lat="42.72968" lon="1.86326">
        <ele>1150</ele>
        <time>2016-11-12T09:56:47Z</time>
      </trkpt>
      <trkpt lat="42.72965" lon="1.86329">
        <ele>1150</ele>
        <time>2016-11-12T09:56:52Z</time>
      </trkpt>
      <trkpt lat="42.72963" lon="1.86331">
        <ele>1150</ele>
        <time>2016-11-12T09:56:57Z</time>
      </trkpt>
      <trkpt lat="42.72959" lon="1.86335">
        <ele>1150</ele>
        <time>2016-11-12T09:57:02Z</time>
      </trkpt>
      <trkpt lat="42.72958" lon="1.86339">
        <ele>1141</ele>
        <time>2016-11-12T09:57:07Z</time>
      </trkpt>
      <trkpt lat="42.72956" lon="1.86346">
        <ele>1141</ele>
        <time>2016-11-12T09:57:12Z</time>
      </trkpt>
      <trkpt lat="42.72952" lon="1.86355">
        <ele>1141</ele>
        <time>2016-11-12T09:57:17Z</time>
      </trkpt>
      <trkpt lat="42.72951" lon="1.86361">
        <ele>1141</ele>
        <time>2016-11-12T09:57:22Z</time>
      </trkpt>
      <trkpt lat="42.72951" lon="1.86368">
        <ele>1141</ele>
        <time>2016-11-12T09:57:27Z</time>
      </trkpt>
      <trkpt lat="42.7295" lon="1.86376">
        <ele>1152</ele>
        <time>2016-11-12T09:57:32Z</time>
      </trkpt>
      <trkpt lat="42.7295" lon="1.86382">
        <ele>1152</ele>
        <time>2016-11-12T09:57:37Z</time>
      </trkpt>
      <trkpt lat="42.7295" lon="1.86389">
        <ele>1152</ele>
        <time>2016-11-12T09:57:42Z</time>
      </trkpt>
      <trkpt lat="42.72949" lon="1.86397">
        <ele>1152</ele>
        <time>2016-11-12T09:57:47Z</time>
      </trkpt>
      <trkpt lat="42.72949" lon="1.86404">
        <ele>1152</ele>
        <time>2016-11-12T09:57:52Z</time>
      </trkpt>
      <trkpt lat="42.72948" lon="1.8641">
        <ele>1152</ele>
        <time>2016-11-12T09:57:57Z</time>
      </trkpt>
      <trkpt lat="42.72947" lon="1.86416">
        <ele>1152</ele>
        <time>2016-11-12T09:58:02Z</time>
      </trkpt>
      <trkpt lat="42.72948" lon="1.86423">
        <ele>1152</ele>
        <time>2016-11-12T09:58:07Z</time>
      </trkpt>
      <trkpt lat="42.72948" lon="1.86431">
        <ele>1152</ele>
        <time>2016-11-12T09:58:12Z</time>
      </trkpt>
      <trkpt lat="42.72947" lon="1.86438">
        <ele>1152</ele>
        <time>2016-11-12T09:58:17Z</time>
      </trkpt>
      <trkpt lat="42.72947" lon="1.86444">
        <ele>1152</ele>
        <time>2016-11-12T09:58:22Z</time>
      </trkpt>
      <trkpt lat="42.72947" lon="1.86451">
        <ele>1152</ele>
        <time>2016-11-12T09:58:27Z</time>
      </trkpt>
      <trkpt lat="42.72947" lon="1.86457">
        <ele>1152</ele>
        <time>2016-11-12T09:58:32Z</time>
      </trkpt>
      <trkpt lat="42.72948" lon="1.86463">
        <ele>1160</ele>
        <time>2016-11-12T09:58:37Z</time>
      </trkpt>
      <trkpt lat="42.72947" lon="1.8647">
        <ele>1160</ele>
        <time>2016-11-12T09:58:42Z</time>
      </trkpt>
      <trkpt lat="42.72945" lon="1.86477">
        <ele>1160</ele>
        <time>2016-11-12T09:58:47Z</time>
      </trkpt>
      <trkpt lat="42.72942" lon="1.86484">
        <ele>1160</ele>
        <time>2016-11-12T09:58:52Z</time>
      </trkpt>
      <trkpt lat="42.72941" lon="1.8649">
        <ele>1160</ele>
        <time>2016-11-12T09:58:57Z</time>
      </trkpt>
      <trkpt lat="42.72939" lon="1.86496">
        <ele>1160</ele>
        <time>2016-11-12T09:59:02Z</time>
      </trkpt>
      <trkpt lat="42.72937" lon="1.86501">
        <ele>1160</ele>
        <time>2016-11-12T09:59:07Z</time>
      </trkpt>
      <trkpt lat="42.72936" lon="1.86505">
        <ele>1160</ele>
        <time>2016-11-12T09:59:12Z</time>
      </trkpt>
      <trkpt lat="42.72934" lon="1.86511">
        <ele>1160</ele>
        <time>2016-11-12T09:59:17Z</time>
      </trkpt>
      <trkpt lat="42.7293" lon="1.86518">
        <ele>1160</ele>
        <time>2016-11-12T09:59:22Z</time>
      </trkpt>
      <trkpt lat="42.72929" lon="1.86524">
        <ele>1160</ele>
        <time>2016-11-12T09:59:27Z</time>
      </trkpt>
      <trkpt lat="42.72929" lon="1.86532">
        <ele>1160</ele>
        <time>2016-11-12T09:59:32Z</time>
      </trkpt>
      <trkpt lat="42.72929" lon="1.86537">
        <ele>1160</ele>
        <time>2016-11-12T09:59:37Z</time>
      </trkpt>
      <trkpt lat="42.72928" lon="1.8654">
        <ele>1160</ele>
        <time>2016-11-12T09:59:42Z</time>
      </trkpt>
      <trkpt lat="42.72924" lon="1.86545">
        <ele>1165</ele>
        <time>2016-11-12T09:59:47Z</time>
      </trkpt>
      <trkpt lat="42.72922" lon="1.86554">
        <ele>1165</ele>
        <time>2016-11-12T09:59:52Z</time>
      </trkpt>
      <trkpt lat="42.72921" lon="1.86563">
        <ele>1165</ele>
        <time>2016-11-12T09:59:57Z</time>
      </trkpt>
      <trkpt lat="42.72918" lon="1.86568">
        <ele>1165</ele>
        <time>2016-11-12T10:00:02Z</time>
      </trkpt>
      <trkpt lat="42.72918" lon="1.86573">
        <ele>1165</ele>
        <time>2016-11-12T10:00:07Z</time>
      </trkpt>
      <trkpt lat="42.72919" lon="1.86582">
        <ele>1165</ele>
        <time>2016-11-12T10:00:12Z</time>
      </trkpt>
      <trkpt lat="42.72919" lon="1.86589">
        <ele>1165</ele>
        <time>2016-11-12T10:00:17Z</time>
      </trkpt>
      <trkpt lat="42.7292" lon="1.86597">
        <ele>1165</ele>
        <time>2016-11-12T10:00:22Z</time>
      </trkpt>
      <trkpt lat="42.72919" lon="1.86604">
        <ele>1165</ele>
        <time>2016-11-12T10:00:27Z</time>
      </trkpt>
      <trkpt lat="42.72918" lon="1.86608">
        <ele>1165</ele>
        <time>2016-11-12T10:00:32Z</time>
      </trkpt>
      <trkpt lat="42.72917" lon="1.86616">
        <ele>1165</ele>
        <time>2016-11-12T10:00:37Z</time>
      </trkpt>
      <trkpt lat="42.72916" lon="1.86624">
        <ele>1165</ele>
        <time>2016-11-12T10:00:42Z</time>
      </trkpt>
      <trkpt lat="42.72913" lon="1.86632">
        <ele>1171</ele>
        <time>2016-11-12T10:00:47Z</time>
      </trkpt>
      <trkpt lat="42.7291" lon="1.86641">
        <ele>1171</ele>
        <time>2016-11-12T10:00:52Z</time>
      </trkpt>
      <trkpt lat="42.72909" lon="1.86651">
        <ele>1171</ele>
        <time>2016-11-12T10:00:57Z</time>
      </trkpt>
      <trkpt lat="42.72908" lon="1.8666">
        <ele>1171</ele>
        <time>2016-11-12T10:01:02Z</time>
      </trkpt>
      <trkpt lat="42.72907" lon="1.86666">
        <ele>1171</ele>
        <time>2016-11-12T10:01:07Z</time>
      </trkpt>
      <trkpt lat="42.72905" lon="1.86672">
        <ele>1171</ele>
        <time>2016-11-12T10:01:12Z</time>
      </trkpt>
      <trkpt lat="42.72903" lon="1.86678">
        <ele>1171</ele>
        <time>2016-11-12T10:01:17Z</time>
      </trkpt>
      <trkpt lat="42.72901" lon="1.86686">
        <ele>1171</ele>
        <time>2016-11-12T10:01:22Z</time>
      </trkpt>
      <trkpt lat="42.72897" lon="1.86692">
        <ele>1171</ele>
        <time>2016-11-12T10:01:27Z</time>
      </trkpt>
      <trkpt lat="42.72896" lon="1.86697">
        <ele>1171</ele>
        <time>2016-11-12T10:01:32Z</time>
      </trkpt>
      <trkpt lat="42.72894" lon="1.86707">
        <ele>1171</ele>
        <time>2016-11-12T10:01:37Z</time>
      </trkpt>
      <trkpt lat="42.72896" lon="1.86718">
        <ele>1177</ele>
        <time>2016-11-12T10:01:42Z</time>
      </trkpt>
      <trkpt lat="42.72896" lon="1.86725">
        <ele>1177</ele>
        <time>2016-11-12T10:01:47Z</time>
      </trkpt>
      <trkpt lat="42.72895" lon="1.86734">
        <ele>1177</ele>
        <time>2016-11-12T10:01:52Z</time>
      </trkpt>
      <trkpt lat="42.72894" lon="1.86741">
        <ele>1177</ele>
        <time>2016-11-12T10:01:57Z</time>
      </trkpt>
      <trkpt lat="42.72893" lon="1.86748">
        <ele>1177</ele>
        <time>2016-11-12T10:02:02Z</time>
      </trkpt>
      <trkpt lat="42.72893" lon="1.86757">
        <ele>1177</ele>
        <time>2016-11-12T10:02:07Z</time>
      </trkpt>
      <trkpt lat="42.72892" lon="1.86765">
        <ele>1177</ele>
        <time>2016-11-12T10:02:12Z</time>
      </trkpt>
      <trkpt lat="42.72891" lon="1.86772">
        <ele>1177</ele>
        <time>2016-11-12T10:02:17Z</time>
      </trkpt>
      <trkpt lat="42.72889" lon="1.86782">
        <ele>1177</ele>
        <time>2016-11-12T10:02:22Z</time>
      </trkpt>
      <trkpt lat="42.72888" lon="1.86791">
        <ele>1177</ele>
        <time>2016-11-12T10:02:27Z</time>
      </trkpt>
      <trkpt lat="42.72888" lon="1.86798">
        <ele>1185</ele>
        <time>2016-11-12T10:02:32Z</time>
      </trkpt>
      <trkpt lat="42.72889" lon="1.86803">
        <ele>1185</ele>
        <time>2016-11-12T10:02:37Z</time>
      </trkpt>
      <trkpt lat="42.72888" lon="1.86811">
        <ele>1185</ele>
        <time>2016-11-12T10:02:42Z</time>
      </trkpt>
      <trkpt lat="42.72887" lon="1.8682">
        <ele>1185</ele>
        <time>2016-11-12T10:02:47Z</time>
      </trkpt>
      <trkpt lat="42.72885" lon="1.86829">
        <ele>1185</ele>
        <time>2016-11-12T10:02:52Z</time>
      </trkpt>
      <trkpt lat="42.72883" lon="1.86837">
        <ele>1185</ele>
        <time>2016-11-12T10:02:57Z</time>
      </trkpt>
      <trkpt lat="42.72881" lon="1.86845">
        <ele>1185</ele>
        <time>2016-11-12T10:03:02Z</time>
      </trkpt>
      <trkpt lat="42.72879" lon="1.86852">
        <ele>1185</ele>
        <time>2016-11-12T10:03:07Z</time>
      </trkpt>
      <trkpt lat="42.72877" lon="1.86856">
        <ele>1185</ele>
        <time>2016-11-12T10:03:12Z</time>
      </trkpt>
      <trkpt lat="42.72874" lon="1.86862">
        <ele>1169</ele>
        <time>2016-11-12T10:03:17Z</time>
      </trkpt>
      <trkpt lat="42.7287" lon="1.8687">
        <ele>1169</ele>
        <time>2016-11-12T10:03:22Z</time>
      </trkpt>
      <trkpt lat="42.72865" lon="1.86877">
        <ele>1175</ele>
        <time>2016-11-12T10:03:27Z</time>
      </trkpt>
      <trkpt lat="42.72862" lon="1.86882">
        <ele>1175</ele>
        <time>2016-11-12T10:03:32Z</time>
      </trkpt>
      <trkpt lat="42.72858" lon="1.86889">
        <ele>1175</ele>
        <time>2016-11-12T10:03:37Z</time>
      </trkpt>
      <trkpt lat="42.72854" lon="1.86894">
        <ele>1175</ele>
        <time>2016-11-12T10:03:42Z</time>
      </trkpt>
      <trkpt lat="42.72849" lon="1.86902">
        <ele>1175</ele>
        <time>2016-11-12T10:03:47Z</time>
      </trkpt>
      <trkpt lat="42.72849" lon="1.86909">
        <ele>1175</ele>
        <time>2016-11-12T10:03:52Z</time>
      </trkpt>
      <trkpt lat="42.72847" lon="1.86918">
        <ele>1175</ele>
        <time>2016-11-12T10:03:57Z</time>
      </trkpt>
      <trkpt lat="42.72844" lon="1.86927">
        <ele>1175</ele>
        <time>2016-11-12T10:04:02Z</time>
      </trkpt>
      <trkpt lat="42.72842" lon="1.86933">
        <ele>1175</ele>
        <time>2016-11-12T10:04:07Z</time>
      </trkpt>
      <trkpt lat="42.72839" lon="1.8694">
        <ele>1175</ele>
        <time>2016-11-12T10:04:12Z</time>
      </trkpt>
      <trkpt lat="42.72834" lon="1.86952">
        <ele>1175</ele>
        <time>2016-11-12T10:04:17Z</time>
      </trkpt>
      <trkpt lat="42.72833" lon="1.86961">
        <ele>1185</ele>
        <time>2016-11-12T10:04:22Z</time>
      </trkpt>
      <trkpt lat="42.72831" lon="1.8697">
        <ele>1185</ele>
        <time>2016-11-12T10:04:27Z</time>
      </trkpt>
      <trkpt lat="42.72831" lon="1.86975">
        <ele>1185</ele>
        <time>2016-11-12T10:04:32Z</time>
      </trkpt>
      <trkpt lat="42.72826" lon="1.86983">
        <ele>1185</ele>
        <time>2016-11-12T10:04:37Z</time>
      </trkpt>
      <trkpt lat="42.72824" lon="1.86992">
        <ele>1185</ele>
        <time>2016-11-12T10:04:42Z</time>
      </trkpt>
      <trkpt lat="42.72819" lon="1.86996">
        <ele>1185</ele>
        <time>2016-11-12T10:04:47Z</time>
      </trkpt>
      <trkpt lat="42.72815" lon="1.87003">
        <ele>1185</ele>
        <time>2016-11-12T10:04:52Z</time>
      </trkpt>
      <trkpt lat="42.72811" lon="1.87007">
        <ele>1185</ele>
        <time>2016-11-12T10:04:57Z</time>
      </trkpt>
      <trkpt lat="42.72808" lon="1.8701">
        <ele>1185</ele>
        <time>2016-11-12T10:05:02Z</time>
      </trkpt>
      <trkpt lat="42.72804" lon="1.87013">
        <ele>1185</ele>
        <time>2016-11-12T10:05:07Z</time>
      </trkpt>
      <trkpt lat="42.728" lon="1.87017">
        <ele>1185</ele>
        <time>2016-11-12T10:05:12Z</time>
      </trkpt>
      <trkpt lat="42.72795" lon="1.87023">
        <ele>1185</ele>
        <time>2016-11-12T10:05:17Z</time>
      </trkpt>
      <trkpt lat="42.72791" lon="1.87029">
        <ele>1189</ele>
        <time>2016-11-12T10:05:22Z</time>
      </trkpt>
      <trkpt lat="42.72786" lon="1.87035">
        <ele>1189</ele>
        <time>2016-11-12T10:05:27Z</time>
      </trkpt>
      <trkpt lat="42.72782" lon="1.87042">
        <ele>1188</ele>
        <time>2016-11-12T10:05:32Z</time>
      </trkpt>
      <trkpt lat="42.72776" lon="1.87051">
        <ele>1188</ele>
        <time>2016-11-12T10:05:37Z</time>
      </trkpt>
      <trkpt lat="42.72772" lon="1.87058">
        <ele>1188</ele>
        <time>2016-11-12T10:05:42Z</time>
      </trkpt>
      <trkpt lat="42.7277" lon="1.87065">
        <ele>1188</ele>
        <time>2016-11-12T10:05:47Z</time>
      </trkpt>
      <trkpt lat="42.72766" lon="1.8707">
        <ele>1188</ele>
        <time>2016-11-12T10:05:52Z</time>
      </trkpt>
      <trkpt lat="42.72763" lon="1.87076">
        <ele>1188</ele>
        <time>2016-11-12T10:05:57Z</time>
      </trkpt>
      <trkpt lat="42.72759" lon="1.87083">
        <ele>1188</ele>
        <time>2016-11-12T10:06:02Z</time>
      </trkpt>
      <trkpt lat="42.72756" lon="1.87089">
        <ele>1188</ele>
        <time>2016-11-12T10:06:07Z</time>
      </trkpt>
      <trkpt lat="42.72753" lon="1.87095">
        <ele>1188</ele>
        <time>2016-11-12T10:06:12Z</time>
      </trkpt>
      <trkpt lat="42.72751" lon="1.87102">
        <ele>1188</ele>
        <time>2016-11-12T10:06:17Z</time>
      </trkpt>
      <trkpt lat="42.7275" lon="1.87109">
        <ele>1188</ele>
        <time>2016-11-12T10:06:22Z</time>
      </trkpt>
      <trkpt lat="42.72751" lon="1.87115">
        <ele>1188</ele>
        <time>2016-11-12T10:06:27Z</time>
      </trkpt>
      <trkpt lat="42.72751" lon="1.87124">
        <ele>1188</ele>
        <time>2016-11-12T10:06:32Z</time>
      </trkpt>
      <trkpt lat="42.7275" lon="1.8713">
        <ele>1192</ele>
        <time>2016-11-12T10:06:37Z</time>
      </trkpt>
      <trkpt lat="42.72748" lon="1.87135">
        <ele>1192</ele>
        <time>2016-11-12T10:06:42Z</time>
      </trkpt>
      <trkpt lat="42.72746" lon="1.87143">
        <ele>1192</ele>
        <time>2016-11-12T10:06:47Z</time>
      </trkpt>
      <trkpt lat="42.72745" lon="1.8715">
        <ele>1192</ele>
        <time>2016-11-12T10:06:52Z</time>
      </trkpt>
      <trkpt lat="42.72743" lon="1.87158">
        <ele>1192</ele>
        <time>2016-11-12T10:06:57Z</time>
      </trkpt>
      <trkpt lat="42.72743" lon="1.87167">
        <ele>1192</ele>
        <time>2016-11-12T10:07:02Z</time>
      </trkpt>
      <trkpt lat="42.72742" lon="1.87175">
        <ele>1192</ele>
        <time>2016-11-12T10:07:07Z</time>
      </trkpt>
      <trkpt lat="42.72743" lon="1.87182">
        <ele>1192</ele>
        <time>2016-11-12T10:07:12Z</time>
      </trkpt>
      <trkpt lat="42.72744" lon="1.87191">
        <ele>1192</ele>
        <time>2016-11-12T10:07:17Z</time>
      </trkpt>
      <trkpt lat="42.72745" lon="1.87197">
        <ele>1192</ele>
        <time>2016-11-12T10:07:22Z</time>
      </trkpt>
      <trkpt lat="42.72747" lon="1.87205">
        <ele>1192</ele>
        <time>2016-11-12T10:07:27Z</time>
      </trkpt>
      <trkpt lat="42.72747" lon="1.87211">
        <ele>1200</ele>
        <time>2016-11-12T10:07:32Z</time>
      </trkpt>
      <trkpt lat="42.72749" lon="1.87222">
        <ele>1200</ele>
        <time>2016-11-12T10:07:37Z</time>
      </trkpt>
      <trkpt lat="42.72747" lon="1.87226">
        <ele>1200</ele>
        <time>2016-11-12T10:07:42Z</time>
      </trkpt>
      <trkpt lat="42.72744" lon="1.87232">
        <ele>1200</ele>
        <time>2016-11-12T10:07:47Z</time>
      </trkpt>
      <trkpt lat="42.72741" lon="1.8724">
        <ele>1200</ele>
        <time>2016-11-12T10:07:52Z</time>
      </trkpt>
      <trkpt lat="42.72739" lon="1.87243">
        <ele>1200</ele>
        <time>2016-11-12T10:07:57Z</time>
      </trkpt>
      <trkpt lat="42.7274" lon="1.87246">
        <ele>1200</ele>
        <time>2016-11-12T10:08:02Z</time>
      </trkpt>
      <trkpt lat="42.72741" lon="1.87246">
        <ele>1200</ele>
        <time>2016-11-12T10:08:07Z</time>
      </trkpt>
      <trkpt lat="42.72741" lon="1.8725">
        <ele>1200</ele>
        <time>2016-11-12T10:08:12Z</time>
      </trkpt>
      <trkpt lat="42.7274" lon="1.87253">
        <ele>1200</ele>
        <time>2016-11-12T10:08:17Z</time>
      </trkpt>
      <trkpt lat="42.7274" lon="1.87254">
        <ele>1200</ele>
        <time>2016-11-12T10:08:22Z</time>
      </trkpt>
      <trkpt lat="42.7274" lon="1.87254">
        <ele>1200</ele>
        <time>2016-11-12T10:08:27Z</time>
      </trkpt>
      <trkpt lat="42.72739" lon="1.87253">
        <ele>1200</ele>
        <time>2016-11-12T10:08:32Z</time>
      </trkpt>
      <trkpt lat="42.72738" lon="1.87253">
        <ele>1200</ele>
        <time>2016-11-12T10:08:37Z</time>
      </trkpt>
      <trkpt lat="42.72738" lon="1.87252">
        <ele>1200</ele>
        <time>2016-11-12T10:08:42Z</time>
      </trkpt>
      <trkpt lat="42.72737" lon="1.87255">
        <ele>1200</ele>
        <time>2016-11-12T10:08:47Z</time>
      </trkpt>
      <trkpt lat="42.72735" lon="1.87258">
        <ele>1200</ele>
        <time>2016-11-12T10:08:52Z</time>
      </trkpt>
      <trkpt lat="42.72733" lon="1.87261">
        <ele>1200</ele>
        <time>2016-11-12T10:08:57Z</time>
      </trkpt>
      <trkpt lat="42.72735" lon="1.87263">
        <ele>1200</ele>
        <time>2016-11-12T10:09:02Z</time>
      </trkpt>
      <trkpt lat="42.72736" lon="1.87263">
        <ele>1200</ele>
        <time>2016-11-12T10:09:07Z</time>
      </trkpt>
      <trkpt lat="42.72736" lon="1.87263">
        <ele>1200</ele>
        <time>2016-11-12T10:09:12Z</time>
      </trkpt>
      <trkpt lat="42.72737" lon="1.87262">
        <ele>1200</ele>
        <time>2016-11-12T10:09:17Z</time>
      </trkpt>
      <trkpt lat="42.72737" lon="1.87263">
        <ele>1200</ele>
        <time>2016-11-12T10:09:22Z</time>
      </trkpt>
      <trkpt lat="42.72737" lon="1.87264">
        <ele>1200</ele>
        <time>2016-11-12T10:09:27Z</time>
      </trkpt>
      <trkpt lat="42.72737" lon="1.87265">
        <ele>1200</ele>
        <time>2016-11-12T10:09:32Z</time>
      </trkpt>
      <trkpt lat="42.72736" lon="1.87266">
        <ele>1200</ele>
        <time>2016-11-12T10:09:37Z</time>
      </trkpt>
      <trkpt lat="42.72736" lon="1.87265">
        <ele>1200</ele>
        <time>2016-11-12T10:09:42Z</time>
      </trkpt>
      <trkpt lat="42.72738" lon="1.87258">
        <ele>1200</ele>
        <time>2016-11-12T10:09:47Z</time>
      </trkpt>
      <trkpt lat="42.72744" lon="1.87252">
        <ele>1200</ele>
        <time>2016-11-12T10:09:52Z</time>
      </trkpt>
      <trkpt lat="42.72745" lon="1.87251">
        <ele>1200</ele>
        <time>2016-11-12T10:09:57Z</time>
      </trkpt>
      <trkpt lat="42.72745" lon="1.87251">
        <ele>1200</ele>
        <time>2016-11-12T10:10:02Z</time>
      </trkpt>
      <trkpt lat="42.72745" lon="1.87251">
        <ele>1200</ele>
        <time>2016-11-12T10:10:07Z</time>
      </trkpt>
      <trkpt lat="42.72745" lon="1.8725">
        <ele>1200</ele>
        <time>2016-11-12T10:10:12Z</time>
      </trkpt>
      <trkpt lat="42.72745" lon="1.8725">
        <ele>1200</ele>
        <time>2016-11-12T10:10:17Z</time>
      </trkpt>
      <trkpt lat="42.72745" lon="1.87249">
        <ele>1200</ele>
        <time>2016-11-12T10:10:22Z</time>
      </trkpt>
      <trkpt lat="42.72744" lon="1.87249">
        <ele>1200</ele>
        <time>2016-11-12T10:10:27Z</time>
      </trkpt>
      <trkpt lat="42.72744" lon="1.87249">
        <ele>1200</ele>
        <time>2016-11-12T10:10:32Z</time>
      </trkpt>
      <trkpt lat="42.72744" lon="1.87249">
        <ele>1200</ele>
        <time>2016-11-12T10:10:37Z</time>
      </trkpt>
      <trkpt lat="42.72746" lon="1.87248">
        <ele>1200</ele>
        <time>2016-11-12T10:10:42Z</time>
      </trkpt>
      <trkpt lat="42.72747" lon="1.87248">
        <ele>1200</ele>
        <time>2016-11-12T10:10:47Z</time>
      </trkpt>
      <trkpt lat="42.72747" lon="1.87247">
        <ele>1200</ele>
        <time>2016-11-12T10:10:52Z</time>
      </trkpt>
      <trkpt lat="42.72748" lon="1.87247">
        <ele>1200</ele>
        <time>2016-11-12T10:10:57Z</time>
      </trkpt>
      <trkpt lat="42.72749" lon="1.87249">
        <ele>1200</ele>
        <time>2016-11-12T10:11:02Z</time>
      </trkpt>
      <trkpt lat="42.72749" lon="1.87254">
        <ele>1200</ele>
        <time>2016-11-12T10:11:07Z</time>
      </trkpt>
      <trkpt lat="42.72748" lon="1.87256">
        <ele>1200</ele>
        <time>2016-11-12T10:11:12Z</time>
      </trkpt>
      <trkpt lat="42.72745" lon="1.87258">
        <ele>1200</ele>
        <time>2016-11-12T10:11:17Z</time>
      </trkpt>
      <trkpt lat="42.72744" lon="1.8726">
        <ele>1200</ele>
        <time>2016-11-12T10:11:22Z</time>
      </trkpt>
      <trkpt lat="42.72745" lon="1.87265">
        <ele>1200</ele>
        <time>2016-11-12T10:11:27Z</time>
      </trkpt>
      <trkpt lat="42.72745" lon="1.87269">
        <ele>1200</ele>
        <time>2016-11-12T10:11:32Z</time>
      </trkpt>
      <trkpt lat="42.72743" lon="1.87274">
        <ele>1200</ele>
        <time>2016-11-12T10:11:37Z</time>
      </trkpt>
      <trkpt lat="42.72742" lon="1.87279">
        <ele>1200</ele>
        <time>2016-11-12T10:11:42Z</time>
      </trkpt>
      <trkpt lat="42.72742" lon="1.87285">
        <ele>1200</ele>
        <time>2016-11-12T10:11:47Z</time>
      </trkpt>
      <trkpt lat="42.7274" lon="1.87294">
        <ele>1213</ele>
        <time>2016-11-12T10:11:52Z</time>
      </trkpt>
      <trkpt lat="42.72739" lon="1.873">
        <ele>1213</ele>
        <time>2016-11-12T10:11:57Z</time>
      </trkpt>
      <trkpt lat="42.72738" lon="1.87303">
        <ele>1213</ele>
        <time>2016-11-12T10:12:02Z</time>
      </trkpt>
      <trkpt lat="42.72738" lon="1.87309">
        <ele>1213</ele>
        <time>2016-11-12T10:12:07Z</time>
      </trkpt>
      <trkpt lat="42.72736" lon="1.87314">
        <ele>1213</ele>
        <time>2016-11-12T10:12:12Z</time>
      </trkpt>
      <trkpt lat="42.72733" lon="1.87317">
        <ele>1213</ele>
        <time>2016-11-12T10:12:17Z</time>
      </trkpt>
      <trkpt lat="42.72732" lon="1.87321">
        <ele>1213</ele>
        <time>2016-11-12T10:12:22Z</time>
      </trkpt>
      <trkpt lat="42.72731" lon="1.87323">
        <ele>1213</ele>
        <time>2016-11-12T10:12:27Z</time>
      </trkpt>
      <trkpt lat="42.72728" lon="1.87325">
        <ele>1213</ele>
        <time>2016-11-12T10:12:32Z</time>
      </trkpt>
      <trkpt lat="42.72726" lon="1.87328">
        <ele>1213</ele>
        <time>2016-11-12T10:12:37Z</time>
      </trkpt>
      <trkpt lat="42.72724" lon="1.87333">
        <ele>1213</ele>
        <time>2016-11-12T10:12:42Z</time>
      </trkpt>
      <trkpt lat="42.72724" lon="1.87339">
        <ele>1213</ele>
        <time>2016-11-12T10:12:47Z</time>
      </trkpt>
      <trkpt lat="42.72723" lon="1.87343">
        <ele>1213</ele>
        <time>2016-11-12T10:12:52Z</time>
      </trkpt>
      <trkpt lat="42.72722" lon="1.87348">
        <ele>1213</ele>
        <time>2016-11-12T10:12:57Z</time>
      </trkpt>
      <trkpt lat="42.7272" lon="1.87354">
        <ele>1213</ele>
        <time>2016-11-12T10:13:02Z</time>
      </trkpt>
      <trkpt lat="42.72719" lon="1.8736">
        <ele>1213</ele>
        <time>2016-11-12T10:13:07Z</time>
      </trkpt>
      <trkpt lat="42.72719" lon="1.87363">
        <ele>1213</ele>
        <time>2016-11-12T10:13:12Z</time>
      </trkpt>
      <trkpt lat="42.72717" lon="1.87366">
        <ele>1213</ele>
        <time>2016-11-12T10:13:17Z</time>
      </trkpt>
      <trkpt lat="42.72718" lon="1.8737">
        <ele>1213</ele>
        <time>2016-11-12T10:13:22Z</time>
      </trkpt>
      <trkpt lat="42.72717" lon="1.87376">
        <ele>1238</ele>
        <time>2016-11-12T10:13:27Z</time>
      </trkpt>
      <trkpt lat="42.72716" lon="1.8738">
        <ele>1238</ele>
        <time>2016-11-12T10:13:32Z</time>
      </trkpt>
      <trkpt lat="42.72715" lon="1.87386">
        <ele>1238</ele>
        <time>2016-11-12T10:13:37Z</time>
      </trkpt>
      <trkpt lat="42.72714" lon="1.87389">
        <ele>1238</ele>
        <time>2016-11-12T10:13:42Z</time>
      </trkpt>
      <trkpt lat="42.72713" lon="1.87391">
        <ele>1238</ele>
        <time>2016-11-12T10:13:47Z</time>
      </trkpt>
      <trkpt lat="42.72712" lon="1.87395">
        <ele>1238</ele>
        <time>2016-11-12T10:13:52Z</time>
      </trkpt>
      <trkpt lat="42.72711" lon="1.87399">
        <ele>1238</ele>
        <time>2016-11-12T10:13:57Z</time>
      </trkpt>
      <trkpt lat="42.72711" lon="1.874">
        <ele>1238</ele>
        <time>2016-11-12T10:14:02Z</time>
      </trkpt>
      <trkpt lat="42.72711" lon="1.87399">
        <ele>1238</ele>
        <time>2016-11-12T10:14:07Z</time>
      </trkpt>
      <trkpt lat="42.72711" lon="1.87399">
        <ele>1238</ele>
        <time>2016-11-12T10:14:12Z</time>
      </trkpt>
      <trkpt lat="42.72712" lon="1.87403">
        <ele>1238</ele>
        <time>2016-11-12T10:14:17Z</time>
      </trkpt>
      <trkpt lat="42.72714" lon="1.87406">
        <ele>1238</ele>
        <time>2016-11-12T10:14:22Z</time>
      </trkpt>
      <trkpt lat="42.72714" lon="1.8741">
        <ele>1238</ele>
        <time>2016-11-12T10:14:27Z</time>
      </trkpt>
      <trkpt lat="42.72714" lon="1.87414">
        <ele>1238</ele>
        <time>2016-11-12T10:14:32Z</time>
      </trkpt>
      <trkpt lat="42.72715" lon="1.87416">
        <ele>1238</ele>
        <time>2016-11-12T10:14:37Z</time>
      </trkpt>
      <trkpt lat="42.72716" lon="1.87419">
        <ele>1238</ele>
        <time>2016-11-12T10:14:42Z</time>
      </trkpt>
      <trkpt lat="42.72718" lon="1.87423">
        <ele>1238</ele>
        <time>2016-11-12T10:14:47Z</time>
      </trkpt>
      <trkpt lat="42.72723" lon="1.87428">
        <ele>1238</ele>
        <time>2016-11-12T10:14:52Z</time>
      </trkpt>
      <trkpt lat="42.72725" lon="1.87431">
        <ele>1238</ele>
        <time>2016-11-12T10:14:57Z</time>
      </trkpt>
      <trkpt lat="42.72727" lon="1.87432">
        <ele>1238</ele>
        <time>2016-11-12T10:15:02Z</time>
      </trkpt>
      <trkpt lat="42.72726" lon="1.87435">
        <ele>1238</ele>
        <time>2016-11-12T10:15:07Z</time>
      </trkpt>
      <trkpt lat="42.72725" lon="1.87441">
        <ele>1238</ele>
        <time>2016-11-12T10:15:12Z</time>
      </trkpt>
      <trkpt lat="42.72726" lon="1.87442">
        <ele>1238</ele>
        <time>2016-11-12T10:15:17Z</time>
      </trkpt>
      <trkpt lat="42.72727" lon="1.87445">
        <ele>1238</ele>
        <time>2016-11-12T10:15:22Z</time>
      </trkpt>
      <trkpt lat="42.7273" lon="1.87449">
        <ele>1238</ele>
        <time>2016-11-12T10:15:27Z</time>
      </trkpt>
      <trkpt lat="42.72731" lon="1.87452">
        <ele>1238</ele>
        <time>2016-11-12T10:15:32Z</time>
      </trkpt>
      <trkpt lat="42.7273" lon="1.87454">
        <ele>1238</ele>
        <time>2016-11-12T10:15:37Z</time>
      </trkpt>
      <trkpt lat="42.7273" lon="1.87457">
        <ele>1238</ele>
        <time>2016-11-12T10:15:42Z</time>
      </trkpt>
      <trkpt lat="42.7273" lon="1.87459">
        <ele>1254</ele>
        <time>2016-11-12T10:15:47Z</time>
      </trkpt>
      <trkpt lat="42.72731" lon="1.87462">
        <ele>1254</ele>
        <time>2016-11-12T10:15:52Z</time>
      </trkpt>
      <trkpt lat="42.7273" lon="1.87467">
        <ele>1254</ele>
        <time>2016-11-12T10:15:57Z</time>
      </trkpt>
      <trkpt lat="42.72731" lon="1.87471">
        <ele>1254</ele>
        <time>2016-11-12T10:16:02Z</time>
      </trkpt>
      <trkpt lat="42.7273" lon="1.87473">
        <ele>1254</ele>
        <time>2016-11-12T10:16:07Z</time>
      </trkpt>
      <trkpt lat="42.7273" lon="1.87478">
        <ele>1254</ele>
        <time>2016-11-12T10:16:12Z</time>
      </trkpt>
      <trkpt lat="42.72732" lon="1.87483">
        <ele>1254</ele>
        <time>2016-11-12T10:16:17Z</time>
      </trkpt>
      <trkpt lat="42.72733" lon="1.87484">
        <ele>1254</ele>
        <time>2016-11-12T10:16:22Z</time>
      </trkpt>
      <trkpt lat="42.72734" lon="1.87488">
        <ele>1254</ele>
        <time>2016-11-12T10:16:27Z</time>
      </trkpt>
      <trkpt lat="42.72734" lon="1.87493">
        <ele>1254</ele>
        <time>2016-11-12T10:16:32Z</time>
      </trkpt>
      <trkpt lat="42.72733" lon="1.87498">
        <ele>1254</ele>
        <time>2016-11-12T10:16:37Z</time>
      </trkpt>
      <trkpt lat="42.72732" lon="1.87502">
        <ele>1254</ele>
        <time>2016-11-12T10:16:42Z</time>
      </trkpt>
      <trkpt lat="42.72732" lon="1.87506">
        <ele>1254</ele>
        <time>2016-11-12T10:16:47Z</time>
      </trkpt>
      <trkpt lat="42.72731" lon="1.87507">
        <ele>1254</ele>
        <time>2016-11-12T10:16:52Z</time>
      </trkpt>
      <trkpt lat="42.7273" lon="1.87509">
        <ele>1254</ele>
        <time>2016-11-12T10:16:57Z</time>
      </trkpt>
      <trkpt lat="42.72728" lon="1.87517">
        <ele>1254</ele>
        <time>2016-11-12T10:17:02Z</time>
      </trkpt>
      <trkpt lat="42.72726" lon="1.87521">
        <ele>1254</ele>
        <time>2016-11-12T10:17:07Z</time>
      </trkpt>
      <trkpt lat="42.72727" lon="1.87525">
        <ele>1254</ele>
        <time>2016-11-12T10:17:12Z</time>
      </trkpt>
      <trkpt lat="42.72729" lon="1.8753">
        <ele>1254</ele>
        <time>2016-11-12T10:17:17Z</time>
      </trkpt>
      <trkpt lat="42.72726" lon="1.87533">
        <ele>1254</ele>
        <time>2016-11-12T10:17:22Z</time>
      </trkpt>
      <trkpt lat="42.72726" lon="1.87537">
        <ele>1254</ele>
        <time>2016-11-12T10:17:27Z</time>
      </trkpt>
      <trkpt lat="42.72728" lon="1.8754">
        <ele>1254</ele>
        <time>2016-11-12T10:17:32Z</time>
      </trkpt>
      <trkpt lat="42.72729" lon="1.87544">
        <ele>1262</ele>
        <time>2016-11-12T10:17:37Z</time>
      </trkpt>
      <trkpt lat="42.7273" lon="1.87545">
        <ele>1262</ele>
        <time>2016-11-12T10:17:42Z</time>
      </trkpt>
      <trkpt lat="42.72731" lon="1.87545">
        <ele>1262</ele>
        <time>2016-11-12T10:17:47Z</time>
      </trkpt>
      <trkpt lat="42.72734" lon="1.87548">
        <ele>1262</ele>
        <time>2016-11-12T10:17:52Z</time>
      </trkpt>
      <trkpt lat="42.72737" lon="1.87551">
        <ele>1262</ele>
        <time>2016-11-12T10:17:57Z</time>
      </trkpt>
      <trkpt lat="42.72738" lon="1.87553">
        <ele>1262</ele>
        <time>2016-11-12T10:18:02Z</time>
      </trkpt>
      <trkpt lat="42.72738" lon="1.87558">
        <ele>1262</ele>
        <time>2016-11-12T10:18:07Z</time>
      </trkpt>
      <trkpt lat="42.72737" lon="1.87562">
        <ele>1262</ele>
        <time>2016-11-12T10:18:12Z</time>
      </trkpt>
      <trkpt lat="42.72736" lon="1.87566">
        <ele>1262</ele>
        <time>2016-11-12T10:18:17Z</time>
      </trkpt>
      <trkpt lat="42.72736" lon="1.8757">
        <ele>1262</ele>
        <time>2016-11-12T10:18:22Z</time>
      </trkpt>
      <trkpt lat="42.72734" lon="1.87574">
        <ele>1262</ele>
        <time>2016-11-12T10:18:27Z</time>
      </trkpt>
      <trkpt lat="42.72732" lon="1.8758">
        <ele>1262</ele>
        <time>2016-11-12T10:18:32Z</time>
      </trkpt>
      <trkpt lat="42.72733" lon="1.87586">
        <ele>1262</ele>
        <time>2016-11-12T10:18:37Z</time>
      </trkpt>
      <trkpt lat="42.72734" lon="1.87588">
        <ele>1262</ele>
        <time>2016-11-12T10:18:42Z</time>
      </trkpt>
      <trkpt lat="42.72734" lon="1.87588">
        <ele>1262</ele>
        <time>2016-11-12T10:18:47Z</time>
      </trkpt>
      <trkpt lat="42.72735" lon="1.87588">
        <ele>1262</ele>
        <time>2016-11-12T10:18:52Z</time>
      </trkpt>
      <trkpt lat="42.72736" lon="1.87589">
        <ele>1262</ele>
        <time>2016-11-12T10:18:57Z</time>
      </trkpt>
      <trkpt lat="42.72738" lon="1.87591">
        <ele>1262</ele>
        <time>2016-11-12T10:19:02Z</time>
      </trkpt>
      <trkpt lat="42.72739" lon="1.87591">
        <ele>1262</ele>
        <time>2016-11-12T10:19:07Z</time>
      </trkpt>
      <trkpt lat="42.72739" lon="1.87591">
        <ele>1262</ele>
        <time>2016-11-12T10:19:12Z</time>
      </trkpt>
      <trkpt lat="42.72739" lon="1.87591">
        <ele>1262</ele>
        <time>2016-11-12T10:19:17Z</time>
      </trkpt>
      <trkpt lat="42.72739" lon="1.87591">
        <ele>1262</ele>
        <time>2016-11-12T10:19:22Z</time>
      </trkpt>
      <trkpt lat="42.72739" lon="1.87593">
        <ele>1262</ele>
        <time>2016-11-12T10:19:27Z</time>
      </trkpt>
      <trkpt lat="42.7274" lon="1.87594">
        <ele>1262</ele>
        <time>2016-11-12T10:19:32Z</time>
      </trkpt>
      <trkpt lat="42.72742" lon="1.87595">
        <ele>1262</ele>
        <time>2016-11-12T10:19:37Z</time>
      </trkpt>
      <trkpt lat="42.72742" lon="1.87595">
        <ele>1262</ele>
        <time>2016-11-12T10:19:42Z</time>
      </trkpt>
      <trkpt lat="42.72742" lon="1.87595">
        <ele>1262</ele>
        <time>2016-11-12T10:19:47Z</time>
      </trkpt>
      <trkpt lat="42.72741" lon="1.87594">
        <ele>1262</ele>
        <time>2016-11-12T10:19:52Z</time>
      </trkpt>
      <trkpt lat="42.72744" lon="1.87599">
        <ele>1262</ele>
        <time>2016-11-12T10:19:57Z</time>
      </trkpt>
      <trkpt lat="42.72748" lon="1.87603">
        <ele>1262</ele>
        <time>2016-11-12T10:20:02Z</time>
      </trkpt>
      <trkpt lat="42.72752" lon="1.87605">
        <ele>1262</ele>
        <time>2016-11-12T10:20:07Z</time>
      </trkpt>
      <trkpt lat="42.72755" lon="1.87604">
        <ele>1262</ele>
        <time>2016-11-12T10:20:12Z</time>
      </trkpt>
      <trkpt lat="42.72763" lon="1.87605">
        <ele>1262</ele>
        <time>2016-11-12T10:20:17Z</time>
      </trkpt>
      <trkpt lat="42.72764" lon="1.87605">
        <ele>1262</ele>
        <time>2016-11-12T10:20:22Z</time>
      </trkpt>
      <trkpt lat="42.72765" lon="1.87605">
        <ele>1262</ele>
        <time>2016-11-12T10:20:27Z</time>
      </trkpt>
      <trkpt lat="42.72768" lon="1.87599">
        <ele>1262</ele>
        <time>2016-11-12T10:20:32Z</time>
      </trkpt>
      <trkpt lat="42.72769" lon="1.87596">
        <ele>1262</ele>
        <time>2016-11-12T10:20:37Z</time>
      </trkpt>
      <trkpt lat="42.72769" lon="1.87594">
        <ele>1262</ele>
        <time>2016-11-12T10:20:42Z</time>
      </trkpt>
      <trkpt lat="42.72769" lon="1.87594">
        <ele>1262</ele>
        <time>2016-11-12T10:20:47Z</time>
      </trkpt>
      <trkpt lat="42.7277" lon="1.87595">
        <ele>1262</ele>
        <time>2016-11-12T10:20:52Z</time>
      </trkpt>
      <trkpt lat="42.7277" lon="1.87595">
        <ele>1262</ele>
        <time>2016-11-12T10:20:57Z</time>
      </trkpt>
      <trkpt lat="42.7277" lon="1.87595">
        <ele>1262</ele>
        <time>2016-11-12T10:21:02Z</time>
      </trkpt>
      <trkpt lat="42.7277" lon="1.87597">
        <ele>1262</ele>
        <time>2016-11-12T10:21:07Z</time>
      </trkpt>
      <trkpt lat="42.72771" lon="1.87598">
        <ele>1262</ele>
        <time>2016-11-12T10:21:12Z</time>
      </trkpt>
      <trkpt lat="42.72773" lon="1.87602">
        <ele>1262</ele>
        <time>2016-11-12T10:21:17Z</time>
      </trkpt>
      <trkpt lat="42.72776" lon="1.87604">
        <ele>1262</ele>
        <time>2016-11-12T10:21:22Z</time>
      </trkpt>
      <trkpt lat="42.72778" lon="1.87606">
        <ele>1262</ele>
        <time>2016-11-12T10:21:27Z</time>
      </trkpt>
      <trkpt lat="42.72781" lon="1.87609">
        <ele>1262</ele>
        <time>2016-11-12T10:21:32Z</time>
      </trkpt>
      <trkpt lat="42.72785" lon="1.87612">
        <ele>1262</ele>
        <time>2016-11-12T10:21:37Z</time>
      </trkpt>
      <trkpt lat="42.7279" lon="1.87611">
        <ele>1262</ele>
        <time>2016-11-12T10:21:42Z</time>
      </trkpt>
      <trkpt lat="42.72793" lon="1.8761">
        <ele>1283</ele>
        <time>2016-11-12T10:21:47Z</time>
      </trkpt>
      <trkpt lat="42.72799" lon="1.87609">
        <ele>1283</ele>
        <time>2016-11-12T10:21:52Z</time>
      </trkpt>
      <trkpt lat="42.72801" lon="1.8761">
        <ele>1283</ele>
        <time>2016-11-12T10:21:57Z</time>
      </trkpt>
      <trkpt lat="42.72806" lon="1.87609">
        <ele>1283</ele>
        <time>2016-11-12T10:22:02Z</time>
      </trkpt>
      <trkpt lat="42.72811" lon="1.87607">
        <ele>1283</ele>
        <time>2016-11-12T10:22:07Z</time>
      </trkpt>
      <trkpt lat="42.72815" lon="1.87604">
        <ele>1283</ele>
        <time>2016-11-12T10:22:12Z</time>
      </trkpt>
      <trkpt lat="42.7282" lon="1.87606">
        <ele>1283</ele>
        <time>2016-11-12T10:22:17Z</time>
      </trkpt>
      <trkpt lat="42.7282" lon="1.87607">
        <ele>1283</ele>
        <time>2016-11-12T10:22:22Z</time>
      </trkpt>
      <trkpt lat="42.72821" lon="1.87613">
        <ele>1283</ele>
        <time>2016-11-12T10:22:27Z</time>
      </trkpt>
      <trkpt lat="42.7282" lon="1.87616">
        <ele>1283</ele>
        <time>2016-11-12T10:22:32Z</time>
      </trkpt>
      <trkpt lat="42.72823" lon="1.87619">
        <ele>1283</ele>
        <time>2016-11-12T10:22:37Z</time>
      </trkpt>
      <trkpt lat="42.72826" lon="1.87625">
        <ele>1284</ele>
        <time>2016-11-12T10:22:42Z</time>
      </trkpt>
      <trkpt lat="42.72828" lon="1.8763">
        <ele>1284</ele>
        <time>2016-11-12T10:22:47Z</time>
      </trkpt>
      <trkpt lat="42.72828" lon="1.87635">
        <ele>1284</ele>
        <time>2016-11-12T10:22:52Z</time>
      </trkpt>
      <trkpt lat="42.7283" lon="1.87641">
        <ele>1284</ele>
        <time>2016-11-12T10:22:57Z</time>
      </trkpt>
      <trkpt lat="42.72832" lon="1.87646">
        <ele>1284</ele>
        <time>2016-11-12T10:23:02Z</time>
      </trkpt>
      <trkpt lat="42.72834" lon="1.87652">
        <ele>1284</ele>
        <time>2016-11-12T10:23:07Z</time>
      </trkpt>
      <trkpt lat="42.72835" lon="1.87658">
        <ele>1284</ele>
        <time>2016-11-12T10:23:12Z</time>
      </trkpt>
      <trkpt lat="42.7284" lon="1.87662">
        <ele>1284</ele>
        <time>2016-11-12T10:23:17Z</time>
      </trkpt>
      <trkpt lat="42.72841" lon="1.87665">
        <ele>1284</ele>
        <time>2016-11-12T10:23:22Z</time>
      </trkpt>
      <trkpt lat="42.72844" lon="1.87669">
        <ele>1284</ele>
        <time>2016-11-12T10:23:27Z</time>
      </trkpt>
      <trkpt lat="42.72844" lon="1.87669">
        <ele>1284</ele>
        <time>2016-11-12T10:23:32Z</time>
      </trkpt>
      <trkpt lat="42.72844" lon="1.87669">
        <ele>1284</ele>
        <time>2016-11-12T10:23:37Z</time>
      </trkpt>
      <trkpt lat="42.72845" lon="1.87669">
        <ele>1284</ele>
        <time>2016-11-12T10:23:42Z</time>
      </trkpt>
      <trkpt lat="42.72845" lon="1.8767">
        <ele>1284</ele>
        <time>2016-11-12T10:23:47Z</time>
      </trkpt>
      <trkpt lat="42.72845" lon="1.8767">
        <ele>1284</ele>
        <time>2016-11-12T10:23:52Z</time>
      </trkpt>
      <trkpt lat="42.72845" lon="1.8767">
        <ele>1284</ele>
        <time>2016-11-12T10:23:57Z</time>
      </trkpt>
      <trkpt lat="42.72847" lon="1.87672">
        <ele>1284</ele>
        <time>2016-11-12T10:24:02Z</time>
      </trkpt>
      <trkpt lat="42.72851" lon="1.87677">
        <ele>1284</ele>
        <time>2016-11-12T10:24:07Z</time>
      </trkpt>
      <trkpt lat="42.72853" lon="1.87681">
        <ele>1284</ele>
        <time>2016-11-12T10:24:12Z</time>
      </trkpt>
      <trkpt lat="42.72854" lon="1.87687">
        <ele>1284</ele>
        <time>2016-11-12T10:24:17Z</time>
      </trkpt>
      <trkpt lat="42.72854" lon="1.87688">
        <ele>1284</ele>
        <time>2016-11-12T10:24:22Z</time>
      </trkpt>
      <trkpt lat="42.72857" lon="1.87692">
        <ele>1284</ele>
        <time>2016-11-12T10:24:27Z</time>
      </trkpt>
      <trkpt lat="42.72858" lon="1.87698">
        <ele>1284</ele>
        <time>2016-11-12T10:24:32Z</time>
      </trkpt>
      <trkpt lat="42.72862" lon="1.87704">
        <ele>1284</ele>
        <time>2016-11-12T10:24:37Z</time>
      </trkpt>
      <trkpt lat="42.72865" lon="1.87705">
        <ele>1284</ele>
        <time>2016-11-12T10:24:42Z</time>
      </trkpt>
      <trkpt lat="42.72868" lon="1.87703">
        <ele>1284</ele>
        <time>2016-11-12T10:24:47Z</time>
      </trkpt>
      <trkpt lat="42.72869" lon="1.87701">
        <ele>1284</ele>
        <time>2016-11-12T10:24:52Z</time>
      </trkpt>
      <trkpt lat="42.72869" lon="1.87697">
        <ele>1284</ele>
        <time>2016-11-12T10:24:57Z</time>
      </trkpt>
      <trkpt lat="42.72871" lon="1.87691">
        <ele>1284</ele>
        <time>2016-11-12T10:25:02Z</time>
      </trkpt>
      <trkpt lat="42.72872" lon="1.87687">
        <ele>1284</ele>
        <time>2016-11-12T10:25:07Z</time>
      </trkpt>
      <trkpt lat="42.72872" lon="1.87685">
        <ele>1284</ele>
        <time>2016-11-12T10:25:12Z</time>
      </trkpt>
      <trkpt lat="42.72873" lon="1.87678">
        <ele>1284</ele>
        <time>2016-11-12T10:25:17Z</time>
      </trkpt>
      <trkpt lat="42.72874" lon="1.87676">
        <ele>1284</ele>
        <time>2016-11-12T10:25:22Z</time>
      </trkpt>
      <trkpt lat="42.72876" lon="1.87671">
        <ele>1320</ele>
        <time>2016-11-12T10:25:27Z</time>
      </trkpt>
      <trkpt lat="42.72878" lon="1.87666">
        <ele>1320</ele>
        <time>2016-11-12T10:25:32Z</time>
      </trkpt>
      <trkpt lat="42.7288" lon="1.87662">
        <ele>1320</ele>
        <time>2016-11-12T10:25:37Z</time>
      </trkpt>
      <trkpt lat="42.72882" lon="1.87652">
        <ele>1320</ele>
        <time>2016-11-12T10:25:42Z</time>
      </trkpt>
      <trkpt lat="42.72884" lon="1.87647">
        <ele>1320</ele>
        <time>2016-11-12T10:25:47Z</time>
      </trkpt>
      <trkpt lat="42.72885" lon="1.87641">
        <ele>1320</ele>
        <time>2016-11-12T10:25:52Z</time>
      </trkpt>
      <trkpt lat="42.72886" lon="1.87633">
        <ele>1320</ele>
        <time>2016-11-12T10:25:57Z</time>
      </trkpt>
      <trkpt lat="42.72888" lon="1.87626">
        <ele>1320</ele>
        <time>2016-11-12T10:26:02Z</time>
      </trkpt>
      <trkpt lat="42.72889" lon="1.8762">
        <ele>1313</ele>
        <time>2016-11-12T10:26:07Z</time>
      </trkpt>
      <trkpt lat="42.72891" lon="1.87613">
        <ele>1313</ele>
        <time>2016-11-12T10:26:12Z</time>
      </trkpt>
      <trkpt lat="42.7289" lon="1.87604">
        <ele>1313</ele>
        <time>2016-11-12T10:26:17Z</time>
      </trkpt>
      <trkpt lat="42.72891" lon="1.87599">
        <ele>1313</ele>
        <time>2016-11-12T10:26:22Z</time>
      </trkpt>
      <trkpt lat="42.72894" lon="1.87592">
        <ele>1313</ele>
        <time>2016-11-12T10:26:27Z</time>
      </trkpt>
      <trkpt lat="42.72894" lon="1.8759">
        <ele>1313</ele>
        <time>2016-11-12T10:26:32Z</time>
      </trkpt>
      <trkpt lat="42.72894" lon="1.87587">
        <ele>1313</ele>
        <time>2016-11-12T10:26:37Z</time>
      </trkpt>
      <trkpt lat="42.72895" lon="1.87586">
        <ele>1313</ele>
        <time>2016-11-12T10:26:42Z</time>
      </trkpt>
      <trkpt lat="42.72898" lon="1.87586">
        <ele>1313</ele>
        <time>2016-11-12T10:26:47Z</time>
      </trkpt>
      <trkpt lat="42.72901" lon="1.87586">
        <ele>1313</ele>
        <time>2016-11-12T10:26:52Z</time>
      </trkpt>
      <trkpt lat="42.72905" lon="1.87584">
        <ele>1313</ele>
        <time>2016-11-12T10:26:57Z</time>
      </trkpt>
      <trkpt lat="42.72908" lon="1.87581">
        <ele>1313</ele>
        <time>2016-11-12T10:27:02Z</time>
      </trkpt>
      <trkpt lat="42.7291" lon="1.87579">
        <ele>1313</ele>
        <time>2016-11-12T10:27:07Z</time>
      </trkpt>
      <trkpt lat="42.72913" lon="1.87574">
        <ele>1313</ele>
        <time>2016-11-12T10:27:12Z</time>
      </trkpt>
      <trkpt lat="42.72917" lon="1.87569">
        <ele>1313</ele>
        <time>2016-11-12T10:27:17Z</time>
      </trkpt>
      <trkpt lat="42.7292" lon="1.87566">
        <ele>1313</ele>
        <time>2016-11-12T10:27:22Z</time>
      </trkpt>
      <trkpt lat="42.72923" lon="1.87559">
        <ele>1313</ele>
        <time>2016-11-12T10:27:27Z</time>
      </trkpt>
      <trkpt lat="42.72925" lon="1.87553">
        <ele>1313</ele>
        <time>2016-11-12T10:27:32Z</time>
      </trkpt>
      <trkpt lat="42.72928" lon="1.87546">
        <ele>1313</ele>
        <time>2016-11-12T10:27:37Z</time>
      </trkpt>
      <trkpt lat="42.72931" lon="1.8754">
        <ele>1294</ele>
        <time>2016-11-12T10:27:42Z</time>
      </trkpt>
      <trkpt lat="42.72933" lon="1.87534">
        <ele>1294</ele>
        <time>2016-11-12T10:27:47Z</time>
      </trkpt>
      <trkpt lat="42.72935" lon="1.87532">
        <ele>1294</ele>
        <time>2016-11-12T10:27:52Z</time>
      </trkpt>
      <trkpt lat="42.72939" lon="1.87528">
        <ele>1294</ele>
        <time>2016-11-12T10:27:57Z</time>
      </trkpt>
      <trkpt lat="42.7294" lon="1.87523">
        <ele>1294</ele>
        <time>2016-11-12T10:28:02Z</time>
      </trkpt>
      <trkpt lat="42.72942" lon="1.87519">
        <ele>1294</ele>
        <time>2016-11-12T10:28:07Z</time>
      </trkpt>
      <trkpt lat="42.72942" lon="1.87515">
        <ele>1294</ele>
        <time>2016-11-12T10:28:12Z</time>
      </trkpt>
      <trkpt lat="42.72941" lon="1.87514">
        <ele>1294</ele>
        <time>2016-11-12T10:28:17Z</time>
      </trkpt>
      <trkpt lat="42.72943" lon="1.87512">
        <ele>1294</ele>
        <time>2016-11-12T10:28:22Z</time>
      </trkpt>
      <trkpt lat="42.72947" lon="1.87512">
        <ele>1294</ele>
        <time>2016-11-12T10:28:27Z</time>
      </trkpt>
      <trkpt lat="42.72949" lon="1.87511">
        <ele>1294</ele>
        <time>2016-11-12T10:28:32Z</time>
      </trkpt>
      <trkpt lat="42.72951" lon="1.8751">
        <ele>1294</ele>
        <time>2016-11-12T10:28:37Z</time>
      </trkpt>
      <trkpt lat="42.72952" lon="1.87511">
        <ele>1294</ele>
        <time>2016-11-12T10:28:42Z</time>
      </trkpt>
      <trkpt lat="42.72951" lon="1.87514">
        <ele>1294</ele>
        <time>2016-11-12T10:28:47Z</time>
      </trkpt>
      <trkpt lat="42.7295" lon="1.87517">
        <ele>1294</ele>
        <time>2016-11-12T10:28:52Z</time>
      </trkpt>
      <trkpt lat="42.72951" lon="1.8752">
        <ele>1294</ele>
        <time>2016-11-12T10:28:57Z</time>
      </trkpt>
      <trkpt lat="42.72951" lon="1.87523">
        <ele>1294</ele>
        <time>2016-11-12T10:29:02Z</time>
      </trkpt>
      <trkpt lat="42.72951" lon="1.87526">
        <ele>1294</ele>
        <time>2016-11-12T10:29:07Z</time>
      </trkpt>
      <trkpt lat="42.72951" lon="1.87529">
        <ele>1294</ele>
        <time>2016-11-12T10:29:12Z</time>
      </trkpt>
      <trkpt lat="42.72951" lon="1.87532">
        <ele>1294</ele>
        <time>2016-11-12T10:29:17Z</time>
      </trkpt>
      <trkpt lat="42.7295" lon="1.87537">
        <ele>1294</ele>
        <time>2016-11-12T10:29:22Z</time>
      </trkpt>
      <trkpt lat="42.72949" lon="1.8754">
        <ele>1294</ele>
        <time>2016-11-12T10:29:27Z</time>
      </trkpt>
      <trkpt lat="42.72951" lon="1.87543">
        <ele>1313</ele>
        <time>2016-11-12T10:29:32Z</time>
      </trkpt>
      <trkpt lat="42.72952" lon="1.87548">
        <ele>1313</ele>
        <time>2016-11-12T10:29:37Z</time>
      </trkpt>
      <trkpt lat="42.72952" lon="1.87553">
        <ele>1313</ele>
        <time>2016-11-12T10:29:42Z</time>
      </trkpt>
      <trkpt lat="42.72951" lon="1.87559">
        <ele>1313</ele>
        <time>2016-11-12T10:29:47Z</time>
      </trkpt>
      <trkpt lat="42.72951" lon="1.87562">
        <ele>1313</ele>
        <time>2016-11-12T10:29:52Z</time>
      </trkpt>
      <trkpt lat="42.7295" lon="1.87567">
        <ele>1313</ele>
        <time>2016-11-12T10:29:57Z</time>
      </trkpt>
      <trkpt lat="42.7295" lon="1.87571">
        <ele>1313</ele>
        <time>2016-11-12T10:30:02Z</time>
      </trkpt>
      <trkpt lat="42.7295" lon="1.87577">
        <ele>1313</ele>
        <time>2016-11-12T10:30:07Z</time>
      </trkpt>
      <trkpt lat="42.72947" lon="1.87583">
        <ele>1313</ele>
        <time>2016-11-12T10:30:12Z</time>
      </trkpt>
      <trkpt lat="42.72945" lon="1.87588">
        <ele>1313</ele>
        <time>2016-11-12T10:30:17Z</time>
      </trkpt>
      <trkpt lat="42.72946" lon="1.87593">
        <ele>1313</ele>
        <time>2016-11-12T10:30:22Z</time>
      </trkpt>
      <trkpt lat="42.72946" lon="1.87596">
        <ele>1313</ele>
        <time>2016-11-12T10:30:27Z</time>
      </trkpt>
      <trkpt lat="42.72945" lon="1.876">
        <ele>1313</ele>
        <time>2016-11-12T10:30:32Z</time>
      </trkpt>
      <trkpt lat="42.72945" lon="1.87606">
        <ele>1313</ele>
        <time>2016-11-12T10:30:37Z</time>
      </trkpt>
      <trkpt lat="42.72945" lon="1.87609">
        <ele>1313</ele>
        <time>2016-11-12T10:30:42Z</time>
      </trkpt>
      <trkpt lat="42.72945" lon="1.87609">
        <ele>1313</ele>
        <time>2016-11-12T10:30:47Z</time>
      </trkpt>
      <trkpt lat="42.72945" lon="1.8761">
        <ele>1313</ele>
        <time>2016-11-12T10:30:52Z</time>
      </trkpt>
      <trkpt lat="42.72945" lon="1.8761">
        <ele>1313</ele>
        <time>2016-11-12T10:30:57Z</time>
      </trkpt>
      <trkpt lat="42.72945" lon="1.8761">
        <ele>1313</ele>
        <time>2016-11-12T10:31:02Z</time>
      </trkpt>
      <trkpt lat="42.72945" lon="1.8761">
        <ele>1313</ele>
        <time>2016-11-12T10:31:07Z</time>
      </trkpt>
      <trkpt lat="42.72946" lon="1.87614">
        <ele>1313</ele>
        <time>2016-11-12T10:31:12Z</time>
      </trkpt>
      <trkpt lat="42.72947" lon="1.87622">
        <ele>1313</ele>
        <time>2016-11-12T10:31:17Z</time>
      </trkpt>
      <trkpt lat="42.72948" lon="1.8763">
        <ele>1320</ele>
        <time>2016-11-12T10:31:22Z</time>
      </trkpt>
      <trkpt lat="42.72949" lon="1.87637">
        <ele>1320</ele>
        <time>2016-11-12T10:31:27Z</time>
      </trkpt>
      <trkpt lat="42.72949" lon="1.87642">
        <ele>1320</ele>
        <time>2016-11-12T10:31:32Z</time>
      </trkpt>
      <trkpt lat="42.72951" lon="1.87647">
        <ele>1320</ele>
        <time>2016-11-12T10:31:37Z</time>
      </trkpt>
      <trkpt lat="42.72951" lon="1.87651">
        <ele>1320</ele>
        <time>2016-11-12T10:31:42Z</time>
      </trkpt>
      <trkpt lat="42.72951" lon="1.87656">
        <ele>1320</ele>
        <time>2016-11-12T10:31:47Z</time>
      </trkpt>
      <trkpt lat="42.72952" lon="1.87658">
        <ele>1320</ele>
        <time>2016-11-12T10:31:52Z</time>
      </trkpt>
      <trkpt lat="42.72954" lon="1.87658">
        <ele>1320</ele>
        <time>2016-11-12T10:31:57Z</time>
      </trkpt>
      <trkpt lat="42.72954" lon="1.87658">
        <ele>1320</ele>
        <time>2016-11-12T10:32:02Z</time>
      </trkpt>
      <trkpt lat="42.72954" lon="1.87658">
        <ele>1320</ele>
        <time>2016-11-12T10:32:07Z</time>
      </trkpt>
      <trkpt lat="42.7296" lon="1.87662">
        <ele>1359</ele>
        <time>2016-11-12T10:32:12Z</time>
      </trkpt>
      <trkpt lat="42.72963" lon="1.87666">
        <ele>1359</ele>
        <time>2016-11-12T10:32:17Z</time>
      </trkpt>
      <trkpt lat="42.72966" lon="1.87671">
        <ele>1359</ele>
        <time>2016-11-12T10:32:22Z</time>
      </trkpt>
      <trkpt lat="42.72967" lon="1.87673">
        <ele>1359</ele>
        <time>2016-11-12T10:32:27Z</time>
      </trkpt>
      <trkpt lat="42.72967" lon="1.87676">
        <ele>1359</ele>
        <time>2016-11-12T10:32:32Z</time>
      </trkpt>
      <trkpt lat="42.72967" lon="1.87678">
        <ele>1359</ele>
        <time>2016-11-12T10:32:37Z</time>
      </trkpt>
      <trkpt lat="42.7297" lon="1.87683">
        <ele>1359</ele>
        <time>2016-11-12T10:32:42Z</time>
      </trkpt>
      <trkpt lat="42.7297" lon="1.87684">
        <ele>1359</ele>
        <time>2016-11-12T10:32:47Z</time>
      </trkpt>
      <trkpt lat="42.7297" lon="1.87685">
        <ele>1359</ele>
        <time>2016-11-12T10:32:52Z</time>
      </trkpt>
      <trkpt lat="42.7297" lon="1.87685">
        <ele>1359</ele>
        <time>2016-11-12T10:32:57Z</time>
      </trkpt>
      <trkpt lat="42.72971" lon="1.87685">
        <ele>1359</ele>
        <time>2016-11-12T10:33:02Z</time>
      </trkpt>
      <trkpt lat="42.72971" lon="1.87685">
        <ele>1359</ele>
        <time>2016-11-12T10:33:07Z</time>
      </trkpt>
      <trkpt lat="42.72971" lon="1.87685">
        <ele>1359</ele>
        <time>2016-11-12T10:33:12Z</time>
      </trkpt>
      <trkpt lat="42.72972" lon="1.87685">
        <ele>1359</ele>
        <time>2016-11-12T10:33:17Z</time>
      </trkpt>
      <trkpt lat="42.72972" lon="1.87685">
        <ele>1359</ele>
        <time>2016-11-12T10:33:22Z</time>
      </trkpt>
      <trkpt lat="42.72972" lon="1.87679">
        <ele>1359</ele>
        <time>2016-11-12T10:33:27Z</time>
      </trkpt>
      <trkpt lat="42.72972" lon="1.87679">
        <ele>1359</ele>
        <time>2016-11-12T10:33:32Z</time>
      </trkpt>
      <trkpt lat="42.72972" lon="1.8768">
        <ele>1359</ele>
        <time>2016-11-12T10:33:37Z</time>
      </trkpt>
      <trkpt lat="42.72972" lon="1.87681">
        <ele>1359</ele>
        <time>2016-11-12T10:33:42Z</time>
      </trkpt>
      <trkpt lat="42.72973" lon="1.87681">
        <ele>1359</ele>
        <time>2016-11-12T10:33:47Z</time>
      </trkpt>
      <trkpt lat="42.72976" lon="1.87688">
        <ele>1359</ele>
        <time>2016-11-12T10:33:52Z</time>
      </trkpt>
      <trkpt lat="42.72978" lon="1.87693">
        <ele>1359</ele>
        <time>2016-11-12T10:33:57Z</time>
      </trkpt>
      <trkpt lat="42.7298" lon="1.87696">
        <ele>1359</ele>
        <time>2016-11-12T10:34:02Z</time>
      </trkpt>
      <trkpt lat="42.72981" lon="1.877">
        <ele>1359</ele>
        <time>2016-11-12T10:34:07Z</time>
      </trkpt>
      <trkpt lat="42.72983" lon="1.87701">
        <ele>1359</ele>
        <time>2016-11-12T10:34:12Z</time>
      </trkpt>
      <trkpt lat="42.72984" lon="1.87701">
        <ele>1359</ele>
        <time>2016-11-12T10:34:17Z</time>
      </trkpt>
      <trkpt lat="42.72985" lon="1.877">
        <ele>1359</ele>
        <time>2016-11-12T10:34:22Z</time>
      </trkpt>
      <trkpt lat="42.72985" lon="1.87701">
        <ele>1359</ele>
        <time>2016-11-12T10:34:27Z</time>
      </trkpt>
      <trkpt lat="42.72985" lon="1.87701">
        <ele>1359</ele>
        <time>2016-11-12T10:34:32Z</time>
      </trkpt>
      <trkpt lat="42.72985" lon="1.87701">
        <ele>1359</ele>
        <time>2016-11-12T10:34:37Z</time>
      </trkpt>
      <trkpt lat="42.72985" lon="1.87701">
        <ele>1359</ele>
        <time>2016-11-12T10:34:42Z</time>
      </trkpt>
      <trkpt lat="42.72985" lon="1.87701">
        <ele>1359</ele>
        <time>2016-11-12T10:34:47Z</time>
      </trkpt>
      <trkpt lat="42.72985" lon="1.87701">
        <ele>1359</ele>
        <time>2016-11-12T10:34:52Z</time>
      </trkpt>
      <trkpt lat="42.72985" lon="1.87701">
        <ele>1359</ele>
        <time>2016-11-12T10:34:57Z</time>
      </trkpt>
      <trkpt lat="42.72986" lon="1.87701">
        <ele>1359</ele>
        <time>2016-11-12T10:35:02Z</time>
      </trkpt>
      <trkpt lat="42.72986" lon="1.87702">
        <ele>1359</ele>
        <time>2016-11-12T10:35:07Z</time>
      </trkpt>
      <trkpt lat="42.72988" lon="1.87702">
        <ele>1359</ele>
        <time>2016-11-12T10:35:12Z</time>
      </trkpt>
      <trkpt lat="42.72991" lon="1.877">
        <ele>1359</ele>
        <time>2016-11-12T10:35:17Z</time>
      </trkpt>
      <trkpt lat="42.72994" lon="1.87694">
        <ele>1359</ele>
        <time>2016-11-12T10:35:22Z</time>
      </trkpt>
      <trkpt lat="42.72994" lon="1.8769">
        <ele>1359</ele>
        <time>2016-11-12T10:35:27Z</time>
      </trkpt>
      <trkpt lat="42.72995" lon="1.87688">
        <ele>1359</ele>
        <time>2016-11-12T10:35:32Z</time>
      </trkpt>
      <trkpt lat="42.72995" lon="1.87681">
        <ele>1359</ele>
        <time>2016-11-12T10:35:37Z</time>
      </trkpt>
      <trkpt lat="42.72997" lon="1.87676">
        <ele>1359</ele>
        <time>2016-11-12T10:35:42Z</time>
      </trkpt>
      <trkpt lat="42.72999" lon="1.87673">
        <ele>1359</ele>
        <time>2016-11-12T10:35:47Z</time>
      </trkpt>
      <trkpt lat="42.73001" lon="1.87671">
        <ele>1359</ele>
        <time>2016-11-12T10:35:52Z</time>
      </trkpt>
      <trkpt lat="42.73004" lon="1.8767">
        <ele>1359</ele>
        <time>2016-11-12T10:35:57Z</time>
      </trkpt>
      <trkpt lat="42.73006" lon="1.87667">
        <ele>1359</ele>
        <time>2016-11-12T10:36:02Z</time>
      </trkpt>
      <trkpt lat="42.73008" lon="1.87662">
        <ele>1359</ele>
        <time>2016-11-12T10:36:07Z</time>
      </trkpt>
      <trkpt lat="42.7301" lon="1.87657">
        <ele>1359</ele>
        <time>2016-11-12T10:36:12Z</time>
      </trkpt>
      <trkpt lat="42.73012" lon="1.87654">
        <ele>1359</ele>
        <time>2016-11-12T10:36:17Z</time>
      </trkpt>
      <trkpt lat="42.73014" lon="1.87653">
        <ele>1359</ele>
        <time>2016-11-12T10:36:22Z</time>
      </trkpt>
      <trkpt lat="42.73017" lon="1.87652">
        <ele>1359</ele>
        <time>2016-11-12T10:36:27Z</time>
      </trkpt>
      <trkpt lat="42.73019" lon="1.87649">
        <ele>1359</ele>
        <time>2016-11-12T10:36:32Z</time>
      </trkpt>
      <trkpt lat="42.73022" lon="1.87646">
        <ele>1359</ele>
        <time>2016-11-12T10:36:37Z</time>
      </trkpt>
      <trkpt lat="42.73025" lon="1.87645">
        <ele>1359</ele>
        <time>2016-11-12T10:36:42Z</time>
      </trkpt>
      <trkpt lat="42.73027" lon="1.87643">
        <ele>1359</ele>
        <time>2016-11-12T10:36:47Z</time>
      </trkpt>
      <trkpt lat="42.7303" lon="1.87641">
        <ele>1359</ele>
        <time>2016-11-12T10:36:52Z</time>
      </trkpt>
      <trkpt lat="42.73032" lon="1.87641">
        <ele>1359</ele>
        <time>2016-11-12T10:36:57Z</time>
      </trkpt>
      <trkpt lat="42.73034" lon="1.87637">
        <ele>1359</ele>
        <time>2016-11-12T10:37:02Z</time>
      </trkpt>
      <trkpt lat="42.73036" lon="1.87632">
        <ele>1359</ele>
        <time>2016-11-12T10:37:07Z</time>
      </trkpt>
      <trkpt lat="42.73039" lon="1.8763">
        <ele>1359</ele>
        <time>2016-11-12T10:37:12Z</time>
      </trkpt>
      <trkpt lat="42.73039" lon="1.8763">
        <ele>1359</ele>
        <time>2016-11-12T10:37:17Z</time>
      </trkpt>
      <trkpt lat="42.73039" lon="1.87629">
        <ele>1359</ele>
        <time>2016-11-12T10:37:22Z</time>
      </trkpt>
      <trkpt lat="42.73039" lon="1.87629">
        <ele>1359</ele>
        <time>2016-11-12T10:37:27Z</time>
      </trkpt>
      <trkpt lat="42.7304" lon="1.87628">
        <ele>1359</ele>
        <time>2016-11-12T10:37:32Z</time>
      </trkpt>
      <trkpt lat="42.73038" lon="1.87627">
        <ele>1359</ele>
        <time>2016-11-12T10:37:37Z</time>
      </trkpt>
      <trkpt lat="42.73038" lon="1.87627">
        <ele>1359</ele>
        <time>2016-11-12T10:37:42Z</time>
      </trkpt>
      <trkpt lat="42.73038" lon="1.87626">
        <ele>1359</ele>
        <time>2016-11-12T10:37:47Z</time>
      </trkpt>
      <trkpt lat="42.73038" lon="1.87626">
        <ele>1359</ele>
        <time>2016-11-12T10:37:52Z</time>
      </trkpt>
      <trkpt lat="42.73038" lon="1.87626">
        <ele>1359</ele>
        <time>2016-11-12T10:37:57Z</time>
      </trkpt>
      <trkpt lat="42.73038" lon="1.87626">
        <ele>1359</ele>
        <time>2016-11-12T10:38:02Z</time>
      </trkpt>
      <trkpt lat="42.73037" lon="1.87626">
        <ele>1359</ele>
        <time>2016-11-12T10:38:07Z</time>
      </trkpt>
      <trkpt lat="42.73037" lon="1.87625">
        <ele>1359</ele>
        <time>2016-11-12T10:38:12Z</time>
      </trkpt>
      <trkpt lat="42.73038" lon="1.87623">
        <ele>1350</ele>
        <time>2016-11-12T10:38:17Z</time>
      </trkpt>
      <trkpt lat="42.73041" lon="1.87622">
        <ele>1350</ele>
        <time>2016-11-12T10:38:22Z</time>
      </trkpt>
      <trkpt lat="42.73046" lon="1.87623">
        <ele>1377</ele>
        <time>2016-11-12T10:38:27Z</time>
      </trkpt>
      <trkpt lat="42.7305" lon="1.87622">
        <ele>1377</ele>
        <time>2016-11-12T10:38:32Z</time>
      </trkpt>
      <trkpt lat="42.7305" lon="1.87621">
        <ele>1377</ele>
        <time>2016-11-12T10:38:37Z</time>
      </trkpt>
      <trkpt lat="42.73053" lon="1.87618">
        <ele>1377</ele>
        <time>2016-11-12T10:38:42Z</time>
      </trkpt>
      <trkpt lat="42.73055" lon="1.87616">
        <ele>1377</ele>
        <time>2016-11-12T10:38:47Z</time>
      </trkpt>
      <trkpt lat="42.73058" lon="1.87613">
        <ele>1377</ele>
        <time>2016-11-12T10:38:52Z</time>
      </trkpt>
      <trkpt lat="42.73063" lon="1.8761">
        <ele>1377</ele>
        <time>2016-11-12T10:38:57Z</time>
      </trkpt>
      <trkpt lat="42.73064" lon="1.87608">
        <ele>1377</ele>
        <time>2016-11-12T10:39:02Z</time>
      </trkpt>
      <trkpt lat="42.73066" lon="1.87611">
        <ele>1377</ele>
        <time>2016-11-12T10:39:07Z</time>
      </trkpt>
      <trkpt lat="42.73066" lon="1.87613">
        <ele>1377</ele>
        <time>2016-11-12T10:39:12Z</time>
      </trkpt>
      <trkpt lat="42.73065" lon="1.87617">
        <ele>1377</ele>
        <time>2016-11-12T10:39:17Z</time>
      </trkpt>
      <trkpt lat="42.73062" lon="1.87621">
        <ele>1377</ele>
        <time>2016-11-12T10:39:22Z</time>
      </trkpt>
      <trkpt lat="42.73061" lon="1.87624">
        <ele>1377</ele>
        <time>2016-11-12T10:39:27Z</time>
      </trkpt>
      <trkpt lat="42.73059" lon="1.87629">
        <ele>1390</ele>
        <time>2016-11-12T10:39:32Z</time>
      </trkpt>
      <trkpt lat="42.7306" lon="1.87633">
        <ele>1390</ele>
        <time>2016-11-12T10:39:37Z</time>
      </trkpt>
      <trkpt lat="42.73062" lon="1.87635">
        <ele>1390</ele>
        <time>2016-11-12T10:39:42Z</time>
      </trkpt>
      <trkpt lat="42.73063" lon="1.8764">
        <ele>1390</ele>
        <time>2016-11-12T10:39:47Z</time>
      </trkpt>
      <trkpt lat="42.73063" lon="1.87642">
        <ele>1390</ele>
        <time>2016-11-12T10:39:52Z</time>
      </trkpt>
      <trkpt lat="42.73067" lon="1.8765">
        <ele>1390</ele>
        <time>2016-11-12T10:39:57Z</time>
      </trkpt>
      <trkpt lat="42.7307" lon="1.87652">
        <ele>1390</ele>
        <time>2016-11-12T10:40:02Z</time>
      </trkpt>
      <trkpt lat="42.73069" lon="1.87655">
        <ele>1390</ele>
        <time>2016-11-12T10:40:07Z</time>
      </trkpt>
      <trkpt lat="42.7307" lon="1.87658">
        <ele>1390</ele>
        <time>2016-11-12T10:40:12Z</time>
      </trkpt>
      <trkpt lat="42.73074" lon="1.87663">
        <ele>1390</ele>
        <time>2016-11-12T10:40:17Z</time>
      </trkpt>
      <trkpt lat="42.73075" lon="1.87665">
        <ele>1390</ele>
        <time>2016-11-12T10:40:22Z</time>
      </trkpt>
      <trkpt lat="42.73074" lon="1.8767">
        <ele>1390</ele>
        <time>2016-11-12T10:40:27Z</time>
      </trkpt>
      <trkpt lat="42.73076" lon="1.87674">
        <ele>1390</ele>
        <time>2016-11-12T10:40:32Z</time>
      </trkpt>
      <trkpt lat="42.73078" lon="1.87678">
        <ele>1390</ele>
        <time>2016-11-12T10:40:37Z</time>
      </trkpt>
      <trkpt lat="42.73079" lon="1.87681">
        <ele>1390</ele>
        <time>2016-11-12T10:40:42Z</time>
      </trkpt>
      <trkpt lat="42.73082" lon="1.87685">
        <ele>1390</ele>
        <time>2016-11-12T10:40:47Z</time>
      </trkpt>
      <trkpt lat="42.73082" lon="1.87688">
        <ele>1390</ele>
        <time>2016-11-12T10:40:52Z</time>
      </trkpt>
      <trkpt lat="42.73082" lon="1.87691">
        <ele>1390</ele>
        <time>2016-11-12T10:40:57Z</time>
      </trkpt>
      <trkpt lat="42.73084" lon="1.87693">
        <ele>1390</ele>
        <time>2016-11-12T10:41:02Z</time>
      </trkpt>
      <trkpt lat="42.73084" lon="1.87692">
        <ele>1390</ele>
        <time>2016-11-12T10:41:07Z</time>
      </trkpt>
      <trkpt lat="42.73088" lon="1.87696">
        <ele>1390</ele>
        <time>2016-11-12T10:41:12Z</time>
      </trkpt>
      <trkpt lat="42.73093" lon="1.87695">
        <ele>1390</ele>
        <time>2016-11-12T10:41:17Z</time>
      </trkpt>
      <trkpt lat="42.73097" lon="1.87692">
        <ele>1390</ele>
        <time>2016-11-12T10:41:22Z</time>
      </trkpt>
      <trkpt lat="42.73099" lon="1.87689">
        <ele>1390</ele>
        <time>2016-11-12T10:41:27Z</time>
      </trkpt>
      <trkpt lat="42.73102" lon="1.87686">
        <ele>1390</ele>
        <time>2016-11-12T10:41:32Z</time>
      </trkpt>
      <trkpt lat="42.73106" lon="1.87682">
        <ele>1390</ele>
        <time>2016-11-12T10:41:37Z</time>
      </trkpt>
      <trkpt lat="42.73108" lon="1.87682">
        <ele>1390</ele>
        <time>2016-11-12T10:41:42Z</time>
      </trkpt>
      <trkpt lat="42.73111" lon="1.87683">
        <ele>1390</ele>
        <time>2016-11-12T10:41:47Z</time>
      </trkpt>
      <trkpt lat="42.73115" lon="1.87686">
        <ele>1390</ele>
        <time>2016-11-12T10:41:52Z</time>
      </trkpt>
      <trkpt lat="42.73114" lon="1.87688">
        <ele>1390</ele>
        <time>2016-11-12T10:41:57Z</time>
      </trkpt>
      <trkpt lat="42.73115" lon="1.8769">
        <ele>1390</ele>
        <time>2016-11-12T10:42:02Z</time>
      </trkpt>
      <trkpt lat="42.73117" lon="1.87694">
        <ele>1390</ele>
        <time>2016-11-12T10:42:07Z</time>
      </trkpt>
      <trkpt lat="42.73116" lon="1.87694">
        <ele>1390</ele>
        <time>2016-11-12T10:42:12Z</time>
      </trkpt>
      <trkpt lat="42.73116" lon="1.87694">
        <ele>1390</ele>
        <time>2016-11-12T10:42:17Z</time>
      </trkpt>
      <trkpt lat="42.73116" lon="1.87694">
        <ele>1390</ele>
        <time>2016-11-12T10:42:22Z</time>
      </trkpt>
      <trkpt lat="42.73116" lon="1.87694">
        <ele>1390</ele>
        <time>2016-11-12T10:42:27Z</time>
      </trkpt>
      <trkpt lat="42.73116" lon="1.87694">
        <ele>1390</ele>
        <time>2016-11-12T10:42:32Z</time>
      </trkpt>
      <trkpt lat="42.73118" lon="1.87697">
        <ele>1390</ele>
        <time>2016-11-12T10:42:37Z</time>
      </trkpt>
      <trkpt lat="42.73121" lon="1.87701">
        <ele>1390</ele>
        <time>2016-11-12T10:42:42Z</time>
      </trkpt>
      <trkpt lat="42.73123" lon="1.87706">
        <ele>1390</ele>
        <time>2016-11-12T10:42:47Z</time>
      </trkpt>
      <trkpt lat="42.73124" lon="1.8771">
        <ele>1397</ele>
        <time>2016-11-12T10:42:52Z</time>
      </trkpt>
      <trkpt lat="42.73125" lon="1.87713">
        <ele>1425</ele>
        <time>2016-11-12T10:42:57Z</time>
      </trkpt>
      <trkpt lat="42.73127" lon="1.87719">
        <ele>1425</ele>
        <time>2016-11-12T10:43:02Z</time>
      </trkpt>
      <trkpt lat="42.73133" lon="1.87722">
        <ele>1425</ele>
        <time>2016-11-12T10:43:07Z</time>
      </trkpt>
      <trkpt lat="42.73139" lon="1.8772">
        <ele>1425</ele>
        <time>2016-11-12T10:43:12Z</time>
      </trkpt>
      <trkpt lat="42.73143" lon="1.87718">
        <ele>1425</ele>
        <time>2016-11-12T10:43:17Z</time>
      </trkpt>
      <trkpt lat="42.73146" lon="1.87717">
        <ele>1425</ele>
        <time>2016-11-12T10:43:22Z</time>
      </trkpt>
      <trkpt lat="42.73152" lon="1.87717">
        <ele>1425</ele>
        <time>2016-11-12T10:43:27Z</time>
      </trkpt>
      <trkpt lat="42.73154" lon="1.87717">
        <ele>1425</ele>
        <time>2016-11-12T10:43:32Z</time>
      </trkpt>
      <trkpt lat="42.73156" lon="1.87721">
        <ele>1425</ele>
        <time>2016-11-12T10:43:37Z</time>
      </trkpt>
      <trkpt lat="42.7316" lon="1.87724">
        <ele>1425</ele>
        <time>2016-11-12T10:43:42Z</time>
      </trkpt>
      <trkpt lat="42.73164" lon="1.87724">
        <ele>1425</ele>
        <time>2016-11-12T10:43:47Z</time>
      </trkpt>
      <trkpt lat="42.73166" lon="1.87724">
        <ele>1425</ele>
        <time>2016-11-12T10:43:52Z</time>
      </trkpt>
      <trkpt lat="42.73173" lon="1.87725">
        <ele>1425</ele>
        <time>2016-11-12T10:43:57Z</time>
      </trkpt>
      <trkpt lat="42.73179" lon="1.87725">
        <ele>1425</ele>
        <time>2016-11-12T10:44:02Z</time>
      </trkpt>
      <trkpt lat="42.73183" lon="1.87724">
        <ele>1425</ele>
        <time>2016-11-12T10:44:07Z</time>
      </trkpt>
      <trkpt lat="42.73188" lon="1.87723">
        <ele>1425</ele>
        <time>2016-11-12T10:44:12Z</time>
      </trkpt>
      <trkpt lat="42.73191" lon="1.87723">
        <ele>1425</ele>
        <time>2016-11-12T10:44:17Z</time>
      </trkpt>
      <trkpt lat="42.73193" lon="1.87724">
        <ele>1425</ele>
        <time>2016-11-12T10:44:22Z</time>
      </trkpt>
      <trkpt lat="42.73195" lon="1.87725">
        <ele>1425</ele>
        <time>2016-11-12T10:44:27Z</time>
      </trkpt>
      <trkpt lat="42.73196" lon="1.87725">
        <ele>1425</ele>
        <time>2016-11-12T10:44:32Z</time>
      </trkpt>
      <trkpt lat="42.73199" lon="1.87726">
        <ele>1425</ele>
        <time>2016-11-12T10:44:37Z</time>
      </trkpt>
      <trkpt lat="42.73202" lon="1.87726">
        <ele>1425</ele>
        <time>2016-11-12T10:44:42Z</time>
      </trkpt>
      <trkpt lat="42.73204" lon="1.87728">
        <ele>1425</ele>
        <time>2016-11-12T10:44:47Z</time>
      </trkpt>
      <trkpt lat="42.73206" lon="1.87728">
        <ele>1425</ele>
        <time>2016-11-12T10:44:52Z</time>
      </trkpt>
      <trkpt lat="42.73208" lon="1.87727">
        <ele>1425</ele>
        <time>2016-11-12T10:44:57Z</time>
      </trkpt>
      <trkpt lat="42.7321" lon="1.87723">
        <ele>1457</ele>
        <time>2016-11-12T10:45:02Z</time>
      </trkpt>
      <trkpt lat="42.73213" lon="1.87721">
        <ele>1457</ele>
        <time>2016-11-12T10:45:07Z</time>
      </trkpt>
      <trkpt lat="42.73215" lon="1.87718">
        <ele>1457</ele>
        <time>2016-11-12T10:45:12Z</time>
      </trkpt>
      <trkpt lat="42.73216" lon="1.87715">
        <ele>1457</ele>
        <time>2016-11-12T10:45:17Z</time>
      </trkpt>
      <trkpt lat="42.73217" lon="1.87714">
        <ele>1457</ele>
        <time>2016-11-12T10:45:22Z</time>
      </trkpt>
      <trkpt lat="42.73219" lon="1.87712">
        <ele>1457</ele>
        <time>2016-11-12T10:45:27Z</time>
      </trkpt>
      <trkpt lat="42.73221" lon="1.87711">
        <ele>1457</ele>
        <time>2016-11-12T10:45:32Z</time>
      </trkpt>
      <trkpt lat="42.73226" lon="1.87711">
        <ele>1457</ele>
        <time>2016-11-12T10:45:37Z</time>
      </trkpt>
      <trkpt lat="42.73229" lon="1.8771">
        <ele>1457</ele>
        <time>2016-11-12T10:45:42Z</time>
      </trkpt>
      <trkpt lat="42.73233" lon="1.87711">
        <ele>1457</ele>
        <time>2016-11-12T10:45:47Z</time>
      </trkpt>
      <trkpt lat="42.73237" lon="1.8771">
        <ele>1457</ele>
        <time>2016-11-12T10:45:52Z</time>
      </trkpt>
      <trkpt lat="42.7324" lon="1.87709">
        <ele>1457</ele>
        <time>2016-11-12T10:45:57Z</time>
      </trkpt>
      <trkpt lat="42.73241" lon="1.87708">
        <ele>1457</ele>
        <time>2016-11-12T10:46:02Z</time>
      </trkpt>
      <trkpt lat="42.73241" lon="1.87704">
        <ele>1445</ele>
        <time>2016-11-12T10:46:07Z</time>
      </trkpt>
      <trkpt lat="42.73241" lon="1.87704">
        <ele>1445</ele>
        <time>2016-11-12T10:46:12Z</time>
      </trkpt>
      <trkpt lat="42.73241" lon="1.87703">
        <ele>1445</ele>
        <time>2016-11-12T10:46:17Z</time>
      </trkpt>
      <trkpt lat="42.73241" lon="1.87703">
        <ele>1445</ele>
        <time>2016-11-12T10:46:22Z</time>
      </trkpt>
      <trkpt lat="42.7324" lon="1.87702">
        <ele>1445</ele>
        <time>2016-11-12T10:46:27Z</time>
      </trkpt>
      <trkpt lat="42.7324" lon="1.87702">
        <ele>1445</ele>
        <time>2016-11-12T10:46:32Z</time>
      </trkpt>
      <trkpt lat="42.7324" lon="1.87702">
        <ele>1445</ele>
        <time>2016-11-12T10:46:37Z</time>
      </trkpt>
      <trkpt lat="42.73242" lon="1.87699">
        <ele>1445</ele>
        <time>2016-11-12T10:46:42Z</time>
      </trkpt>
      <trkpt lat="42.73245" lon="1.87695">
        <ele>1445</ele>
        <time>2016-11-12T10:46:47Z</time>
      </trkpt>
      <trkpt lat="42.73251" lon="1.87691">
        <ele>1445</ele>
        <time>2016-11-12T10:46:52Z</time>
      </trkpt>
      <trkpt lat="42.73256" lon="1.87687">
        <ele>1445</ele>
        <time>2016-11-12T10:46:57Z</time>
      </trkpt>
      <trkpt lat="42.73258" lon="1.87684">
        <ele>1445</ele>
        <time>2016-11-12T10:47:02Z</time>
      </trkpt>
      <trkpt lat="42.7326" lon="1.8768">
        <ele>1445</ele>
        <time>2016-11-12T10:47:07Z</time>
      </trkpt>
      <trkpt lat="42.73262" lon="1.87675">
        <ele>1445</ele>
        <time>2016-11-12T10:47:12Z</time>
      </trkpt>
      <trkpt lat="42.73266" lon="1.8767">
        <ele>1445</ele>
        <time>2016-11-12T10:47:17Z</time>
      </trkpt>
      <trkpt lat="42.7327" lon="1.87664">
        <ele>1445</ele>
        <time>2016-11-12T10:47:22Z</time>
      </trkpt>
      <trkpt lat="42.73273" lon="1.87658">
        <ele>1445</ele>
        <time>2016-11-12T10:47:27Z</time>
      </trkpt>
      <trkpt lat="42.73278" lon="1.87653">
        <ele>1445</ele>
        <time>2016-11-12T10:47:32Z</time>
      </trkpt>
      <trkpt lat="42.73281" lon="1.8765">
        <ele>1445</ele>
        <time>2016-11-12T10:47:37Z</time>
      </trkpt>
      <trkpt lat="42.73285" lon="1.87644">
        <ele>1445</ele>
        <time>2016-11-12T10:47:42Z</time>
      </trkpt>
      <trkpt lat="42.73289" lon="1.8764">
        <ele>1445</ele>
        <time>2016-11-12T10:47:47Z</time>
      </trkpt>
      <trkpt lat="42.7329" lon="1.87636">
        <ele>1445</ele>
        <time>2016-11-12T10:47:52Z</time>
      </trkpt>
      <trkpt lat="42.73293" lon="1.87635">
        <ele>1481</ele>
        <time>2016-11-12T10:47:57Z</time>
      </trkpt>
      <trkpt lat="42.73294" lon="1.87635">
        <ele>1481</ele>
        <time>2016-11-12T10:48:02Z</time>
      </trkpt>
      <trkpt lat="42.73293" lon="1.87636">
        <ele>1481</ele>
        <time>2016-11-12T10:48:07Z</time>
      </trkpt>
      <trkpt lat="42.73293" lon="1.87637">
        <ele>1481</ele>
        <time>2016-11-12T10:48:12Z</time>
      </trkpt>
      <trkpt lat="42.73292" lon="1.87637">
        <ele>1481</ele>
        <time>2016-11-12T10:48:17Z</time>
      </trkpt>
      <trkpt lat="42.73291" lon="1.87638">
        <ele>1445</ele>
        <time>2016-11-12T10:48:22Z</time>
      </trkpt>
      <trkpt lat="42.73291" lon="1.87639">
        <ele>1445</ele>
        <time>2016-11-12T10:48:27Z</time>
      </trkpt>
      <trkpt lat="42.73291" lon="1.87642">
        <ele>1445</ele>
        <time>2016-11-12T10:48:32Z</time>
      </trkpt>
      <trkpt lat="42.73291" lon="1.87644">
        <ele>1445</ele>
        <time>2016-11-12T10:48:37Z</time>
      </trkpt>
      <trkpt lat="42.73291" lon="1.87645">
        <ele>1445</ele>
        <time>2016-11-12T10:48:42Z</time>
      </trkpt>
      <trkpt lat="42.73291" lon="1.87645">
        <ele>1445</ele>
        <time>2016-11-12T10:48:47Z</time>
      </trkpt>
      <trkpt lat="42.73291" lon="1.87645">
        <ele>1445</ele>
        <time>2016-11-12T10:48:52Z</time>
      </trkpt>
      <trkpt lat="42.73291" lon="1.87645">
        <ele>1445</ele>
        <time>2016-11-12T10:48:57Z</time>
      </trkpt>
      <trkpt lat="42.7329" lon="1.87646">
        <ele>1445</ele>
        <time>2016-11-12T10:49:02Z</time>
      </trkpt>
      <trkpt lat="42.73291" lon="1.87644">
        <ele>1445</ele>
        <time>2016-11-12T10:49:07Z</time>
      </trkpt>
      <trkpt lat="42.73292" lon="1.87641">
        <ele>1481</ele>
        <time>2016-11-12T10:49:12Z</time>
      </trkpt>
      <trkpt lat="42.73294" lon="1.87639">
        <ele>1481</ele>
        <time>2016-11-12T10:49:17Z</time>
      </trkpt>
      <trkpt lat="42.73294" lon="1.87639">
        <ele>1481</ele>
        <time>2016-11-12T10:49:22Z</time>
      </trkpt>
      <trkpt lat="42.73294" lon="1.87638">
        <ele>1481</ele>
        <time>2016-11-12T10:49:27Z</time>
      </trkpt>
      <trkpt lat="42.73294" lon="1.87635">
        <ele>1481</ele>
        <time>2016-11-12T10:49:32Z</time>
      </trkpt>
      <trkpt lat="42.73294" lon="1.87635">
        <ele>1481</ele>
        <time>2016-11-12T10:49:37Z</time>
      </trkpt>
      <trkpt lat="42.73294" lon="1.87635">
        <ele>1481</ele>
        <time>2016-11-12T10:49:42Z</time>
      </trkpt>
      <trkpt lat="42.73294" lon="1.87635">
        <ele>1481</ele>
        <time>2016-11-12T10:49:47Z</time>
      </trkpt>
      <trkpt lat="42.73294" lon="1.87634">
        <ele>1481</ele>
        <time>2016-11-12T10:49:52Z</time>
      </trkpt>
      <trkpt lat="42.73294" lon="1.87634">
        <ele>1481</ele>
        <time>2016-11-12T10:49:57Z</time>
      </trkpt>
      <trkpt lat="42.73294" lon="1.87634">
        <ele>1481</ele>
        <time>2016-11-12T10:50:02Z</time>
      </trkpt>
      <trkpt lat="42.73294" lon="1.87634">
        <ele>1481</ele>
        <time>2016-11-12T10:50:07Z</time>
      </trkpt>
      <trkpt lat="42.73294" lon="1.87634">
        <ele>1481</ele>
        <time>2016-11-12T10:50:12Z</time>
      </trkpt>
      <trkpt lat="42.73294" lon="1.87633">
        <ele>1481</ele>
        <time>2016-11-12T10:50:17Z</time>
      </trkpt>
      <trkpt lat="42.73297" lon="1.87631">
        <ele>1481</ele>
        <time>2016-11-12T10:50:22Z</time>
      </trkpt>
      <trkpt lat="42.733" lon="1.87624">
        <ele>1474</ele>
        <time>2016-11-12T10:50:27Z</time>
      </trkpt>
      <trkpt lat="42.73304" lon="1.87618">
        <ele>1474</ele>
        <time>2016-11-12T10:50:32Z</time>
      </trkpt>
      <trkpt lat="42.73309" lon="1.87608">
        <ele>1474</ele>
        <time>2016-11-12T10:50:37Z</time>
      </trkpt>
      <trkpt lat="42.73313" lon="1.87601">
        <ele>1474</ele>
        <time>2016-11-12T10:50:42Z</time>
      </trkpt>
      <trkpt lat="42.73315" lon="1.87596">
        <ele>1474</ele>
        <time>2016-11-12T10:50:47Z</time>
      </trkpt>
      <trkpt lat="42.73317" lon="1.87588">
        <ele>1474</ele>
        <time>2016-11-12T10:50:52Z</time>
      </trkpt>
      <trkpt lat="42.7332" lon="1.8758">
        <ele>1474</ele>
        <time>2016-11-12T10:50:57Z</time>
      </trkpt>
      <trkpt lat="42.73324" lon="1.87574">
        <ele>1474</ele>
        <time>2016-11-12T10:51:02Z</time>
      </trkpt>
      <trkpt lat="42.73327" lon="1.87569">
        <ele>1474</ele>
        <time>2016-11-12T10:51:07Z</time>
      </trkpt>
      <trkpt lat="42.73329" lon="1.87564">
        <ele>1474</ele>
        <time>2016-11-12T10:51:12Z</time>
      </trkpt>
      <trkpt lat="42.7333" lon="1.87559">
        <ele>1474</ele>
        <time>2016-11-12T10:51:17Z</time>
      </trkpt>
      <trkpt lat="42.7333" lon="1.87553">
        <ele>1474</ele>
        <time>2016-11-12T10:51:22Z</time>
      </trkpt>
      <trkpt lat="42.73331" lon="1.8755">
        <ele>1474</ele>
        <time>2016-11-12T10:51:27Z</time>
      </trkpt>
      <trkpt lat="42.73331" lon="1.87545">
        <ele>1474</ele>
        <time>2016-11-12T10:51:32Z</time>
      </trkpt>
      <trkpt lat="42.7333" lon="1.87539">
        <ele>1481</ele>
        <time>2016-11-12T10:51:37Z</time>
      </trkpt>
      <trkpt lat="42.73329" lon="1.87536">
        <ele>1481</ele>
        <time>2016-11-12T10:51:42Z</time>
      </trkpt>
      <trkpt lat="42.73328" lon="1.87531">
        <ele>1481</ele>
        <time>2016-11-12T10:51:47Z</time>
      </trkpt>
      <trkpt lat="42.73328" lon="1.87528">
        <ele>1481</ele>
        <time>2016-11-12T10:51:52Z</time>
      </trkpt>
      <trkpt lat="42.73328" lon="1.87524">
        <ele>1481</ele>
        <time>2016-11-12T10:51:57Z</time>
      </trkpt>
      <trkpt lat="42.73328" lon="1.8752">
        <ele>1481</ele>
        <time>2016-11-12T10:52:02Z</time>
      </trkpt>
      <trkpt lat="42.73329" lon="1.87513">
        <ele>1481</ele>
        <time>2016-11-12T10:52:07Z</time>
      </trkpt>
      <trkpt lat="42.73329" lon="1.87511">
        <ele>1481</ele>
        <time>2016-11-12T10:52:12Z</time>
      </trkpt>
      <trkpt lat="42.73329" lon="1.87508">
        <ele>1481</ele>
        <time>2016-11-12T10:52:17Z</time>
      </trkpt>
      <trkpt lat="42.73329" lon="1.87503">
        <ele>1481</ele>
        <time>2016-11-12T10:52:22Z</time>
      </trkpt>
      <trkpt lat="42.73329" lon="1.87497">
        <ele>1481</ele>
        <time>2016-11-12T10:52:27Z</time>
      </trkpt>
      <trkpt lat="42.73328" lon="1.87493">
        <ele>1481</ele>
        <time>2016-11-12T10:52:32Z</time>
      </trkpt>
      <trkpt lat="42.73328" lon="1.87489">
        <ele>1481</ele>
        <time>2016-11-12T10:52:37Z</time>
      </trkpt>
      <trkpt lat="42.73328" lon="1.87486">
        <ele>1481</ele>
        <time>2016-11-12T10:52:42Z</time>
      </trkpt>
      <trkpt lat="42.73328" lon="1.87484">
        <ele>1481</ele>
        <time>2016-11-12T10:52:47Z</time>
      </trkpt>
      <trkpt lat="42.73328" lon="1.87481">
        <ele>1481</ele>
        <time>2016-11-12T10:52:52Z</time>
      </trkpt>
      <trkpt lat="42.73328" lon="1.87476">
        <ele>1481</ele>
        <time>2016-11-12T10:52:57Z</time>
      </trkpt>
      <trkpt lat="42.73328" lon="1.87473">
        <ele>1481</ele>
        <time>2016-11-12T10:53:02Z</time>
      </trkpt>
      <trkpt lat="42.73327" lon="1.8747">
        <ele>1481</ele>
        <time>2016-11-12T10:53:07Z</time>
      </trkpt>
      <trkpt lat="42.73329" lon="1.87465">
        <ele>1481</ele>
        <time>2016-11-12T10:53:12Z</time>
      </trkpt>
      <trkpt lat="42.73328" lon="1.87461">
        <ele>1481</ele>
        <time>2016-11-12T10:53:17Z</time>
      </trkpt>
      <trkpt lat="42.73329" lon="1.87459">
        <ele>1481</ele>
        <time>2016-11-12T10:53:22Z</time>
      </trkpt>
      <trkpt lat="42.73333" lon="1.87455">
        <ele>1482</ele>
        <time>2016-11-12T10:53:27Z</time>
      </trkpt>
      <trkpt lat="42.73333" lon="1.87452">
        <ele>1482</ele>
        <time>2016-11-12T10:53:32Z</time>
      </trkpt>
      <trkpt lat="42.73333" lon="1.87449">
        <ele>1482</ele>
        <time>2016-11-12T10:53:37Z</time>
      </trkpt>
      <trkpt lat="42.73333" lon="1.87447">
        <ele>1482</ele>
        <time>2016-11-12T10:53:42Z</time>
      </trkpt>
      <trkpt lat="42.73335" lon="1.87443">
        <ele>1482</ele>
        <time>2016-11-12T10:53:47Z</time>
      </trkpt>
      <trkpt lat="42.73336" lon="1.87437">
        <ele>1482</ele>
        <time>2016-11-12T10:53:52Z</time>
      </trkpt>
      <trkpt lat="42.73336" lon="1.87433">
        <ele>1482</ele>
        <time>2016-11-12T10:53:57Z</time>
      </trkpt>
      <trkpt lat="42.73338" lon="1.87429">
        <ele>1482</ele>
        <time>2016-11-12T10:54:02Z</time>
      </trkpt>
      <trkpt lat="42.73338" lon="1.87423">
        <ele>1482</ele>
        <time>2016-11-12T10:54:07Z</time>
      </trkpt>
      <trkpt lat="42.73338" lon="1.8742">
        <ele>1482</ele>
        <time>2016-11-12T10:54:12Z</time>
      </trkpt>
      <trkpt lat="42.73338" lon="1.87416">
        <ele>1482</ele>
        <time>2016-11-12T10:54:17Z</time>
      </trkpt>
      <trkpt lat="42.7334" lon="1.87412">
        <ele>1482</ele>
        <time>2016-11-12T10:54:22Z</time>
      </trkpt>
      <trkpt lat="42.73341" lon="1.87409">
        <ele>1482</ele>
        <time>2016-11-12T10:54:27Z</time>
      </trkpt>
      <trkpt lat="42.73342" lon="1.87402">
        <ele>1482</ele>
        <time>2016-11-12T10:54:32Z</time>
      </trkpt>
      <trkpt lat="42.73343" lon="1.87403">
        <ele>1482</ele>
        <time>2016-11-12T10:54:37Z</time>
      </trkpt>
      <trkpt lat="42.73342" lon="1.87395">
        <ele>1482</ele>
        <time>2016-11-12T10:54:42Z</time>
      </trkpt>
      <trkpt lat="42.73344" lon="1.8739">
        <ele>1482</ele>
        <time>2016-11-12T10:54:47Z</time>
      </trkpt>
      <trkpt lat="42.73342" lon="1.87389">
        <ele>1482</ele>
        <time>2016-11-12T10:54:52Z</time>
      </trkpt>
      <trkpt lat="42.73344" lon="1.87384">
        <ele>1482</ele>
        <time>2016-11-12T10:54:57Z</time>
      </trkpt>
      <trkpt lat="42.73346" lon="1.87376">
        <ele>1482</ele>
        <time>2016-11-12T10:55:02Z</time>
      </trkpt>
      <trkpt lat="42.73348" lon="1.87373">
        <ele>1479</ele>
        <time>2016-11-12T10:55:07Z</time>
      </trkpt>
      <trkpt lat="42.73351" lon="1.8737">
        <ele>1479</ele>
        <time>2016-11-12T10:55:12Z</time>
      </trkpt>
      <trkpt lat="42.73353" lon="1.87365">
        <ele>1479</ele>
        <time>2016-11-12T10:55:17Z</time>
      </trkpt>
      <trkpt lat="42.73355" lon="1.87361">
        <ele>1479</ele>
        <time>2016-11-12T10:55:22Z</time>
      </trkpt>
      <trkpt lat="42.73356" lon="1.87357">
        <ele>1479</ele>
        <time>2016-11-12T10:55:27Z</time>
      </trkpt>
      <trkpt lat="42.73358" lon="1.8735">
        <ele>1479</ele>
        <time>2016-11-12T10:55:32Z</time>
      </trkpt>
      <trkpt lat="42.73359" lon="1.87349">
        <ele>1479</ele>
        <time>2016-11-12T10:55:37Z</time>
      </trkpt>
      <trkpt lat="42.73359" lon="1.87346">
        <ele>1479</ele>
        <time>2016-11-12T10:55:42Z</time>
      </trkpt>
      <trkpt lat="42.73362" lon="1.87341">
        <ele>1479</ele>
        <time>2016-11-12T10:55:47Z</time>
      </trkpt>
      <trkpt lat="42.73363" lon="1.87339">
        <ele>1479</ele>
        <time>2016-11-12T10:55:52Z</time>
      </trkpt>
      <trkpt lat="42.73365" lon="1.87336">
        <ele>1479</ele>
        <time>2016-11-12T10:55:57Z</time>
      </trkpt>
      <trkpt lat="42.73367" lon="1.87333">
        <ele>1479</ele>
        <time>2016-11-12T10:56:02Z</time>
      </trkpt>
      <trkpt lat="42.7337" lon="1.8733">
        <ele>1479</ele>
        <time>2016-11-12T10:56:07Z</time>
      </trkpt>
      <trkpt lat="42.73372" lon="1.87326">
        <ele>1479</ele>
        <time>2016-11-12T10:56:12Z</time>
      </trkpt>
      <trkpt lat="42.73375" lon="1.8732">
        <ele>1479</ele>
        <time>2016-11-12T10:56:17Z</time>
      </trkpt>
      <trkpt lat="42.73376" lon="1.87316">
        <ele>1521</ele>
        <time>2016-11-12T10:56:22Z</time>
      </trkpt>
      <trkpt lat="42.73378" lon="1.8731">
        <ele>1521</ele>
        <time>2016-11-12T10:56:27Z</time>
      </trkpt>
      <trkpt lat="42.73381" lon="1.87307">
        <ele>1521</ele>
        <time>2016-11-12T10:56:32Z</time>
      </trkpt>
      <trkpt lat="42.73383" lon="1.87301">
        <ele>1521</ele>
        <time>2016-11-12T10:56:37Z</time>
      </trkpt>
      <trkpt lat="42.73385" lon="1.87294">
        <ele>1521</ele>
        <time>2016-11-12T10:56:42Z</time>
      </trkpt>
      <trkpt lat="42.73388" lon="1.87292">
        <ele>1521</ele>
        <time>2016-11-12T10:56:47Z</time>
      </trkpt>
      <trkpt lat="42.7339" lon="1.87289">
        <ele>1505</ele>
        <time>2016-11-12T10:56:52Z</time>
      </trkpt>
      <trkpt lat="42.73394" lon="1.87284">
        <ele>1505</ele>
        <time>2016-11-12T10:56:57Z</time>
      </trkpt>
      <trkpt lat="42.73397" lon="1.87278">
        <ele>1505</ele>
        <time>2016-11-12T10:57:02Z</time>
      </trkpt>
      <trkpt lat="42.73398" lon="1.87277">
        <ele>1505</ele>
        <time>2016-11-12T10:57:07Z</time>
      </trkpt>
      <trkpt lat="42.73399" lon="1.87276">
        <ele>1505</ele>
        <time>2016-11-12T10:57:12Z</time>
      </trkpt>
      <trkpt lat="42.73401" lon="1.87272">
        <ele>1505</ele>
        <time>2016-11-12T10:57:17Z</time>
      </trkpt>
      <trkpt lat="42.73403" lon="1.87267">
        <ele>1505</ele>
        <time>2016-11-12T10:57:22Z</time>
      </trkpt>
      <trkpt lat="42.73408" lon="1.87263">
        <ele>1505</ele>
        <time>2016-11-12T10:57:27Z</time>
      </trkpt>
      <trkpt lat="42.73411" lon="1.87259">
        <ele>1505</ele>
        <time>2016-11-12T10:57:32Z</time>
      </trkpt>
      <trkpt lat="42.73413" lon="1.87259">
        <ele>1505</ele>
        <time>2016-11-12T10:57:37Z</time>
      </trkpt>
      <trkpt lat="42.73417" lon="1.87256">
        <ele>1505</ele>
        <time>2016-11-12T10:57:42Z</time>
      </trkpt>
      <trkpt lat="42.7342" lon="1.87252">
        <ele>1505</ele>
        <time>2016-11-12T10:57:47Z</time>
      </trkpt>
      <trkpt lat="42.73422" lon="1.8725">
        <ele>1505</ele>
        <time>2016-11-12T10:57:52Z</time>
      </trkpt>
      <trkpt lat="42.73428" lon="1.87249">
        <ele>1505</ele>
        <time>2016-11-12T10:57:57Z</time>
      </trkpt>
      <trkpt lat="42.73431" lon="1.87247">
        <ele>1505</ele>
        <time>2016-11-12T10:58:02Z</time>
      </trkpt>
      <trkpt lat="42.73436" lon="1.87242">
        <ele>1505</ele>
        <time>2016-11-12T10:58:07Z</time>
      </trkpt>
      <trkpt lat="42.7344" lon="1.87238">
        <ele>1505</ele>
        <time>2016-11-12T10:58:12Z</time>
      </trkpt>
      <trkpt lat="42.73443" lon="1.87234">
        <ele>1505</ele>
        <time>2016-11-12T10:58:17Z</time>
      </trkpt>
      <trkpt lat="42.73447" lon="1.8723">
        <ele>1505</ele>
        <time>2016-11-12T10:58:22Z</time>
      </trkpt>
      <trkpt lat="42.73449" lon="1.87225">
        <ele>1505</ele>
        <time>2016-11-12T10:58:27Z</time>
      </trkpt>
      <trkpt lat="42.73452" lon="1.87218">
        <ele>1505</ele>
        <time>2016-11-12T10:58:32Z</time>
      </trkpt>
      <trkpt lat="42.73458" lon="1.87215">
        <ele>1505</ele>
        <time>2016-11-12T10:58:37Z</time>
      </trkpt>
      <trkpt lat="42.73461" lon="1.87207">
        <ele>1519</ele>
        <time>2016-11-12T10:58:42Z</time>
      </trkpt>
      <trkpt lat="42.73463" lon="1.87203">
        <ele>1519</ele>
        <time>2016-11-12T10:58:47Z</time>
      </trkpt>
      <trkpt lat="42.73468" lon="1.87199">
        <ele>1519</ele>
        <time>2016-11-12T10:58:52Z</time>
      </trkpt>
      <trkpt lat="42.73472" lon="1.87194">
        <ele>1519</ele>
        <time>2016-11-12T10:58:57Z</time>
      </trkpt>
      <trkpt lat="42.73475" lon="1.8719">
        <ele>1519</ele>
        <time>2016-11-12T10:59:02Z</time>
      </trkpt>
      <trkpt lat="42.73477" lon="1.87187">
        <ele>1519</ele>
        <time>2016-11-12T10:59:07Z</time>
      </trkpt>
      <trkpt lat="42.7348" lon="1.87184">
        <ele>1519</ele>
        <time>2016-11-12T10:59:12Z</time>
      </trkpt>
      <trkpt lat="42.73484" lon="1.87181">
        <ele>1519</ele>
        <time>2016-11-12T10:59:17Z</time>
      </trkpt>
      <trkpt lat="42.73488" lon="1.87177">
        <ele>1519</ele>
        <time>2016-11-12T10:59:22Z</time>
      </trkpt>
      <trkpt lat="42.73492" lon="1.87173">
        <ele>1519</ele>
        <time>2016-11-12T10:59:27Z</time>
      </trkpt>
      <trkpt lat="42.73496" lon="1.8717">
        <ele>1519</ele>
        <time>2016-11-12T10:59:32Z</time>
      </trkpt>
      <trkpt lat="42.73497" lon="1.87167">
        <ele>1519</ele>
        <time>2016-11-12T10:59:37Z</time>
      </trkpt>
      <trkpt lat="42.73501" lon="1.87166">
        <ele>1519</ele>
        <time>2016-11-12T10:59:42Z</time>
      </trkpt>
      <trkpt lat="42.73505" lon="1.87161">
        <ele>1519</ele>
        <time>2016-11-12T10:59:47Z</time>
      </trkpt>
      <trkpt lat="42.7351" lon="1.87158">
        <ele>1519</ele>
        <time>2016-11-12T10:59:52Z</time>
      </trkpt>
      <trkpt lat="42.73515" lon="1.87158">
        <ele>1519</ele>
        <time>2016-11-12T10:59:57Z</time>
      </trkpt>
      <trkpt lat="42.73518" lon="1.87157">
        <ele>1519</ele>
        <time>2016-11-12T11:00:02Z</time>
      </trkpt>
      <trkpt lat="42.73523" lon="1.87149">
        <ele>1519</ele>
        <time>2016-11-12T11:00:07Z</time>
      </trkpt>
      <trkpt lat="42.73527" lon="1.87144">
        <ele>1519</ele>
        <time>2016-11-12T11:00:12Z</time>
      </trkpt>
      <trkpt lat="42.7353" lon="1.87143">
        <ele>1519</ele>
        <time>2016-11-12T11:00:17Z</time>
      </trkpt>
      <trkpt lat="42.73535" lon="1.8714">
        <ele>1519</ele>
        <time>2016-11-12T11:00:22Z</time>
      </trkpt>
      <trkpt lat="42.73537" lon="1.87138">
        <ele>1519</ele>
        <time>2016-11-12T11:00:27Z</time>
      </trkpt>
      <trkpt lat="42.73539" lon="1.87139">
        <ele>1519</ele>
        <time>2016-11-12T11:00:32Z</time>
      </trkpt>
      <trkpt lat="42.73539" lon="1.87139">
        <ele>1519</ele>
        <time>2016-11-12T11:00:37Z</time>
      </trkpt>
      <trkpt lat="42.73543" lon="1.87135">
        <ele>1550</ele>
        <time>2016-11-12T11:00:42Z</time>
      </trkpt>
      <trkpt lat="42.73548" lon="1.87132">
        <ele>1550</ele>
        <time>2016-11-12T11:00:47Z</time>
      </trkpt>
      <trkpt lat="42.7355" lon="1.87127">
        <ele>1550</ele>
        <time>2016-11-12T11:00:52Z</time>
      </trkpt>
      <trkpt lat="42.73553" lon="1.87125">
        <ele>1525</ele>
        <time>2016-11-12T11:00:57Z</time>
      </trkpt>
      <trkpt lat="42.73553" lon="1.87124">
        <ele>1525</ele>
        <time>2016-11-12T11:01:02Z</time>
      </trkpt>
      <trkpt lat="42.73553" lon="1.87123">
        <ele>1525</ele>
        <time>2016-11-12T11:01:07Z</time>
      </trkpt>
      <trkpt lat="42.73553" lon="1.87123">
        <ele>1525</ele>
        <time>2016-11-12T11:01:12Z</time>
      </trkpt>
      <trkpt lat="42.73554" lon="1.87122">
        <ele>1525</ele>
        <time>2016-11-12T11:01:17Z</time>
      </trkpt>
      <trkpt lat="42.73554" lon="1.87122">
        <ele>1525</ele>
        <time>2016-11-12T11:01:22Z</time>
      </trkpt>
      <trkpt lat="42.73554" lon="1.8712">
        <ele>1525</ele>
        <time>2016-11-12T11:01:27Z</time>
      </trkpt>
      <trkpt lat="42.73554" lon="1.8712">
        <ele>1525</ele>
        <time>2016-11-12T11:01:32Z</time>
      </trkpt>
      <trkpt lat="42.73555" lon="1.8712">
        <ele>1525</ele>
        <time>2016-11-12T11:01:37Z</time>
      </trkpt>
      <trkpt lat="42.73555" lon="1.87119">
        <ele>1525</ele>
        <time>2016-11-12T11:01:42Z</time>
      </trkpt>
      <trkpt lat="42.73555" lon="1.87119">
        <ele>1525</ele>
        <time>2016-11-12T11:01:47Z</time>
      </trkpt>
      <trkpt lat="42.73555" lon="1.87119">
        <ele>1525</ele>
        <time>2016-11-12T11:01:52Z</time>
      </trkpt>
      <trkpt lat="42.73555" lon="1.87119">
        <ele>1525</ele>
        <time>2016-11-12T11:01:57Z</time>
      </trkpt>
      <trkpt lat="42.73555" lon="1.87118">
        <ele>1525</ele>
        <time>2016-11-12T11:02:02Z</time>
      </trkpt>
      <trkpt lat="42.73555" lon="1.87118">
        <ele>1525</ele>
        <time>2016-11-12T11:02:07Z</time>
      </trkpt>
      <trkpt lat="42.73555" lon="1.87118">
        <ele>1525</ele>
        <time>2016-11-12T11:02:12Z</time>
      </trkpt>
      <trkpt lat="42.73555" lon="1.87118">
        <ele>1525</ele>
        <time>2016-11-12T11:02:17Z</time>
      </trkpt>
      <trkpt lat="42.73555" lon="1.87117">
        <ele>1525</ele>
        <time>2016-11-12T11:02:22Z</time>
      </trkpt>
      <trkpt lat="42.73555" lon="1.87117">
        <ele>1525</ele>
        <time>2016-11-12T11:02:27Z</time>
      </trkpt>
      <trkpt lat="42.73555" lon="1.87117">
        <ele>1525</ele>
        <time>2016-11-12T11:02:32Z</time>
      </trkpt>
      <trkpt lat="42.73555" lon="1.87117">
        <ele>1525</ele>
        <time>2016-11-12T11:02:37Z</time>
      </trkpt>
      <trkpt lat="42.73555" lon="1.87117">
        <ele>1525</ele>
        <time>2016-11-12T11:02:42Z</time>
      </trkpt>
      <trkpt lat="42.73555" lon="1.87117">
        <ele>1525</ele>
        <time>2016-11-12T11:02:47Z</time>
      </trkpt>
      <trkpt lat="42.73555" lon="1.87117">
        <ele>1525</ele>
        <time>2016-11-12T11:02:52Z</time>
      </trkpt>
      <trkpt lat="42.73555" lon="1.87117">
        <ele>1525</ele>
        <time>2016-11-12T11:02:57Z</time>
      </trkpt>
      <trkpt lat="42.73555" lon="1.87116">
        <ele>1525</ele>
        <time>2016-11-12T11:03:02Z</time>
      </trkpt>
      <trkpt lat="42.73555" lon="1.87116">
        <ele>1525</ele>
        <time>2016-11-12T11:03:07Z</time>
      </trkpt>
      <trkpt lat="42.73555" lon="1.87116">
        <ele>1525</ele>
        <time>2016-11-12T11:03:12Z</time>
      </trkpt>
      <trkpt lat="42.73555" lon="1.87116">
        <ele>1525</ele>
        <time>2016-11-12T11:03:17Z</time>
      </trkpt>
      <trkpt lat="42.73555" lon="1.87116">
        <ele>1525</ele>
        <time>2016-11-12T11:03:22Z</time>
      </trkpt>
      <trkpt lat="42.73555" lon="1.87116">
        <ele>1525</ele>
        <time>2016-11-12T11:03:27Z</time>
      </trkpt>
      <trkpt lat="42.73555" lon="1.87116">
        <ele>1525</ele>
        <time>2016-11-12T11:03:32Z</time>
      </trkpt>
      <trkpt lat="42.73555" lon="1.87116">
        <ele>1525</ele>
        <time>2016-11-12T11:03:37Z</time>
      </trkpt>
      <trkpt lat="42.73555" lon="1.87116">
        <ele>1525</ele>
        <time>2016-11-12T11:03:42Z</time>
      </trkpt>
      <trkpt lat="42.73555" lon="1.87116">
        <ele>1525</ele>
        <time>2016-11-12T11:03:47Z</time>
      </trkpt>
      <trkpt lat="42.73555" lon="1.87116">
        <ele>1525</ele>
        <time>2016-11-12T11:03:52Z</time>
      </trkpt>
      <trkpt lat="42.73555" lon="1.87116">
        <ele>1525</ele>
        <time>2016-11-12T11:03:57Z</time>
      </trkpt>
      <trkpt lat="42.73555" lon="1.87116">
        <ele>1525</ele>
        <time>2016-11-12T11:04:02Z</time>
      </trkpt>
      <trkpt lat="42.73555" lon="1.87116">
        <ele>1525</ele>
        <time>2016-11-12T11:04:07Z</time>
      </trkpt>
      <trkpt lat="42.73555" lon="1.87116">
        <ele>1525</ele>
        <time>2016-11-12T11:04:12Z</time>
      </trkpt>
      <trkpt lat="42.73554" lon="1.87116">
        <ele>1525</ele>
        <time>2016-11-12T11:04:17Z</time>
      </trkpt>
      <trkpt lat="42.73554" lon="1.87116">
        <ele>1525</ele>
        <time>2016-11-12T11:04:22Z</time>
      </trkpt>
      <trkpt lat="42.73554" lon="1.87115">
        <ele>1525</ele>
        <time>2016-11-12T11:04:27Z</time>
      </trkpt>
      <trkpt lat="42.73556" lon="1.87112">
        <ele>1525</ele>
        <time>2016-11-12T11:04:32Z</time>
      </trkpt>
      <trkpt lat="42.7356" lon="1.87111">
        <ele>1525</ele>
        <time>2016-11-12T11:04:37Z</time>
      </trkpt>
      <trkpt lat="42.73564" lon="1.8711">
        <ele>1525</ele>
        <time>2016-11-12T11:04:42Z</time>
      </trkpt>
      <trkpt lat="42.73569" lon="1.87109">
        <ele>1525</ele>
        <time>2016-11-12T11:04:47Z</time>
      </trkpt>
      <trkpt lat="42.73573" lon="1.87106">
        <ele>1525</ele>
        <time>2016-11-12T11:04:52Z</time>
      </trkpt>
      <trkpt lat="42.73579" lon="1.87105">
        <ele>1525</ele>
        <time>2016-11-12T11:04:57Z</time>
      </trkpt>
      <trkpt lat="42.73585" lon="1.87105">
        <ele>1525</ele>
        <time>2016-11-12T11:05:02Z</time>
      </trkpt>
      <trkpt lat="42.73591" lon="1.87104">
        <ele>1525</ele>
        <time>2016-11-12T11:05:07Z</time>
      </trkpt>
      <trkpt lat="42.73594" lon="1.87103">
        <ele>1525</ele>
        <time>2016-11-12T11:05:12Z</time>
      </trkpt>
      <trkpt lat="42.73601" lon="1.87101">
        <ele>1525</ele>
        <time>2016-11-12T11:05:17Z</time>
      </trkpt>
      <trkpt lat="42.73605" lon="1.87101">
        <ele>1525</ele>
        <time>2016-11-12T11:05:22Z</time>
      </trkpt>
      <trkpt lat="42.73608" lon="1.87102">
        <ele>1525</ele>
        <time>2016-11-12T11:05:27Z</time>
      </trkpt>
      <trkpt lat="42.73612" lon="1.87104">
        <ele>1525</ele>
        <time>2016-11-12T11:05:32Z</time>
      </trkpt>
      <trkpt lat="42.73614" lon="1.87104">
        <ele>1525</ele>
        <time>2016-11-12T11:05:37Z</time>
      </trkpt>
      <trkpt lat="42.73617" lon="1.87106">
        <ele>1525</ele>
        <time>2016-11-12T11:05:42Z</time>
      </trkpt>
      <trkpt lat="42.7362" lon="1.87109">
        <ele>1525</ele>
        <time>2016-11-12T11:05:47Z</time>
      </trkpt>
      <trkpt lat="42.73624" lon="1.87109">
        <ele>1525</ele>
        <time>2016-11-12T11:05:52Z</time>
      </trkpt>
      <trkpt lat="42.73628" lon="1.8711">
        <ele>1546</ele>
        <time>2016-11-12T11:05:57Z</time>
      </trkpt>
      <trkpt lat="42.73634" lon="1.87109">
        <ele>1546</ele>
        <time>2016-11-12T11:06:02Z</time>
      </trkpt>
      <trkpt lat="42.73636" lon="1.8711">
        <ele>1546</ele>
        <time>2016-11-12T11:06:07Z</time>
      </trkpt>
      <trkpt lat="42.7364" lon="1.8711">
        <ele>1546</ele>
        <time>2016-11-12T11:06:12Z</time>
      </trkpt>
      <trkpt lat="42.73645" lon="1.87109">
        <ele>1546</ele>
        <time>2016-11-12T11:06:17Z</time>
      </trkpt>
      <trkpt lat="42.73647" lon="1.87109">
        <ele>1546</ele>
        <time>2016-11-12T11:06:22Z</time>
      </trkpt>
      <trkpt lat="42.73647" lon="1.87109">
        <ele>1546</ele>
        <time>2016-11-12T11:06:27Z</time>
      </trkpt>
      <trkpt lat="42.73647" lon="1.87109">
        <ele>1546</ele>
        <time>2016-11-12T11:06:32Z</time>
      </trkpt>
      <trkpt lat="42.73649" lon="1.8711">
        <ele>1546</ele>
        <time>2016-11-12T11:06:37Z</time>
      </trkpt>
      <trkpt lat="42.73652" lon="1.87109">
        <ele>1546</ele>
        <time>2016-11-12T11:06:42Z</time>
      </trkpt>
      <trkpt lat="42.73656" lon="1.87111">
        <ele>1546</ele>
        <time>2016-11-12T11:06:47Z</time>
      </trkpt>
      <trkpt lat="42.73661" lon="1.87111">
        <ele>1546</ele>
        <time>2016-11-12T11:06:52Z</time>
      </trkpt>
      <trkpt lat="42.73664" lon="1.87112">
        <ele>1546</ele>
        <time>2016-11-12T11:06:57Z</time>
      </trkpt>
      <trkpt lat="42.73668" lon="1.87113">
        <ele>1546</ele>
        <time>2016-11-12T11:07:02Z</time>
      </trkpt>
      <trkpt lat="42.73671" lon="1.87115">
        <ele>1546</ele>
        <time>2016-11-12T11:07:07Z</time>
      </trkpt>
      <trkpt lat="42.73673" lon="1.87113">
        <ele>1546</ele>
        <time>2016-11-12T11:07:12Z</time>
      </trkpt>
      <trkpt lat="42.73674" lon="1.87113">
        <ele>1546</ele>
        <time>2016-11-12T11:07:17Z</time>
      </trkpt>
      <trkpt lat="42.73678" lon="1.87111">
        <ele>1546</ele>
        <time>2016-11-12T11:07:22Z</time>
      </trkpt>
      <trkpt lat="42.73683" lon="1.87111">
        <ele>1546</ele>
        <time>2016-11-12T11:07:27Z</time>
      </trkpt>
      <trkpt lat="42.73686" lon="1.87111">
        <ele>1546</ele>
        <time>2016-11-12T11:07:32Z</time>
      </trkpt>
      <trkpt lat="42.73688" lon="1.87111">
        <ele>1546</ele>
        <time>2016-11-12T11:07:37Z</time>
      </trkpt>
      <trkpt lat="42.73691" lon="1.87111">
        <ele>1546</ele>
        <time>2016-11-12T11:07:42Z</time>
      </trkpt>
      <trkpt lat="42.73694" lon="1.87113">
        <ele>1546</ele>
        <time>2016-11-12T11:07:47Z</time>
      </trkpt>
      <trkpt lat="42.73698" lon="1.87114">
        <ele>1546</ele>
        <time>2016-11-12T11:07:52Z</time>
      </trkpt>
      <trkpt lat="42.73703" lon="1.87113">
        <ele>1546</ele>
        <time>2016-11-12T11:07:57Z</time>
      </trkpt>
      <trkpt lat="42.73705" lon="1.87114">
        <ele>1546</ele>
        <time>2016-11-12T11:08:02Z</time>
      </trkpt>
      <trkpt lat="42.73707" lon="1.87111">
        <ele>1546</ele>
        <time>2016-11-12T11:08:07Z</time>
      </trkpt>
      <trkpt lat="42.7371" lon="1.8711">
        <ele>1551</ele>
        <time>2016-11-12T11:08:12Z</time>
      </trkpt>
      <trkpt lat="42.73715" lon="1.87113">
        <ele>1551</ele>
        <time>2016-11-12T11:08:17Z</time>
      </trkpt>
      <trkpt lat="42.73719" lon="1.87113">
        <ele>1551</ele>
        <time>2016-11-12T11:08:22Z</time>
      </trkpt>
      <trkpt lat="42.73721" lon="1.87116">
        <ele>1551</ele>
        <time>2016-11-12T11:08:27Z</time>
      </trkpt>
      <trkpt lat="42.73723" lon="1.87115">
        <ele>1551</ele>
        <time>2016-11-12T11:08:32Z</time>
      </trkpt>
      <trkpt lat="42.73724" lon="1.87117">
        <ele>1551</ele>
        <time>2016-11-12T11:08:37Z</time>
      </trkpt>
      <trkpt lat="42.7373" lon="1.87117">
        <ele>1551</ele>
        <time>2016-11-12T11:08:42Z</time>
      </trkpt>
      <trkpt lat="42.73732" lon="1.87118">
        <ele>1551</ele>
        <time>2016-11-12T11:08:47Z</time>
      </trkpt>
      <trkpt lat="42.73735" lon="1.8712">
        <ele>1551</ele>
        <time>2016-11-12T11:08:52Z</time>
      </trkpt>
      <trkpt lat="42.73738" lon="1.87123">
        <ele>1551</ele>
        <time>2016-11-12T11:08:57Z</time>
      </trkpt>
      <trkpt lat="42.73742" lon="1.87125">
        <ele>1577</ele>
        <time>2016-11-12T11:09:02Z</time>
      </trkpt>
      <trkpt lat="42.73744" lon="1.87126">
        <ele>1577</ele>
        <time>2016-11-12T11:09:07Z</time>
      </trkpt>
      <trkpt lat="42.73748" lon="1.87129">
        <ele>1577</ele>
        <time>2016-11-12T11:09:12Z</time>
      </trkpt>
      <trkpt lat="42.7375" lon="1.87133">
        <ele>1577</ele>
        <time>2016-11-12T11:09:17Z</time>
      </trkpt>
      <trkpt lat="42.73754" lon="1.87135">
        <ele>1577</ele>
        <time>2016-11-12T11:09:22Z</time>
      </trkpt>
      <trkpt lat="42.73756" lon="1.87138">
        <ele>1577</ele>
        <time>2016-11-12T11:09:27Z</time>
      </trkpt>
      <trkpt lat="42.73762" lon="1.87141">
        <ele>1577</ele>
        <time>2016-11-12T11:09:32Z</time>
      </trkpt>
      <trkpt lat="42.73767" lon="1.87141">
        <ele>1577</ele>
        <time>2016-11-12T11:09:37Z</time>
      </trkpt>
      <trkpt lat="42.73771" lon="1.87143">
        <ele>1577</ele>
        <time>2016-11-12T11:09:42Z</time>
      </trkpt>
      <trkpt lat="42.73772" lon="1.87146">
        <ele>1577</ele>
        <time>2016-11-12T11:09:47Z</time>
      </trkpt>
      <trkpt lat="42.73772" lon="1.87147">
        <ele>1577</ele>
        <time>2016-11-12T11:09:52Z</time>
      </trkpt>
      <trkpt lat="42.73775" lon="1.87148">
        <ele>1577</ele>
        <time>2016-11-12T11:09:57Z</time>
      </trkpt>
      <trkpt lat="42.73777" lon="1.87149">
        <ele>1577</ele>
        <time>2016-11-12T11:10:02Z</time>
      </trkpt>
      <trkpt lat="42.7378" lon="1.87152">
        <ele>1577</ele>
        <time>2016-11-12T11:10:07Z</time>
      </trkpt>
      <trkpt lat="42.73782" lon="1.87154">
        <ele>1577</ele>
        <time>2016-11-12T11:10:12Z</time>
      </trkpt>
      <trkpt lat="42.73785" lon="1.87157">
        <ele>1577</ele>
        <time>2016-11-12T11:10:17Z</time>
      </trkpt>
      <trkpt lat="42.73788" lon="1.87161">
        <ele>1577</ele>
        <time>2016-11-12T11:10:22Z</time>
      </trkpt>
      <trkpt lat="42.73792" lon="1.8716">
        <ele>1590</ele>
        <time>2016-11-12T11:10:27Z</time>
      </trkpt>
      <trkpt lat="42.73794" lon="1.87161">
        <ele>1590</ele>
        <time>2016-11-12T11:10:32Z</time>
      </trkpt>
      <trkpt lat="42.73797" lon="1.8716">
        <ele>1590</ele>
        <time>2016-11-12T11:10:37Z</time>
      </trkpt>
      <trkpt lat="42.738" lon="1.87157">
        <ele>1590</ele>
        <time>2016-11-12T11:10:42Z</time>
      </trkpt>
      <trkpt lat="42.73802" lon="1.87157">
        <ele>1590</ele>
        <time>2016-11-12T11:10:47Z</time>
      </trkpt>
      <trkpt lat="42.73804" lon="1.87155">
        <ele>1590</ele>
        <time>2016-11-12T11:10:52Z</time>
      </trkpt>
      <trkpt lat="42.73805" lon="1.87155">
        <ele>1590</ele>
        <time>2016-11-12T11:10:57Z</time>
      </trkpt>
      <trkpt lat="42.73808" lon="1.87156">
        <ele>1590</ele>
        <time>2016-11-12T11:11:02Z</time>
      </trkpt>
      <trkpt lat="42.73811" lon="1.87156">
        <ele>1590</ele>
        <time>2016-11-12T11:11:07Z</time>
      </trkpt>
      <trkpt lat="42.73813" lon="1.87158">
        <ele>1590</ele>
        <time>2016-11-12T11:11:12Z</time>
      </trkpt>
      <trkpt lat="42.73817" lon="1.87158">
        <ele>1590</ele>
        <time>2016-11-12T11:11:17Z</time>
      </trkpt>
      <trkpt lat="42.73821" lon="1.87158">
        <ele>1590</ele>
        <time>2016-11-12T11:11:22Z</time>
      </trkpt>
      <trkpt lat="42.73823" lon="1.87156">
        <ele>1590</ele>
        <time>2016-11-12T11:11:27Z</time>
      </trkpt>
      <trkpt lat="42.73824" lon="1.87159">
        <ele>1590</ele>
        <time>2016-11-12T11:11:32Z</time>
      </trkpt>
      <trkpt lat="42.73828" lon="1.87159">
        <ele>1590</ele>
        <time>2016-11-12T11:11:37Z</time>
      </trkpt>
      <trkpt lat="42.73829" lon="1.87162">
        <ele>1590</ele>
        <time>2016-11-12T11:11:42Z</time>
      </trkpt>
      <trkpt lat="42.73831" lon="1.87163">
        <ele>1590</ele>
        <time>2016-11-12T11:11:47Z</time>
      </trkpt>
      <trkpt lat="42.73834" lon="1.87163">
        <ele>1590</ele>
        <time>2016-11-12T11:11:52Z</time>
      </trkpt>
      <trkpt lat="42.73836" lon="1.87166">
        <ele>1590</ele>
        <time>2016-11-12T11:11:57Z</time>
      </trkpt>
      <trkpt lat="42.73837" lon="1.87168">
        <ele>1590</ele>
        <time>2016-11-12T11:12:02Z</time>
      </trkpt>
      <trkpt lat="42.73837" lon="1.8717">
        <ele>1590</ele>
        <time>2016-11-12T11:12:07Z</time>
      </trkpt>
      <trkpt lat="42.73838" lon="1.8717">
        <ele>1590</ele>
        <time>2016-11-12T11:12:12Z</time>
      </trkpt>
      <trkpt lat="42.73838" lon="1.87175">
        <ele>1590</ele>
        <time>2016-11-12T11:12:17Z</time>
      </trkpt>
      <trkpt lat="42.73842" lon="1.87175">
        <ele>1590</ele>
        <time>2016-11-12T11:12:22Z</time>
      </trkpt>
      <trkpt lat="42.73846" lon="1.87175">
        <ele>1590</ele>
        <time>2016-11-12T11:12:27Z</time>
      </trkpt>
      <trkpt lat="42.73848" lon="1.87174">
        <ele>1590</ele>
        <time>2016-11-12T11:12:32Z</time>
      </trkpt>
      <trkpt lat="42.73853" lon="1.87175">
        <ele>1590</ele>
        <time>2016-11-12T11:12:37Z</time>
      </trkpt>
      <trkpt lat="42.73856" lon="1.87177">
        <ele>1590</ele>
        <time>2016-11-12T11:12:42Z</time>
      </trkpt>
      <trkpt lat="42.73861" lon="1.87178">
        <ele>1590</ele>
        <time>2016-11-12T11:12:47Z</time>
      </trkpt>
      <trkpt lat="42.73865" lon="1.87177">
        <ele>1590</ele>
        <time>2016-11-12T11:12:52Z</time>
      </trkpt>
      <trkpt lat="42.73867" lon="1.87178">
        <ele>1590</ele>
        <time>2016-11-12T11:12:57Z</time>
      </trkpt>
      <trkpt lat="42.73872" lon="1.87177">
        <ele>1590</ele>
        <time>2016-11-12T11:13:02Z</time>
      </trkpt>
      <trkpt lat="42.73874" lon="1.87179">
        <ele>1590</ele>
        <time>2016-11-12T11:13:07Z</time>
      </trkpt>
      <trkpt lat="42.73876" lon="1.87178">
        <ele>1593</ele>
        <time>2016-11-12T11:13:12Z</time>
      </trkpt>
      <trkpt lat="42.7388" lon="1.87176">
        <ele>1593</ele>
        <time>2016-11-12T11:13:17Z</time>
      </trkpt>
      <trkpt lat="42.73883" lon="1.87178">
        <ele>1593</ele>
        <time>2016-11-12T11:13:22Z</time>
      </trkpt>
      <trkpt lat="42.73889" lon="1.87178">
        <ele>1593</ele>
        <time>2016-11-12T11:13:27Z</time>
      </trkpt>
      <trkpt lat="42.73893" lon="1.87178">
        <ele>1593</ele>
        <time>2016-11-12T11:13:32Z</time>
      </trkpt>
      <trkpt lat="42.73896" lon="1.8718">
        <ele>1593</ele>
        <time>2016-11-12T11:13:37Z</time>
      </trkpt>
      <trkpt lat="42.73902" lon="1.87181">
        <ele>1593</ele>
        <time>2016-11-12T11:13:42Z</time>
      </trkpt>
      <trkpt lat="42.73904" lon="1.8718">
        <ele>1593</ele>
        <time>2016-11-12T11:13:47Z</time>
      </trkpt>
      <trkpt lat="42.73908" lon="1.8718">
        <ele>1593</ele>
        <time>2016-11-12T11:13:52Z</time>
      </trkpt>
      <trkpt lat="42.73911" lon="1.87181">
        <ele>1593</ele>
        <time>2016-11-12T11:13:57Z</time>
      </trkpt>
      <trkpt lat="42.73916" lon="1.87182">
        <ele>1593</ele>
        <time>2016-11-12T11:14:02Z</time>
      </trkpt>
      <trkpt lat="42.7392" lon="1.87185">
        <ele>1593</ele>
        <time>2016-11-12T11:14:07Z</time>
      </trkpt>
      <trkpt lat="42.73925" lon="1.87186">
        <ele>1593</ele>
        <time>2016-11-12T11:14:12Z</time>
      </trkpt>
      <trkpt lat="42.73929" lon="1.8719">
        <ele>1593</ele>
        <time>2016-11-12T11:14:17Z</time>
      </trkpt>
      <trkpt lat="42.73931" lon="1.87191">
        <ele>1593</ele>
        <time>2016-11-12T11:14:22Z</time>
      </trkpt>
      <trkpt lat="42.73934" lon="1.87196">
        <ele>1593</ele>
        <time>2016-11-12T11:14:27Z</time>
      </trkpt>
      <trkpt lat="42.73937" lon="1.87198">
        <ele>1593</ele>
        <time>2016-11-12T11:14:32Z</time>
      </trkpt>
      <trkpt lat="42.73943" lon="1.87199">
        <ele>1593</ele>
        <time>2016-11-12T11:14:37Z</time>
      </trkpt>
      <trkpt lat="42.73948" lon="1.872">
        <ele>1593</ele>
        <time>2016-11-12T11:14:42Z</time>
      </trkpt>
      <trkpt lat="42.73954" lon="1.87205">
        <ele>1593</ele>
        <time>2016-11-12T11:14:47Z</time>
      </trkpt>
      <trkpt lat="42.73956" lon="1.87208">
        <ele>1619</ele>
        <time>2016-11-12T11:14:52Z</time>
      </trkpt>
      <trkpt lat="42.73957" lon="1.87211">
        <ele>1619</ele>
        <time>2016-11-12T11:14:57Z</time>
      </trkpt>
      <trkpt lat="42.7396" lon="1.87214">
        <ele>1608</ele>
        <time>2016-11-12T11:15:02Z</time>
      </trkpt>
      <trkpt lat="42.73963" lon="1.8722">
        <ele>1608</ele>
        <time>2016-11-12T11:15:07Z</time>
      </trkpt>
      <trkpt lat="42.73966" lon="1.87223">
        <ele>1608</ele>
        <time>2016-11-12T11:15:12Z</time>
      </trkpt>
      <trkpt lat="42.73971" lon="1.87226">
        <ele>1608</ele>
        <time>2016-11-12T11:15:17Z</time>
      </trkpt>
      <trkpt lat="42.73975" lon="1.87226">
        <ele>1608</ele>
        <time>2016-11-12T11:15:22Z</time>
      </trkpt>
      <trkpt lat="42.73978" lon="1.87232">
        <ele>1608</ele>
        <time>2016-11-12T11:15:27Z</time>
      </trkpt>
      <trkpt lat="42.7398" lon="1.87237">
        <ele>1608</ele>
        <time>2016-11-12T11:15:32Z</time>
      </trkpt>
      <trkpt lat="42.7398" lon="1.87239">
        <ele>1608</ele>
        <time>2016-11-12T11:15:37Z</time>
      </trkpt>
      <trkpt lat="42.73983" lon="1.87244">
        <ele>1608</ele>
        <time>2016-11-12T11:15:42Z</time>
      </trkpt>
      <trkpt lat="42.73986" lon="1.87246">
        <ele>1608</ele>
        <time>2016-11-12T11:15:47Z</time>
      </trkpt>
      <trkpt lat="42.73988" lon="1.87252">
        <ele>1608</ele>
        <time>2016-11-12T11:15:52Z</time>
      </trkpt>
      <trkpt lat="42.73991" lon="1.87254">
        <ele>1608</ele>
        <time>2016-11-12T11:15:57Z</time>
      </trkpt>
      <trkpt lat="42.73994" lon="1.8726">
        <ele>1608</ele>
        <time>2016-11-12T11:16:02Z</time>
      </trkpt>
      <trkpt lat="42.73995" lon="1.87264">
        <ele>1608</ele>
        <time>2016-11-12T11:16:07Z</time>
      </trkpt>
      <trkpt lat="42.73999" lon="1.87268">
        <ele>1608</ele>
        <time>2016-11-12T11:16:12Z</time>
      </trkpt>
      <trkpt lat="42.74003" lon="1.87268">
        <ele>1608</ele>
        <time>2016-11-12T11:16:17Z</time>
      </trkpt>
      <trkpt lat="42.74007" lon="1.8727">
        <ele>1608</ele>
        <time>2016-11-12T11:16:22Z</time>
      </trkpt>
      <trkpt lat="42.74009" lon="1.87273">
        <ele>1608</ele>
        <time>2016-11-12T11:16:27Z</time>
      </trkpt>
      <trkpt lat="42.7401" lon="1.87274">
        <ele>1608</ele>
        <time>2016-11-12T11:16:32Z</time>
      </trkpt>
      <trkpt lat="42.7401" lon="1.87275">
        <ele>1608</ele>
        <time>2016-11-12T11:16:37Z</time>
      </trkpt>
      <trkpt lat="42.7401" lon="1.87275">
        <ele>1608</ele>
        <time>2016-11-12T11:16:42Z</time>
      </trkpt>
      <trkpt lat="42.74009" lon="1.87277">
        <ele>1608</ele>
        <time>2016-11-12T11:16:47Z</time>
      </trkpt>
      <trkpt lat="42.74009" lon="1.87278">
        <ele>1608</ele>
        <time>2016-11-12T11:16:52Z</time>
      </trkpt>
      <trkpt lat="42.74009" lon="1.87278">
        <ele>1608</ele>
        <time>2016-11-12T11:16:57Z</time>
      </trkpt>
      <trkpt lat="42.74008" lon="1.87278">
        <ele>1608</ele>
        <time>2016-11-12T11:17:02Z</time>
      </trkpt>
      <trkpt lat="42.74009" lon="1.87278">
        <ele>1608</ele>
        <time>2016-11-12T11:17:07Z</time>
      </trkpt>
      <trkpt lat="42.74009" lon="1.87278">
        <ele>1608</ele>
        <time>2016-11-12T11:17:12Z</time>
      </trkpt>
      <trkpt lat="42.7401" lon="1.87278">
        <ele>1608</ele>
        <time>2016-11-12T11:17:17Z</time>
      </trkpt>
      <trkpt lat="42.7401" lon="1.87278">
        <ele>1608</ele>
        <time>2016-11-12T11:17:22Z</time>
      </trkpt>
      <trkpt lat="42.74009" lon="1.8728">
        <ele>1608</ele>
        <time>2016-11-12T11:17:27Z</time>
      </trkpt>
      <trkpt lat="42.74011" lon="1.87283">
        <ele>1608</ele>
        <time>2016-11-12T11:17:32Z</time>
      </trkpt>
      <trkpt lat="42.74013" lon="1.87286">
        <ele>1608</ele>
        <time>2016-11-12T11:17:37Z</time>
      </trkpt>
      <trkpt lat="42.74016" lon="1.87289">
        <ele>1608</ele>
        <time>2016-11-12T11:17:42Z</time>
      </trkpt>
      <trkpt lat="42.74018" lon="1.87292">
        <ele>1629</ele>
        <time>2016-11-12T11:17:47Z</time>
      </trkpt>
      <trkpt lat="42.74022" lon="1.87298">
        <ele>1629</ele>
        <time>2016-11-12T11:17:52Z</time>
      </trkpt>
      <trkpt lat="42.74026" lon="1.873">
        <ele>1629</ele>
        <time>2016-11-12T11:17:57Z</time>
      </trkpt>
      <trkpt lat="42.7403" lon="1.87302">
        <ele>1629</ele>
        <time>2016-11-12T11:18:02Z</time>
      </trkpt>
      <trkpt lat="42.74035" lon="1.87305">
        <ele>1629</ele>
        <time>2016-11-12T11:18:07Z</time>
      </trkpt>
      <trkpt lat="42.74038" lon="1.87309">
        <ele>1629</ele>
        <time>2016-11-12T11:18:12Z</time>
      </trkpt>
      <trkpt lat="42.74042" lon="1.87312">
        <ele>1627</ele>
        <time>2016-11-12T11:18:17Z</time>
      </trkpt>
      <trkpt lat="42.74044" lon="1.87312">
        <ele>1627</ele>
        <time>2016-11-12T11:18:22Z</time>
      </trkpt>
      <trkpt lat="42.74048" lon="1.87313">
        <ele>1627</ele>
        <time>2016-11-12T11:18:27Z</time>
      </trkpt>
      <trkpt lat="42.74052" lon="1.87316">
        <ele>1627</ele>
        <time>2016-11-12T11:18:32Z</time>
      </trkpt>
      <trkpt lat="42.74056" lon="1.87316">
        <ele>1627</ele>
        <time>2016-11-12T11:18:37Z</time>
      </trkpt>
      <trkpt lat="42.74057" lon="1.87317">
        <ele>1627</ele>
        <time>2016-11-12T11:18:42Z</time>
      </trkpt>
      <trkpt lat="42.74059" lon="1.87318">
        <ele>1627</ele>
        <time>2016-11-12T11:18:47Z</time>
      </trkpt>
      <trkpt lat="42.74061" lon="1.8732">
        <ele>1627</ele>
        <time>2016-11-12T11:18:52Z</time>
      </trkpt>
      <trkpt lat="42.74063" lon="1.87324">
        <ele>1627</ele>
        <time>2016-11-12T11:18:57Z</time>
      </trkpt>
      <trkpt lat="42.74065" lon="1.87329">
        <ele>1627</ele>
        <time>2016-11-12T11:19:02Z</time>
      </trkpt>
      <trkpt lat="42.7407" lon="1.8733">
        <ele>1627</ele>
        <time>2016-11-12T11:19:07Z</time>
      </trkpt>
      <trkpt lat="42.74075" lon="1.87332">
        <ele>1627</ele>
        <time>2016-11-12T11:19:12Z</time>
      </trkpt>
      <trkpt lat="42.74077" lon="1.87332">
        <ele>1627</ele>
        <time>2016-11-12T11:19:17Z</time>
      </trkpt>
      <trkpt lat="42.7408" lon="1.87334">
        <ele>1627</ele>
        <time>2016-11-12T11:19:22Z</time>
      </trkpt>
      <trkpt lat="42.74083" lon="1.87335">
        <ele>1627</ele>
        <time>2016-11-12T11:19:27Z</time>
      </trkpt>
      <trkpt lat="42.74084" lon="1.87337">
        <ele>1627</ele>
        <time>2016-11-12T11:19:32Z</time>
      </trkpt>
      <trkpt lat="42.74087" lon="1.8734">
        <ele>1627</ele>
        <time>2016-11-12T11:19:37Z</time>
      </trkpt>
      <trkpt lat="42.74091" lon="1.87344">
        <ele>1627</ele>
        <time>2016-11-12T11:19:42Z</time>
      </trkpt>
      <trkpt lat="42.74094" lon="1.87347">
        <ele>1627</ele>
        <time>2016-11-12T11:19:47Z</time>
      </trkpt>
      <trkpt lat="42.74098" lon="1.87347">
        <ele>1627</ele>
        <time>2016-11-12T11:19:52Z</time>
      </trkpt>
      <trkpt lat="42.741" lon="1.87349">
        <ele>1627</ele>
        <time>2016-11-12T11:19:57Z</time>
      </trkpt>
      <trkpt lat="42.74102" lon="1.87352">
        <ele>1627</ele>
        <time>2016-11-12T11:20:02Z</time>
      </trkpt>
      <trkpt lat="42.74107" lon="1.87355">
        <ele>1627</ele>
        <time>2016-11-12T11:20:07Z</time>
      </trkpt>
      <trkpt lat="42.74109" lon="1.87358">
        <ele>1627</ele>
        <time>2016-11-12T11:20:12Z</time>
      </trkpt>
      <trkpt lat="42.74111" lon="1.8736">
        <ele>1627</ele>
        <time>2016-11-12T11:20:17Z</time>
      </trkpt>
      <trkpt lat="42.74114" lon="1.87362">
        <ele>1627</ele>
        <time>2016-11-12T11:20:22Z</time>
      </trkpt>
      <trkpt lat="42.74116" lon="1.87364">
        <ele>1627</ele>
        <time>2016-11-12T11:20:27Z</time>
      </trkpt>
      <trkpt lat="42.74119" lon="1.87366">
        <ele>1627</ele>
        <time>2016-11-12T11:20:32Z</time>
      </trkpt>
      <trkpt lat="42.74122" lon="1.87368">
        <ele>1627</ele>
        <time>2016-11-12T11:20:37Z</time>
      </trkpt>
      <trkpt lat="42.74126" lon="1.87368">
        <ele>1642</ele>
        <time>2016-11-12T11:20:42Z</time>
      </trkpt>
      <trkpt lat="42.7413" lon="1.87368">
        <ele>1642</ele>
        <time>2016-11-12T11:20:47Z</time>
      </trkpt>
      <trkpt lat="42.74132" lon="1.87368">
        <ele>1642</ele>
        <time>2016-11-12T11:20:52Z</time>
      </trkpt>
      <trkpt lat="42.74136" lon="1.87365">
        <ele>1642</ele>
        <time>2016-11-12T11:20:57Z</time>
      </trkpt>
      <trkpt lat="42.7414" lon="1.87363">
        <ele>1642</ele>
        <time>2016-11-12T11:21:02Z</time>
      </trkpt>
      <trkpt lat="42.74144" lon="1.87362">
        <ele>1642</ele>
        <time>2016-11-12T11:21:07Z</time>
      </trkpt>
      <trkpt lat="42.74148" lon="1.8736">
        <ele>1642</ele>
        <time>2016-11-12T11:21:12Z</time>
      </trkpt>
      <trkpt lat="42.74151" lon="1.8736">
        <ele>1642</ele>
        <time>2016-11-12T11:21:17Z</time>
      </trkpt>
      <trkpt lat="42.74151" lon="1.87359">
        <ele>1642</ele>
        <time>2016-11-12T11:21:22Z</time>
      </trkpt>
      <trkpt lat="42.74156" lon="1.87356">
        <ele>1642</ele>
        <time>2016-11-12T11:21:27Z</time>
      </trkpt>
      <trkpt lat="42.74159" lon="1.87354">
        <ele>1642</ele>
        <time>2016-11-12T11:21:32Z</time>
      </trkpt>
      <trkpt lat="42.74162" lon="1.87352">
        <ele>1642</ele>
        <time>2016-11-12T11:21:37Z</time>
      </trkpt>
      <trkpt lat="42.74166" lon="1.87349">
        <ele>1642</ele>
        <time>2016-11-12T11:21:42Z</time>
      </trkpt>
      <trkpt lat="42.74169" lon="1.87347">
        <ele>1642</ele>
        <time>2016-11-12T11:21:47Z</time>
      </trkpt>
      <trkpt lat="42.74172" lon="1.87346">
        <ele>1642</ele>
        <time>2016-11-12T11:21:52Z</time>
      </trkpt>
      <trkpt lat="42.74173" lon="1.87347">
        <ele>1642</ele>
        <time>2016-11-12T11:21:57Z</time>
      </trkpt>
      <trkpt lat="42.74174" lon="1.87344">
        <ele>1642</ele>
        <time>2016-11-12T11:22:02Z</time>
      </trkpt>
      <trkpt lat="42.74176" lon="1.87343">
        <ele>1642</ele>
        <time>2016-11-12T11:22:07Z</time>
      </trkpt>
      <trkpt lat="42.74177" lon="1.8734">
        <ele>1642</ele>
        <time>2016-11-12T11:22:12Z</time>
      </trkpt>
      <trkpt lat="42.74179" lon="1.87338">
        <ele>1642</ele>
        <time>2016-11-12T11:22:17Z</time>
      </trkpt>
      <trkpt lat="42.74182" lon="1.87337">
        <ele>1642</ele>
        <time>2016-11-12T11:22:22Z</time>
      </trkpt>
      <trkpt lat="42.74186" lon="1.87336">
        <ele>1642</ele>
        <time>2016-11-12T11:22:27Z</time>
      </trkpt>
      <trkpt lat="42.74187" lon="1.87332">
        <ele>1642</ele>
        <time>2016-11-12T11:22:32Z</time>
      </trkpt>
      <trkpt lat="42.7419" lon="1.87333">
        <ele>1642</ele>
        <time>2016-11-12T11:22:37Z</time>
      </trkpt>
      <trkpt lat="42.74193" lon="1.87329">
        <ele>1642</ele>
        <time>2016-11-12T11:22:42Z</time>
      </trkpt>
      <trkpt lat="42.74195" lon="1.87326">
        <ele>1642</ele>
        <time>2016-11-12T11:22:47Z</time>
      </trkpt>
      <trkpt lat="42.74198" lon="1.87324">
        <ele>1642</ele>
        <time>2016-11-12T11:22:52Z</time>
      </trkpt>
      <trkpt lat="42.74198" lon="1.8732">
        <ele>1642</ele>
        <time>2016-11-12T11:22:57Z</time>
      </trkpt>
      <trkpt lat="42.742" lon="1.87317">
        <ele>1642</ele>
        <time>2016-11-12T11:23:02Z</time>
      </trkpt>
      <trkpt lat="42.742" lon="1.87314">
        <ele>1642</ele>
        <time>2016-11-12T11:23:07Z</time>
      </trkpt>
      <trkpt lat="42.74204" lon="1.87312">
        <ele>1642</ele>
        <time>2016-11-12T11:23:12Z</time>
      </trkpt>
      <trkpt lat="42.74207" lon="1.87309">
        <ele>1642</ele>
        <time>2016-11-12T11:23:17Z</time>
      </trkpt>
      <trkpt lat="42.74209" lon="1.87305">
        <ele>1648</ele>
        <time>2016-11-12T11:23:22Z</time>
      </trkpt>
      <trkpt lat="42.74212" lon="1.87298">
        <ele>1648</ele>
        <time>2016-11-12T11:23:27Z</time>
      </trkpt>
      <trkpt lat="42.74214" lon="1.87296">
        <ele>1648</ele>
        <time>2016-11-12T11:23:32Z</time>
      </trkpt>
      <trkpt lat="42.74215" lon="1.87293">
        <ele>1648</ele>
        <time>2016-11-12T11:23:37Z</time>
      </trkpt>
      <trkpt lat="42.74217" lon="1.87291">
        <ele>1658</ele>
        <time>2016-11-12T11:23:42Z</time>
      </trkpt>
      <trkpt lat="42.74219" lon="1.8729">
        <ele>1658</ele>
        <time>2016-11-12T11:23:47Z</time>
      </trkpt>
      <trkpt lat="42.74219" lon="1.8729">
        <ele>1658</ele>
        <time>2016-11-12T11:23:52Z</time>
      </trkpt>
      <trkpt lat="42.74219" lon="1.8729">
        <ele>1658</ele>
        <time>2016-11-12T11:23:57Z</time>
      </trkpt>
      <trkpt lat="42.74221" lon="1.8729">
        <ele>1658</ele>
        <time>2016-11-12T11:24:02Z</time>
      </trkpt>
      <trkpt lat="42.74223" lon="1.87289">
        <ele>1658</ele>
        <time>2016-11-12T11:24:07Z</time>
      </trkpt>
      <trkpt lat="42.74225" lon="1.8729">
        <ele>1658</ele>
        <time>2016-11-12T11:24:12Z</time>
      </trkpt>
      <trkpt lat="42.74224" lon="1.87291">
        <ele>1658</ele>
        <time>2016-11-12T11:24:17Z</time>
      </trkpt>
      <trkpt lat="42.74224" lon="1.87292">
        <ele>1658</ele>
        <time>2016-11-12T11:24:22Z</time>
      </trkpt>
      <trkpt lat="42.74228" lon="1.87294">
        <ele>1648</ele>
        <time>2016-11-12T11:24:27Z</time>
      </trkpt>
      <trkpt lat="42.74227" lon="1.87296">
        <ele>1648</ele>
        <time>2016-11-12T11:24:32Z</time>
      </trkpt>
      <trkpt lat="42.74226" lon="1.87295">
        <ele>1648</ele>
        <time>2016-11-12T11:24:37Z</time>
      </trkpt>
      <trkpt lat="42.74226" lon="1.87295">
        <ele>1648</ele>
        <time>2016-11-12T11:24:42Z</time>
      </trkpt>
      <trkpt lat="42.74225" lon="1.87294">
        <ele>1648</ele>
        <time>2016-11-12T11:24:47Z</time>
      </trkpt>
      <trkpt lat="42.74226" lon="1.87293">
        <ele>1648</ele>
        <time>2016-11-12T11:24:52Z</time>
      </trkpt>
      <trkpt lat="42.74226" lon="1.87289">
        <ele>1658</ele>
        <time>2016-11-12T11:24:57Z</time>
      </trkpt>
      <trkpt lat="42.74226" lon="1.8729">
        <ele>1658</ele>
        <time>2016-11-12T11:25:02Z</time>
      </trkpt>
      <trkpt lat="42.74226" lon="1.8729">
        <ele>1658</ele>
        <time>2016-11-12T11:25:07Z</time>
      </trkpt>
      <trkpt lat="42.74227" lon="1.87289">
        <ele>1658</ele>
        <time>2016-11-12T11:25:12Z</time>
      </trkpt>
      <trkpt lat="42.74227" lon="1.87289">
        <ele>1658</ele>
        <time>2016-11-12T11:25:17Z</time>
      </trkpt>
      <trkpt lat="42.74227" lon="1.87289">
        <ele>1658</ele>
        <time>2016-11-12T11:25:22Z</time>
      </trkpt>
      <trkpt lat="42.74227" lon="1.87289">
        <ele>1658</ele>
        <time>2016-11-12T11:25:27Z</time>
      </trkpt>
      <trkpt lat="42.74227" lon="1.87289">
        <ele>1658</ele>
        <time>2016-11-12T11:25:32Z</time>
      </trkpt>
      <trkpt lat="42.74226" lon="1.87289">
        <ele>1658</ele>
        <time>2016-11-12T11:25:37Z</time>
      </trkpt>
      <trkpt lat="42.74228" lon="1.87292">
        <ele>1648</ele>
        <time>2016-11-12T11:25:42Z</time>
      </trkpt>
      <trkpt lat="42.74228" lon="1.87292">
        <ele>1648</ele>
        <time>2016-11-12T11:25:47Z</time>
      </trkpt>
      <trkpt lat="42.74228" lon="1.87293">
        <ele>1648</ele>
        <time>2016-11-12T11:25:52Z</time>
      </trkpt>
      <trkpt lat="42.74228" lon="1.87293">
        <ele>1648</ele>
        <time>2016-11-12T11:25:57Z</time>
      </trkpt>
      <trkpt lat="42.74226" lon="1.87293">
        <ele>1648</ele>
        <time>2016-11-12T11:26:02Z</time>
      </trkpt>
      <trkpt lat="42.74226" lon="1.87293">
        <ele>1648</ele>
        <time>2016-11-12T11:26:07Z</time>
      </trkpt>
      <trkpt lat="42.74225" lon="1.87293">
        <ele>1648</ele>
        <time>2016-11-12T11:26:12Z</time>
      </trkpt>
      <trkpt lat="42.74225" lon="1.87293">
        <ele>1648</ele>
        <time>2016-11-12T11:26:17Z</time>
      </trkpt>
      <trkpt lat="42.74225" lon="1.87293">
        <ele>1648</ele>
        <time>2016-11-12T11:26:22Z</time>
      </trkpt>
      <trkpt lat="42.74225" lon="1.87292">
        <ele>1648</ele>
        <time>2016-11-12T11:26:27Z</time>
      </trkpt>
      <trkpt lat="42.74224" lon="1.87291">
        <ele>1658</ele>
        <time>2016-11-12T11:26:32Z</time>
      </trkpt>
      <trkpt lat="42.74222" lon="1.87293">
        <ele>1648</ele>
        <time>2016-11-12T11:26:37Z</time>
      </trkpt>
      <trkpt lat="42.74222" lon="1.87293">
        <ele>1648</ele>
        <time>2016-11-12T11:26:42Z</time>
      </trkpt>
      <trkpt lat="42.74222" lon="1.87293">
        <ele>1648</ele>
        <time>2016-11-12T11:26:47Z</time>
      </trkpt>
      <trkpt lat="42.74222" lon="1.87293">
        <ele>1648</ele>
        <time>2016-11-12T11:26:52Z</time>
      </trkpt>
      <trkpt lat="42.74223" lon="1.8729">
        <ele>1658</ele>
        <time>2016-11-12T11:26:57Z</time>
      </trkpt>
      <trkpt lat="42.74222" lon="1.8729">
        <ele>1658</ele>
        <time>2016-11-12T11:27:02Z</time>
      </trkpt>
      <trkpt lat="42.74224" lon="1.87288">
        <ele>1658</ele>
        <time>2016-11-12T11:27:07Z</time>
      </trkpt>
      <trkpt lat="42.74223" lon="1.87288">
        <ele>1658</ele>
        <time>2016-11-12T11:27:12Z</time>
      </trkpt>
      <trkpt lat="42.74222" lon="1.8729">
        <ele>1658</ele>
        <time>2016-11-12T11:27:17Z</time>
      </trkpt>
      <trkpt lat="42.74224" lon="1.87289">
        <ele>1658</ele>
        <time>2016-11-12T11:27:22Z</time>
      </trkpt>
      <trkpt lat="42.74224" lon="1.8729">
        <ele>1658</ele>
        <time>2016-11-12T11:27:27Z</time>
      </trkpt>
      <trkpt lat="42.74224" lon="1.87291">
        <ele>1658</ele>
        <time>2016-11-12T11:27:32Z</time>
      </trkpt>
      <trkpt lat="42.74223" lon="1.87292">
        <ele>1648</ele>
        <time>2016-11-12T11:27:37Z</time>
      </trkpt>
      <trkpt lat="42.74224" lon="1.87294">
        <ele>1648</ele>
        <time>2016-11-12T11:27:42Z</time>
      </trkpt>
      <trkpt lat="42.74222" lon="1.87295">
        <ele>1648</ele>
        <time>2016-11-12T11:27:47Z</time>
      </trkpt>
      <trkpt lat="42.74222" lon="1.87294">
        <ele>1648</ele>
        <time>2016-11-12T11:27:52Z</time>
      </trkpt>
      <trkpt lat="42.74223" lon="1.87295">
        <ele>1648</ele>
        <time>2016-11-12T11:27:57Z</time>
      </trkpt>
      <trkpt lat="42.74227" lon="1.87294">
        <ele>1648</ele>
        <time>2016-11-12T11:28:02Z</time>
      </trkpt>
      <trkpt lat="42.74227" lon="1.87294">
        <ele>1648</ele>
        <time>2016-11-12T11:28:07Z</time>
      </trkpt>
      <trkpt lat="42.74227" lon="1.87293">
        <ele>1648</ele>
        <time>2016-11-12T11:28:12Z</time>
      </trkpt>
      <trkpt lat="42.74227" lon="1.87293">
        <ele>1648</ele>
        <time>2016-11-12T11:28:17Z</time>
      </trkpt>
      <trkpt lat="42.74225" lon="1.87294">
        <ele>1648</ele>
        <time>2016-11-12T11:28:22Z</time>
      </trkpt>
      <trkpt lat="42.74224" lon="1.87296">
        <ele>1648</ele>
        <time>2016-11-12T11:28:27Z</time>
      </trkpt>
      <trkpt lat="42.74222" lon="1.87295">
        <ele>1648</ele>
        <time>2016-11-12T11:28:32Z</time>
      </trkpt>
      <trkpt lat="42.74222" lon="1.87292">
        <ele>1658</ele>
        <time>2016-11-12T11:28:37Z</time>
      </trkpt>
      <trkpt lat="42.74222" lon="1.87291">
        <ele>1658</ele>
        <time>2016-11-12T11:28:42Z</time>
      </trkpt>
      <trkpt lat="42.74222" lon="1.87291">
        <ele>1658</ele>
        <time>2016-11-12T11:28:47Z</time>
      </trkpt>
      <trkpt lat="42.74223" lon="1.8729">
        <ele>1658</ele>
        <time>2016-11-12T11:28:52Z</time>
      </trkpt>
      <trkpt lat="42.74224" lon="1.8729">
        <ele>1658</ele>
        <time>2016-11-12T11:28:57Z</time>
      </trkpt>
      <trkpt lat="42.74225" lon="1.87293">
        <ele>1648</ele>
        <time>2016-11-12T11:29:02Z</time>
      </trkpt>
      <trkpt lat="42.74227" lon="1.87295">
        <ele>1648</ele>
        <time>2016-11-12T11:29:07Z</time>
      </trkpt>
      <trkpt lat="42.74227" lon="1.87296">
        <ele>1648</ele>
        <time>2016-11-12T11:29:12Z</time>
      </trkpt>
      <trkpt lat="42.74227" lon="1.87293">
        <ele>1648</ele>
        <time>2016-11-12T11:29:17Z</time>
      </trkpt>
      <trkpt lat="42.7423" lon="1.87289">
        <ele>1658</ele>
        <time>2016-11-12T11:29:22Z</time>
      </trkpt>
      <trkpt lat="42.74229" lon="1.87294">
        <ele>1648</ele>
        <time>2016-11-12T11:29:27Z</time>
      </trkpt>
      <trkpt lat="42.74229" lon="1.87296">
        <ele>1648</ele>
        <time>2016-11-12T11:29:32Z</time>
      </trkpt>
      <trkpt lat="42.74228" lon="1.87295">
        <ele>1648</ele>
        <time>2016-11-12T11:29:37Z</time>
      </trkpt>
      <trkpt lat="42.74228" lon="1.87296">
        <ele>1648</ele>
        <time>2016-11-12T11:29:42Z</time>
      </trkpt>
      <trkpt lat="42.74227" lon="1.87297">
        <ele>1648</ele>
        <time>2016-11-12T11:29:47Z</time>
      </trkpt>
      <trkpt lat="42.74228" lon="1.87297">
        <ele>1648</ele>
        <time>2016-11-12T11:29:52Z</time>
      </trkpt>
      <trkpt lat="42.74228" lon="1.87297">
        <ele>1648</ele>
        <time>2016-11-12T11:29:57Z</time>
      </trkpt>
      <trkpt lat="42.74227" lon="1.87296">
        <ele>1648</ele>
        <time>2016-11-12T11:30:02Z</time>
      </trkpt>
      <trkpt lat="42.74227" lon="1.87296">
        <ele>1648</ele>
        <time>2016-11-12T11:30:07Z</time>
      </trkpt>
      <trkpt lat="42.74227" lon="1.87296">
        <ele>1648</ele>
        <time>2016-11-12T11:30:12Z</time>
      </trkpt>
      <trkpt lat="42.74227" lon="1.87296">
        <ele>1648</ele>
        <time>2016-11-12T11:30:17Z</time>
      </trkpt>
      <trkpt lat="42.74229" lon="1.87295">
        <ele>1648</ele>
        <time>2016-11-12T11:30:22Z</time>
      </trkpt>
      <trkpt lat="42.74229" lon="1.87295">
        <ele>1648</ele>
        <time>2016-11-12T11:30:27Z</time>
      </trkpt>
      <trkpt lat="42.7423" lon="1.87295">
        <ele>1648</ele>
        <time>2016-11-12T11:30:32Z</time>
      </trkpt>
      <trkpt lat="42.74232" lon="1.87296">
        <ele>1648</ele>
        <time>2016-11-12T11:30:37Z</time>
      </trkpt>
      <trkpt lat="42.74232" lon="1.87296">
        <ele>1648</ele>
        <time>2016-11-12T11:30:42Z</time>
      </trkpt>
      <trkpt lat="42.74232" lon="1.87296">
        <ele>1648</ele>
        <time>2016-11-12T11:30:47Z</time>
      </trkpt>
      <trkpt lat="42.74232" lon="1.87297">
        <ele>1648</ele>
        <time>2016-11-12T11:30:52Z</time>
      </trkpt>
      <trkpt lat="42.74232" lon="1.87297">
        <ele>1648</ele>
        <time>2016-11-12T11:30:57Z</time>
      </trkpt>
      <trkpt lat="42.74232" lon="1.87297">
        <ele>1648</ele>
        <time>2016-11-12T11:31:02Z</time>
      </trkpt>
      <trkpt lat="42.74232" lon="1.87298">
        <ele>1648</ele>
        <time>2016-11-12T11:31:07Z</time>
      </trkpt>
      <trkpt lat="42.74232" lon="1.87298">
        <ele>1648</ele>
        <time>2016-11-12T11:31:12Z</time>
      </trkpt>
      <trkpt lat="42.74232" lon="1.87299">
        <ele>1648</ele>
        <time>2016-11-12T11:31:17Z</time>
      </trkpt>
      <trkpt lat="42.74232" lon="1.87299">
        <ele>1648</ele>
        <time>2016-11-12T11:31:22Z</time>
      </trkpt>
      <trkpt lat="42.74232" lon="1.87299">
        <ele>1648</ele>
        <time>2016-11-12T11:31:27Z</time>
      </trkpt>
      <trkpt lat="42.74232" lon="1.87297">
        <ele>1648</ele>
        <time>2016-11-12T11:31:32Z</time>
      </trkpt>
      <trkpt lat="42.74232" lon="1.87297">
        <ele>1648</ele>
        <time>2016-11-12T11:31:37Z</time>
      </trkpt>
      <trkpt lat="42.74232" lon="1.87297">
        <ele>1648</ele>
        <time>2016-11-12T11:31:42Z</time>
      </trkpt>
      <trkpt lat="42.74232" lon="1.87296">
        <ele>1648</ele>
        <time>2016-11-12T11:31:47Z</time>
      </trkpt>
      <trkpt lat="42.74232" lon="1.87296">
        <ele>1648</ele>
        <time>2016-11-12T11:31:52Z</time>
      </trkpt>
      <trkpt lat="42.74232" lon="1.87296">
        <ele>1648</ele>
        <time>2016-11-12T11:31:57Z</time>
      </trkpt>
      <trkpt lat="42.74232" lon="1.87295">
        <ele>1648</ele>
        <time>2016-11-12T11:32:02Z</time>
      </trkpt>
      <trkpt lat="42.74232" lon="1.87296">
        <ele>1648</ele>
        <time>2016-11-12T11:32:07Z</time>
      </trkpt>
      <trkpt lat="42.74232" lon="1.87298">
        <ele>1648</ele>
        <time>2016-11-12T11:32:12Z</time>
      </trkpt>
      <trkpt lat="42.74232" lon="1.87298">
        <ele>1648</ele>
        <time>2016-11-12T11:32:17Z</time>
      </trkpt>
      <trkpt lat="42.74232" lon="1.87297">
        <ele>1648</ele>
        <time>2016-11-12T11:32:22Z</time>
      </trkpt>
      <trkpt lat="42.74232" lon="1.87297">
        <ele>1648</ele>
        <time>2016-11-12T11:32:27Z</time>
      </trkpt>
      <trkpt lat="42.74232" lon="1.87297">
        <ele>1648</ele>
        <time>2016-11-12T11:32:32Z</time>
      </trkpt>
      <trkpt lat="42.74234" lon="1.87299">
        <ele>1648</ele>
        <time>2016-11-12T11:32:37Z</time>
      </trkpt>
      <trkpt lat="42.74233" lon="1.87298">
        <ele>1648</ele>
        <time>2016-11-12T11:32:42Z</time>
      </trkpt>
      <trkpt lat="42.74232" lon="1.87298">
        <ele>1648</ele>
        <time>2016-11-12T11:32:47Z</time>
      </trkpt>
      <trkpt lat="42.74232" lon="1.87299">
        <ele>1648</ele>
        <time>2016-11-12T11:32:52Z</time>
      </trkpt>
      <trkpt lat="42.74231" lon="1.87299">
        <ele>1648</ele>
        <time>2016-11-12T11:32:57Z</time>
      </trkpt>
      <trkpt lat="42.74231" lon="1.87299">
        <ele>1648</ele>
        <time>2016-11-12T11:33:02Z</time>
      </trkpt>
      <trkpt lat="42.7423" lon="1.87299">
        <ele>1648</ele>
        <time>2016-11-12T11:33:07Z</time>
      </trkpt>
      <trkpt lat="42.7423" lon="1.87299">
        <ele>1648</ele>
        <time>2016-11-12T11:33:12Z</time>
      </trkpt>
      <trkpt lat="42.74229" lon="1.87297">
        <ele>1648</ele>
        <time>2016-11-12T11:33:17Z</time>
      </trkpt>
      <trkpt lat="42.74229" lon="1.87297">
        <ele>1648</ele>
        <time>2016-11-12T11:33:22Z</time>
      </trkpt>
      <trkpt lat="42.74228" lon="1.87297">
        <ele>1648</ele>
        <time>2016-11-12T11:33:27Z</time>
      </trkpt>
      <trkpt lat="42.74228" lon="1.87297">
        <ele>1648</ele>
        <time>2016-11-12T11:33:32Z</time>
      </trkpt>
      <trkpt lat="42.74229" lon="1.87295">
        <ele>1648</ele>
        <time>2016-11-12T11:33:37Z</time>
      </trkpt>
      <trkpt lat="42.74229" lon="1.87295">
        <ele>1648</ele>
        <time>2016-11-12T11:33:42Z</time>
      </trkpt>
      <trkpt lat="42.74227" lon="1.87299">
        <ele>1648</ele>
        <time>2016-11-12T11:33:47Z</time>
      </trkpt>
      <trkpt lat="42.74226" lon="1.87301">
        <ele>1648</ele>
        <time>2016-11-12T11:33:52Z</time>
      </trkpt>
      <trkpt lat="42.74226" lon="1.873">
        <ele>1648</ele>
        <time>2016-11-12T11:33:57Z</time>
      </trkpt>
      <trkpt lat="42.74225" lon="1.873">
        <ele>1648</ele>
        <time>2016-11-12T11:34:02Z</time>
      </trkpt>
      <trkpt lat="42.74222" lon="1.87304">
        <ele>1648</ele>
        <time>2016-11-12T11:34:07Z</time>
      </trkpt>
      <trkpt lat="42.74219" lon="1.87308">
        <ele>1648</ele>
        <time>2016-11-12T11:34:12Z</time>
      </trkpt>
      <trkpt lat="42.74217" lon="1.87314">
        <ele>1648</ele>
        <time>2016-11-12T11:34:17Z</time>
      </trkpt>
      <trkpt lat="42.74215" lon="1.87319">
        <ele>1648</ele>
        <time>2016-11-12T11:34:22Z</time>
      </trkpt>
      <trkpt lat="42.74214" lon="1.87321">
        <ele>1648</ele>
        <time>2016-11-12T11:34:27Z</time>
      </trkpt>
      <trkpt lat="42.74212" lon="1.87323">
        <ele>1648</ele>
        <time>2016-11-12T11:34:32Z</time>
      </trkpt>
      <trkpt lat="42.74213" lon="1.87323">
        <ele>1648</ele>
        <time>2016-11-12T11:34:37Z</time>
      </trkpt>
      <trkpt lat="42.74212" lon="1.87323">
        <ele>1648</ele>
        <time>2016-11-12T11:34:42Z</time>
      </trkpt>
      <trkpt lat="42.74212" lon="1.87323">
        <ele>1648</ele>
        <time>2016-11-12T11:34:47Z</time>
      </trkpt>
      <trkpt lat="42.74212" lon="1.87323">
        <ele>1648</ele>
        <time>2016-11-12T11:34:52Z</time>
      </trkpt>
      <trkpt lat="42.74211" lon="1.8732">
        <ele>1648</ele>
        <time>2016-11-12T11:34:57Z</time>
      </trkpt>
      <trkpt lat="42.74214" lon="1.87314">
        <ele>1648</ele>
        <time>2016-11-12T11:35:02Z</time>
      </trkpt>
      <trkpt lat="42.74215" lon="1.87309">
        <ele>1648</ele>
        <time>2016-11-12T11:35:07Z</time>
      </trkpt>
      <trkpt lat="42.74217" lon="1.87306">
        <ele>1648</ele>
        <time>2016-11-12T11:35:12Z</time>
      </trkpt>
      <trkpt lat="42.74219" lon="1.87301">
        <ele>1648</ele>
        <time>2016-11-12T11:35:17Z</time>
      </trkpt>
      <trkpt lat="42.74219" lon="1.87299">
        <ele>1648</ele>
        <time>2016-11-12T11:35:22Z</time>
      </trkpt>
      <trkpt lat="42.7422" lon="1.87299">
        <ele>1648</ele>
        <time>2016-11-12T11:35:27Z</time>
      </trkpt>
      <trkpt lat="42.7422" lon="1.87295">
        <ele>1648</ele>
        <time>2016-11-12T11:35:32Z</time>
      </trkpt>
      <trkpt lat="42.74224" lon="1.87293">
        <ele>1648</ele>
        <time>2016-11-12T11:35:37Z</time>
      </trkpt>
      <trkpt lat="42.74227" lon="1.87293">
        <ele>1648</ele>
        <time>2016-11-12T11:35:42Z</time>
      </trkpt>
      <trkpt lat="42.74228" lon="1.87295">
        <ele>1648</ele>
        <time>2016-11-12T11:35:47Z</time>
      </trkpt>
      <trkpt lat="42.74226" lon="1.87296">
        <ele>1648</ele>
        <time>2016-11-12T11:35:52Z</time>
      </trkpt>
      <trkpt lat="42.74226" lon="1.87297">
        <ele>1648</ele>
        <time>2016-11-12T11:35:57Z</time>
      </trkpt>
      <trkpt lat="42.74226" lon="1.87297">
        <ele>1648</ele>
        <time>2016-11-12T11:36:02Z</time>
      </trkpt>
      <trkpt lat="42.74227" lon="1.87297">
        <ele>1648</ele>
        <time>2016-11-12T11:36:07Z</time>
      </trkpt>
      <trkpt lat="42.74227" lon="1.87299">
        <ele>1648</ele>
        <time>2016-11-12T11:36:12Z</time>
      </trkpt>
      <trkpt lat="42.74226" lon="1.87298">
        <ele>1648</ele>
        <time>2016-11-12T11:36:17Z</time>
      </trkpt>
      <trkpt lat="42.74226" lon="1.87298">
        <ele>1648</ele>
        <time>2016-11-12T11:36:22Z</time>
      </trkpt>
      <trkpt lat="42.74226" lon="1.87299">
        <ele>1648</ele>
        <time>2016-11-12T11:36:27Z</time>
      </trkpt>
      <trkpt lat="42.74227" lon="1.87299">
        <ele>1648</ele>
        <time>2016-11-12T11:36:32Z</time>
      </trkpt>
      <trkpt lat="42.74227" lon="1.87299">
        <ele>1648</ele>
        <time>2016-11-12T11:36:37Z</time>
      </trkpt>
      <trkpt lat="42.74228" lon="1.87299">
        <ele>1648</ele>
        <time>2016-11-12T11:36:42Z</time>
      </trkpt>
      <trkpt lat="42.74228" lon="1.87299">
        <ele>1648</ele>
        <time>2016-11-12T11:36:47Z</time>
      </trkpt>
      <trkpt lat="42.74228" lon="1.87298">
        <ele>1648</ele>
        <time>2016-11-12T11:36:52Z</time>
      </trkpt>
      <trkpt lat="42.74227" lon="1.87297">
        <ele>1648</ele>
        <time>2016-11-12T11:36:57Z</time>
      </trkpt>
      <trkpt lat="42.74227" lon="1.87297">
        <ele>1648</ele>
        <time>2016-11-12T11:37:02Z</time>
      </trkpt>
      <trkpt lat="42.74226" lon="1.87296">
        <ele>1648</ele>
        <time>2016-11-12T11:37:07Z</time>
      </trkpt>
      <trkpt lat="42.74227" lon="1.87296">
        <ele>1648</ele>
        <time>2016-11-12T11:37:12Z</time>
      </trkpt>
      <trkpt lat="42.74227" lon="1.87296">
        <ele>1648</ele>
        <time>2016-11-12T11:37:17Z</time>
      </trkpt>
      <trkpt lat="42.74227" lon="1.87296">
        <ele>1648</ele>
        <time>2016-11-12T11:37:22Z</time>
      </trkpt>
      <trkpt lat="42.74227" lon="1.87296">
        <ele>1648</ele>
        <time>2016-11-12T11:37:27Z</time>
      </trkpt>
      <trkpt lat="42.74228" lon="1.87296">
        <ele>1648</ele>
        <time>2016-11-12T11:37:32Z</time>
      </trkpt>
      <trkpt lat="42.74228" lon="1.87296">
        <ele>1648</ele>
        <time>2016-11-12T11:37:37Z</time>
      </trkpt>
      <trkpt lat="42.74228" lon="1.87296">
        <ele>1648</ele>
        <time>2016-11-12T11:37:42Z</time>
      </trkpt>
      <trkpt lat="42.74228" lon="1.87296">
        <ele>1648</ele>
        <time>2016-11-12T11:37:47Z</time>
      </trkpt>
      <trkpt lat="42.74228" lon="1.87296">
        <ele>1648</ele>
        <time>2016-11-12T11:37:52Z</time>
      </trkpt>
      <trkpt lat="42.74228" lon="1.87296">
        <ele>1648</ele>
        <time>2016-11-12T11:37:57Z</time>
      </trkpt>
      <trkpt lat="42.74228" lon="1.87295">
        <ele>1648</ele>
        <time>2016-11-12T11:38:02Z</time>
      </trkpt>
      <trkpt lat="42.74228" lon="1.87295">
        <ele>1648</ele>
        <time>2016-11-12T11:38:07Z</time>
      </trkpt>
      <trkpt lat="42.74228" lon="1.87295">
        <ele>1648</ele>
        <time>2016-11-12T11:38:12Z</time>
      </trkpt>
      <trkpt lat="42.74228" lon="1.87295">
        <ele>1648</ele>
        <time>2016-11-12T11:38:17Z</time>
      </trkpt>
      <trkpt lat="42.74228" lon="1.87294">
        <ele>1648</ele>
        <time>2016-11-12T11:38:22Z</time>
      </trkpt>
      <trkpt lat="42.74228" lon="1.87294">
        <ele>1648</ele>
        <time>2016-11-12T11:38:27Z</time>
      </trkpt>
      <trkpt lat="42.74228" lon="1.87294">
        <ele>1648</ele>
        <time>2016-11-12T11:38:32Z</time>
      </trkpt>
      <trkpt lat="42.74228" lon="1.87294">
        <ele>1648</ele>
        <time>2016-11-12T11:38:37Z</time>
      </trkpt>
      <trkpt lat="42.74228" lon="1.87294">
        <ele>1648</ele>
        <time>2016-11-12T11:38:42Z</time>
      </trkpt>
      <trkpt lat="42.74228" lon="1.87294">
        <ele>1648</ele>
        <time>2016-11-12T11:38:47Z</time>
      </trkpt>
      <trkpt lat="42.74228" lon="1.87294">
        <ele>1648</ele>
        <time>2016-11-12T11:38:52Z</time>
      </trkpt>
      <trkpt lat="42.74228" lon="1.87293">
        <ele>1648</ele>
        <time>2016-11-12T11:38:57Z</time>
      </trkpt>
      <trkpt lat="42.74227" lon="1.87292">
        <ele>1648</ele>
        <time>2016-11-12T11:39:02Z</time>
      </trkpt>
      <trkpt lat="42.74227" lon="1.87292">
        <ele>1648</ele>
        <time>2016-11-12T11:39:07Z</time>
      </trkpt>
      <trkpt lat="42.74227" lon="1.87293">
        <ele>1648</ele>
        <time>2016-11-12T11:39:12Z</time>
      </trkpt>
      <trkpt lat="42.74227" lon="1.87292">
        <ele>1648</ele>
        <time>2016-11-12T11:39:17Z</time>
      </trkpt>
      <trkpt lat="42.74227" lon="1.87292">
        <ele>1648</ele>
        <time>2016-11-12T11:39:22Z</time>
      </trkpt>
      <trkpt lat="42.74227" lon="1.87292">
        <ele>1648</ele>
        <time>2016-11-12T11:39:27Z</time>
      </trkpt>
      <trkpt lat="42.74227" lon="1.87291">
        <ele>1658</ele>
        <time>2016-11-12T11:39:32Z</time>
      </trkpt>
      <trkpt lat="42.74227" lon="1.87291">
        <ele>1658</ele>
        <time>2016-11-12T11:39:37Z</time>
      </trkpt>
      <trkpt lat="42.74227" lon="1.87292">
        <ele>1658</ele>
        <time>2016-11-12T11:39:42Z</time>
      </trkpt>
      <trkpt lat="42.74227" lon="1.87292">
        <ele>1648</ele>
        <time>2016-11-12T11:39:47Z</time>
      </trkpt>
      <trkpt lat="42.74227" lon="1.87292">
        <ele>1648</ele>
        <time>2016-11-12T11:39:52Z</time>
      </trkpt>
      <trkpt lat="42.74227" lon="1.87292">
        <ele>1648</ele>
        <time>2016-11-12T11:39:57Z</time>
      </trkpt>
      <trkpt lat="42.74227" lon="1.87292">
        <ele>1648</ele>
        <time>2016-11-12T11:40:02Z</time>
      </trkpt>
      <trkpt lat="42.74226" lon="1.87293">
        <ele>1648</ele>
        <time>2016-11-12T11:40:07Z</time>
      </trkpt>
      <trkpt lat="42.74226" lon="1.87292">
        <ele>1658</ele>
        <time>2016-11-12T11:40:12Z</time>
      </trkpt>
      <trkpt lat="42.74225" lon="1.87291">
        <ele>1658</ele>
        <time>2016-11-12T11:40:17Z</time>
      </trkpt>
      <trkpt lat="42.74225" lon="1.87291">
        <ele>1658</ele>
        <time>2016-11-12T11:40:22Z</time>
      </trkpt>
      <trkpt lat="42.74225" lon="1.87291">
        <ele>1658</ele>
        <time>2016-11-12T11:40:27Z</time>
      </trkpt>
      <trkpt lat="42.74225" lon="1.87291">
        <ele>1658</ele>
        <time>2016-11-12T11:40:32Z</time>
      </trkpt>
      <trkpt lat="42.74225" lon="1.87291">
        <ele>1658</ele>
        <time>2016-11-12T11:40:37Z</time>
      </trkpt>
      <trkpt lat="42.74228" lon="1.87293">
        <ele>1648</ele>
        <time>2016-11-12T11:40:42Z</time>
      </trkpt>
      <trkpt lat="42.74228" lon="1.87293">
        <ele>1648</ele>
        <time>2016-11-12T11:40:47Z</time>
      </trkpt>
      <trkpt lat="42.74229" lon="1.87293">
        <ele>1648</ele>
        <time>2016-11-12T11:40:52Z</time>
      </trkpt>
      <trkpt lat="42.7423" lon="1.87294">
        <ele>1648</ele>
        <time>2016-11-12T11:40:57Z</time>
      </trkpt>
      <trkpt lat="42.74231" lon="1.87295">
        <ele>1648</ele>
        <time>2016-11-12T11:41:02Z</time>
      </trkpt>
      <trkpt lat="42.74231" lon="1.87294">
        <ele>1648</ele>
        <time>2016-11-12T11:41:07Z</time>
      </trkpt>
      <trkpt lat="42.7423" lon="1.87294">
        <ele>1648</ele>
        <time>2016-11-12T11:41:12Z</time>
      </trkpt>
      <trkpt lat="42.74228" lon="1.87294">
        <ele>1648</ele>
        <time>2016-11-12T11:41:17Z</time>
      </trkpt>
      <trkpt lat="42.74228" lon="1.87293">
        <ele>1648</ele>
        <time>2016-11-12T11:41:22Z</time>
      </trkpt>
      <trkpt lat="42.74229" lon="1.87297">
        <ele>1648</ele>
        <time>2016-11-12T11:41:27Z</time>
      </trkpt>
      <trkpt lat="42.74229" lon="1.87296">
        <ele>1648</ele>
        <time>2016-11-12T11:41:32Z</time>
      </trkpt>
      <trkpt lat="42.7423" lon="1.87294">
        <ele>1648</ele>
        <time>2016-11-12T11:41:37Z</time>
      </trkpt>
      <trkpt lat="42.7423" lon="1.87294">
        <ele>1648</ele>
        <time>2016-11-12T11:41:42Z</time>
      </trkpt>
      <trkpt lat="42.7423" lon="1.87293">
        <ele>1648</ele>
        <time>2016-11-12T11:41:47Z</time>
      </trkpt>
      <trkpt lat="42.7423" lon="1.87292">
        <ele>1648</ele>
        <time>2016-11-12T11:41:52Z</time>
      </trkpt>
      <trkpt lat="42.7423" lon="1.87291">
        <ele>1658</ele>
        <time>2016-11-12T11:41:57Z</time>
      </trkpt>
      <trkpt lat="42.74226" lon="1.87292">
        <ele>1658</ele>
        <time>2016-11-12T11:42:02Z</time>
      </trkpt>
      <trkpt lat="42.74222" lon="1.87292">
        <ele>1648</ele>
        <time>2016-11-12T11:42:07Z</time>
      </trkpt>
      <trkpt lat="42.7422" lon="1.87294">
        <ele>1648</ele>
        <time>2016-11-12T11:42:12Z</time>
      </trkpt>
      <trkpt lat="42.7422" lon="1.87294">
        <ele>1648</ele>
        <time>2016-11-12T11:42:17Z</time>
      </trkpt>
      <trkpt lat="42.74221" lon="1.87294">
        <ele>1648</ele>
        <time>2016-11-12T11:42:22Z</time>
      </trkpt>
      <trkpt lat="42.74221" lon="1.87294">
        <ele>1648</ele>
        <time>2016-11-12T11:42:27Z</time>
      </trkpt>
      <trkpt lat="42.74223" lon="1.87293">
        <ele>1648</ele>
        <time>2016-11-12T11:42:32Z</time>
      </trkpt>
      <trkpt lat="42.74223" lon="1.87293">
        <ele>1648</ele>
        <time>2016-11-12T11:42:37Z</time>
      </trkpt>
      <trkpt lat="42.74224" lon="1.87292">
        <ele>1648</ele>
        <time>2016-11-12T11:42:42Z</time>
      </trkpt>
      <trkpt lat="42.74223" lon="1.87291">
        <ele>1658</ele>
        <time>2016-11-12T11:42:47Z</time>
      </trkpt>
      <trkpt lat="42.74227" lon="1.8729">
        <ele>1658</ele>
        <time>2016-11-12T11:42:52Z</time>
      </trkpt>
      <trkpt lat="42.74226" lon="1.87291">
        <ele>1658</ele>
        <time>2016-11-12T11:42:57Z</time>
      </trkpt>
      <trkpt lat="42.74224" lon="1.87291">
        <ele>1658</ele>
        <time>2016-11-12T11:43:02Z</time>
      </trkpt>
      <trkpt lat="42.74224" lon="1.87291">
        <ele>1658</ele>
        <time>2016-11-12T11:43:07Z</time>
      </trkpt>
      <trkpt lat="42.74224" lon="1.87292">
        <ele>1658</ele>
        <time>2016-11-12T11:43:12Z</time>
      </trkpt>
      <trkpt lat="42.74224" lon="1.87292">
        <ele>1648</ele>
        <time>2016-11-12T11:43:17Z</time>
      </trkpt>
      <trkpt lat="42.74223" lon="1.87294">
        <ele>1648</ele>
        <time>2016-11-12T11:43:22Z</time>
      </trkpt>
      <trkpt lat="42.74222" lon="1.87293">
        <ele>1648</ele>
        <time>2016-11-12T11:43:27Z</time>
      </trkpt>
      <trkpt lat="42.74222" lon="1.87294">
        <ele>1648</ele>
        <time>2016-11-12T11:43:32Z</time>
      </trkpt>
      <trkpt lat="42.74223" lon="1.87292">
        <ele>1648</ele>
        <time>2016-11-12T11:43:37Z</time>
      </trkpt>
      <trkpt lat="42.74222" lon="1.87291">
        <ele>1658</ele>
        <time>2016-11-12T11:43:42Z</time>
      </trkpt>
      <trkpt lat="42.74223" lon="1.87292">
        <ele>1648</ele>
        <time>2016-11-12T11:43:47Z</time>
      </trkpt>
      <trkpt lat="42.74223" lon="1.87292">
        <ele>1648</ele>
        <time>2016-11-12T11:43:52Z</time>
      </trkpt>
      <trkpt lat="42.74223" lon="1.87292">
        <ele>1648</ele>
        <time>2016-11-12T11:43:57Z</time>
      </trkpt>
      <trkpt lat="42.74223" lon="1.87292">
        <ele>1648</ele>
        <time>2016-11-12T11:44:02Z</time>
      </trkpt>
      <trkpt lat="42.74223" lon="1.87292">
        <ele>1648</ele>
        <time>2016-11-12T11:44:07Z</time>
      </trkpt>
      <trkpt lat="42.74223" lon="1.87291">
        <ele>1658</ele>
        <time>2016-11-12T11:44:12Z</time>
      </trkpt>
      <trkpt lat="42.74222" lon="1.87292">
        <ele>1648</ele>
        <time>2016-11-12T11:44:17Z</time>
      </trkpt>
      <trkpt lat="42.7422" lon="1.87292">
        <ele>1648</ele>
        <time>2016-11-12T11:44:22Z</time>
      </trkpt>
      <trkpt lat="42.7422" lon="1.87292">
        <ele>1648</ele>
        <time>2016-11-12T11:44:27Z</time>
      </trkpt>
      <trkpt lat="42.7422" lon="1.87292">
        <ele>1648</ele>
        <time>2016-11-12T11:44:32Z</time>
      </trkpt>
      <trkpt lat="42.74221" lon="1.87292">
        <ele>1648</ele>
        <time>2016-11-12T11:44:37Z</time>
      </trkpt>
      <trkpt lat="42.74221" lon="1.87292">
        <ele>1648</ele>
        <time>2016-11-12T11:44:42Z</time>
      </trkpt>
      <trkpt lat="42.74221" lon="1.87292">
        <ele>1648</ele>
        <time>2016-11-12T11:44:47Z</time>
      </trkpt>
      <trkpt lat="42.74221" lon="1.87293">
        <ele>1648</ele>
        <time>2016-11-12T11:44:52Z</time>
      </trkpt>
      <trkpt lat="42.7422" lon="1.87295">
        <ele>1648</ele>
        <time>2016-11-12T11:44:57Z</time>
      </trkpt>
      <trkpt lat="42.7422" lon="1.87295">
        <ele>1648</ele>
        <time>2016-11-12T11:45:02Z</time>
      </trkpt>
      <trkpt lat="42.7422" lon="1.87295">
        <ele>1648</ele>
        <time>2016-11-12T11:45:07Z</time>
      </trkpt>
      <trkpt lat="42.74219" lon="1.87294">
        <ele>1648</ele>
        <time>2016-11-12T11:45:12Z</time>
      </trkpt>
      <trkpt lat="42.74219" lon="1.87294">
        <ele>1648</ele>
        <time>2016-11-12T11:45:17Z</time>
      </trkpt>
      <trkpt lat="42.7422" lon="1.87295">
        <ele>1648</ele>
        <time>2016-11-12T11:45:22Z</time>
      </trkpt>
      <trkpt lat="42.7422" lon="1.87294">
        <ele>1648</ele>
        <time>2016-11-12T11:45:27Z</time>
      </trkpt>
      <trkpt lat="42.7422" lon="1.87294">
        <ele>1648</ele>
        <time>2016-11-12T11:45:32Z</time>
      </trkpt>
      <trkpt lat="42.7422" lon="1.87294">
        <ele>1648</ele>
        <time>2016-11-12T11:45:37Z</time>
      </trkpt>
      <trkpt lat="42.7422" lon="1.87294">
        <ele>1648</ele>
        <time>2016-11-12T11:45:42Z</time>
      </trkpt>
      <trkpt lat="42.7422" lon="1.87294">
        <ele>1648</ele>
        <time>2016-11-12T11:45:47Z</time>
      </trkpt>
      <trkpt lat="42.7422" lon="1.87293">
        <ele>1648</ele>
        <time>2016-11-12T11:45:52Z</time>
      </trkpt>
      <trkpt lat="42.7422" lon="1.87293">
        <ele>1648</ele>
        <time>2016-11-12T11:45:57Z</time>
      </trkpt>
      <trkpt lat="42.7422" lon="1.87293">
        <ele>1648</ele>
        <time>2016-11-12T11:46:02Z</time>
      </trkpt>
      <trkpt lat="42.7422" lon="1.87293">
        <ele>1648</ele>
        <time>2016-11-12T11:46:07Z</time>
      </trkpt>
      <trkpt lat="42.7422" lon="1.87291">
        <ele>1658</ele>
        <time>2016-11-12T11:46:12Z</time>
      </trkpt>
      <trkpt lat="42.74224" lon="1.87288">
        <ele>1658</ele>
        <time>2016-11-12T11:46:17Z</time>
      </trkpt>
      <trkpt lat="42.74229" lon="1.87286">
        <ele>1658</ele>
        <time>2016-11-12T11:46:22Z</time>
      </trkpt>
      <trkpt lat="42.74233" lon="1.87284">
        <ele>1658</ele>
        <time>2016-11-12T11:46:27Z</time>
      </trkpt>
      <trkpt lat="42.74236" lon="1.87283">
        <ele>1658</ele>
        <time>2016-11-12T11:46:32Z</time>
      </trkpt>
      <trkpt lat="42.74239" lon="1.87282">
        <ele>1658</ele>
        <time>2016-11-12T11:46:37Z</time>
      </trkpt>
      <trkpt lat="42.74243" lon="1.87283">
        <ele>1658</ele>
        <time>2016-11-12T11:46:42Z</time>
      </trkpt>
      <trkpt lat="42.74248" lon="1.87283">
        <ele>1658</ele>
        <time>2016-11-12T11:46:47Z</time>
      </trkpt>
      <trkpt lat="42.74251" lon="1.87285">
        <ele>1658</ele>
        <time>2016-11-12T11:46:52Z</time>
      </trkpt>
      <trkpt lat="42.74253" lon="1.87287">
        <ele>1658</ele>
        <time>2016-11-12T11:46:57Z</time>
      </trkpt>
      <trkpt lat="42.74258" lon="1.87289">
        <ele>1658</ele>
        <time>2016-11-12T11:47:02Z</time>
      </trkpt>
      <trkpt lat="42.74262" lon="1.87287">
        <ele>1658</ele>
        <time>2016-11-12T11:47:07Z</time>
      </trkpt>
      <trkpt lat="42.74266" lon="1.87288">
        <ele>1658</ele>
        <time>2016-11-12T11:47:12Z</time>
      </trkpt>
      <trkpt lat="42.74271" lon="1.8729">
        <ele>1658</ele>
        <time>2016-11-12T11:47:17Z</time>
      </trkpt>
      <trkpt lat="42.74278" lon="1.8729">
        <ele>1658</ele>
        <time>2016-11-12T11:47:22Z</time>
      </trkpt>
      <trkpt lat="42.74284" lon="1.87292">
        <ele>1648</ele>
        <time>2016-11-12T11:47:27Z</time>
      </trkpt>
      <trkpt lat="42.7429" lon="1.87296">
        <ele>1648</ele>
        <time>2016-11-12T11:47:32Z</time>
      </trkpt>
      <trkpt lat="42.74295" lon="1.87298">
        <ele>1642</ele>
        <time>2016-11-12T11:47:37Z</time>
      </trkpt>
      <trkpt lat="42.74302" lon="1.87299">
        <ele>1642</ele>
        <time>2016-11-12T11:47:42Z</time>
      </trkpt>
      <trkpt lat="42.74305" lon="1.87302">
        <ele>1642</ele>
        <time>2016-11-12T11:47:47Z</time>
      </trkpt>
      <trkpt lat="42.74308" lon="1.87302">
        <ele>1642</ele>
        <time>2016-11-12T11:47:52Z</time>
      </trkpt>
      <trkpt lat="42.74309" lon="1.87302">
        <ele>1642</ele>
        <time>2016-11-12T11:47:57Z</time>
      </trkpt>
      <trkpt lat="42.74312" lon="1.87303">
        <ele>1642</ele>
        <time>2016-11-12T11:48:02Z</time>
      </trkpt>
      <trkpt lat="42.74316" lon="1.87305">
        <ele>1642</ele>
        <time>2016-11-12T11:48:07Z</time>
      </trkpt>
      <trkpt lat="42.74321" lon="1.87306">
        <ele>1642</ele>
        <time>2016-11-12T11:48:12Z</time>
      </trkpt>
      <trkpt lat="42.74327" lon="1.87308">
        <ele>1642</ele>
        <time>2016-11-12T11:48:17Z</time>
      </trkpt>
      <trkpt lat="42.74334" lon="1.87307">
        <ele>1642</ele>
        <time>2016-11-12T11:48:22Z</time>
      </trkpt>
      <trkpt lat="42.7434" lon="1.87308">
        <ele>1642</ele>
        <time>2016-11-12T11:48:27Z</time>
      </trkpt>
      <trkpt lat="42.74346" lon="1.8731">
        <ele>1642</ele>
        <time>2016-11-12T11:48:32Z</time>
      </trkpt>
      <trkpt lat="42.74351" lon="1.87311">
        <ele>1642</ele>
        <time>2016-11-12T11:48:37Z</time>
      </trkpt>
      <trkpt lat="42.74355" lon="1.87311">
        <ele>1642</ele>
        <time>2016-11-12T11:48:42Z</time>
      </trkpt>
      <trkpt lat="42.74361" lon="1.87312">
        <ele>1642</ele>
        <time>2016-11-12T11:48:47Z</time>
      </trkpt>
      <trkpt lat="42.74366" lon="1.87313">
        <ele>1642</ele>
        <time>2016-11-12T11:48:52Z</time>
      </trkpt>
      <trkpt lat="42.7437" lon="1.87313">
        <ele>1642</ele>
        <time>2016-11-12T11:48:57Z</time>
      </trkpt>
      <trkpt lat="42.74375" lon="1.87315">
        <ele>1639</ele>
        <time>2016-11-12T11:49:02Z</time>
      </trkpt>
      <trkpt lat="42.7438" lon="1.87317">
        <ele>1639</ele>
        <time>2016-11-12T11:49:07Z</time>
      </trkpt>
      <trkpt lat="42.74384" lon="1.87319">
        <ele>1639</ele>
        <time>2016-11-12T11:49:12Z</time>
      </trkpt>
      <trkpt lat="42.7439" lon="1.87324">
        <ele>1639</ele>
        <time>2016-11-12T11:49:17Z</time>
      </trkpt>
      <trkpt lat="42.74395" lon="1.87328">
        <ele>1639</ele>
        <time>2016-11-12T11:49:22Z</time>
      </trkpt>
      <trkpt lat="42.74399" lon="1.87331">
        <ele>1639</ele>
        <time>2016-11-12T11:49:27Z</time>
      </trkpt>
      <trkpt lat="42.74405" lon="1.87331">
        <ele>1639</ele>
        <time>2016-11-12T11:49:32Z</time>
      </trkpt>
      <trkpt lat="42.7441" lon="1.87329">
        <ele>1639</ele>
        <time>2016-11-12T11:49:37Z</time>
      </trkpt>
      <trkpt lat="42.74414" lon="1.87329">
        <ele>1639</ele>
        <time>2016-11-12T11:49:42Z</time>
      </trkpt>
      <trkpt lat="42.74423" lon="1.87327">
        <ele>1639</ele>
        <time>2016-11-12T11:49:47Z</time>
      </trkpt>
      <trkpt lat="42.74431" lon="1.87329">
        <ele>1639</ele>
        <time>2016-11-12T11:49:52Z</time>
      </trkpt>
      <trkpt lat="42.74438" lon="1.87329">
        <ele>1639</ele>
        <time>2016-11-12T11:49:57Z</time>
      </trkpt>
      <trkpt lat="42.74442" lon="1.87327">
        <ele>1639</ele>
        <time>2016-11-12T11:50:02Z</time>
      </trkpt>
      <trkpt lat="42.74449" lon="1.87323">
        <ele>1639</ele>
        <time>2016-11-12T11:50:07Z</time>
      </trkpt>
      <trkpt lat="42.74455" lon="1.87324">
        <ele>1639</ele>
        <time>2016-11-12T11:50:12Z</time>
      </trkpt>
      <trkpt lat="42.74459" lon="1.87322">
        <ele>1635</ele>
        <time>2016-11-12T11:50:17Z</time>
      </trkpt>
      <trkpt lat="42.74468" lon="1.87324">
        <ele>1635</ele>
        <time>2016-11-12T11:50:22Z</time>
      </trkpt>
      <trkpt lat="42.74473" lon="1.87325">
        <ele>1635</ele>
        <time>2016-11-12T11:50:27Z</time>
      </trkpt>
      <trkpt lat="42.74483" lon="1.87327">
        <ele>1635</ele>
        <time>2016-11-12T11:50:32Z</time>
      </trkpt>
      <trkpt lat="42.74489" lon="1.87326">
        <ele>1635</ele>
        <time>2016-11-12T11:50:37Z</time>
      </trkpt>
      <trkpt lat="42.74491" lon="1.87328">
        <ele>1635</ele>
        <time>2016-11-12T11:50:42Z</time>
      </trkpt>
      <trkpt lat="42.74497" lon="1.87328">
        <ele>1635</ele>
        <time>2016-11-12T11:50:47Z</time>
      </trkpt>
      <trkpt lat="42.74505" lon="1.87325">
        <ele>1635</ele>
        <time>2016-11-12T11:50:52Z</time>
      </trkpt>
      <trkpt lat="42.7451" lon="1.87323">
        <ele>1635</ele>
        <time>2016-11-12T11:50:57Z</time>
      </trkpt>
      <trkpt lat="42.74511" lon="1.87322">
        <ele>1635</ele>
        <time>2016-11-12T11:51:02Z</time>
      </trkpt>
      <trkpt lat="42.74512" lon="1.8732">
        <ele>1635</ele>
        <time>2016-11-12T11:51:07Z</time>
      </trkpt>
      <trkpt lat="42.74512" lon="1.87319">
        <ele>1635</ele>
        <time>2016-11-12T11:51:12Z</time>
      </trkpt>
      <trkpt lat="42.74513" lon="1.87318">
        <ele>1635</ele>
        <time>2016-11-12T11:51:17Z</time>
      </trkpt>
      <trkpt lat="42.74513" lon="1.87314">
        <ele>1635</ele>
        <time>2016-11-12T11:51:22Z</time>
      </trkpt>
      <trkpt lat="42.74512" lon="1.87312">
        <ele>1635</ele>
        <time>2016-11-12T11:51:27Z</time>
      </trkpt>
      <trkpt lat="42.74511" lon="1.87309">
        <ele>1635</ele>
        <time>2016-11-12T11:51:32Z</time>
      </trkpt>
      <trkpt lat="42.74511" lon="1.87305">
        <ele>1635</ele>
        <time>2016-11-12T11:51:37Z</time>
      </trkpt>
      <trkpt lat="42.74514" lon="1.87301">
        <ele>1635</ele>
        <time>2016-11-12T11:51:42Z</time>
      </trkpt>
      <trkpt lat="42.74515" lon="1.87297">
        <ele>1635</ele>
        <time>2016-11-12T11:51:47Z</time>
      </trkpt>
      <trkpt lat="42.74518" lon="1.87294">
        <ele>1635</ele>
        <time>2016-11-12T11:51:52Z</time>
      </trkpt>
      <trkpt lat="42.74518" lon="1.87292">
        <ele>1635</ele>
        <time>2016-11-12T11:51:57Z</time>
      </trkpt>
      <trkpt lat="42.74518" lon="1.87292">
        <ele>1649</ele>
        <time>2016-11-12T11:52:02Z</time>
      </trkpt>
      <trkpt lat="42.7452" lon="1.87286">
        <ele>1649</ele>
        <time>2016-11-12T11:52:07Z</time>
      </trkpt>
      <trkpt lat="42.74521" lon="1.87281">
        <ele>1649</ele>
        <time>2016-11-12T11:52:12Z</time>
      </trkpt>
      <trkpt lat="42.7452" lon="1.87279">
        <ele>1649</ele>
        <time>2016-11-12T11:52:17Z</time>
      </trkpt>
      <trkpt lat="42.7452" lon="1.87279">
        <ele>1649</ele>
        <time>2016-11-12T11:52:22Z</time>
      </trkpt>
      <trkpt lat="42.74521" lon="1.87279">
        <ele>1649</ele>
        <time>2016-11-12T11:52:27Z</time>
      </trkpt>
      <trkpt lat="42.74521" lon="1.87279">
        <ele>1649</ele>
        <time>2016-11-12T11:52:32Z</time>
      </trkpt>
      <trkpt lat="42.74521" lon="1.87278">
        <ele>1649</ele>
        <time>2016-11-12T11:52:37Z</time>
      </trkpt>
      <trkpt lat="42.74521" lon="1.87278">
        <ele>1649</ele>
        <time>2016-11-12T11:52:42Z</time>
      </trkpt>
      <trkpt lat="42.74521" lon="1.87278">
        <ele>1649</ele>
        <time>2016-11-12T11:52:47Z</time>
      </trkpt>
      <trkpt lat="42.74521" lon="1.87278">
        <ele>1649</ele>
        <time>2016-11-12T11:52:52Z</time>
      </trkpt>
      <trkpt lat="42.74521" lon="1.87278">
        <ele>1649</ele>
        <time>2016-11-12T11:52:57Z</time>
      </trkpt>
      <trkpt lat="42.7452" lon="1.87278">
        <ele>1649</ele>
        <time>2016-11-12T11:53:02Z</time>
      </trkpt>
      <trkpt lat="42.74521" lon="1.87278">
        <ele>1649</ele>
        <time>2016-11-12T11:53:07Z</time>
      </trkpt>
      <trkpt lat="42.74521" lon="1.87278">
        <ele>1649</ele>
        <time>2016-11-12T11:53:12Z</time>
      </trkpt>
      <trkpt lat="42.74521" lon="1.87276">
        <ele>1649</ele>
        <time>2016-11-12T11:53:17Z</time>
      </trkpt>
      <trkpt lat="42.74521" lon="1.87276">
        <ele>1649</ele>
        <time>2016-11-12T11:53:22Z</time>
      </trkpt>
      <trkpt lat="42.74521" lon="1.87276">
        <ele>1649</ele>
        <time>2016-11-12T11:53:27Z</time>
      </trkpt>
      <trkpt lat="42.74521" lon="1.87275">
        <ele>1649</ele>
        <time>2016-11-12T11:53:32Z</time>
      </trkpt>
      <trkpt lat="42.74521" lon="1.87275">
        <ele>1649</ele>
        <time>2016-11-12T11:53:37Z</time>
      </trkpt>
      <trkpt lat="42.74521" lon="1.87275">
        <ele>1649</ele>
        <time>2016-11-12T11:53:42Z</time>
      </trkpt>
      <trkpt lat="42.74521" lon="1.87274">
        <ele>1649</ele>
        <time>2016-11-12T11:53:47Z</time>
      </trkpt>
      <trkpt lat="42.74521" lon="1.87274">
        <ele>1649</ele>
        <time>2016-11-12T11:53:52Z</time>
      </trkpt>
      <trkpt lat="42.74521" lon="1.87274">
        <ele>1649</ele>
        <time>2016-11-12T11:53:57Z</time>
      </trkpt>
      <trkpt lat="42.74521" lon="1.87274">
        <ele>1649</ele>
        <time>2016-11-12T11:54:02Z</time>
      </trkpt>
      <trkpt lat="42.74521" lon="1.87274">
        <ele>1649</ele>
        <time>2016-11-12T11:54:07Z</time>
      </trkpt>
      <trkpt lat="42.74521" lon="1.87274">
        <ele>1649</ele>
        <time>2016-11-12T11:54:12Z</time>
      </trkpt>
      <trkpt lat="42.74521" lon="1.87274">
        <ele>1649</ele>
        <time>2016-11-12T11:54:17Z</time>
      </trkpt>
      <trkpt lat="42.74521" lon="1.87273">
        <ele>1649</ele>
        <time>2016-11-12T11:54:22Z</time>
      </trkpt>
      <trkpt lat="42.7452" lon="1.87271">
        <ele>1649</ele>
        <time>2016-11-12T11:54:27Z</time>
      </trkpt>
      <trkpt lat="42.74519" lon="1.8727">
        <ele>1649</ele>
        <time>2016-11-12T11:54:32Z</time>
      </trkpt>
      <trkpt lat="42.74519" lon="1.8727">
        <ele>1649</ele>
        <time>2016-11-12T11:54:37Z</time>
      </trkpt>
      <trkpt lat="42.74519" lon="1.8727">
        <ele>1649</ele>
        <time>2016-11-12T11:54:42Z</time>
      </trkpt>
      <trkpt lat="42.74519" lon="1.8727">
        <ele>1649</ele>
        <time>2016-11-12T11:54:47Z</time>
      </trkpt>
      <trkpt lat="42.74519" lon="1.8727">
        <ele>1649</ele>
        <time>2016-11-12T11:54:52Z</time>
      </trkpt>
      <trkpt lat="42.74519" lon="1.8727">
        <ele>1649</ele>
        <time>2016-11-12T11:54:57Z</time>
      </trkpt>
      <trkpt lat="42.74519" lon="1.87271">
        <ele>1649</ele>
        <time>2016-11-12T11:55:02Z</time>
      </trkpt>
      <trkpt lat="42.74521" lon="1.87267">
        <ele>1649</ele>
        <time>2016-11-12T11:55:07Z</time>
      </trkpt>
      <trkpt lat="42.74523" lon="1.87265">
        <ele>1649</ele>
        <time>2016-11-12T11:55:12Z</time>
      </trkpt>
      <trkpt lat="42.74524" lon="1.87264">
        <ele>1649</ele>
        <time>2016-11-12T11:55:17Z</time>
      </trkpt>
      <trkpt lat="42.74527" lon="1.87264">
        <ele>1649</ele>
        <time>2016-11-12T11:55:22Z</time>
      </trkpt>
      <trkpt lat="42.74529" lon="1.87263">
        <ele>1649</ele>
        <time>2016-11-12T11:55:27Z</time>
      </trkpt>
      <trkpt lat="42.74533" lon="1.87259">
        <ele>1649</ele>
        <time>2016-11-12T11:55:32Z</time>
      </trkpt>
      <trkpt lat="42.74535" lon="1.87255">
        <ele>1649</ele>
        <time>2016-11-12T11:55:37Z</time>
      </trkpt>
      <trkpt lat="42.74536" lon="1.87254">
        <ele>1649</ele>
        <time>2016-11-12T11:55:42Z</time>
      </trkpt>
      <trkpt lat="42.74538" lon="1.8725">
        <ele>1649</ele>
        <time>2016-11-12T11:55:47Z</time>
      </trkpt>
      <trkpt lat="42.74539" lon="1.87247">
        <ele>1649</ele>
        <time>2016-11-12T11:55:52Z</time>
      </trkpt>
      <trkpt lat="42.7454" lon="1.87245">
        <ele>1649</ele>
        <time>2016-11-12T11:55:57Z</time>
      </trkpt>
      <trkpt lat="42.74543" lon="1.87241">
        <ele>1639</ele>
        <time>2016-11-12T11:56:02Z</time>
      </trkpt>
      <trkpt lat="42.74543" lon="1.87239">
        <ele>1639</ele>
        <time>2016-11-12T11:56:07Z</time>
      </trkpt>
      <trkpt lat="42.74543" lon="1.87239">
        <ele>1639</ele>
        <time>2016-11-12T11:56:12Z</time>
      </trkpt>
      <trkpt lat="42.74543" lon="1.87236">
        <ele>1639</ele>
        <time>2016-11-12T11:56:17Z</time>
      </trkpt>
      <trkpt lat="42.74544" lon="1.87232">
        <ele>1639</ele>
        <time>2016-11-12T11:56:22Z</time>
      </trkpt>
      <trkpt lat="42.74544" lon="1.87231">
        <ele>1639</ele>
        <time>2016-11-12T11:56:27Z</time>
      </trkpt>
      <trkpt lat="42.74543" lon="1.87229">
        <ele>1639</ele>
        <time>2016-11-12T11:56:32Z</time>
      </trkpt>
      <trkpt lat="42.74543" lon="1.87227">
        <ele>1639</ele>
        <time>2016-11-12T11:56:37Z</time>
      </trkpt>
      <trkpt lat="42.74544" lon="1.87222">
        <ele>1639</ele>
        <time>2016-11-12T11:56:42Z</time>
      </trkpt>
      <trkpt lat="42.74546" lon="1.87218">
        <ele>1639</ele>
        <time>2016-11-12T11:56:47Z</time>
      </trkpt>
      <trkpt lat="42.74546" lon="1.87214">
        <ele>1639</ele>
        <time>2016-11-12T11:56:52Z</time>
      </trkpt>
      <trkpt lat="42.74545" lon="1.8721">
        <ele>1639</ele>
        <time>2016-11-12T11:56:57Z</time>
      </trkpt>
      <trkpt lat="42.74545" lon="1.8721">
        <ele>1639</ele>
        <time>2016-11-12T11:57:02Z</time>
      </trkpt>
      <trkpt lat="42.74545" lon="1.8721">
        <ele>1639</ele>
        <time>2016-11-12T11:57:07Z</time>
      </trkpt>
      <trkpt lat="42.74544" lon="1.87207">
        <ele>1647</ele>
        <time>2016-11-12T11:57:12Z</time>
      </trkpt>
      <trkpt lat="42.74543" lon="1.87203">
        <ele>1647</ele>
        <time>2016-11-12T11:57:17Z</time>
      </trkpt>
      <trkpt lat="42.74542" lon="1.872">
        <ele>1647</ele>
        <time>2016-11-12T11:57:22Z</time>
      </trkpt>
      <trkpt lat="42.74543" lon="1.87197">
        <ele>1647</ele>
        <time>2016-11-12T11:57:27Z</time>
      </trkpt>
      <trkpt lat="42.74543" lon="1.87193">
        <ele>1647</ele>
        <time>2016-11-12T11:57:32Z</time>
      </trkpt>
      <trkpt lat="42.74545" lon="1.8719">
        <ele>1647</ele>
        <time>2016-11-12T11:57:37Z</time>
      </trkpt>
      <trkpt lat="42.74546" lon="1.87187">
        <ele>1647</ele>
        <time>2016-11-12T11:57:42Z</time>
      </trkpt>
      <trkpt lat="42.74547" lon="1.87184">
        <ele>1647</ele>
        <time>2016-11-12T11:57:47Z</time>
      </trkpt>
      <trkpt lat="42.74546" lon="1.87181">
        <ele>1647</ele>
        <time>2016-11-12T11:57:52Z</time>
      </trkpt>
      <trkpt lat="42.74547" lon="1.87178">
        <ele>1647</ele>
        <time>2016-11-12T11:57:57Z</time>
      </trkpt>
      <trkpt lat="42.74547" lon="1.87177">
        <ele>1647</ele>
        <time>2016-11-12T11:58:02Z</time>
      </trkpt>
      <trkpt lat="42.74546" lon="1.87177">
        <ele>1647</ele>
        <time>2016-11-12T11:58:07Z</time>
      </trkpt>
      <trkpt lat="42.74546" lon="1.87175">
        <ele>1647</ele>
        <time>2016-11-12T11:58:12Z</time>
      </trkpt>
      <trkpt lat="42.74547" lon="1.87172">
        <ele>1647</ele>
        <time>2016-11-12T11:58:17Z</time>
      </trkpt>
      <trkpt lat="42.74548" lon="1.87168">
        <ele>1647</ele>
        <time>2016-11-12T11:58:22Z</time>
      </trkpt>
      <trkpt lat="42.74548" lon="1.87163">
        <ele>1647</ele>
        <time>2016-11-12T11:58:27Z</time>
      </trkpt>
      <trkpt lat="42.74549" lon="1.8716">
        <ele>1647</ele>
        <time>2016-11-12T11:58:32Z</time>
      </trkpt>
      <trkpt lat="42.74549" lon="1.87158">
        <ele>1647</ele>
        <time>2016-11-12T11:58:37Z</time>
      </trkpt>
      <trkpt lat="42.74549" lon="1.87156">
        <ele>1647</ele>
        <time>2016-11-12T11:58:42Z</time>
      </trkpt>
      <trkpt lat="42.74549" lon="1.8715">
        <ele>1647</ele>
        <time>2016-11-12T11:58:47Z</time>
      </trkpt>
      <trkpt lat="42.7455" lon="1.87147">
        <ele>1647</ele>
        <time>2016-11-12T11:58:52Z</time>
      </trkpt>
      <trkpt lat="42.74552" lon="1.87145">
        <ele>1647</ele>
        <time>2016-11-12T11:58:57Z</time>
      </trkpt>
      <trkpt lat="42.74553" lon="1.87142">
        <ele>1647</ele>
        <time>2016-11-12T11:59:02Z</time>
      </trkpt>
      <trkpt lat="42.74554" lon="1.87137">
        <ele>1647</ele>
        <time>2016-11-12T11:59:07Z</time>
      </trkpt>
      <trkpt lat="42.74556" lon="1.87134">
        <ele>1647</ele>
        <time>2016-11-12T11:59:12Z</time>
      </trkpt>
      <trkpt lat="42.74557" lon="1.87135">
        <ele>1647</ele>
        <time>2016-11-12T11:59:17Z</time>
      </trkpt>
      <trkpt lat="42.74557" lon="1.87134">
        <ele>1647</ele>
        <time>2016-11-12T11:59:22Z</time>
      </trkpt>
      <trkpt lat="42.74557" lon="1.87133">
        <ele>1647</ele>
        <time>2016-11-12T11:59:27Z</time>
      </trkpt>
      <trkpt lat="42.74557" lon="1.87133">
        <ele>1647</ele>
        <time>2016-11-12T11:59:32Z</time>
      </trkpt>
      <trkpt lat="42.74557" lon="1.87133">
        <ele>1647</ele>
        <time>2016-11-12T11:59:37Z</time>
      </trkpt>
      <trkpt lat="42.74557" lon="1.87133">
        <ele>1647</ele>
        <time>2016-11-12T11:59:42Z</time>
      </trkpt>
      <trkpt lat="42.74557" lon="1.87133">
        <ele>1647</ele>
        <time>2016-11-12T11:59:47Z</time>
      </trkpt>
      <trkpt lat="42.74557" lon="1.87132">
        <ele>1647</ele>
        <time>2016-11-12T11:59:52Z</time>
      </trkpt>
      <trkpt lat="42.74557" lon="1.87132">
        <ele>1647</ele>
        <time>2016-11-12T11:59:57Z</time>
      </trkpt>
      <trkpt lat="42.74557" lon="1.87132">
        <ele>1647</ele>
        <time>2016-11-12T12:00:02Z</time>
      </trkpt>
      <trkpt lat="42.74556" lon="1.87127">
        <ele>1647</ele>
        <time>2016-11-12T12:00:07Z</time>
      </trkpt>
      <trkpt lat="42.74556" lon="1.87122">
        <ele>1660</ele>
        <time>2016-11-12T12:00:12Z</time>
      </trkpt>
      <trkpt lat="42.74557" lon="1.87118">
        <ele>1660</ele>
        <time>2016-11-12T12:00:17Z</time>
      </trkpt>
      <trkpt lat="42.74559" lon="1.87113">
        <ele>1660</ele>
        <time>2016-11-12T12:00:22Z</time>
      </trkpt>
      <trkpt lat="42.74562" lon="1.87111">
        <ele>1660</ele>
        <time>2016-11-12T12:00:27Z</time>
      </trkpt>
      <trkpt lat="42.74566" lon="1.8711">
        <ele>1660</ele>
        <time>2016-11-12T12:00:32Z</time>
      </trkpt>
      <trkpt lat="42.74567" lon="1.87109">
        <ele>1660</ele>
        <time>2016-11-12T12:00:37Z</time>
      </trkpt>
      <trkpt lat="42.74569" lon="1.87106">
        <ele>1660</ele>
        <time>2016-11-12T12:00:42Z</time>
      </trkpt>
      <trkpt lat="42.74569" lon="1.87105">
        <ele>1660</ele>
        <time>2016-11-12T12:00:47Z</time>
      </trkpt>
      <trkpt lat="42.74568" lon="1.87098">
        <ele>1660</ele>
        <time>2016-11-12T12:00:52Z</time>
      </trkpt>
      <trkpt lat="42.74567" lon="1.87094">
        <ele>1660</ele>
        <time>2016-11-12T12:00:57Z</time>
      </trkpt>
      <trkpt lat="42.74571" lon="1.87089">
        <ele>1660</ele>
        <time>2016-11-12T12:01:02Z</time>
      </trkpt>
      <trkpt lat="42.74572" lon="1.8708">
        <ele>1660</ele>
        <time>2016-11-12T12:01:07Z</time>
      </trkpt>
      <trkpt lat="42.74574" lon="1.87068">
        <ele>1660</ele>
        <time>2016-11-12T12:01:12Z</time>
      </trkpt>
      <trkpt lat="42.74573" lon="1.87062">
        <ele>1660</ele>
        <time>2016-11-12T12:01:17Z</time>
      </trkpt>
      <trkpt lat="42.74574" lon="1.87057">
        <ele>1660</ele>
        <time>2016-11-12T12:01:22Z</time>
      </trkpt>
      <trkpt lat="42.74577" lon="1.87052">
        <ele>1660</ele>
        <time>2016-11-12T12:01:27Z</time>
      </trkpt>
      <trkpt lat="42.74578" lon="1.87049">
        <ele>1660</ele>
        <time>2016-11-12T12:01:32Z</time>
      </trkpt>
      <trkpt lat="42.74576" lon="1.87042">
        <ele>1660</ele>
        <time>2016-11-12T12:01:37Z</time>
      </trkpt>
      <trkpt lat="42.74577" lon="1.87041">
        <ele>1663</ele>
        <time>2016-11-12T12:01:42Z</time>
      </trkpt>
      <trkpt lat="42.74574" lon="1.87038">
        <ele>1663</ele>
        <time>2016-11-12T12:01:47Z</time>
      </trkpt>
      <trkpt lat="42.74572" lon="1.87034">
        <ele>1663</ele>
        <time>2016-11-12T12:01:52Z</time>
      </trkpt>
      <trkpt lat="42.74571" lon="1.87031">
        <ele>1663</ele>
        <time>2016-11-12T12:01:57Z</time>
      </trkpt>
      <trkpt lat="42.7457" lon="1.87028">
        <ele>1663</ele>
        <time>2016-11-12T12:02:02Z</time>
      </trkpt>
      <trkpt lat="42.74569" lon="1.87019">
        <ele>1663</ele>
        <time>2016-11-12T12:02:07Z</time>
      </trkpt>
      <trkpt lat="42.7457" lon="1.87015">
        <ele>1663</ele>
        <time>2016-11-12T12:02:12Z</time>
      </trkpt>
      <trkpt lat="42.74569" lon="1.8701">
        <ele>1663</ele>
        <time>2016-11-12T12:02:17Z</time>
      </trkpt>
      <trkpt lat="42.7457" lon="1.87003">
        <ele>1663</ele>
        <time>2016-11-12T12:02:22Z</time>
      </trkpt>
      <trkpt lat="42.74572" lon="1.86999">
        <ele>1663</ele>
        <time>2016-11-12T12:02:27Z</time>
      </trkpt>
      <trkpt lat="42.74574" lon="1.86994">
        <ele>1663</ele>
        <time>2016-11-12T12:02:32Z</time>
      </trkpt>
      <trkpt lat="42.74576" lon="1.86992">
        <ele>1663</ele>
        <time>2016-11-12T12:02:37Z</time>
      </trkpt>
      <trkpt lat="42.74577" lon="1.86986">
        <ele>1663</ele>
        <time>2016-11-12T12:02:42Z</time>
      </trkpt>
      <trkpt lat="42.74581" lon="1.8698">
        <ele>1663</ele>
        <time>2016-11-12T12:02:47Z</time>
      </trkpt>
      <trkpt lat="42.74582" lon="1.86971">
        <ele>1663</ele>
        <time>2016-11-12T12:02:52Z</time>
      </trkpt>
      <trkpt lat="42.74582" lon="1.86966">
        <ele>1663</ele>
        <time>2016-11-12T12:02:57Z</time>
      </trkpt>
      <trkpt lat="42.74582" lon="1.86954">
        <ele>1675</ele>
        <time>2016-11-12T12:03:02Z</time>
      </trkpt>
      <trkpt lat="42.74582" lon="1.86953">
        <ele>1675</ele>
        <time>2016-11-12T12:03:07Z</time>
      </trkpt>
      <trkpt lat="42.74582" lon="1.86953">
        <ele>1675</ele>
        <time>2016-11-12T12:03:12Z</time>
      </trkpt>
      <trkpt lat="42.74581" lon="1.86951">
        <ele>1675</ele>
        <time>2016-11-12T12:03:17Z</time>
      </trkpt>
      <trkpt lat="42.74581" lon="1.8695">
        <ele>1675</ele>
        <time>2016-11-12T12:03:22Z</time>
      </trkpt>
      <trkpt lat="42.74581" lon="1.86949">
        <ele>1675</ele>
        <time>2016-11-12T12:03:27Z</time>
      </trkpt>
      <trkpt lat="42.74581" lon="1.86948">
        <ele>1675</ele>
        <time>2016-11-12T12:03:32Z</time>
      </trkpt>
      <trkpt lat="42.74582" lon="1.86948">
        <ele>1675</ele>
        <time>2016-11-12T12:03:37Z</time>
      </trkpt>
      <trkpt lat="42.74586" lon="1.86949">
        <ele>1675</ele>
        <time>2016-11-12T12:03:42Z</time>
      </trkpt>
      <trkpt lat="42.74585" lon="1.86949">
        <ele>1675</ele>
        <time>2016-11-12T12:03:47Z</time>
      </trkpt>
      <trkpt lat="42.74586" lon="1.86951">
        <ele>1675</ele>
        <time>2016-11-12T12:03:52Z</time>
      </trkpt>
      <trkpt lat="42.74587" lon="1.86953">
        <ele>1675</ele>
        <time>2016-11-12T12:03:57Z</time>
      </trkpt>
      <trkpt lat="42.74589" lon="1.86954">
        <ele>1675</ele>
        <time>2016-11-12T12:04:02Z</time>
      </trkpt>
      <trkpt lat="42.7459" lon="1.86954">
        <ele>1675</ele>
        <time>2016-11-12T12:04:07Z</time>
      </trkpt>
      <trkpt lat="42.74591" lon="1.86952">
        <ele>1675</ele>
        <time>2016-11-12T12:04:12Z</time>
      </trkpt>
      <trkpt lat="42.74593" lon="1.86949">
        <ele>1675</ele>
        <time>2016-11-12T12:04:17Z</time>
      </trkpt>
      <trkpt lat="42.74594" lon="1.86949">
        <ele>1675</ele>
        <time>2016-11-12T12:04:22Z</time>
      </trkpt>
      <trkpt lat="42.74595" lon="1.86946">
        <ele>1675</ele>
        <time>2016-11-12T12:04:27Z</time>
      </trkpt>
      <trkpt lat="42.74597" lon="1.86941">
        <ele>1675</ele>
        <time>2016-11-12T12:04:32Z</time>
      </trkpt>
      <trkpt lat="42.74597" lon="1.8694">
        <ele>1675</ele>
        <time>2016-11-12T12:04:37Z</time>
      </trkpt>
      <trkpt lat="42.74599" lon="1.86939">
        <ele>1675</ele>
        <time>2016-11-12T12:04:42Z</time>
      </trkpt>
      <trkpt lat="42.74602" lon="1.86938">
        <ele>1675</ele>
        <time>2016-11-12T12:04:47Z</time>
      </trkpt>
      <trkpt lat="42.74603" lon="1.86935">
        <ele>1675</ele>
        <time>2016-11-12T12:04:52Z</time>
      </trkpt>
      <trkpt lat="42.74604" lon="1.86929">
        <ele>1675</ele>
        <time>2016-11-12T12:04:57Z</time>
      </trkpt>
      <trkpt lat="42.74605" lon="1.86925">
        <ele>1675</ele>
        <time>2016-11-12T12:05:02Z</time>
      </trkpt>
      <trkpt lat="42.74608" lon="1.86919">
        <ele>1675</ele>
        <time>2016-11-12T12:05:07Z</time>
      </trkpt>
      <trkpt lat="42.74608" lon="1.86915">
        <ele>1675</ele>
        <time>2016-11-12T12:05:12Z</time>
      </trkpt>
      <trkpt lat="42.74608" lon="1.8691">
        <ele>1675</ele>
        <time>2016-11-12T12:05:17Z</time>
      </trkpt>
      <trkpt lat="42.74607" lon="1.86906">
        <ele>1675</ele>
        <time>2016-11-12T12:05:22Z</time>
      </trkpt>
      <trkpt lat="42.74608" lon="1.86902">
        <ele>1675</ele>
        <time>2016-11-12T12:05:27Z</time>
      </trkpt>
      <trkpt lat="42.74608" lon="1.869">
        <ele>1675</ele>
        <time>2016-11-12T12:05:32Z</time>
      </trkpt>
      <trkpt lat="42.74607" lon="1.86894">
        <ele>1675</ele>
        <time>2016-11-12T12:05:37Z</time>
      </trkpt>
      <trkpt lat="42.74608" lon="1.86889">
        <ele>1675</ele>
        <time>2016-11-12T12:05:42Z</time>
      </trkpt>
      <trkpt lat="42.74608" lon="1.86884">
        <ele>1675</ele>
        <time>2016-11-12T12:05:47Z</time>
      </trkpt>
      <trkpt lat="42.74608" lon="1.86881">
        <ele>1675</ele>
        <time>2016-11-12T12:05:52Z</time>
      </trkpt>
      <trkpt lat="42.7461" lon="1.86879">
        <ele>1675</ele>
        <time>2016-11-12T12:05:57Z</time>
      </trkpt>
      <trkpt lat="42.74609" lon="1.86879">
        <ele>1675</ele>
        <time>2016-11-12T12:06:02Z</time>
      </trkpt>
      <trkpt lat="42.74609" lon="1.86878">
        <ele>1675</ele>
        <time>2016-11-12T12:06:07Z</time>
      </trkpt>
      <trkpt lat="42.74611" lon="1.86876">
        <ele>1675</ele>
        <time>2016-11-12T12:06:12Z</time>
      </trkpt>
      <trkpt lat="42.74614" lon="1.86871">
        <ele>1680</ele>
        <time>2016-11-12T12:06:17Z</time>
      </trkpt>
      <trkpt lat="42.74615" lon="1.86869">
        <ele>1680</ele>
        <time>2016-11-12T12:06:22Z</time>
      </trkpt>
      <trkpt lat="42.74617" lon="1.86863">
        <ele>1680</ele>
        <time>2016-11-12T12:06:27Z</time>
      </trkpt>
      <trkpt lat="42.74618" lon="1.8686">
        <ele>1680</ele>
        <time>2016-11-12T12:06:32Z</time>
      </trkpt>
      <trkpt lat="42.7462" lon="1.86855">
        <ele>1680</ele>
        <time>2016-11-12T12:06:37Z</time>
      </trkpt>
      <trkpt lat="42.74622" lon="1.86853">
        <ele>1680</ele>
        <time>2016-11-12T12:06:42Z</time>
      </trkpt>
      <trkpt lat="42.74625" lon="1.86849">
        <ele>1680</ele>
        <time>2016-11-12T12:06:47Z</time>
      </trkpt>
      <trkpt lat="42.74627" lon="1.86845">
        <ele>1668</ele>
        <time>2016-11-12T12:06:52Z</time>
      </trkpt>
      <trkpt lat="42.74629" lon="1.86843">
        <ele>1668</ele>
        <time>2016-11-12T12:06:57Z</time>
      </trkpt>
      <trkpt lat="42.7463" lon="1.86842">
        <ele>1668</ele>
        <time>2016-11-12T12:07:02Z</time>
      </trkpt>
      <trkpt lat="42.74628" lon="1.86838">
        <ele>1668</ele>
        <time>2016-11-12T12:07:07Z</time>
      </trkpt>
      <trkpt lat="42.74626" lon="1.86837">
        <ele>1668</ele>
        <time>2016-11-12T12:07:12Z</time>
      </trkpt>
      <trkpt lat="42.74622" lon="1.86833">
        <ele>1680</ele>
        <time>2016-11-12T12:07:17Z</time>
      </trkpt>
      <trkpt lat="42.74621" lon="1.86833">
        <ele>1680</ele>
        <time>2016-11-12T12:07:22Z</time>
      </trkpt>
      <trkpt lat="42.74621" lon="1.86831">
        <ele>1680</ele>
        <time>2016-11-12T12:07:27Z</time>
      </trkpt>
      <trkpt lat="42.7462" lon="1.86831">
        <ele>1680</ele>
        <time>2016-11-12T12:07:32Z</time>
      </trkpt>
      <trkpt lat="42.7462" lon="1.8683">
        <ele>1680</ele>
        <time>2016-11-12T12:07:37Z</time>
      </trkpt>
      <trkpt lat="42.7462" lon="1.86826">
        <ele>1680</ele>
        <time>2016-11-12T12:07:42Z</time>
      </trkpt>
      <trkpt lat="42.74622" lon="1.86824">
        <ele>1680</ele>
        <time>2016-11-12T12:07:47Z</time>
      </trkpt>
      <trkpt lat="42.74624" lon="1.86819">
        <ele>1680</ele>
        <time>2016-11-12T12:07:52Z</time>
      </trkpt>
      <trkpt lat="42.74625" lon="1.86818">
        <ele>1680</ele>
        <time>2016-11-12T12:07:57Z</time>
      </trkpt>
      <trkpt lat="42.74624" lon="1.86816">
        <ele>1680</ele>
        <time>2016-11-12T12:08:02Z</time>
      </trkpt>
      <trkpt lat="42.74624" lon="1.86814">
        <ele>1680</ele>
        <time>2016-11-12T12:08:07Z</time>
      </trkpt>
      <trkpt lat="42.74623" lon="1.86814">
        <ele>1680</ele>
        <time>2016-11-12T12:08:12Z</time>
      </trkpt>
      <trkpt lat="42.74623" lon="1.86814">
        <ele>1680</ele>
        <time>2016-11-12T12:08:17Z</time>
      </trkpt>
      <trkpt lat="42.74623" lon="1.86814">
        <ele>1680</ele>
        <time>2016-11-12T12:08:22Z</time>
      </trkpt>
      <trkpt lat="42.74623" lon="1.86814">
        <ele>1680</ele>
        <time>2016-11-12T12:08:27Z</time>
      </trkpt>
      <trkpt lat="42.74624" lon="1.86812">
        <ele>1680</ele>
        <time>2016-11-12T12:08:32Z</time>
      </trkpt>
      <trkpt lat="42.74626" lon="1.86809">
        <ele>1668</ele>
        <time>2016-11-12T12:08:37Z</time>
      </trkpt>
      <trkpt lat="42.74626" lon="1.86809">
        <ele>1668</ele>
        <time>2016-11-12T12:08:42Z</time>
      </trkpt>
      <trkpt lat="42.74628" lon="1.86808">
        <ele>1668</ele>
        <time>2016-11-12T12:08:47Z</time>
      </trkpt>
      <trkpt lat="42.7463" lon="1.86807">
        <ele>1668</ele>
        <time>2016-11-12T12:08:52Z</time>
      </trkpt>
      <trkpt lat="42.74631" lon="1.86804">
        <ele>1668</ele>
        <time>2016-11-12T12:08:57Z</time>
      </trkpt>
      <trkpt lat="42.7463" lon="1.86801">
        <ele>1668</ele>
        <time>2016-11-12T12:09:02Z</time>
      </trkpt>
      <trkpt lat="42.74628" lon="1.868">
        <ele>1668</ele>
        <time>2016-11-12T12:09:07Z</time>
      </trkpt>
      <trkpt lat="42.74626" lon="1.868">
        <ele>1668</ele>
        <time>2016-11-12T12:09:12Z</time>
      </trkpt>
      <trkpt lat="42.74625" lon="1.868">
        <ele>1668</ele>
        <time>2016-11-12T12:09:17Z</time>
      </trkpt>
      <trkpt lat="42.74625" lon="1.868">
        <ele>1680</ele>
        <time>2016-11-12T12:09:22Z</time>
      </trkpt>
      <trkpt lat="42.74626" lon="1.86798">
        <ele>1668</ele>
        <time>2016-11-12T12:09:27Z</time>
      </trkpt>
      <trkpt lat="42.74626" lon="1.86797">
        <ele>1668</ele>
        <time>2016-11-12T12:09:32Z</time>
      </trkpt>
      <trkpt lat="42.74627" lon="1.86796">
        <ele>1668</ele>
        <time>2016-11-12T12:09:37Z</time>
      </trkpt>
      <trkpt lat="42.74628" lon="1.86796">
        <ele>1668</ele>
        <time>2016-11-12T12:09:42Z</time>
      </trkpt>
      <trkpt lat="42.74628" lon="1.86796">
        <ele>1668</ele>
        <time>2016-11-12T12:09:47Z</time>
      </trkpt>
      <trkpt lat="42.7463" lon="1.86789">
        <ele>1687</ele>
        <time>2016-11-12T12:09:52Z</time>
      </trkpt>
      <trkpt lat="42.74631" lon="1.86785">
        <ele>1687</ele>
        <time>2016-11-12T12:09:57Z</time>
      </trkpt>
      <trkpt lat="42.74633" lon="1.86783">
        <ele>1687</ele>
        <time>2016-11-12T12:10:02Z</time>
      </trkpt>
      <trkpt lat="42.74634" lon="1.86782">
        <ele>1687</ele>
        <time>2016-11-12T12:10:07Z</time>
      </trkpt>
      <trkpt lat="42.74633" lon="1.86781">
        <ele>1687</ele>
        <time>2016-11-12T12:10:12Z</time>
      </trkpt>
      <trkpt lat="42.74633" lon="1.8678">
        <ele>1687</ele>
        <time>2016-11-12T12:10:17Z</time>
      </trkpt>
      <trkpt lat="42.7463" lon="1.86778">
        <ele>1687</ele>
        <time>2016-11-12T12:10:22Z</time>
      </trkpt>
      <trkpt lat="42.74629" lon="1.86779">
        <ele>1687</ele>
        <time>2016-11-12T12:10:27Z</time>
      </trkpt>
      <trkpt lat="42.74629" lon="1.86778">
        <ele>1687</ele>
        <time>2016-11-12T12:10:32Z</time>
      </trkpt>
      <trkpt lat="42.74629" lon="1.86777">
        <ele>1687</ele>
        <time>2016-11-12T12:10:37Z</time>
      </trkpt>
      <trkpt lat="42.74624" lon="1.86777">
        <ele>1694</ele>
        <time>2016-11-12T12:10:42Z</time>
      </trkpt>
      <trkpt lat="42.74624" lon="1.86776">
        <ele>1694</ele>
        <time>2016-11-12T12:10:47Z</time>
      </trkpt>
      <trkpt lat="42.74624" lon="1.86776">
        <ele>1694</ele>
        <time>2016-11-12T12:10:52Z</time>
      </trkpt>
      <trkpt lat="42.74624" lon="1.86777">
        <ele>1694</ele>
        <time>2016-11-12T12:10:57Z</time>
      </trkpt>
      <trkpt lat="42.74624" lon="1.86777">
        <ele>1694</ele>
        <time>2016-11-12T12:11:02Z</time>
      </trkpt>
      <trkpt lat="42.74625" lon="1.86775">
        <ele>1687</ele>
        <time>2016-11-12T12:11:07Z</time>
      </trkpt>
      <trkpt lat="42.74626" lon="1.86771">
        <ele>1687</ele>
        <time>2016-11-12T12:11:12Z</time>
      </trkpt>
      <trkpt lat="42.74627" lon="1.86767">
        <ele>1687</ele>
        <time>2016-11-12T12:11:17Z</time>
      </trkpt>
      <trkpt lat="42.74627" lon="1.86766">
        <ele>1687</ele>
        <time>2016-11-12T12:11:22Z</time>
      </trkpt>
      <trkpt lat="42.74628" lon="1.86763">
        <ele>1687</ele>
        <time>2016-11-12T12:11:27Z</time>
      </trkpt>
      <trkpt lat="42.74629" lon="1.8676">
        <ele>1687</ele>
        <time>2016-11-12T12:11:32Z</time>
      </trkpt>
      <trkpt lat="42.74629" lon="1.86759">
        <ele>1687</ele>
        <time>2016-11-12T12:11:37Z</time>
      </trkpt>
      <trkpt lat="42.7463" lon="1.86756">
        <ele>1687</ele>
        <time>2016-11-12T12:11:42Z</time>
      </trkpt>
      <trkpt lat="42.74628" lon="1.86756">
        <ele>1687</ele>
        <time>2016-11-12T12:11:47Z</time>
      </trkpt>
      <trkpt lat="42.74629" lon="1.86757">
        <ele>1687</ele>
        <time>2016-11-12T12:11:52Z</time>
      </trkpt>
      <trkpt lat="42.74628" lon="1.86757">
        <ele>1687</ele>
        <time>2016-11-12T12:11:57Z</time>
      </trkpt>
      <trkpt lat="42.74622" lon="1.86753">
        <ele>1694</ele>
        <time>2016-11-12T12:12:02Z</time>
      </trkpt>
      <trkpt lat="42.74621" lon="1.86753">
        <ele>1694</ele>
        <time>2016-11-12T12:12:07Z</time>
      </trkpt>
      <trkpt lat="42.74618" lon="1.86756">
        <ele>1694</ele>
        <time>2016-11-12T12:12:12Z</time>
      </trkpt>
      <trkpt lat="42.74614" lon="1.86754">
        <ele>1694</ele>
        <time>2016-11-12T12:12:17Z</time>
      </trkpt>
      <trkpt lat="42.74612" lon="1.86753">
        <ele>1694</ele>
        <time>2016-11-12T12:12:22Z</time>
      </trkpt>
      <trkpt lat="42.74614" lon="1.86752">
        <ele>1694</ele>
        <time>2016-11-12T12:12:27Z</time>
      </trkpt>
      <trkpt lat="42.74608" lon="1.86751">
        <ele>1694</ele>
        <time>2016-11-12T12:12:32Z</time>
      </trkpt>
      <trkpt lat="42.74605" lon="1.86752">
        <ele>1694</ele>
        <time>2016-11-12T12:12:37Z</time>
      </trkpt>
      <trkpt lat="42.74602" lon="1.86754">
        <ele>1694</ele>
        <time>2016-11-12T12:12:42Z</time>
      </trkpt>
      <trkpt lat="42.74598" lon="1.8676">
        <ele>1694</ele>
        <time>2016-11-12T12:12:47Z</time>
      </trkpt>
      <trkpt lat="42.74598" lon="1.8676">
        <ele>1694</ele>
        <time>2016-11-12T12:12:52Z</time>
      </trkpt>
      <trkpt lat="42.74598" lon="1.86762">
        <ele>1694</ele>
        <time>2016-11-12T12:12:57Z</time>
      </trkpt>
      <trkpt lat="42.74596" lon="1.86763">
        <ele>1694</ele>
        <time>2016-11-12T12:13:02Z</time>
      </trkpt>
      <trkpt lat="42.74594" lon="1.86763">
        <ele>1694</ele>
        <time>2016-11-12T12:13:07Z</time>
      </trkpt>
      <trkpt lat="42.74592" lon="1.86766">
        <ele>1694</ele>
        <time>2016-11-12T12:13:12Z</time>
      </trkpt>
      <trkpt lat="42.74594" lon="1.86766">
        <ele>1694</ele>
        <time>2016-11-12T12:13:17Z</time>
      </trkpt>
      <trkpt lat="42.74592" lon="1.86768">
        <ele>1694</ele>
        <time>2016-11-12T12:13:22Z</time>
      </trkpt>
      <trkpt lat="42.74592" lon="1.86768">
        <ele>1694</ele>
        <time>2016-11-12T12:13:27Z</time>
      </trkpt>
      <trkpt lat="42.74592" lon="1.86771">
        <ele>1694</ele>
        <time>2016-11-12T12:13:32Z</time>
      </trkpt>
      <trkpt lat="42.74592" lon="1.86771">
        <ele>1694</ele>
        <time>2016-11-12T12:13:37Z</time>
      </trkpt>
      <trkpt lat="42.74592" lon="1.86772">
        <ele>1694</ele>
        <time>2016-11-12T12:13:42Z</time>
      </trkpt>
      <trkpt lat="42.74587" lon="1.8677">
        <ele>1694</ele>
        <time>2016-11-12T12:13:47Z</time>
      </trkpt>
      <trkpt lat="42.74588" lon="1.86769">
        <ele>1694</ele>
        <time>2016-11-12T12:13:52Z</time>
      </trkpt>
      <trkpt lat="42.74588" lon="1.86767">
        <ele>1694</ele>
        <time>2016-11-12T12:13:57Z</time>
      </trkpt>
      <trkpt lat="42.74589" lon="1.86764">
        <ele>1694</ele>
        <time>2016-11-12T12:14:02Z</time>
      </trkpt>
      <trkpt lat="42.74589" lon="1.86762">
        <ele>1694</ele>
        <time>2016-11-12T12:14:07Z</time>
      </trkpt>
      <trkpt lat="42.74591" lon="1.8676">
        <ele>1694</ele>
        <time>2016-11-12T12:14:12Z</time>
      </trkpt>
      <trkpt lat="42.74593" lon="1.86756">
        <ele>1694</ele>
        <time>2016-11-12T12:14:17Z</time>
      </trkpt>
      <trkpt lat="42.74593" lon="1.86755">
        <ele>1694</ele>
        <time>2016-11-12T12:14:22Z</time>
      </trkpt>
      <trkpt lat="42.74593" lon="1.86756">
        <ele>1694</ele>
        <time>2016-11-12T12:14:27Z</time>
      </trkpt>
      <trkpt lat="42.74593" lon="1.86756">
        <ele>1694</ele>
        <time>2016-11-12T12:14:32Z</time>
      </trkpt>
      <trkpt lat="42.74593" lon="1.86756">
        <ele>1694</ele>
        <time>2016-11-12T12:14:37Z</time>
      </trkpt>
      <trkpt lat="42.74593" lon="1.86756">
        <ele>1694</ele>
        <time>2016-11-12T12:14:42Z</time>
      </trkpt>
      <trkpt lat="42.74593" lon="1.86755">
        <ele>1694</ele>
        <time>2016-11-12T12:14:47Z</time>
      </trkpt>
      <trkpt lat="42.74593" lon="1.86755">
        <ele>1694</ele>
        <time>2016-11-12T12:14:52Z</time>
      </trkpt>
      <trkpt lat="42.74593" lon="1.86756">
        <ele>1694</ele>
        <time>2016-11-12T12:14:57Z</time>
      </trkpt>
      <trkpt lat="42.74593" lon="1.86755">
        <ele>1694</ele>
        <time>2016-11-12T12:15:02Z</time>
      </trkpt>
      <trkpt lat="42.74592" lon="1.86755">
        <ele>1694</ele>
        <time>2016-11-12T12:15:07Z</time>
      </trkpt>
      <trkpt lat="42.74593" lon="1.86755">
        <ele>1694</ele>
        <time>2016-11-12T12:15:12Z</time>
      </trkpt>
      <trkpt lat="42.74593" lon="1.86755">
        <ele>1694</ele>
        <time>2016-11-12T12:15:17Z</time>
      </trkpt>
      <trkpt lat="42.74592" lon="1.86755">
        <ele>1694</ele>
        <time>2016-11-12T12:15:22Z</time>
      </trkpt>
      <trkpt lat="42.74592" lon="1.86755">
        <ele>1694</ele>
        <time>2016-11-12T12:15:27Z</time>
      </trkpt>
      <trkpt lat="42.74592" lon="1.86755">
        <ele>1694</ele>
        <time>2016-11-12T12:15:32Z</time>
      </trkpt>
      <trkpt lat="42.74592" lon="1.86755">
        <ele>1694</ele>
        <time>2016-11-12T12:15:37Z</time>
      </trkpt>
      <trkpt lat="42.74592" lon="1.86755">
        <ele>1694</ele>
        <time>2016-11-12T12:15:42Z</time>
      </trkpt>
      <trkpt lat="42.74592" lon="1.86756">
        <ele>1694</ele>
        <time>2016-11-12T12:15:47Z</time>
      </trkpt>
      <trkpt lat="42.74592" lon="1.86756">
        <ele>1694</ele>
        <time>2016-11-12T12:15:52Z</time>
      </trkpt>
      <trkpt lat="42.74592" lon="1.86756">
        <ele>1694</ele>
        <time>2016-11-12T12:15:57Z</time>
      </trkpt>
      <trkpt lat="42.74592" lon="1.86756">
        <ele>1694</ele>
        <time>2016-11-12T12:16:02Z</time>
      </trkpt>
      <trkpt lat="42.74592" lon="1.86756">
        <ele>1694</ele>
        <time>2016-11-12T12:16:07Z</time>
      </trkpt>
      <trkpt lat="42.74592" lon="1.86756">
        <ele>1694</ele>
        <time>2016-11-12T12:16:12Z</time>
      </trkpt>
      <trkpt lat="42.74592" lon="1.86756">
        <ele>1694</ele>
        <time>2016-11-12T12:16:17Z</time>
      </trkpt>
      <trkpt lat="42.74592" lon="1.86756">
        <ele>1694</ele>
        <time>2016-11-12T12:16:22Z</time>
      </trkpt>
      <trkpt lat="42.74592" lon="1.86756">
        <ele>1694</ele>
        <time>2016-11-12T12:16:27Z</time>
      </trkpt>
      <trkpt lat="42.74592" lon="1.86757">
        <ele>1694</ele>
        <time>2016-11-12T12:16:32Z</time>
      </trkpt>
      <trkpt lat="42.74592" lon="1.86757">
        <ele>1694</ele>
        <time>2016-11-12T12:16:37Z</time>
      </trkpt>
      <trkpt lat="42.74592" lon="1.86757">
        <ele>1694</ele>
        <time>2016-11-12T12:16:42Z</time>
      </trkpt>
      <trkpt lat="42.74592" lon="1.86757">
        <ele>1694</ele>
        <time>2016-11-12T12:16:47Z</time>
      </trkpt>
      <trkpt lat="42.74591" lon="1.86757">
        <ele>1694</ele>
        <time>2016-11-12T12:16:52Z</time>
      </trkpt>
      <trkpt lat="42.74591" lon="1.86757">
        <ele>1694</ele>
        <time>2016-11-12T12:16:57Z</time>
      </trkpt>
      <trkpt lat="42.74591" lon="1.86757">
        <ele>1694</ele>
        <time>2016-11-12T12:17:02Z</time>
      </trkpt>
      <trkpt lat="42.74591" lon="1.86757">
        <ele>1694</ele>
        <time>2016-11-12T12:17:07Z</time>
      </trkpt>
      <trkpt lat="42.74591" lon="1.86759">
        <ele>1694</ele>
        <time>2016-11-12T12:17:12Z</time>
      </trkpt>
      <trkpt lat="42.74591" lon="1.86759">
        <ele>1694</ele>
        <time>2016-11-12T12:17:17Z</time>
      </trkpt>
      <trkpt lat="42.74593" lon="1.86757">
        <ele>1694</ele>
        <time>2016-11-12T12:17:22Z</time>
      </trkpt>
      <trkpt lat="42.74593" lon="1.86755">
        <ele>1694</ele>
        <time>2016-11-12T12:17:27Z</time>
      </trkpt>
      <trkpt lat="42.74594" lon="1.86754">
        <ele>1694</ele>
        <time>2016-11-12T12:17:32Z</time>
      </trkpt>
      <trkpt lat="42.74595" lon="1.86753">
        <ele>1694</ele>
        <time>2016-11-12T12:17:37Z</time>
      </trkpt>
      <trkpt lat="42.74598" lon="1.86748">
        <ele>1694</ele>
        <time>2016-11-12T12:17:42Z</time>
      </trkpt>
      <trkpt lat="42.746" lon="1.86744">
        <ele>1694</ele>
        <time>2016-11-12T12:17:47Z</time>
      </trkpt>
      <trkpt lat="42.74599" lon="1.86743">
        <ele>1694</ele>
        <time>2016-11-12T12:17:52Z</time>
      </trkpt>
      <trkpt lat="42.746" lon="1.86739">
        <ele>1694</ele>
        <time>2016-11-12T12:17:57Z</time>
      </trkpt>
      <trkpt lat="42.74601" lon="1.86737">
        <ele>1694</ele>
        <time>2016-11-12T12:18:02Z</time>
      </trkpt>
      <trkpt lat="42.74602" lon="1.86732">
        <ele>1694</ele>
        <time>2016-11-12T12:18:07Z</time>
      </trkpt>
      <trkpt lat="42.74605" lon="1.86729">
        <ele>1694</ele>
        <time>2016-11-12T12:18:12Z</time>
      </trkpt>
      <trkpt lat="42.74607" lon="1.86727">
        <ele>1694</ele>
        <time>2016-11-12T12:18:17Z</time>
      </trkpt>
      <trkpt lat="42.74608" lon="1.86725">
        <ele>1694</ele>
        <time>2016-11-12T12:18:22Z</time>
      </trkpt>
      <trkpt lat="42.74609" lon="1.86723">
        <ele>1694</ele>
        <time>2016-11-12T12:18:27Z</time>
      </trkpt>
      <trkpt lat="42.74609" lon="1.86723">
        <ele>1694</ele>
        <time>2016-11-12T12:18:32Z</time>
      </trkpt>
      <trkpt lat="42.74611" lon="1.8672">
        <ele>1694</ele>
        <time>2016-11-12T12:18:37Z</time>
      </trkpt>
      <trkpt lat="42.74612" lon="1.8672">
        <ele>1694</ele>
        <time>2016-11-12T12:18:42Z</time>
      </trkpt>
      <trkpt lat="42.74611" lon="1.86721">
        <ele>1694</ele>
        <time>2016-11-12T12:18:47Z</time>
      </trkpt>
      <trkpt lat="42.74611" lon="1.86718">
        <ele>1694</ele>
        <time>2016-11-12T12:18:52Z</time>
      </trkpt>
      <trkpt lat="42.74611" lon="1.86718">
        <ele>1694</ele>
        <time>2016-11-12T12:18:57Z</time>
      </trkpt>
      <trkpt lat="42.74608" lon="1.86714">
        <ele>1694</ele>
        <time>2016-11-12T12:19:02Z</time>
      </trkpt>
      <trkpt lat="42.74606" lon="1.86713">
        <ele>1694</ele>
        <time>2016-11-12T12:19:07Z</time>
      </trkpt>
      <trkpt lat="42.74605" lon="1.86712">
        <ele>1694</ele>
        <time>2016-11-12T12:19:12Z</time>
      </trkpt>
      <trkpt lat="42.74604" lon="1.86712">
        <ele>1694</ele>
        <time>2016-11-12T12:19:17Z</time>
      </trkpt>
      <trkpt lat="42.74604" lon="1.86712">
        <ele>1694</ele>
        <time>2016-11-12T12:19:22Z</time>
      </trkpt>
      <trkpt lat="42.74604" lon="1.86712">
        <ele>1694</ele>
        <time>2016-11-12T12:19:27Z</time>
      </trkpt>
      <trkpt lat="42.74604" lon="1.86712">
        <ele>1694</ele>
        <time>2016-11-12T12:19:32Z</time>
      </trkpt>
      <trkpt lat="42.74603" lon="1.8671">
        <ele>1694</ele>
        <time>2016-11-12T12:19:37Z</time>
      </trkpt>
      <trkpt lat="42.74603" lon="1.86706">
        <ele>1694</ele>
        <time>2016-11-12T12:19:42Z</time>
      </trkpt>
      <trkpt lat="42.74602" lon="1.86702">
        <ele>1694</ele>
        <time>2016-11-12T12:19:47Z</time>
      </trkpt>
      <trkpt lat="42.74602" lon="1.86699">
        <ele>1694</ele>
        <time>2016-11-12T12:19:52Z</time>
      </trkpt>
      <trkpt lat="42.74602" lon="1.86697">
        <ele>1694</ele>
        <time>2016-11-12T12:19:57Z</time>
      </trkpt>
      <trkpt lat="42.74603" lon="1.86696">
        <ele>1694</ele>
        <time>2016-11-12T12:20:02Z</time>
      </trkpt>
      <trkpt lat="42.74604" lon="1.86695">
        <ele>1694</ele>
        <time>2016-11-12T12:20:07Z</time>
      </trkpt>
      <trkpt lat="42.74608" lon="1.86689">
        <ele>1694</ele>
        <time>2016-11-12T12:20:12Z</time>
      </trkpt>
      <trkpt lat="42.7461" lon="1.86686">
        <ele>1694</ele>
        <time>2016-11-12T12:20:17Z</time>
      </trkpt>
      <trkpt lat="42.74611" lon="1.86685">
        <ele>1694</ele>
        <time>2016-11-12T12:20:22Z</time>
      </trkpt>
      <trkpt lat="42.74612" lon="1.86681">
        <ele>1694</ele>
        <time>2016-11-12T12:20:27Z</time>
      </trkpt>
      <trkpt lat="42.74615" lon="1.86676">
        <ele>1694</ele>
        <time>2016-11-12T12:20:32Z</time>
      </trkpt>
      <trkpt lat="42.74618" lon="1.86677">
        <ele>1694</ele>
        <time>2016-11-12T12:20:37Z</time>
      </trkpt>
      <trkpt lat="42.74622" lon="1.86676">
        <ele>1694</ele>
        <time>2016-11-12T12:20:42Z</time>
      </trkpt>
      <trkpt lat="42.74625" lon="1.86676">
        <ele>1709</ele>
        <time>2016-11-12T12:20:47Z</time>
      </trkpt>
      <trkpt lat="42.74627" lon="1.86675">
        <ele>1709</ele>
        <time>2016-11-12T12:20:52Z</time>
      </trkpt>
      <trkpt lat="42.74627" lon="1.86676">
        <ele>1709</ele>
        <time>2016-11-12T12:20:57Z</time>
      </trkpt>
      <trkpt lat="42.74627" lon="1.86676">
        <ele>1709</ele>
        <time>2016-11-12T12:21:02Z</time>
      </trkpt>
      <trkpt lat="42.74629" lon="1.86675">
        <ele>1709</ele>
        <time>2016-11-12T12:21:07Z</time>
      </trkpt>
      <trkpt lat="42.74629" lon="1.86672">
        <ele>1709</ele>
        <time>2016-11-12T12:21:12Z</time>
      </trkpt>
      <trkpt lat="42.7463" lon="1.86669">
        <ele>1709</ele>
        <time>2016-11-12T12:21:17Z</time>
      </trkpt>
      <trkpt lat="42.74631" lon="1.86665">
        <ele>1709</ele>
        <time>2016-11-12T12:21:22Z</time>
      </trkpt>
      <trkpt lat="42.74631" lon="1.86665">
        <ele>1709</ele>
        <time>2016-11-12T12:21:27Z</time>
      </trkpt>
      <trkpt lat="42.74631" lon="1.86663">
        <ele>1709</ele>
        <time>2016-11-12T12:21:32Z</time>
      </trkpt>
      <trkpt lat="42.74631" lon="1.86661">
        <ele>1709</ele>
        <time>2016-11-12T12:21:37Z</time>
      </trkpt>
      <trkpt lat="42.74632" lon="1.8666">
        <ele>1709</ele>
        <time>2016-11-12T12:21:42Z</time>
      </trkpt>
      <trkpt lat="42.74632" lon="1.86659">
        <ele>1709</ele>
        <time>2016-11-12T12:21:47Z</time>
      </trkpt>
      <trkpt lat="42.74632" lon="1.86659">
        <ele>1709</ele>
        <time>2016-11-12T12:21:52Z</time>
      </trkpt>
      <trkpt lat="42.74633" lon="1.86657">
        <ele>1709</ele>
        <time>2016-11-12T12:21:57Z</time>
      </trkpt>
      <trkpt lat="42.74636" lon="1.86653">
        <ele>1709</ele>
        <time>2016-11-12T12:22:02Z</time>
      </trkpt>
      <trkpt lat="42.74638" lon="1.86655">
        <ele>1709</ele>
        <time>2016-11-12T12:22:07Z</time>
      </trkpt>
      <trkpt lat="42.74639" lon="1.86655">
        <ele>1709</ele>
        <time>2016-11-12T12:22:12Z</time>
      </trkpt>
      <trkpt lat="42.74643" lon="1.86657">
        <ele>1709</ele>
        <time>2016-11-12T12:22:17Z</time>
      </trkpt>
      <trkpt lat="42.74645" lon="1.86657">
        <ele>1709</ele>
        <time>2016-11-12T12:22:22Z</time>
      </trkpt>
      <trkpt lat="42.74649" lon="1.86657">
        <ele>1709</ele>
        <time>2016-11-12T12:22:27Z</time>
      </trkpt>
      <trkpt lat="42.74651" lon="1.86657">
        <ele>1709</ele>
        <time>2016-11-12T12:22:32Z</time>
      </trkpt>
      <trkpt lat="42.74652" lon="1.86657">
        <ele>1709</ele>
        <time>2016-11-12T12:22:37Z</time>
      </trkpt>
      <trkpt lat="42.74654" lon="1.86657">
        <ele>1709</ele>
        <time>2016-11-12T12:22:42Z</time>
      </trkpt>
      <trkpt lat="42.74655" lon="1.86655">
        <ele>1709</ele>
        <time>2016-11-12T12:22:47Z</time>
      </trkpt>
      <trkpt lat="42.74658" lon="1.86653">
        <ele>1709</ele>
        <time>2016-11-12T12:22:52Z</time>
      </trkpt>
      <trkpt lat="42.74662" lon="1.8665">
        <ele>1709</ele>
        <time>2016-11-12T12:22:57Z</time>
      </trkpt>
      <trkpt lat="42.74664" lon="1.86649">
        <ele>1709</ele>
        <time>2016-11-12T12:23:02Z</time>
      </trkpt>
      <trkpt lat="42.74666" lon="1.86647">
        <ele>1709</ele>
        <time>2016-11-12T12:23:07Z</time>
      </trkpt>
      <trkpt lat="42.74669" lon="1.86646">
        <ele>1709</ele>
        <time>2016-11-12T12:23:12Z</time>
      </trkpt>
      <trkpt lat="42.74671" lon="1.86644">
        <ele>1709</ele>
        <time>2016-11-12T12:23:17Z</time>
      </trkpt>
      <trkpt lat="42.74673" lon="1.86641">
        <ele>1709</ele>
        <time>2016-11-12T12:23:22Z</time>
      </trkpt>
      <trkpt lat="42.74677" lon="1.86638">
        <ele>1709</ele>
        <time>2016-11-12T12:23:27Z</time>
      </trkpt>
      <trkpt lat="42.74677" lon="1.86639">
        <ele>1709</ele>
        <time>2016-11-12T12:23:32Z</time>
      </trkpt>
      <trkpt lat="42.74677" lon="1.8664">
        <ele>1709</ele>
        <time>2016-11-12T12:23:37Z</time>
      </trkpt>
      <trkpt lat="42.74678" lon="1.8664">
        <ele>1709</ele>
        <time>2016-11-12T12:23:42Z</time>
      </trkpt>
      <trkpt lat="42.74678" lon="1.8664">
        <ele>1709</ele>
        <time>2016-11-12T12:23:47Z</time>
      </trkpt>
      <trkpt lat="42.74678" lon="1.8664">
        <ele>1709</ele>
        <time>2016-11-12T12:23:52Z</time>
      </trkpt>
      <trkpt lat="42.74679" lon="1.8664">
        <ele>1709</ele>
        <time>2016-11-12T12:23:57Z</time>
      </trkpt>
      <trkpt lat="42.74679" lon="1.8664">
        <ele>1709</ele>
        <time>2016-11-12T12:24:02Z</time>
      </trkpt>
      <trkpt lat="42.7468" lon="1.86641">
        <ele>1709</ele>
        <time>2016-11-12T12:24:07Z</time>
      </trkpt>
      <trkpt lat="42.74681" lon="1.8664">
        <ele>1709</ele>
        <time>2016-11-12T12:24:12Z</time>
      </trkpt>
      <trkpt lat="42.74684" lon="1.86637">
        <ele>1709</ele>
        <time>2016-11-12T12:24:17Z</time>
      </trkpt>
      <trkpt lat="42.74687" lon="1.86632">
        <ele>1709</ele>
        <time>2016-11-12T12:24:22Z</time>
      </trkpt>
      <trkpt lat="42.74688" lon="1.86631">
        <ele>1709</ele>
        <time>2016-11-12T12:24:27Z</time>
      </trkpt>
      <trkpt lat="42.74689" lon="1.8663">
        <ele>1709</ele>
        <time>2016-11-12T12:24:32Z</time>
      </trkpt>
      <trkpt lat="42.7469" lon="1.86629">
        <ele>1709</ele>
        <time>2016-11-12T12:24:37Z</time>
      </trkpt>
      <trkpt lat="42.7469" lon="1.86629">
        <ele>1709</ele>
        <time>2016-11-12T12:24:42Z</time>
      </trkpt>
      <trkpt lat="42.7469" lon="1.86628">
        <ele>1709</ele>
        <time>2016-11-12T12:24:47Z</time>
      </trkpt>
      <trkpt lat="42.7469" lon="1.86628">
        <ele>1709</ele>
        <time>2016-11-12T12:24:52Z</time>
      </trkpt>
      <trkpt lat="42.74694" lon="1.86626">
        <ele>1709</ele>
        <time>2016-11-12T12:24:57Z</time>
      </trkpt>
      <trkpt lat="42.74695" lon="1.86624">
        <ele>1719</ele>
        <time>2016-11-12T12:25:02Z</time>
      </trkpt>
      <trkpt lat="42.74696" lon="1.86624">
        <ele>1719</ele>
        <time>2016-11-12T12:25:07Z</time>
      </trkpt>
      <trkpt lat="42.74696" lon="1.86624">
        <ele>1719</ele>
        <time>2016-11-12T12:25:12Z</time>
      </trkpt>
      <trkpt lat="42.74697" lon="1.86624">
        <ele>1719</ele>
        <time>2016-11-12T12:25:17Z</time>
      </trkpt>
      <trkpt lat="42.74697" lon="1.86624">
        <ele>1719</ele>
        <time>2016-11-12T12:25:22Z</time>
      </trkpt>
      <trkpt lat="42.74697" lon="1.86624">
        <ele>1719</ele>
        <time>2016-11-12T12:25:27Z</time>
      </trkpt>
      <trkpt lat="42.74697" lon="1.86624">
        <ele>1719</ele>
        <time>2016-11-12T12:25:32Z</time>
      </trkpt>
      <trkpt lat="42.74697" lon="1.86623">
        <ele>1719</ele>
        <time>2016-11-12T12:25:37Z</time>
      </trkpt>
      <trkpt lat="42.74697" lon="1.86623">
        <ele>1719</ele>
        <time>2016-11-12T12:25:42Z</time>
      </trkpt>
      <trkpt lat="42.74697" lon="1.86622">
        <ele>1719</ele>
        <time>2016-11-12T12:25:47Z</time>
      </trkpt>
      <trkpt lat="42.74697" lon="1.86622">
        <ele>1719</ele>
        <time>2016-11-12T12:25:52Z</time>
      </trkpt>
      <trkpt lat="42.74697" lon="1.86622">
        <ele>1719</ele>
        <time>2016-11-12T12:25:57Z</time>
      </trkpt>
      <trkpt lat="42.74695" lon="1.86618">
        <ele>1719</ele>
        <time>2016-11-12T12:26:02Z</time>
      </trkpt>
      <trkpt lat="42.7469" lon="1.86622">
        <ele>1719</ele>
        <time>2016-11-12T12:26:07Z</time>
      </trkpt>
      <trkpt lat="42.74687" lon="1.86625">
        <ele>1719</ele>
        <time>2016-11-12T12:26:12Z</time>
      </trkpt>
      <trkpt lat="42.74687" lon="1.86625">
        <ele>1719</ele>
        <time>2016-11-12T12:26:17Z</time>
      </trkpt>
      <trkpt lat="42.74687" lon="1.86625">
        <ele>1719</ele>
        <time>2016-11-12T12:26:22Z</time>
      </trkpt>
      <trkpt lat="42.74686" lon="1.86624">
        <ele>1719</ele>
        <time>2016-11-12T12:26:27Z</time>
      </trkpt>
      <trkpt lat="42.74685" lon="1.86624">
        <ele>1719</ele>
        <time>2016-11-12T12:26:32Z</time>
      </trkpt>
      <trkpt lat="42.74685" lon="1.86623">
        <ele>1719</ele>
        <time>2016-11-12T12:26:37Z</time>
      </trkpt>
      <trkpt lat="42.74685" lon="1.86623">
        <ele>1719</ele>
        <time>2016-11-12T12:26:42Z</time>
      </trkpt>
      <trkpt lat="42.74685" lon="1.86623">
        <ele>1719</ele>
        <time>2016-11-12T12:26:47Z</time>
      </trkpt>
      <trkpt lat="42.74685" lon="1.86623">
        <ele>1719</ele>
        <time>2016-11-12T12:26:52Z</time>
      </trkpt>
      <trkpt lat="42.74685" lon="1.86623">
        <ele>1719</ele>
        <time>2016-11-12T12:26:57Z</time>
      </trkpt>
      <trkpt lat="42.74685" lon="1.86623">
        <ele>1719</ele>
        <time>2016-11-12T12:27:02Z</time>
      </trkpt>
      <trkpt lat="42.74685" lon="1.86623">
        <ele>1719</ele>
        <time>2016-11-12T12:27:07Z</time>
      </trkpt>
      <trkpt lat="42.74688" lon="1.86622">
        <ele>1719</ele>
        <time>2016-11-12T12:27:12Z</time>
      </trkpt>
      <trkpt lat="42.74689" lon="1.86622">
        <ele>1719</ele>
        <time>2016-11-12T12:27:17Z</time>
      </trkpt>
      <trkpt lat="42.74689" lon="1.86622">
        <ele>1719</ele>
        <time>2016-11-12T12:27:22Z</time>
      </trkpt>
      <trkpt lat="42.74689" lon="1.86622">
        <ele>1719</ele>
        <time>2016-11-12T12:27:27Z</time>
      </trkpt>
      <trkpt lat="42.7469" lon="1.86621">
        <ele>1719</ele>
        <time>2016-11-12T12:27:32Z</time>
      </trkpt>
      <trkpt lat="42.7469" lon="1.86621">
        <ele>1719</ele>
        <time>2016-11-12T12:27:37Z</time>
      </trkpt>
      <trkpt lat="42.7469" lon="1.86621">
        <ele>1719</ele>
        <time>2016-11-12T12:27:42Z</time>
      </trkpt>
      <trkpt lat="42.7469" lon="1.86621">
        <ele>1719</ele>
        <time>2016-11-12T12:27:47Z</time>
      </trkpt>
      <trkpt lat="42.7469" lon="1.86621">
        <ele>1719</ele>
        <time>2016-11-12T12:27:52Z</time>
      </trkpt>
      <trkpt lat="42.7469" lon="1.86621">
        <ele>1719</ele>
        <time>2016-11-12T12:27:57Z</time>
      </trkpt>
      <trkpt lat="42.74691" lon="1.86621">
        <ele>1719</ele>
        <time>2016-11-12T12:28:02Z</time>
      </trkpt>
      <trkpt lat="42.74691" lon="1.86621">
        <ele>1719</ele>
        <time>2016-11-12T12:28:07Z</time>
      </trkpt>
      <trkpt lat="42.74692" lon="1.86619">
        <ele>1719</ele>
        <time>2016-11-12T12:28:12Z</time>
      </trkpt>
      <trkpt lat="42.74691" lon="1.86617">
        <ele>1719</ele>
        <time>2016-11-12T12:28:17Z</time>
      </trkpt>
      <trkpt lat="42.7469" lon="1.86615">
        <ele>1719</ele>
        <time>2016-11-12T12:28:22Z</time>
      </trkpt>
      <trkpt lat="42.74689" lon="1.86614">
        <ele>1719</ele>
        <time>2016-11-12T12:28:27Z</time>
      </trkpt>
      <trkpt lat="42.74688" lon="1.86613">
        <ele>1719</ele>
        <time>2016-11-12T12:28:32Z</time>
      </trkpt>
      <trkpt lat="42.74685" lon="1.86609">
        <ele>1719</ele>
        <time>2016-11-12T12:28:37Z</time>
      </trkpt>
      <trkpt lat="42.74684" lon="1.86596">
        <ele>1719</ele>
        <time>2016-11-12T12:28:42Z</time>
      </trkpt>
      <trkpt lat="42.74684" lon="1.86596">
        <ele>1719</ele>
        <time>2016-11-12T12:28:47Z</time>
      </trkpt>
      <trkpt lat="42.74684" lon="1.86596">
        <ele>1719</ele>
        <time>2016-11-12T12:28:52Z</time>
      </trkpt>
      <trkpt lat="42.74683" lon="1.86597">
        <ele>1719</ele>
        <time>2016-11-12T12:28:57Z</time>
      </trkpt>
      <trkpt lat="42.74684" lon="1.86599">
        <ele>1719</ele>
        <time>2016-11-12T12:29:02Z</time>
      </trkpt>
      <trkpt lat="42.74684" lon="1.86599">
        <ele>1719</ele>
        <time>2016-11-12T12:29:07Z</time>
      </trkpt>
      <trkpt lat="42.74683" lon="1.86599">
        <ele>1719</ele>
        <time>2016-11-12T12:29:12Z</time>
      </trkpt>
      <trkpt lat="42.74683" lon="1.86599">
        <ele>1719</ele>
        <time>2016-11-12T12:29:17Z</time>
      </trkpt>
      <trkpt lat="42.74683" lon="1.86599">
        <ele>1719</ele>
        <time>2016-11-12T12:29:22Z</time>
      </trkpt>
      <trkpt lat="42.74683" lon="1.866">
        <ele>1719</ele>
        <time>2016-11-12T12:29:27Z</time>
      </trkpt>
      <trkpt lat="42.74683" lon="1.866">
        <ele>1719</ele>
        <time>2016-11-12T12:29:32Z</time>
      </trkpt>
      <trkpt lat="42.74683" lon="1.866">
        <ele>1719</ele>
        <time>2016-11-12T12:29:37Z</time>
      </trkpt>
      <trkpt lat="42.74683" lon="1.866">
        <ele>1719</ele>
        <time>2016-11-12T12:29:42Z</time>
      </trkpt>
      <trkpt lat="42.74683" lon="1.866">
        <ele>1719</ele>
        <time>2016-11-12T12:29:47Z</time>
      </trkpt>
      <trkpt lat="42.74683" lon="1.866">
        <ele>1719</ele>
        <time>2016-11-12T12:29:52Z</time>
      </trkpt>
      <trkpt lat="42.74683" lon="1.866">
        <ele>1719</ele>
        <time>2016-11-12T12:29:57Z</time>
      </trkpt>
      <trkpt lat="42.74682" lon="1.866">
        <ele>1719</ele>
        <time>2016-11-12T12:30:02Z</time>
      </trkpt>
      <trkpt lat="42.74682" lon="1.86601">
        <ele>1719</ele>
        <time>2016-11-12T12:30:07Z</time>
      </trkpt>
      <trkpt lat="42.74682" lon="1.86601">
        <ele>1719</ele>
        <time>2016-11-12T12:30:12Z</time>
      </trkpt>
      <trkpt lat="42.74682" lon="1.86601">
        <ele>1719</ele>
        <time>2016-11-12T12:30:17Z</time>
      </trkpt>
      <trkpt lat="42.74682" lon="1.86601">
        <ele>1719</ele>
        <time>2016-11-12T12:30:22Z</time>
      </trkpt>
      <trkpt lat="42.74682" lon="1.86601">
        <ele>1719</ele>
        <time>2016-11-12T12:30:27Z</time>
      </trkpt>
      <trkpt lat="42.74682" lon="1.86601">
        <ele>1719</ele>
        <time>2016-11-12T12:30:32Z</time>
      </trkpt>
      <trkpt lat="42.74682" lon="1.86601">
        <ele>1719</ele>
        <time>2016-11-12T12:30:37Z</time>
      </trkpt>
      <trkpt lat="42.74682" lon="1.86601">
        <ele>1719</ele>
        <time>2016-11-12T12:30:42Z</time>
      </trkpt>
      <trkpt lat="42.74681" lon="1.86601">
        <ele>1719</ele>
        <time>2016-11-12T12:30:47Z</time>
      </trkpt>
      <trkpt lat="42.74681" lon="1.86601">
        <ele>1719</ele>
        <time>2016-11-12T12:30:52Z</time>
      </trkpt>
      <trkpt lat="42.74682" lon="1.86601">
        <ele>1719</ele>
        <time>2016-11-12T12:30:57Z</time>
      </trkpt>
      <trkpt lat="42.74683" lon="1.86605">
        <ele>1719</ele>
        <time>2016-11-12T12:31:02Z</time>
      </trkpt>
      <trkpt lat="42.74683" lon="1.86606">
        <ele>1719</ele>
        <time>2016-11-12T12:31:07Z</time>
      </trkpt>
      <trkpt lat="42.74684" lon="1.86608">
        <ele>1719</ele>
        <time>2016-11-12T12:31:12Z</time>
      </trkpt>
      <trkpt lat="42.74684" lon="1.86608">
        <ele>1719</ele>
        <time>2016-11-12T12:31:17Z</time>
      </trkpt>
      <trkpt lat="42.74684" lon="1.86608">
        <ele>1719</ele>
        <time>2016-11-12T12:31:22Z</time>
      </trkpt>
      <trkpt lat="42.74684" lon="1.86608">
        <ele>1719</ele>
        <time>2016-11-12T12:31:27Z</time>
      </trkpt>
      <trkpt lat="42.74684" lon="1.86608">
        <ele>1719</ele>
        <time>2016-11-12T12:31:32Z</time>
      </trkpt>
      <trkpt lat="42.74684" lon="1.86608">
        <ele>1719</ele>
        <time>2016-11-12T12:31:37Z</time>
      </trkpt>
      <trkpt lat="42.74684" lon="1.86608">
        <ele>1719</ele>
        <time>2016-11-12T12:31:42Z</time>
      </trkpt>
      <trkpt lat="42.74685" lon="1.86608">
        <ele>1719</ele>
        <time>2016-11-12T12:31:47Z</time>
      </trkpt>
      <trkpt lat="42.74686" lon="1.86608">
        <ele>1719</ele>
        <time>2016-11-12T12:31:52Z</time>
      </trkpt>
      <trkpt lat="42.74686" lon="1.86608">
        <ele>1719</ele>
        <time>2016-11-12T12:31:57Z</time>
      </trkpt>
      <trkpt lat="42.74685" lon="1.86609">
        <ele>1719</ele>
        <time>2016-11-12T12:32:02Z</time>
      </trkpt>
      <trkpt lat="42.74685" lon="1.86609">
        <ele>1719</ele>
        <time>2016-11-12T12:32:07Z</time>
      </trkpt>
      <trkpt lat="42.74685" lon="1.86608">
        <ele>1719</ele>
        <time>2016-11-12T12:32:12Z</time>
      </trkpt>
      <trkpt lat="42.74685" lon="1.86608">
        <ele>1719</ele>
        <time>2016-11-12T12:32:17Z</time>
      </trkpt>
      <trkpt lat="42.74685" lon="1.86608">
        <ele>1719</ele>
        <time>2016-11-12T12:32:22Z</time>
      </trkpt>
      <trkpt lat="42.74685" lon="1.86608">
        <ele>1719</ele>
        <time>2016-11-12T12:32:27Z</time>
      </trkpt>
      <trkpt lat="42.74685" lon="1.86608">
        <ele>1719</ele>
        <time>2016-11-12T12:32:32Z</time>
      </trkpt>
      <trkpt lat="42.74685" lon="1.86607">
        <ele>1719</ele>
        <time>2016-11-12T12:32:37Z</time>
      </trkpt>
      <trkpt lat="42.74685" lon="1.86607">
        <ele>1719</ele>
        <time>2016-11-12T12:32:42Z</time>
      </trkpt>
      <trkpt lat="42.74686" lon="1.86607">
        <ele>1719</ele>
        <time>2016-11-12T12:32:47Z</time>
      </trkpt>
      <trkpt lat="42.74686" lon="1.86607">
        <ele>1719</ele>
        <time>2016-11-12T12:32:52Z</time>
      </trkpt>
      <trkpt lat="42.74686" lon="1.86608">
        <ele>1719</ele>
        <time>2016-11-12T12:32:57Z</time>
      </trkpt>
      <trkpt lat="42.74686" lon="1.86608">
        <ele>1719</ele>
        <time>2016-11-12T12:33:02Z</time>
      </trkpt>
      <trkpt lat="42.74687" lon="1.86608">
        <ele>1719</ele>
        <time>2016-11-12T12:33:07Z</time>
      </trkpt>
      <trkpt lat="42.74687" lon="1.86608">
        <ele>1719</ele>
        <time>2016-11-12T12:33:12Z</time>
      </trkpt>
      <trkpt lat="42.74687" lon="1.86608">
        <ele>1719</ele>
        <time>2016-11-12T12:33:17Z</time>
      </trkpt>
      <trkpt lat="42.74687" lon="1.86608">
        <ele>1719</ele>
        <time>2016-11-12T12:33:22Z</time>
      </trkpt>
      <trkpt lat="42.74687" lon="1.86608">
        <ele>1719</ele>
        <time>2016-11-12T12:33:27Z</time>
      </trkpt>
      <trkpt lat="42.74687" lon="1.86608">
        <ele>1719</ele>
        <time>2016-11-12T12:33:32Z</time>
      </trkpt>
      <trkpt lat="42.74687" lon="1.86607">
        <ele>1719</ele>
        <time>2016-11-12T12:33:37Z</time>
      </trkpt>
      <trkpt lat="42.74688" lon="1.86607">
        <ele>1719</ele>
        <time>2016-11-12T12:33:42Z</time>
      </trkpt>
      <trkpt lat="42.74688" lon="1.86607">
        <ele>1719</ele>
        <time>2016-11-12T12:33:47Z</time>
      </trkpt>
      <trkpt lat="42.74688" lon="1.86608">
        <ele>1719</ele>
        <time>2016-11-12T12:33:52Z</time>
      </trkpt>
      <trkpt lat="42.74688" lon="1.86609">
        <ele>1719</ele>
        <time>2016-11-12T12:33:57Z</time>
      </trkpt>
      <trkpt lat="42.74687" lon="1.86613">
        <ele>1719</ele>
        <time>2016-11-12T12:34:02Z</time>
      </trkpt>
      <trkpt lat="42.74687" lon="1.86614">
        <ele>1719</ele>
        <time>2016-11-12T12:34:07Z</time>
      </trkpt>
      <trkpt lat="42.74687" lon="1.86614">
        <ele>1719</ele>
        <time>2016-11-12T12:34:12Z</time>
      </trkpt>
      <trkpt lat="42.74687" lon="1.86614">
        <ele>1719</ele>
        <time>2016-11-12T12:34:17Z</time>
      </trkpt>
      <trkpt lat="42.74688" lon="1.86612">
        <ele>1719</ele>
        <time>2016-11-12T12:34:22Z</time>
      </trkpt>
      <trkpt lat="42.74688" lon="1.86612">
        <ele>1719</ele>
        <time>2016-11-12T12:34:27Z</time>
      </trkpt>
      <trkpt lat="42.7469" lon="1.8661">
        <ele>1719</ele>
        <time>2016-11-12T12:34:32Z</time>
      </trkpt>
      <trkpt lat="42.74692" lon="1.86612">
        <ele>1719</ele>
        <time>2016-11-12T12:34:37Z</time>
      </trkpt>
      <trkpt lat="42.74691" lon="1.86612">
        <ele>1719</ele>
        <time>2016-11-12T12:34:42Z</time>
      </trkpt>
      <trkpt lat="42.74691" lon="1.86613">
        <ele>1719</ele>
        <time>2016-11-12T12:34:47Z</time>
      </trkpt>
      <trkpt lat="42.74691" lon="1.86614">
        <ele>1719</ele>
        <time>2016-11-12T12:34:52Z</time>
      </trkpt>
      <trkpt lat="42.74691" lon="1.86615">
        <ele>1719</ele>
        <time>2016-11-12T12:34:57Z</time>
      </trkpt>
      <trkpt lat="42.74691" lon="1.86615">
        <ele>1719</ele>
        <time>2016-11-12T12:35:02Z</time>
      </trkpt>
      <trkpt lat="42.74691" lon="1.86616">
        <ele>1719</ele>
        <time>2016-11-12T12:35:07Z</time>
      </trkpt>
      <trkpt lat="42.74691" lon="1.86615">
        <ele>1719</ele>
        <time>2016-11-12T12:35:12Z</time>
      </trkpt>
      <trkpt lat="42.74691" lon="1.86615">
        <ele>1719</ele>
        <time>2016-11-12T12:35:17Z</time>
      </trkpt>
      <trkpt lat="42.74691" lon="1.86614">
        <ele>1719</ele>
        <time>2016-11-12T12:35:22Z</time>
      </trkpt>
      <trkpt lat="42.74691" lon="1.86614">
        <ele>1719</ele>
        <time>2016-11-12T12:35:27Z</time>
      </trkpt>
      <trkpt lat="42.74691" lon="1.86614">
        <ele>1719</ele>
        <time>2016-11-12T12:35:32Z</time>
      </trkpt>
      <trkpt lat="42.74691" lon="1.86614">
        <ele>1719</ele>
        <time>2016-11-12T12:35:37Z</time>
      </trkpt>
      <trkpt lat="42.74692" lon="1.86615">
        <ele>1719</ele>
        <time>2016-11-12T12:35:42Z</time>
      </trkpt>
      <trkpt lat="42.74692" lon="1.86615">
        <ele>1719</ele>
        <time>2016-11-12T12:35:47Z</time>
      </trkpt>
      <trkpt lat="42.74692" lon="1.86616">
        <ele>1719</ele>
        <time>2016-11-12T12:35:52Z</time>
      </trkpt>
      <trkpt lat="42.74692" lon="1.86616">
        <ele>1719</ele>
        <time>2016-11-12T12:35:57Z</time>
      </trkpt>
      <trkpt lat="42.74692" lon="1.86617">
        <ele>1719</ele>
        <time>2016-11-12T12:36:02Z</time>
      </trkpt>
      <trkpt lat="42.74692" lon="1.86617">
        <ele>1719</ele>
        <time>2016-11-12T12:36:07Z</time>
      </trkpt>
      <trkpt lat="42.74693" lon="1.86617">
        <ele>1719</ele>
        <time>2016-11-12T12:36:12Z</time>
      </trkpt>
      <trkpt lat="42.74693" lon="1.86617">
        <ele>1719</ele>
        <time>2016-11-12T12:36:17Z</time>
      </trkpt>
      <trkpt lat="42.74693" lon="1.86617">
        <ele>1719</ele>
        <time>2016-11-12T12:36:22Z</time>
      </trkpt>
      <trkpt lat="42.74694" lon="1.86617">
        <ele>1719</ele>
        <time>2016-11-12T12:36:27Z</time>
      </trkpt>
      <trkpt lat="42.74694" lon="1.86617">
        <ele>1719</ele>
        <time>2016-11-12T12:36:32Z</time>
      </trkpt>
      <trkpt lat="42.74694" lon="1.86617">
        <ele>1719</ele>
        <time>2016-11-12T12:36:37Z</time>
      </trkpt>
      <trkpt lat="42.74693" lon="1.86618">
        <ele>1719</ele>
        <time>2016-11-12T12:36:42Z</time>
      </trkpt>
      <trkpt lat="42.74693" lon="1.86618">
        <ele>1719</ele>
        <time>2016-11-12T12:36:47Z</time>
      </trkpt>
      <trkpt lat="42.74693" lon="1.86618">
        <ele>1719</ele>
        <time>2016-11-12T12:36:52Z</time>
      </trkpt>
      <trkpt lat="42.74693" lon="1.86618">
        <ele>1719</ele>
        <time>2016-11-12T12:36:57Z</time>
      </trkpt>
      <trkpt lat="42.74693" lon="1.86618">
        <ele>1719</ele>
        <time>2016-11-12T12:37:02Z</time>
      </trkpt>
      <trkpt lat="42.74692" lon="1.86618">
        <ele>1719</ele>
        <time>2016-11-12T12:37:07Z</time>
      </trkpt>
      <trkpt lat="42.74692" lon="1.86618">
        <ele>1719</ele>
        <time>2016-11-12T12:37:12Z</time>
      </trkpt>
      <trkpt lat="42.74692" lon="1.86619">
        <ele>1719</ele>
        <time>2016-11-12T12:37:17Z</time>
      </trkpt>
      <trkpt lat="42.74692" lon="1.8662">
        <ele>1719</ele>
        <time>2016-11-12T12:37:22Z</time>
      </trkpt>
      <trkpt lat="42.74692" lon="1.86621">
        <ele>1719</ele>
        <time>2016-11-12T12:37:27Z</time>
      </trkpt>
      <trkpt lat="42.74692" lon="1.86621">
        <ele>1719</ele>
        <time>2016-11-12T12:37:32Z</time>
      </trkpt>
      <trkpt lat="42.74692" lon="1.86621">
        <ele>1719</ele>
        <time>2016-11-12T12:37:37Z</time>
      </trkpt>
      <trkpt lat="42.74693" lon="1.86621">
        <ele>1719</ele>
        <time>2016-11-12T12:37:42Z</time>
      </trkpt>
      <trkpt lat="42.74693" lon="1.86621">
        <ele>1719</ele>
        <time>2016-11-12T12:37:47Z</time>
      </trkpt>
      <trkpt lat="42.74693" lon="1.86621">
        <ele>1719</ele>
        <time>2016-11-12T12:37:52Z</time>
      </trkpt>
      <trkpt lat="42.74694" lon="1.86621">
        <ele>1719</ele>
        <time>2016-11-12T12:37:57Z</time>
      </trkpt>
      <trkpt lat="42.74694" lon="1.86621">
        <ele>1719</ele>
        <time>2016-11-12T12:38:02Z</time>
      </trkpt>
      <trkpt lat="42.74695" lon="1.8662">
        <ele>1719</ele>
        <time>2016-11-12T12:38:07Z</time>
      </trkpt>
      <trkpt lat="42.74695" lon="1.8662">
        <ele>1719</ele>
        <time>2016-11-12T12:38:12Z</time>
      </trkpt>
      <trkpt lat="42.74696" lon="1.86618">
        <ele>1719</ele>
        <time>2016-11-12T12:38:17Z</time>
      </trkpt>
      <trkpt lat="42.74695" lon="1.86614">
        <ele>1719</ele>
        <time>2016-11-12T12:38:22Z</time>
      </trkpt>
      <trkpt lat="42.74696" lon="1.86611">
        <ele>1719</ele>
        <time>2016-11-12T12:38:27Z</time>
      </trkpt>
      <trkpt lat="42.74697" lon="1.86606">
        <ele>1719</ele>
        <time>2016-11-12T12:38:32Z</time>
      </trkpt>
      <trkpt lat="42.74697" lon="1.86605">
        <ele>1719</ele>
        <time>2016-11-12T12:38:37Z</time>
      </trkpt>
      <trkpt lat="42.74695" lon="1.86605">
        <ele>1719</ele>
        <time>2016-11-12T12:38:42Z</time>
      </trkpt>
      <trkpt lat="42.74694" lon="1.86603">
        <ele>1719</ele>
        <time>2016-11-12T12:38:47Z</time>
      </trkpt>
      <trkpt lat="42.74692" lon="1.86599">
        <ele>1719</ele>
        <time>2016-11-12T12:38:52Z</time>
      </trkpt>
      <trkpt lat="42.74691" lon="1.86598">
        <ele>1719</ele>
        <time>2016-11-12T12:38:57Z</time>
      </trkpt>
      <trkpt lat="42.74691" lon="1.86597">
        <ele>1719</ele>
        <time>2016-11-12T12:39:02Z</time>
      </trkpt>
      <trkpt lat="42.7469" lon="1.86597">
        <ele>1719</ele>
        <time>2016-11-12T12:39:07Z</time>
      </trkpt>
      <trkpt lat="42.74689" lon="1.86597">
        <ele>1719</ele>
        <time>2016-11-12T12:39:12Z</time>
      </trkpt>
      <trkpt lat="42.74686" lon="1.86597">
        <ele>1719</ele>
        <time>2016-11-12T12:39:17Z</time>
      </trkpt>
      <trkpt lat="42.74686" lon="1.86598">
        <ele>1719</ele>
        <time>2016-11-12T12:39:22Z</time>
      </trkpt>
      <trkpt lat="42.74686" lon="1.86598">
        <ele>1719</ele>
        <time>2016-11-12T12:39:27Z</time>
      </trkpt>
      <trkpt lat="42.74685" lon="1.86598">
        <ele>1719</ele>
        <time>2016-11-12T12:39:32Z</time>
      </trkpt>
      <trkpt lat="42.74684" lon="1.86598">
        <ele>1719</ele>
        <time>2016-11-12T12:39:37Z</time>
      </trkpt>
      <trkpt lat="42.74684" lon="1.86597">
        <ele>1719</ele>
        <time>2016-11-12T12:39:42Z</time>
      </trkpt>
      <trkpt lat="42.74685" lon="1.86597">
        <ele>1719</ele>
        <time>2016-11-12T12:39:47Z</time>
      </trkpt>
      <trkpt lat="42.74684" lon="1.86599">
        <ele>1719</ele>
        <time>2016-11-12T12:39:52Z</time>
      </trkpt>
      <trkpt lat="42.74683" lon="1.86601">
        <ele>1719</ele>
        <time>2016-11-12T12:39:57Z</time>
      </trkpt>
      <trkpt lat="42.74683" lon="1.86605">
        <ele>1719</ele>
        <time>2016-11-12T12:40:02Z</time>
      </trkpt>
      <trkpt lat="42.74683" lon="1.86611">
        <ele>1719</ele>
        <time>2016-11-12T12:40:07Z</time>
      </trkpt>
      <trkpt lat="42.74682" lon="1.86616">
        <ele>1719</ele>
        <time>2016-11-12T12:40:12Z</time>
      </trkpt>
      <trkpt lat="42.74681" lon="1.8662">
        <ele>1719</ele>
        <time>2016-11-12T12:40:17Z</time>
      </trkpt>
      <trkpt lat="42.74678" lon="1.86625">
        <ele>1719</ele>
        <time>2016-11-12T12:40:22Z</time>
      </trkpt>
      <trkpt lat="42.74676" lon="1.86627">
        <ele>1709</ele>
        <time>2016-11-12T12:40:27Z</time>
      </trkpt>
      <trkpt lat="42.74676" lon="1.86628">
        <ele>1709</ele>
        <time>2016-11-12T12:40:32Z</time>
      </trkpt>
      <trkpt lat="42.74676" lon="1.86628">
        <ele>1709</ele>
        <time>2016-11-12T12:40:37Z</time>
      </trkpt>
      <trkpt lat="42.74673" lon="1.86629">
        <ele>1709</ele>
        <time>2016-11-12T12:40:42Z</time>
      </trkpt>
      <trkpt lat="42.74673" lon="1.8663">
        <ele>1709</ele>
        <time>2016-11-12T12:40:47Z</time>
      </trkpt>
      <trkpt lat="42.74667" lon="1.86637">
        <ele>1709</ele>
        <time>2016-11-12T12:40:52Z</time>
      </trkpt>
      <trkpt lat="42.74667" lon="1.86638">
        <ele>1709</ele>
        <time>2016-11-12T12:40:57Z</time>
      </trkpt>
      <trkpt lat="42.74668" lon="1.86637">
        <ele>1709</ele>
        <time>2016-11-12T12:41:02Z</time>
      </trkpt>
      <trkpt lat="42.74669" lon="1.86636">
        <ele>1709</ele>
        <time>2016-11-12T12:41:07Z</time>
      </trkpt>
      <trkpt lat="42.74673" lon="1.86631">
        <ele>1709</ele>
        <time>2016-11-12T12:41:12Z</time>
      </trkpt>
      <trkpt lat="42.74676" lon="1.86626">
        <ele>1709</ele>
        <time>2016-11-12T12:41:17Z</time>
      </trkpt>
      <trkpt lat="42.74679" lon="1.86622">
        <ele>1719</ele>
        <time>2016-11-12T12:41:22Z</time>
      </trkpt>
      <trkpt lat="42.74681" lon="1.86619">
        <ele>1719</ele>
        <time>2016-11-12T12:41:27Z</time>
      </trkpt>
      <trkpt lat="42.74684" lon="1.86618">
        <ele>1719</ele>
        <time>2016-11-12T12:41:32Z</time>
      </trkpt>
      <trkpt lat="42.74686" lon="1.86616">
        <ele>1719</ele>
        <time>2016-11-12T12:41:37Z</time>
      </trkpt>
      <trkpt lat="42.74688" lon="1.86613">
        <ele>1719</ele>
        <time>2016-11-12T12:41:42Z</time>
      </trkpt>
      <trkpt lat="42.74689" lon="1.86611">
        <ele>1719</ele>
        <time>2016-11-12T12:41:47Z</time>
      </trkpt>
      <trkpt lat="42.74691" lon="1.86609">
        <ele>1719</ele>
        <time>2016-11-12T12:41:52Z</time>
      </trkpt>
      <trkpt lat="42.74691" lon="1.86606">
        <ele>1719</ele>
        <time>2016-11-12T12:41:57Z</time>
      </trkpt>
      <trkpt lat="42.74692" lon="1.86605">
        <ele>1719</ele>
        <time>2016-11-12T12:42:02Z</time>
      </trkpt>
      <trkpt lat="42.74692" lon="1.86605">
        <ele>1719</ele>
        <time>2016-11-12T12:42:07Z</time>
      </trkpt>
      <trkpt lat="42.74692" lon="1.86605">
        <ele>1719</ele>
        <time>2016-11-12T12:42:12Z</time>
      </trkpt>
      <trkpt lat="42.74692" lon="1.86605">
        <ele>1719</ele>
        <time>2016-11-12T12:42:17Z</time>
      </trkpt>
      <trkpt lat="42.74693" lon="1.86605">
        <ele>1719</ele>
        <time>2016-11-12T12:42:22Z</time>
      </trkpt>
      <trkpt lat="42.74693" lon="1.86605">
        <ele>1719</ele>
        <time>2016-11-12T12:42:27Z</time>
      </trkpt>
      <trkpt lat="42.74694" lon="1.86605">
        <ele>1719</ele>
        <time>2016-11-12T12:42:32Z</time>
      </trkpt>
      <trkpt lat="42.74694" lon="1.86605">
        <ele>1719</ele>
        <time>2016-11-12T12:42:37Z</time>
      </trkpt>
      <trkpt lat="42.74694" lon="1.86605">
        <ele>1719</ele>
        <time>2016-11-12T12:42:42Z</time>
      </trkpt>
      <trkpt lat="42.74695" lon="1.86605">
        <ele>1719</ele>
        <time>2016-11-12T12:42:47Z</time>
      </trkpt>
      <trkpt lat="42.74695" lon="1.86605">
        <ele>1719</ele>
        <time>2016-11-12T12:42:52Z</time>
      </trkpt>
      <trkpt lat="42.74695" lon="1.86605">
        <ele>1719</ele>
        <time>2016-11-12T12:42:57Z</time>
      </trkpt>
      <trkpt lat="42.74695" lon="1.86605">
        <ele>1719</ele>
        <time>2016-11-12T12:43:02Z</time>
      </trkpt>
      <trkpt lat="42.74695" lon="1.86605">
        <ele>1719</ele>
        <time>2016-11-12T12:43:07Z</time>
      </trkpt>
      <trkpt lat="42.74695" lon="1.86605">
        <ele>1719</ele>
        <time>2016-11-12T12:43:12Z</time>
      </trkpt>
      <trkpt lat="42.74695" lon="1.86605">
        <ele>1719</ele>
        <time>2016-11-12T12:43:17Z</time>
      </trkpt>
      <trkpt lat="42.74695" lon="1.86605">
        <ele>1719</ele>
        <time>2016-11-12T12:43:22Z</time>
      </trkpt>
      <trkpt lat="42.74695" lon="1.86606">
        <ele>1719</ele>
        <time>2016-11-12T12:43:27Z</time>
      </trkpt>
      <trkpt lat="42.74694" lon="1.86607">
        <ele>1719</ele>
        <time>2016-11-12T12:43:32Z</time>
      </trkpt>
      <trkpt lat="42.74694" lon="1.86607">
        <ele>1719</ele>
        <time>2016-11-12T12:43:37Z</time>
      </trkpt>
      <trkpt lat="42.74694" lon="1.86608">
        <ele>1719</ele>
        <time>2016-11-12T12:43:42Z</time>
      </trkpt>
      <trkpt lat="42.74694" lon="1.86607">
        <ele>1719</ele>
        <time>2016-11-12T12:43:47Z</time>
      </trkpt>
      <trkpt lat="42.74694" lon="1.86607">
        <ele>1719</ele>
        <time>2016-11-12T12:43:52Z</time>
      </trkpt>
      <trkpt lat="42.74694" lon="1.86606">
        <ele>1719</ele>
        <time>2016-11-12T12:43:57Z</time>
      </trkpt>
      <trkpt lat="42.74694" lon="1.86606">
        <ele>1719</ele>
        <time>2016-11-12T12:44:02Z</time>
      </trkpt>
      <trkpt lat="42.74694" lon="1.86605">
        <ele>1719</ele>
        <time>2016-11-12T12:44:07Z</time>
      </trkpt>
      <trkpt lat="42.74693" lon="1.86605">
        <ele>1719</ele>
        <time>2016-11-12T12:44:12Z</time>
      </trkpt>
      <trkpt lat="42.74694" lon="1.86606">
        <ele>1719</ele>
        <time>2016-11-12T12:44:17Z</time>
      </trkpt>
      <trkpt lat="42.74695" lon="1.86606">
        <ele>1719</ele>
        <time>2016-11-12T12:44:22Z</time>
      </trkpt>
      <trkpt lat="42.74695" lon="1.86606">
        <ele>1719</ele>
        <time>2016-11-12T12:44:27Z</time>
      </trkpt>
      <trkpt lat="42.74695" lon="1.86606">
        <ele>1719</ele>
        <time>2016-11-12T12:44:32Z</time>
      </trkpt>
      <trkpt lat="42.74695" lon="1.86605">
        <ele>1719</ele>
        <time>2016-11-12T12:44:37Z</time>
      </trkpt>
      <trkpt lat="42.74694" lon="1.86603">
        <ele>1719</ele>
        <time>2016-11-12T12:44:42Z</time>
      </trkpt>
      <trkpt lat="42.74694" lon="1.86602">
        <ele>1719</ele>
        <time>2016-11-12T12:44:47Z</time>
      </trkpt>
      <trkpt lat="42.74694" lon="1.866">
        <ele>1719</ele>
        <time>2016-11-12T12:44:52Z</time>
      </trkpt>
      <trkpt lat="42.74694" lon="1.86598">
        <ele>1719</ele>
        <time>2016-11-12T12:44:57Z</time>
      </trkpt>
      <trkpt lat="42.74694" lon="1.86598">
        <ele>1719</ele>
        <time>2016-11-12T12:45:02Z</time>
      </trkpt>
      <trkpt lat="42.74691" lon="1.86596">
        <ele>1719</ele>
        <time>2016-11-12T12:45:07Z</time>
      </trkpt>
      <trkpt lat="42.74691" lon="1.86596">
        <ele>1719</ele>
        <time>2016-11-12T12:45:12Z</time>
      </trkpt>
      <trkpt lat="42.74691" lon="1.86596">
        <ele>1719</ele>
        <time>2016-11-12T12:45:17Z</time>
      </trkpt>
      <trkpt lat="42.74691" lon="1.86596">
        <ele>1719</ele>
        <time>2016-11-12T12:45:22Z</time>
      </trkpt>
      <trkpt lat="42.74692" lon="1.86596">
        <ele>1719</ele>
        <time>2016-11-12T12:45:27Z</time>
      </trkpt>
      <trkpt lat="42.74692" lon="1.86596">
        <ele>1719</ele>
        <time>2016-11-12T12:45:32Z</time>
      </trkpt>
      <trkpt lat="42.74692" lon="1.86595">
        <ele>1719</ele>
        <time>2016-11-12T12:45:37Z</time>
      </trkpt>
      <trkpt lat="42.74692" lon="1.86594">
        <ele>1719</ele>
        <time>2016-11-12T12:45:42Z</time>
      </trkpt>
      <trkpt lat="42.74692" lon="1.86594">
        <ele>1719</ele>
        <time>2016-11-12T12:45:47Z</time>
      </trkpt>
      <trkpt lat="42.74692" lon="1.86594">
        <ele>1719</ele>
        <time>2016-11-12T12:45:52Z</time>
      </trkpt>
      <trkpt lat="42.74692" lon="1.86594">
        <ele>1719</ele>
        <time>2016-11-12T12:45:57Z</time>
      </trkpt>
      <trkpt lat="42.74692" lon="1.86594">
        <ele>1719</ele>
        <time>2016-11-12T12:46:02Z</time>
      </trkpt>
      <trkpt lat="42.74692" lon="1.86594">
        <ele>1719</ele>
        <time>2016-11-12T12:46:07Z</time>
      </trkpt>
      <trkpt lat="42.74692" lon="1.86594">
        <ele>1719</ele>
        <time>2016-11-12T12:46:12Z</time>
      </trkpt>
      <trkpt lat="42.74692" lon="1.86594">
        <ele>1719</ele>
        <time>2016-11-12T12:46:17Z</time>
      </trkpt>
      <trkpt lat="42.74691" lon="1.86593">
        <ele>1719</ele>
        <time>2016-11-12T12:46:22Z</time>
      </trkpt>
      <trkpt lat="42.74691" lon="1.86593">
        <ele>1719</ele>
        <time>2016-11-12T12:46:27Z</time>
      </trkpt>
      <trkpt lat="42.74691" lon="1.86593">
        <ele>1719</ele>
        <time>2016-11-12T12:46:32Z</time>
      </trkpt>
      <trkpt lat="42.74691" lon="1.86592">
        <ele>1719</ele>
        <time>2016-11-12T12:46:37Z</time>
      </trkpt>
      <trkpt lat="42.74691" lon="1.86592">
        <ele>1719</ele>
        <time>2016-11-12T12:46:42Z</time>
      </trkpt>
      <trkpt lat="42.74691" lon="1.86592">
        <ele>1719</ele>
        <time>2016-11-12T12:46:47Z</time>
      </trkpt>
      <trkpt lat="42.74691" lon="1.86592">
        <ele>1719</ele>
        <time>2016-11-12T12:46:52Z</time>
      </trkpt>
      <trkpt lat="42.7469" lon="1.86592">
        <ele>1719</ele>
        <time>2016-11-12T12:46:57Z</time>
      </trkpt>
      <trkpt lat="42.74691" lon="1.86592">
        <ele>1719</ele>
        <time>2016-11-12T12:47:02Z</time>
      </trkpt>
      <trkpt lat="42.74691" lon="1.86591">
        <ele>1719</ele>
        <time>2016-11-12T12:47:07Z</time>
      </trkpt>
      <trkpt lat="42.7469" lon="1.86589">
        <ele>1719</ele>
        <time>2016-11-12T12:47:12Z</time>
      </trkpt>
      <trkpt lat="42.7469" lon="1.86589">
        <ele>1719</ele>
        <time>2016-11-12T12:47:17Z</time>
      </trkpt>
      <trkpt lat="42.7469" lon="1.86589">
        <ele>1719</ele>
        <time>2016-11-12T12:47:22Z</time>
      </trkpt>
      <trkpt lat="42.7469" lon="1.86588">
        <ele>1719</ele>
        <time>2016-11-12T12:47:27Z</time>
      </trkpt>
      <trkpt lat="42.7469" lon="1.86588">
        <ele>1719</ele>
        <time>2016-11-12T12:47:32Z</time>
      </trkpt>
      <trkpt lat="42.74691" lon="1.86587">
        <ele>1719</ele>
        <time>2016-11-12T12:47:37Z</time>
      </trkpt>
      <trkpt lat="42.74691" lon="1.86587">
        <ele>1719</ele>
        <time>2016-11-12T12:47:42Z</time>
      </trkpt>
      <trkpt lat="42.74691" lon="1.86587">
        <ele>1719</ele>
        <time>2016-11-12T12:47:47Z</time>
      </trkpt>
      <trkpt lat="42.74691" lon="1.86586">
        <ele>1719</ele>
        <time>2016-11-12T12:47:52Z</time>
      </trkpt>
      <trkpt lat="42.74691" lon="1.86587">
        <ele>1719</ele>
        <time>2016-11-12T12:47:57Z</time>
      </trkpt>
      <trkpt lat="42.74691" lon="1.86587">
        <ele>1719</ele>
        <time>2016-11-12T12:48:02Z</time>
      </trkpt>
      <trkpt lat="42.74696" lon="1.86585">
        <ele>1719</ele>
        <time>2016-11-12T12:48:07Z</time>
      </trkpt>
      <trkpt lat="42.74697" lon="1.86598">
        <ele>1719</ele>
        <time>2016-11-12T12:48:12Z</time>
      </trkpt>
      <trkpt lat="42.74697" lon="1.86598">
        <ele>1719</ele>
        <time>2016-11-12T12:48:17Z</time>
      </trkpt>
      <trkpt lat="42.74697" lon="1.866">
        <ele>1719</ele>
        <time>2016-11-12T12:48:22Z</time>
      </trkpt>
      <trkpt lat="42.74697" lon="1.866">
        <ele>1719</ele>
        <time>2016-11-12T12:48:27Z</time>
      </trkpt>
      <trkpt lat="42.74697" lon="1.866">
        <ele>1719</ele>
        <time>2016-11-12T12:48:32Z</time>
      </trkpt>
      <trkpt lat="42.74696" lon="1.866">
        <ele>1719</ele>
        <time>2016-11-12T12:48:37Z</time>
      </trkpt>
      <trkpt lat="42.74696" lon="1.86599">
        <ele>1719</ele>
        <time>2016-11-12T12:48:42Z</time>
      </trkpt>
      <trkpt lat="42.74692" lon="1.866">
        <ele>1719</ele>
        <time>2016-11-12T12:48:47Z</time>
      </trkpt>
      <trkpt lat="42.74692" lon="1.866">
        <ele>1719</ele>
        <time>2016-11-12T12:48:52Z</time>
      </trkpt>
      <trkpt lat="42.74692" lon="1.866">
        <ele>1719</ele>
        <time>2016-11-12T12:48:57Z</time>
      </trkpt>
      <trkpt lat="42.74692" lon="1.866">
        <ele>1719</ele>
        <time>2016-11-12T12:49:02Z</time>
      </trkpt>
      <trkpt lat="42.74693" lon="1.866">
        <ele>1719</ele>
        <time>2016-11-12T12:49:07Z</time>
      </trkpt>
      <trkpt lat="42.74693" lon="1.866">
        <ele>1719</ele>
        <time>2016-11-12T12:49:12Z</time>
      </trkpt>
      <trkpt lat="42.74693" lon="1.86602">
        <ele>1719</ele>
        <time>2016-11-12T12:49:17Z</time>
      </trkpt>
      <trkpt lat="42.74693" lon="1.86604">
        <ele>1719</ele>
        <time>2016-11-12T12:49:22Z</time>
      </trkpt>
      <trkpt lat="42.74693" lon="1.86604">
        <ele>1719</ele>
        <time>2016-11-12T12:49:27Z</time>
      </trkpt>
      <trkpt lat="42.74696" lon="1.86607">
        <ele>1719</ele>
        <time>2016-11-12T12:49:32Z</time>
      </trkpt>
      <trkpt lat="42.74697" lon="1.8661">
        <ele>1719</ele>
        <time>2016-11-12T12:49:37Z</time>
      </trkpt>
      <trkpt lat="42.74699" lon="1.86611">
        <ele>1719</ele>
        <time>2016-11-12T12:49:42Z</time>
      </trkpt>
      <trkpt lat="42.74699" lon="1.86611">
        <ele>1719</ele>
        <time>2016-11-12T12:49:47Z</time>
      </trkpt>
      <trkpt lat="42.74693" lon="1.86613">
        <ele>1719</ele>
        <time>2016-11-12T12:49:52Z</time>
      </trkpt>
      <trkpt lat="42.74693" lon="1.86613">
        <ele>1719</ele>
        <time>2016-11-12T12:49:57Z</time>
      </trkpt>
      <trkpt lat="42.74693" lon="1.86613">
        <ele>1719</ele>
        <time>2016-11-12T12:50:02Z</time>
      </trkpt>
      <trkpt lat="42.74693" lon="1.86612">
        <ele>1719</ele>
        <time>2016-11-12T12:50:07Z</time>
      </trkpt>
      <trkpt lat="42.74692" lon="1.86612">
        <ele>1719</ele>
        <time>2016-11-12T12:50:12Z</time>
      </trkpt>
      <trkpt lat="42.74693" lon="1.86611">
        <ele>1719</ele>
        <time>2016-11-12T12:50:17Z</time>
      </trkpt>
      <trkpt lat="42.74695" lon="1.86606">
        <ele>1719</ele>
        <time>2016-11-12T12:50:22Z</time>
      </trkpt>
      <trkpt lat="42.74695" lon="1.86605">
        <ele>1719</ele>
        <time>2016-11-12T12:50:27Z</time>
      </trkpt>
      <trkpt lat="42.74695" lon="1.86604">
        <ele>1719</ele>
        <time>2016-11-12T12:50:32Z</time>
      </trkpt>
      <trkpt lat="42.74695" lon="1.86604">
        <ele>1719</ele>
        <time>2016-11-12T12:50:37Z</time>
      </trkpt>
      <trkpt lat="42.74695" lon="1.86603">
        <ele>1719</ele>
        <time>2016-11-12T12:50:42Z</time>
      </trkpt>
      <trkpt lat="42.74695" lon="1.86602">
        <ele>1719</ele>
        <time>2016-11-12T12:50:47Z</time>
      </trkpt>
      <trkpt lat="42.74695" lon="1.86602">
        <ele>1719</ele>
        <time>2016-11-12T12:50:52Z</time>
      </trkpt>
      <trkpt lat="42.74694" lon="1.866">
        <ele>1719</ele>
        <time>2016-11-12T12:50:57Z</time>
      </trkpt>
      <trkpt lat="42.74694" lon="1.86599">
        <ele>1719</ele>
        <time>2016-11-12T12:51:02Z</time>
      </trkpt>
      <trkpt lat="42.74694" lon="1.86598">
        <ele>1719</ele>
        <time>2016-11-12T12:51:07Z</time>
      </trkpt>
      <trkpt lat="42.74691" lon="1.86593">
        <ele>1719</ele>
        <time>2016-11-12T12:51:12Z</time>
      </trkpt>
      <trkpt lat="42.74691" lon="1.86593">
        <ele>1719</ele>
        <time>2016-11-12T12:51:17Z</time>
      </trkpt>
      <trkpt lat="42.7469" lon="1.86592">
        <ele>1719</ele>
        <time>2016-11-12T12:51:22Z</time>
      </trkpt>
      <trkpt lat="42.7469" lon="1.86592">
        <ele>1719</ele>
        <time>2016-11-12T12:51:27Z</time>
      </trkpt>
      <trkpt lat="42.7469" lon="1.86592">
        <ele>1719</ele>
        <time>2016-11-12T12:51:32Z</time>
      </trkpt>
      <trkpt lat="42.7469" lon="1.86593">
        <ele>1719</ele>
        <time>2016-11-12T12:51:37Z</time>
      </trkpt>
      <trkpt lat="42.7469" lon="1.86593">
        <ele>1719</ele>
        <time>2016-11-12T12:51:42Z</time>
      </trkpt>
      <trkpt lat="42.7469" lon="1.86593">
        <ele>1719</ele>
        <time>2016-11-12T12:51:47Z</time>
      </trkpt>
      <trkpt lat="42.7469" lon="1.86592">
        <ele>1719</ele>
        <time>2016-11-12T12:51:52Z</time>
      </trkpt>
      <trkpt lat="42.7469" lon="1.86592">
        <ele>1719</ele>
        <time>2016-11-12T12:51:57Z</time>
      </trkpt>
      <trkpt lat="42.7469" lon="1.86592">
        <ele>1719</ele>
        <time>2016-11-12T12:52:02Z</time>
      </trkpt>
      <trkpt lat="42.7469" lon="1.86592">
        <ele>1719</ele>
        <time>2016-11-12T12:52:07Z</time>
      </trkpt>
      <trkpt lat="42.7469" lon="1.86592">
        <ele>1719</ele>
        <time>2016-11-12T12:52:12Z</time>
      </trkpt>
      <trkpt lat="42.7469" lon="1.86592">
        <ele>1719</ele>
        <time>2016-11-12T12:52:17Z</time>
      </trkpt>
      <trkpt lat="42.7469" lon="1.86592">
        <ele>1719</ele>
        <time>2016-11-12T12:52:22Z</time>
      </trkpt>
      <trkpt lat="42.7469" lon="1.86592">
        <ele>1719</ele>
        <time>2016-11-12T12:52:27Z</time>
      </trkpt>
      <trkpt lat="42.7469" lon="1.86591">
        <ele>1719</ele>
        <time>2016-11-12T12:52:32Z</time>
      </trkpt>
      <trkpt lat="42.7469" lon="1.86591">
        <ele>1719</ele>
        <time>2016-11-12T12:52:37Z</time>
      </trkpt>
      <trkpt lat="42.74689" lon="1.86593">
        <ele>1719</ele>
        <time>2016-11-12T12:52:42Z</time>
      </trkpt>
      <trkpt lat="42.74691" lon="1.8659">
        <ele>1719</ele>
        <time>2016-11-12T12:52:47Z</time>
      </trkpt>
      <trkpt lat="42.74691" lon="1.86589">
        <ele>1719</ele>
        <time>2016-11-12T12:52:52Z</time>
      </trkpt>
      <trkpt lat="42.74691" lon="1.86589">
        <ele>1719</ele>
        <time>2016-11-12T12:52:57Z</time>
      </trkpt>
      <trkpt lat="42.74691" lon="1.86589">
        <ele>1719</ele>
        <time>2016-11-12T12:53:02Z</time>
      </trkpt>
      <trkpt lat="42.74691" lon="1.86589">
        <ele>1719</ele>
        <time>2016-11-12T12:53:07Z</time>
      </trkpt>
      <trkpt lat="42.74691" lon="1.86589">
        <ele>1719</ele>
        <time>2016-11-12T12:53:12Z</time>
      </trkpt>
      <trkpt lat="42.74691" lon="1.86589">
        <ele>1719</ele>
        <time>2016-11-12T12:53:17Z</time>
      </trkpt>
      <trkpt lat="42.74691" lon="1.86589">
        <ele>1719</ele>
        <time>2016-11-12T12:53:22Z</time>
      </trkpt>
      <trkpt lat="42.74691" lon="1.86589">
        <ele>1719</ele>
        <time>2016-11-12T12:53:27Z</time>
      </trkpt>
      <trkpt lat="42.74691" lon="1.86589">
        <ele>1719</ele>
        <time>2016-11-12T12:53:32Z</time>
      </trkpt>
      <trkpt lat="42.74691" lon="1.86589">
        <ele>1719</ele>
        <time>2016-11-12T12:53:37Z</time>
      </trkpt>
      <trkpt lat="42.74691" lon="1.86589">
        <ele>1719</ele>
        <time>2016-11-12T12:53:42Z</time>
      </trkpt>
      <trkpt lat="42.74691" lon="1.86588">
        <ele>1719</ele>
        <time>2016-11-12T12:53:47Z</time>
      </trkpt>
      <trkpt lat="42.74691" lon="1.86588">
        <ele>1719</ele>
        <time>2016-11-12T12:53:52Z</time>
      </trkpt>
      <trkpt lat="42.74691" lon="1.86589">
        <ele>1719</ele>
        <time>2016-11-12T12:53:57Z</time>
      </trkpt>
      <trkpt lat="42.74692" lon="1.86589">
        <ele>1719</ele>
        <time>2016-11-12T12:54:02Z</time>
      </trkpt>
      <trkpt lat="42.74692" lon="1.86588">
        <ele>1719</ele>
        <time>2016-11-12T12:54:07Z</time>
      </trkpt>
      <trkpt lat="42.74691" lon="1.86588">
        <ele>1719</ele>
        <time>2016-11-12T12:54:12Z</time>
      </trkpt>
      <trkpt lat="42.74691" lon="1.86588">
        <ele>1719</ele>
        <time>2016-11-12T12:54:17Z</time>
      </trkpt>
      <trkpt lat="42.7469" lon="1.86588">
        <ele>1719</ele>
        <time>2016-11-12T12:54:22Z</time>
      </trkpt>
      <trkpt lat="42.7469" lon="1.86588">
        <ele>1719</ele>
        <time>2016-11-12T12:54:27Z</time>
      </trkpt>
      <trkpt lat="42.74689" lon="1.86587">
        <ele>1719</ele>
        <time>2016-11-12T12:54:32Z</time>
      </trkpt>
      <trkpt lat="42.7469" lon="1.86588">
        <ele>1719</ele>
        <time>2016-11-12T12:54:37Z</time>
      </trkpt>
      <trkpt lat="42.7469" lon="1.86588">
        <ele>1719</ele>
        <time>2016-11-12T12:54:42Z</time>
      </trkpt>
      <trkpt lat="42.7469" lon="1.86588">
        <ele>1719</ele>
        <time>2016-11-12T12:54:47Z</time>
      </trkpt>
      <trkpt lat="42.7469" lon="1.86588">
        <ele>1719</ele>
        <time>2016-11-12T12:54:52Z</time>
      </trkpt>
      <trkpt lat="42.7469" lon="1.86588">
        <ele>1719</ele>
        <time>2016-11-12T12:54:57Z</time>
      </trkpt>
      <trkpt lat="42.7469" lon="1.86588">
        <ele>1719</ele>
        <time>2016-11-12T12:55:02Z</time>
      </trkpt>
      <trkpt lat="42.7469" lon="1.86587">
        <ele>1719</ele>
        <time>2016-11-12T12:55:07Z</time>
      </trkpt>
      <trkpt lat="42.7469" lon="1.86587">
        <ele>1719</ele>
        <time>2016-11-12T12:55:12Z</time>
      </trkpt>
      <trkpt lat="42.74689" lon="1.86587">
        <ele>1719</ele>
        <time>2016-11-12T12:55:17Z</time>
      </trkpt>
      <trkpt lat="42.74689" lon="1.86587">
        <ele>1719</ele>
        <time>2016-11-12T12:55:22Z</time>
      </trkpt>
      <trkpt lat="42.74689" lon="1.86587">
        <ele>1719</ele>
        <time>2016-11-12T12:55:27Z</time>
      </trkpt>
      <trkpt lat="42.74689" lon="1.86586">
        <ele>1719</ele>
        <time>2016-11-12T12:55:32Z</time>
      </trkpt>
      <trkpt lat="42.74689" lon="1.86586">
        <ele>1719</ele>
        <time>2016-11-12T12:55:37Z</time>
      </trkpt>
      <trkpt lat="42.74689" lon="1.86586">
        <ele>1719</ele>
        <time>2016-11-12T12:55:42Z</time>
      </trkpt>
      <trkpt lat="42.74689" lon="1.86586">
        <ele>1719</ele>
        <time>2016-11-12T12:55:47Z</time>
      </trkpt>
      <trkpt lat="42.7469" lon="1.86587">
        <ele>1719</ele>
        <time>2016-11-12T12:55:52Z</time>
      </trkpt>
      <trkpt lat="42.74689" lon="1.86587">
        <ele>1719</ele>
        <time>2016-11-12T12:55:57Z</time>
      </trkpt>
      <trkpt lat="42.74689" lon="1.86587">
        <ele>1719</ele>
        <time>2016-11-12T12:56:02Z</time>
      </trkpt>
      <trkpt lat="42.74687" lon="1.86584">
        <ele>1719</ele>
        <time>2016-11-12T12:56:07Z</time>
      </trkpt>
      <trkpt lat="42.74687" lon="1.86584">
        <ele>1719</ele>
        <time>2016-11-12T12:56:12Z</time>
      </trkpt>
      <trkpt lat="42.74687" lon="1.86585">
        <ele>1719</ele>
        <time>2016-11-12T12:56:17Z</time>
      </trkpt>
      <trkpt lat="42.74688" lon="1.86585">
        <ele>1719</ele>
        <time>2016-11-12T12:56:22Z</time>
      </trkpt>
      <trkpt lat="42.74688" lon="1.86586">
        <ele>1719</ele>
        <time>2016-11-12T12:56:27Z</time>
      </trkpt>
      <trkpt lat="42.74688" lon="1.86587">
        <ele>1719</ele>
        <time>2016-11-12T12:56:32Z</time>
      </trkpt>
      <trkpt lat="42.74688" lon="1.86587">
        <ele>1719</ele>
        <time>2016-11-12T12:56:37Z</time>
      </trkpt>
      <trkpt lat="42.74688" lon="1.86587">
        <ele>1719</ele>
        <time>2016-11-12T12:56:42Z</time>
      </trkpt>
      <trkpt lat="42.74688" lon="1.86587">
        <ele>1719</ele>
        <time>2016-11-12T12:56:47Z</time>
      </trkpt>
      <trkpt lat="42.74689" lon="1.86587">
        <ele>1719</ele>
        <time>2016-11-12T12:56:52Z</time>
      </trkpt>
      <trkpt lat="42.74689" lon="1.86587">
        <ele>1719</ele>
        <time>2016-11-12T12:56:57Z</time>
      </trkpt>
      <trkpt lat="42.74689" lon="1.86587">
        <ele>1719</ele>
        <time>2016-11-12T12:57:02Z</time>
      </trkpt>
      <trkpt lat="42.74689" lon="1.86587">
        <ele>1719</ele>
        <time>2016-11-12T12:57:07Z</time>
      </trkpt>
      <trkpt lat="42.74689" lon="1.86587">
        <ele>1719</ele>
        <time>2016-11-12T12:57:12Z</time>
      </trkpt>
      <trkpt lat="42.74689" lon="1.86587">
        <ele>1719</ele>
        <time>2016-11-12T12:57:17Z</time>
      </trkpt>
      <trkpt lat="42.74689" lon="1.86587">
        <ele>1719</ele>
        <time>2016-11-12T12:57:22Z</time>
      </trkpt>
      <trkpt lat="42.74689" lon="1.86586">
        <ele>1719</ele>
        <time>2016-11-12T12:57:27Z</time>
      </trkpt>
      <trkpt lat="42.7469" lon="1.86585">
        <ele>1719</ele>
        <time>2016-11-12T12:57:32Z</time>
      </trkpt>
      <trkpt lat="42.74689" lon="1.86585">
        <ele>1719</ele>
        <time>2016-11-12T12:57:37Z</time>
      </trkpt>
      <trkpt lat="42.74689" lon="1.86585">
        <ele>1719</ele>
        <time>2016-11-12T12:57:42Z</time>
      </trkpt>
      <trkpt lat="42.74689" lon="1.86585">
        <ele>1719</ele>
        <time>2016-11-12T12:57:47Z</time>
      </trkpt>
      <trkpt lat="42.74689" lon="1.86584">
        <ele>1719</ele>
        <time>2016-11-12T12:57:52Z</time>
      </trkpt>
      <trkpt lat="42.7469" lon="1.86584">
        <ele>1719</ele>
        <time>2016-11-12T12:57:57Z</time>
      </trkpt>
      <trkpt lat="42.7469" lon="1.86584">
        <ele>1719</ele>
        <time>2016-11-12T12:58:02Z</time>
      </trkpt>
      <trkpt lat="42.74689" lon="1.86584">
        <ele>1719</ele>
        <time>2016-11-12T12:58:07Z</time>
      </trkpt>
      <trkpt lat="42.74689" lon="1.86584">
        <ele>1719</ele>
        <time>2016-11-12T12:58:12Z</time>
      </trkpt>
      <trkpt lat="42.74689" lon="1.86584">
        <ele>1719</ele>
        <time>2016-11-12T12:58:17Z</time>
      </trkpt>
      <trkpt lat="42.74689" lon="1.86584">
        <ele>1719</ele>
        <time>2016-11-12T12:58:22Z</time>
      </trkpt>
      <trkpt lat="42.74689" lon="1.86584">
        <ele>1719</ele>
        <time>2016-11-12T12:58:27Z</time>
      </trkpt>
      <trkpt lat="42.7469" lon="1.86584">
        <ele>1719</ele>
        <time>2016-11-12T12:58:32Z</time>
      </trkpt>
      <trkpt lat="42.7469" lon="1.86584">
        <ele>1719</ele>
        <time>2016-11-12T12:58:37Z</time>
      </trkpt>
      <trkpt lat="42.7469" lon="1.86583">
        <ele>1719</ele>
        <time>2016-11-12T12:58:42Z</time>
      </trkpt>
      <trkpt lat="42.7469" lon="1.86583">
        <ele>1719</ele>
        <time>2016-11-12T12:58:47Z</time>
      </trkpt>
      <trkpt lat="42.74691" lon="1.86583">
        <ele>1719</ele>
        <time>2016-11-12T12:58:52Z</time>
      </trkpt>
      <trkpt lat="42.7469" lon="1.86583">
        <ele>1719</ele>
        <time>2016-11-12T12:58:57Z</time>
      </trkpt>
      <trkpt lat="42.7469" lon="1.86583">
        <ele>1719</ele>
        <time>2016-11-12T12:59:02Z</time>
      </trkpt>
      <trkpt lat="42.74691" lon="1.86583">
        <ele>1719</ele>
        <time>2016-11-12T12:59:07Z</time>
      </trkpt>
      <trkpt lat="42.74692" lon="1.86582">
        <ele>1719</ele>
        <time>2016-11-12T12:59:12Z</time>
      </trkpt>
      <trkpt lat="42.74692" lon="1.86583">
        <ele>1719</ele>
        <time>2016-11-12T12:59:17Z</time>
      </trkpt>
      <trkpt lat="42.74692" lon="1.86583">
        <ele>1719</ele>
        <time>2016-11-12T12:59:22Z</time>
      </trkpt>
      <trkpt lat="42.74692" lon="1.86583">
        <ele>1719</ele>
        <time>2016-11-12T12:59:27Z</time>
      </trkpt>
      <trkpt lat="42.74692" lon="1.86583">
        <ele>1719</ele>
        <time>2016-11-12T12:59:32Z</time>
      </trkpt>
      <trkpt lat="42.74692" lon="1.86582">
        <ele>1719</ele>
        <time>2016-11-12T12:59:37Z</time>
      </trkpt>
      <trkpt lat="42.74692" lon="1.86582">
        <ele>1719</ele>
        <time>2016-11-12T12:59:42Z</time>
      </trkpt>
      <trkpt lat="42.74692" lon="1.86582">
        <ele>1719</ele>
        <time>2016-11-12T12:59:47Z</time>
      </trkpt>
      <trkpt lat="42.74692" lon="1.86582">
        <ele>1719</ele>
        <time>2016-11-12T12:59:52Z</time>
      </trkpt>
      <trkpt lat="42.74693" lon="1.86582">
        <ele>1719</ele>
        <time>2016-11-12T12:59:57Z</time>
      </trkpt>
      <trkpt lat="42.74693" lon="1.86582">
        <ele>1719</ele>
        <time>2016-11-12T13:00:02Z</time>
      </trkpt>
      <trkpt lat="42.74693" lon="1.86582">
        <ele>1719</ele>
        <time>2016-11-12T13:00:07Z</time>
      </trkpt>
      <trkpt lat="42.74692" lon="1.86582">
        <ele>1719</ele>
        <time>2016-11-12T13:00:12Z</time>
      </trkpt>
      <trkpt lat="42.74693" lon="1.86581">
        <ele>1719</ele>
        <time>2016-11-12T13:00:17Z</time>
      </trkpt>
      <trkpt lat="42.74692" lon="1.86581">
        <ele>1719</ele>
        <time>2016-11-12T13:00:22Z</time>
      </trkpt>
      <trkpt lat="42.74692" lon="1.86581">
        <ele>1719</ele>
        <time>2016-11-12T13:00:27Z</time>
      </trkpt>
      <trkpt lat="42.74693" lon="1.86581">
        <ele>1719</ele>
        <time>2016-11-12T13:00:32Z</time>
      </trkpt>
      <trkpt lat="42.74693" lon="1.8658">
        <ele>1719</ele>
        <time>2016-11-12T13:00:37Z</time>
      </trkpt>
      <trkpt lat="42.74693" lon="1.8658">
        <ele>1719</ele>
        <time>2016-11-12T13:00:42Z</time>
      </trkpt>
      <trkpt lat="42.74693" lon="1.8658">
        <ele>1719</ele>
        <time>2016-11-12T13:00:47Z</time>
      </trkpt>
      <trkpt lat="42.74693" lon="1.8658">
        <ele>1719</ele>
        <time>2016-11-12T13:00:52Z</time>
      </trkpt>
      <trkpt lat="42.74693" lon="1.8658">
        <ele>1719</ele>
        <time>2016-11-12T13:00:57Z</time>
      </trkpt>
      <trkpt lat="42.74693" lon="1.8658">
        <ele>1719</ele>
        <time>2016-11-12T13:01:02Z</time>
      </trkpt>
      <trkpt lat="42.74693" lon="1.86581">
        <ele>1719</ele>
        <time>2016-11-12T13:01:07Z</time>
      </trkpt>
      <trkpt lat="42.74693" lon="1.86581">
        <ele>1719</ele>
        <time>2016-11-12T13:01:12Z</time>
      </trkpt>
      <trkpt lat="42.74694" lon="1.86581">
        <ele>1719</ele>
        <time>2016-11-12T13:01:17Z</time>
      </trkpt>
      <trkpt lat="42.74694" lon="1.86582">
        <ele>1719</ele>
        <time>2016-11-12T13:01:22Z</time>
      </trkpt>
      <trkpt lat="42.74694" lon="1.86582">
        <ele>1719</ele>
        <time>2016-11-12T13:01:27Z</time>
      </trkpt>
      <trkpt lat="42.74694" lon="1.86582">
        <ele>1719</ele>
        <time>2016-11-12T13:01:32Z</time>
      </trkpt>
      <trkpt lat="42.74694" lon="1.86582">
        <ele>1719</ele>
        <time>2016-11-12T13:01:37Z</time>
      </trkpt>
      <trkpt lat="42.74695" lon="1.86582">
        <ele>1719</ele>
        <time>2016-11-12T13:01:42Z</time>
      </trkpt>
      <trkpt lat="42.74695" lon="1.86582">
        <ele>1719</ele>
        <time>2016-11-12T13:01:47Z</time>
      </trkpt>
      <trkpt lat="42.74695" lon="1.86582">
        <ele>1719</ele>
        <time>2016-11-12T13:01:52Z</time>
      </trkpt>
      <trkpt lat="42.74695" lon="1.86583">
        <ele>1719</ele>
        <time>2016-11-12T13:01:57Z</time>
      </trkpt>
      <trkpt lat="42.74694" lon="1.86583">
        <ele>1719</ele>
        <time>2016-11-12T13:02:02Z</time>
      </trkpt>
      <trkpt lat="42.74694" lon="1.86583">
        <ele>1719</ele>
        <time>2016-11-12T13:02:07Z</time>
      </trkpt>
      <trkpt lat="42.74694" lon="1.86583">
        <ele>1719</ele>
        <time>2016-11-12T13:02:12Z</time>
      </trkpt>
      <trkpt lat="42.74694" lon="1.86583">
        <ele>1719</ele>
        <time>2016-11-12T13:02:17Z</time>
      </trkpt>
      <trkpt lat="42.74694" lon="1.86583">
        <ele>1719</ele>
        <time>2016-11-12T13:02:22Z</time>
      </trkpt>
      <trkpt lat="42.74694" lon="1.86583">
        <ele>1719</ele>
        <time>2016-11-12T13:02:27Z</time>
      </trkpt>
      <trkpt lat="42.74693" lon="1.8658">
        <ele>1719</ele>
        <time>2016-11-12T13:02:32Z</time>
      </trkpt>
      <trkpt lat="42.74693" lon="1.86579">
        <ele>1719</ele>
        <time>2016-11-12T13:02:37Z</time>
      </trkpt>
      <trkpt lat="42.74693" lon="1.86579">
        <ele>1719</ele>
        <time>2016-11-12T13:02:42Z</time>
      </trkpt>
      <trkpt lat="42.74693" lon="1.86579">
        <ele>1719</ele>
        <time>2016-11-12T13:02:47Z</time>
      </trkpt>
      <trkpt lat="42.74692" lon="1.8658">
        <ele>1719</ele>
        <time>2016-11-12T13:02:52Z</time>
      </trkpt>
      <trkpt lat="42.74691" lon="1.86581">
        <ele>1719</ele>
        <time>2016-11-12T13:02:57Z</time>
      </trkpt>
      <trkpt lat="42.74691" lon="1.86581">
        <ele>1719</ele>
        <time>2016-11-12T13:03:02Z</time>
      </trkpt>
      <trkpt lat="42.74691" lon="1.86581">
        <ele>1719</ele>
        <time>2016-11-12T13:03:07Z</time>
      </trkpt>
      <trkpt lat="42.74691" lon="1.8658">
        <ele>1719</ele>
        <time>2016-11-12T13:03:12Z</time>
      </trkpt>
      <trkpt lat="42.74691" lon="1.8658">
        <ele>1719</ele>
        <time>2016-11-12T13:03:17Z</time>
      </trkpt>
      <trkpt lat="42.74691" lon="1.8658">
        <ele>1719</ele>
        <time>2016-11-12T13:03:22Z</time>
      </trkpt>
      <trkpt lat="42.74691" lon="1.8658">
        <ele>1719</ele>
        <time>2016-11-12T13:03:27Z</time>
      </trkpt>
      <trkpt lat="42.74692" lon="1.8658">
        <ele>1719</ele>
        <time>2016-11-12T13:03:32Z</time>
      </trkpt>
      <trkpt lat="42.74691" lon="1.86579">
        <ele>1719</ele>
        <time>2016-11-12T13:03:37Z</time>
      </trkpt>
      <trkpt lat="42.74691" lon="1.86579">
        <ele>1719</ele>
        <time>2016-11-12T13:03:42Z</time>
      </trkpt>
      <trkpt lat="42.74696" lon="1.86582">
        <ele>1719</ele>
        <time>2016-11-12T13:03:47Z</time>
      </trkpt>
      <trkpt lat="42.74696" lon="1.86582">
        <ele>1719</ele>
        <time>2016-11-12T13:03:52Z</time>
      </trkpt>
      <trkpt lat="42.74697" lon="1.86582">
        <ele>1719</ele>
        <time>2016-11-12T13:03:57Z</time>
      </trkpt>
      <trkpt lat="42.74697" lon="1.86581">
        <ele>1719</ele>
        <time>2016-11-12T13:04:02Z</time>
      </trkpt>
      <trkpt lat="42.74697" lon="1.8658">
        <ele>1719</ele>
        <time>2016-11-12T13:04:07Z</time>
      </trkpt>
      <trkpt lat="42.74695" lon="1.86579">
        <ele>1719</ele>
        <time>2016-11-12T13:04:12Z</time>
      </trkpt>
      <trkpt lat="42.74694" lon="1.86579">
        <ele>1719</ele>
        <time>2016-11-12T13:04:17Z</time>
      </trkpt>
      <trkpt lat="42.74694" lon="1.86579">
        <ele>1719</ele>
        <time>2016-11-12T13:04:22Z</time>
      </trkpt>
      <trkpt lat="42.74694" lon="1.86579">
        <ele>1719</ele>
        <time>2016-11-12T13:04:27Z</time>
      </trkpt>
      <trkpt lat="42.74694" lon="1.86582">
        <ele>1719</ele>
        <time>2016-11-12T13:04:32Z</time>
      </trkpt>
      <trkpt lat="42.74694" lon="1.86582">
        <ele>1719</ele>
        <time>2016-11-12T13:04:37Z</time>
      </trkpt>
      <trkpt lat="42.74693" lon="1.86585">
        <ele>1719</ele>
        <time>2016-11-12T13:04:42Z</time>
      </trkpt>
      <trkpt lat="42.74693" lon="1.86588">
        <ele>1719</ele>
        <time>2016-11-12T13:04:47Z</time>
      </trkpt>
      <trkpt lat="42.74693" lon="1.86588">
        <ele>1719</ele>
        <time>2016-11-12T13:04:52Z</time>
      </trkpt>
      <trkpt lat="42.74693" lon="1.86588">
        <ele>1719</ele>
        <time>2016-11-12T13:04:57Z</time>
      </trkpt>
      <trkpt lat="42.74693" lon="1.86588">
        <ele>1719</ele>
        <time>2016-11-12T13:05:02Z</time>
      </trkpt>
      <trkpt lat="42.74693" lon="1.86588">
        <ele>1719</ele>
        <time>2016-11-12T13:05:07Z</time>
      </trkpt>
      <trkpt lat="42.74693" lon="1.86588">
        <ele>1719</ele>
        <time>2016-11-12T13:05:12Z</time>
      </trkpt>
      <trkpt lat="42.74693" lon="1.86588">
        <ele>1719</ele>
        <time>2016-11-12T13:05:17Z</time>
      </trkpt>
      <trkpt lat="42.74693" lon="1.86589">
        <ele>1719</ele>
        <time>2016-11-12T13:05:22Z</time>
      </trkpt>
      <trkpt lat="42.74694" lon="1.86589">
        <ele>1719</ele>
        <time>2016-11-12T13:05:27Z</time>
      </trkpt>
      <trkpt lat="42.74694" lon="1.86589">
        <ele>1719</ele>
        <time>2016-11-12T13:05:32Z</time>
      </trkpt>
      <trkpt lat="42.74693" lon="1.86589">
        <ele>1719</ele>
        <time>2016-11-12T13:05:37Z</time>
      </trkpt>
      <trkpt lat="42.74694" lon="1.86589">
        <ele>1719</ele>
        <time>2016-11-12T13:05:42Z</time>
      </trkpt>
      <trkpt lat="42.74694" lon="1.86589">
        <ele>1719</ele>
        <time>2016-11-12T13:05:47Z</time>
      </trkpt>
      <trkpt lat="42.74694" lon="1.86589">
        <ele>1719</ele>
        <time>2016-11-12T13:05:52Z</time>
      </trkpt>
      <trkpt lat="42.74694" lon="1.86589">
        <ele>1719</ele>
        <time>2016-11-12T13:05:57Z</time>
      </trkpt>
      <trkpt lat="42.74694" lon="1.86589">
        <ele>1719</ele>
        <time>2016-11-12T13:06:02Z</time>
      </trkpt>
      <trkpt lat="42.74694" lon="1.86589">
        <ele>1719</ele>
        <time>2016-11-12T13:06:07Z</time>
      </trkpt>
      <trkpt lat="42.74694" lon="1.86589">
        <ele>1719</ele>
        <time>2016-11-12T13:06:12Z</time>
      </trkpt>
      <trkpt lat="42.74694" lon="1.86589">
        <ele>1719</ele>
        <time>2016-11-12T13:06:17Z</time>
      </trkpt>
      <trkpt lat="42.74694" lon="1.86589">
        <ele>1719</ele>
        <time>2016-11-12T13:06:22Z</time>
      </trkpt>
      <trkpt lat="42.74694" lon="1.86589">
        <ele>1719</ele>
        <time>2016-11-12T13:06:27Z</time>
      </trkpt>
      <trkpt lat="42.74694" lon="1.8659">
        <ele>1719</ele>
        <time>2016-11-12T13:06:32Z</time>
      </trkpt>
      <trkpt lat="42.74694" lon="1.8659">
        <ele>1719</ele>
        <time>2016-11-12T13:06:37Z</time>
      </trkpt>
      <trkpt lat="42.74695" lon="1.8659">
        <ele>1719</ele>
        <time>2016-11-12T13:06:42Z</time>
      </trkpt>
      <trkpt lat="42.74695" lon="1.8659">
        <ele>1719</ele>
        <time>2016-11-12T13:06:47Z</time>
      </trkpt>
      <trkpt lat="42.74695" lon="1.8659">
        <ele>1719</ele>
        <time>2016-11-12T13:06:52Z</time>
      </trkpt>
      <trkpt lat="42.74694" lon="1.8659">
        <ele>1719</ele>
        <time>2016-11-12T13:06:57Z</time>
      </trkpt>
      <trkpt lat="42.74695" lon="1.86592">
        <ele>1719</ele>
        <time>2016-11-12T13:07:02Z</time>
      </trkpt>
      <trkpt lat="42.74695" lon="1.86592">
        <ele>1719</ele>
        <time>2016-11-12T13:07:07Z</time>
      </trkpt>
      <trkpt lat="42.74695" lon="1.86591">
        <ele>1719</ele>
        <time>2016-11-12T13:07:12Z</time>
      </trkpt>
      <trkpt lat="42.74695" lon="1.86591">
        <ele>1719</ele>
        <time>2016-11-12T13:07:17Z</time>
      </trkpt>
      <trkpt lat="42.74695" lon="1.86591">
        <ele>1719</ele>
        <time>2016-11-12T13:07:22Z</time>
      </trkpt>
      <trkpt lat="42.74695" lon="1.86591">
        <ele>1719</ele>
        <time>2016-11-12T13:07:27Z</time>
      </trkpt>
      <trkpt lat="42.74695" lon="1.86591">
        <ele>1719</ele>
        <time>2016-11-12T13:07:32Z</time>
      </trkpt>
      <trkpt lat="42.74694" lon="1.86591">
        <ele>1719</ele>
        <time>2016-11-12T13:07:37Z</time>
      </trkpt>
      <trkpt lat="42.74694" lon="1.86591">
        <ele>1719</ele>
        <time>2016-11-12T13:07:42Z</time>
      </trkpt>
      <trkpt lat="42.74694" lon="1.86593">
        <ele>1719</ele>
        <time>2016-11-12T13:07:47Z</time>
      </trkpt>
      <trkpt lat="42.74695" lon="1.86594">
        <ele>1719</ele>
        <time>2016-11-12T13:07:52Z</time>
      </trkpt>
      <trkpt lat="42.74695" lon="1.86594">
        <ele>1719</ele>
        <time>2016-11-12T13:07:57Z</time>
      </trkpt>
      <trkpt lat="42.74695" lon="1.86593">
        <ele>1719</ele>
        <time>2016-11-12T13:08:02Z</time>
      </trkpt>
      <trkpt lat="42.74695" lon="1.86594">
        <ele>1719</ele>
        <time>2016-11-12T13:08:07Z</time>
      </trkpt>
      <trkpt lat="42.74695" lon="1.86594">
        <ele>1719</ele>
        <time>2016-11-12T13:08:12Z</time>
      </trkpt>
      <trkpt lat="42.74695" lon="1.86594">
        <ele>1719</ele>
        <time>2016-11-12T13:08:17Z</time>
      </trkpt>
      <trkpt lat="42.74695" lon="1.86595">
        <ele>1719</ele>
        <time>2016-11-12T13:08:22Z</time>
      </trkpt>
      <trkpt lat="42.74695" lon="1.86594">
        <ele>1719</ele>
        <time>2016-11-12T13:08:27Z</time>
      </trkpt>
      <trkpt lat="42.74695" lon="1.86594">
        <ele>1719</ele>
        <time>2016-11-12T13:08:32Z</time>
      </trkpt>
      <trkpt lat="42.74695" lon="1.86594">
        <ele>1719</ele>
        <time>2016-11-12T13:08:37Z</time>
      </trkpt>
      <trkpt lat="42.74694" lon="1.86594">
        <ele>1719</ele>
        <time>2016-11-12T13:08:42Z</time>
      </trkpt>
      <trkpt lat="42.74694" lon="1.86594">
        <ele>1719</ele>
        <time>2016-11-12T13:08:47Z</time>
      </trkpt>
      <trkpt lat="42.74694" lon="1.86594">
        <ele>1719</ele>
        <time>2016-11-12T13:08:52Z</time>
      </trkpt>
      <trkpt lat="42.74694" lon="1.86594">
        <ele>1719</ele>
        <time>2016-11-12T13:08:57Z</time>
      </trkpt>
      <trkpt lat="42.74694" lon="1.86594">
        <ele>1719</ele>
        <time>2016-11-12T13:09:02Z</time>
      </trkpt>
      <trkpt lat="42.74694" lon="1.86594">
        <ele>1719</ele>
        <time>2016-11-12T13:09:07Z</time>
      </trkpt>
      <trkpt lat="42.74694" lon="1.86594">
        <ele>1719</ele>
        <time>2016-11-12T13:09:12Z</time>
      </trkpt>
      <trkpt lat="42.74693" lon="1.86594">
        <ele>1719</ele>
        <time>2016-11-12T13:09:17Z</time>
      </trkpt>
      <trkpt lat="42.74693" lon="1.86594">
        <ele>1719</ele>
        <time>2016-11-12T13:09:22Z</time>
      </trkpt>
      <trkpt lat="42.74693" lon="1.86594">
        <ele>1719</ele>
        <time>2016-11-12T13:09:27Z</time>
      </trkpt>
      <trkpt lat="42.74693" lon="1.86594">
        <ele>1719</ele>
        <time>2016-11-12T13:09:32Z</time>
      </trkpt>
      <trkpt lat="42.74693" lon="1.86594">
        <ele>1719</ele>
        <time>2016-11-12T13:09:37Z</time>
      </trkpt>
      <trkpt lat="42.74692" lon="1.86593">
        <ele>1719</ele>
        <time>2016-11-12T13:09:42Z</time>
      </trkpt>
      <trkpt lat="42.74692" lon="1.86593">
        <ele>1719</ele>
        <time>2016-11-12T13:09:47Z</time>
      </trkpt>
      <trkpt lat="42.74692" lon="1.86593">
        <ele>1719</ele>
        <time>2016-11-12T13:09:52Z</time>
      </trkpt>
      <trkpt lat="42.74692" lon="1.86595">
        <ele>1719</ele>
        <time>2016-11-12T13:09:57Z</time>
      </trkpt>
      <trkpt lat="42.74692" lon="1.86597">
        <ele>1719</ele>
        <time>2016-11-12T13:10:02Z</time>
      </trkpt>
      <trkpt lat="42.74692" lon="1.86598">
        <ele>1719</ele>
        <time>2016-11-12T13:10:07Z</time>
      </trkpt>
      <trkpt lat="42.74692" lon="1.866">
        <ele>1719</ele>
        <time>2016-11-12T13:10:12Z</time>
      </trkpt>
      <trkpt lat="42.74692" lon="1.86602">
        <ele>1719</ele>
        <time>2016-11-12T13:10:17Z</time>
      </trkpt>
      <trkpt lat="42.74692" lon="1.86604">
        <ele>1719</ele>
        <time>2016-11-12T13:10:22Z</time>
      </trkpt>
      <trkpt lat="42.74692" lon="1.86604">
        <ele>1719</ele>
        <time>2016-11-12T13:10:27Z</time>
      </trkpt>
      <trkpt lat="42.74692" lon="1.86604">
        <ele>1719</ele>
        <time>2016-11-12T13:10:32Z</time>
      </trkpt>
      <trkpt lat="42.74692" lon="1.86604">
        <ele>1719</ele>
        <time>2016-11-12T13:10:37Z</time>
      </trkpt>
      <trkpt lat="42.74692" lon="1.86603">
        <ele>1719</ele>
        <time>2016-11-12T13:10:42Z</time>
      </trkpt>
      <trkpt lat="42.74692" lon="1.86603">
        <ele>1719</ele>
        <time>2016-11-12T13:10:47Z</time>
      </trkpt>
      <trkpt lat="42.74692" lon="1.86602">
        <ele>1719</ele>
        <time>2016-11-12T13:10:52Z</time>
      </trkpt>
      <trkpt lat="42.74693" lon="1.86601">
        <ele>1719</ele>
        <time>2016-11-12T13:10:57Z</time>
      </trkpt>
      <trkpt lat="42.74692" lon="1.86602">
        <ele>1719</ele>
        <time>2016-11-12T13:11:02Z</time>
      </trkpt>
      <trkpt lat="42.74692" lon="1.86602">
        <ele>1719</ele>
        <time>2016-11-12T13:11:07Z</time>
      </trkpt>
      <trkpt lat="42.74692" lon="1.86602">
        <ele>1719</ele>
        <time>2016-11-12T13:11:12Z</time>
      </trkpt>
      <trkpt lat="42.74692" lon="1.86602">
        <ele>1719</ele>
        <time>2016-11-12T13:11:17Z</time>
      </trkpt>
      <trkpt lat="42.74692" lon="1.86602">
        <ele>1719</ele>
        <time>2016-11-12T13:11:22Z</time>
      </trkpt>
      <trkpt lat="42.74692" lon="1.86603">
        <ele>1719</ele>
        <time>2016-11-12T13:11:27Z</time>
      </trkpt>
      <trkpt lat="42.74693" lon="1.866">
        <ele>1719</ele>
        <time>2016-11-12T13:11:32Z</time>
      </trkpt>
      <trkpt lat="42.74693" lon="1.86602">
        <ele>1719</ele>
        <time>2016-11-12T13:11:37Z</time>
      </trkpt>
      <trkpt lat="42.74693" lon="1.86602">
        <ele>1719</ele>
        <time>2016-11-12T13:11:42Z</time>
      </trkpt>
      <trkpt lat="42.74693" lon="1.86602">
        <ele>1719</ele>
        <time>2016-11-12T13:11:47Z</time>
      </trkpt>
      <trkpt lat="42.74693" lon="1.86601">
        <ele>1719</ele>
        <time>2016-11-12T13:11:52Z</time>
      </trkpt>
      <trkpt lat="42.74693" lon="1.86601">
        <ele>1719</ele>
        <time>2016-11-12T13:11:57Z</time>
      </trkpt>
      <trkpt lat="42.74693" lon="1.866">
        <ele>1719</ele>
        <time>2016-11-12T13:12:02Z</time>
      </trkpt>
      <trkpt lat="42.74693" lon="1.86599">
        <ele>1719</ele>
        <time>2016-11-12T13:12:07Z</time>
      </trkpt>
      <trkpt lat="42.74693" lon="1.86599">
        <ele>1719</ele>
        <time>2016-11-12T13:12:12Z</time>
      </trkpt>
      <trkpt lat="42.74693" lon="1.86598">
        <ele>1719</ele>
        <time>2016-11-12T13:12:17Z</time>
      </trkpt>
      <trkpt lat="42.74693" lon="1.86598">
        <ele>1719</ele>
        <time>2016-11-12T13:12:22Z</time>
      </trkpt>
      <trkpt lat="42.74693" lon="1.86598">
        <ele>1719</ele>
        <time>2016-11-12T13:12:27Z</time>
      </trkpt>
      <trkpt lat="42.74693" lon="1.86597">
        <ele>1719</ele>
        <time>2016-11-12T13:12:32Z</time>
      </trkpt>
      <trkpt lat="42.74693" lon="1.86597">
        <ele>1719</ele>
        <time>2016-11-12T13:12:37Z</time>
      </trkpt>
      <trkpt lat="42.74693" lon="1.86597">
        <ele>1719</ele>
        <time>2016-11-12T13:12:42Z</time>
      </trkpt>
      <trkpt lat="42.74693" lon="1.86597">
        <ele>1719</ele>
        <time>2016-11-12T13:12:47Z</time>
      </trkpt>
      <trkpt lat="42.74693" lon="1.86596">
        <ele>1719</ele>
        <time>2016-11-12T13:12:52Z</time>
      </trkpt>
      <trkpt lat="42.74692" lon="1.86596">
        <ele>1719</ele>
        <time>2016-11-12T13:12:57Z</time>
      </trkpt>
      <trkpt lat="42.74692" lon="1.86595">
        <ele>1719</ele>
        <time>2016-11-12T13:13:02Z</time>
      </trkpt>
      <trkpt lat="42.74692" lon="1.86594">
        <ele>1719</ele>
        <time>2016-11-12T13:13:07Z</time>
      </trkpt>
      <trkpt lat="42.74692" lon="1.86594">
        <ele>1719</ele>
        <time>2016-11-12T13:13:12Z</time>
      </trkpt>
      <trkpt lat="42.74692" lon="1.86594">
        <ele>1719</ele>
        <time>2016-11-12T13:13:17Z</time>
      </trkpt>
      <trkpt lat="42.74693" lon="1.86593">
        <ele>1719</ele>
        <time>2016-11-12T13:13:22Z</time>
      </trkpt>
      <trkpt lat="42.74693" lon="1.86593">
        <ele>1719</ele>
        <time>2016-11-12T13:13:27Z</time>
      </trkpt>
      <trkpt lat="42.74693" lon="1.86593">
        <ele>1719</ele>
        <time>2016-11-12T13:13:32Z</time>
      </trkpt>
      <trkpt lat="42.74693" lon="1.86592">
        <ele>1719</ele>
        <time>2016-11-12T13:13:37Z</time>
      </trkpt>
      <trkpt lat="42.74693" lon="1.86593">
        <ele>1719</ele>
        <time>2016-11-12T13:13:42Z</time>
      </trkpt>
      <trkpt lat="42.74693" lon="1.86593">
        <ele>1719</ele>
        <time>2016-11-12T13:13:47Z</time>
      </trkpt>
      <trkpt lat="42.74693" lon="1.86593">
        <ele>1719</ele>
        <time>2016-11-12T13:13:52Z</time>
      </trkpt>
      <trkpt lat="42.74693" lon="1.86593">
        <ele>1719</ele>
        <time>2016-11-12T13:13:57Z</time>
      </trkpt>
      <trkpt lat="42.74693" lon="1.86593">
        <ele>1719</ele>
        <time>2016-11-12T13:14:02Z</time>
      </trkpt>
      <trkpt lat="42.74692" lon="1.86594">
        <ele>1719</ele>
        <time>2016-11-12T13:14:07Z</time>
      </trkpt>
      <trkpt lat="42.74692" lon="1.86595">
        <ele>1719</ele>
        <time>2016-11-12T13:14:12Z</time>
      </trkpt>
      <trkpt lat="42.74692" lon="1.86597">
        <ele>1719</ele>
        <time>2016-11-12T13:14:17Z</time>
      </trkpt>
      <trkpt lat="42.74692" lon="1.86598">
        <ele>1719</ele>
        <time>2016-11-12T13:14:22Z</time>
      </trkpt>
      <trkpt lat="42.74691" lon="1.86598">
        <ele>1719</ele>
        <time>2016-11-12T13:14:27Z</time>
      </trkpt>
      <trkpt lat="42.74691" lon="1.86598">
        <ele>1719</ele>
        <time>2016-11-12T13:14:32Z</time>
      </trkpt>
      <trkpt lat="42.74691" lon="1.86598">
        <ele>1719</ele>
        <time>2016-11-12T13:14:37Z</time>
      </trkpt>
      <trkpt lat="42.74691" lon="1.86598">
        <ele>1719</ele>
        <time>2016-11-12T13:14:42Z</time>
      </trkpt>
      <trkpt lat="42.7469" lon="1.86598">
        <ele>1719</ele>
        <time>2016-11-12T13:14:47Z</time>
      </trkpt>
      <trkpt lat="42.7469" lon="1.86599">
        <ele>1719</ele>
        <time>2016-11-12T13:14:52Z</time>
      </trkpt>
      <trkpt lat="42.74692" lon="1.866">
        <ele>1719</ele>
        <time>2016-11-12T13:14:57Z</time>
      </trkpt>
      <trkpt lat="42.74692" lon="1.866">
        <ele>1719</ele>
        <time>2016-11-12T13:15:02Z</time>
      </trkpt>
      <trkpt lat="42.74693" lon="1.866">
        <ele>1719</ele>
        <time>2016-11-12T13:15:07Z</time>
      </trkpt>
      <trkpt lat="42.74694" lon="1.866">
        <ele>1719</ele>
        <time>2016-11-12T13:15:12Z</time>
      </trkpt>
      <trkpt lat="42.74694" lon="1.866">
        <ele>1719</ele>
        <time>2016-11-12T13:15:17Z</time>
      </trkpt>
      <trkpt lat="42.74694" lon="1.866">
        <ele>1719</ele>
        <time>2016-11-12T13:15:22Z</time>
      </trkpt>
      <trkpt lat="42.74695" lon="1.866">
        <ele>1719</ele>
        <time>2016-11-12T13:15:27Z</time>
      </trkpt>
      <trkpt lat="42.74695" lon="1.866">
        <ele>1719</ele>
        <time>2016-11-12T13:15:32Z</time>
      </trkpt>
      <trkpt lat="42.74695" lon="1.866">
        <ele>1719</ele>
        <time>2016-11-12T13:15:37Z</time>
      </trkpt>
      <trkpt lat="42.74695" lon="1.866">
        <ele>1719</ele>
        <time>2016-11-12T13:15:42Z</time>
      </trkpt>
      <trkpt lat="42.74695" lon="1.866">
        <ele>1719</ele>
        <time>2016-11-12T13:15:47Z</time>
      </trkpt>
      <trkpt lat="42.74695" lon="1.866">
        <ele>1719</ele>
        <time>2016-11-12T13:15:52Z</time>
      </trkpt>
      <trkpt lat="42.74695" lon="1.86601">
        <ele>1719</ele>
        <time>2016-11-12T13:15:57Z</time>
      </trkpt>
      <trkpt lat="42.74694" lon="1.86601">
        <ele>1719</ele>
        <time>2016-11-12T13:16:02Z</time>
      </trkpt>
      <trkpt lat="42.74694" lon="1.86601">
        <ele>1719</ele>
        <time>2016-11-12T13:16:07Z</time>
      </trkpt>
      <trkpt lat="42.74694" lon="1.86601">
        <ele>1719</ele>
        <time>2016-11-12T13:16:12Z</time>
      </trkpt>
      <trkpt lat="42.74695" lon="1.866">
        <ele>1719</ele>
        <time>2016-11-12T13:16:17Z</time>
      </trkpt>
      <trkpt lat="42.74695" lon="1.866">
        <ele>1719</ele>
        <time>2016-11-12T13:16:22Z</time>
      </trkpt>
      <trkpt lat="42.74695" lon="1.86601">
        <ele>1719</ele>
        <time>2016-11-12T13:16:27Z</time>
      </trkpt>
      <trkpt lat="42.74696" lon="1.86602">
        <ele>1719</ele>
        <time>2016-11-12T13:16:32Z</time>
      </trkpt>
      <trkpt lat="42.74696" lon="1.86602">
        <ele>1719</ele>
        <time>2016-11-12T13:16:37Z</time>
      </trkpt>
      <trkpt lat="42.74696" lon="1.86602">
        <ele>1719</ele>
        <time>2016-11-12T13:16:42Z</time>
      </trkpt>
      <trkpt lat="42.74696" lon="1.86602">
        <ele>1719</ele>
        <time>2016-11-12T13:16:47Z</time>
      </trkpt>
      <trkpt lat="42.74696" lon="1.86602">
        <ele>1719</ele>
        <time>2016-11-12T13:16:52Z</time>
      </trkpt>
      <trkpt lat="42.74695" lon="1.86602">
        <ele>1719</ele>
        <time>2016-11-12T13:16:57Z</time>
      </trkpt>
      <trkpt lat="42.74695" lon="1.86602">
        <ele>1719</ele>
        <time>2016-11-12T13:17:02Z</time>
      </trkpt>
      <trkpt lat="42.74694" lon="1.86602">
        <ele>1719</ele>
        <time>2016-11-12T13:17:07Z</time>
      </trkpt>
      <trkpt lat="42.74694" lon="1.86601">
        <ele>1719</ele>
        <time>2016-11-12T13:17:12Z</time>
      </trkpt>
      <trkpt lat="42.74695" lon="1.86601">
        <ele>1719</ele>
        <time>2016-11-12T13:17:17Z</time>
      </trkpt>
      <trkpt lat="42.74695" lon="1.86601">
        <ele>1719</ele>
        <time>2016-11-12T13:17:22Z</time>
      </trkpt>
      <trkpt lat="42.74695" lon="1.86601">
        <ele>1719</ele>
        <time>2016-11-12T13:17:27Z</time>
      </trkpt>
      <trkpt lat="42.74695" lon="1.86601">
        <ele>1719</ele>
        <time>2016-11-12T13:17:32Z</time>
      </trkpt>
      <trkpt lat="42.74696" lon="1.86599">
        <ele>1719</ele>
        <time>2016-11-12T13:17:37Z</time>
      </trkpt>
      <trkpt lat="42.74696" lon="1.866">
        <ele>1719</ele>
        <time>2016-11-12T13:17:42Z</time>
      </trkpt>
      <trkpt lat="42.74696" lon="1.86599">
        <ele>1719</ele>
        <time>2016-11-12T13:17:47Z</time>
      </trkpt>
      <trkpt lat="42.74696" lon="1.866">
        <ele>1719</ele>
        <time>2016-11-12T13:17:52Z</time>
      </trkpt>
      <trkpt lat="42.74696" lon="1.866">
        <ele>1719</ele>
        <time>2016-11-12T13:17:57Z</time>
      </trkpt>
      <trkpt lat="42.74696" lon="1.866">
        <ele>1719</ele>
        <time>2016-11-12T13:18:02Z</time>
      </trkpt>
      <trkpt lat="42.74698" lon="1.866">
        <ele>1719</ele>
        <time>2016-11-12T13:18:07Z</time>
      </trkpt>
      <trkpt lat="42.74699" lon="1.866">
        <ele>1719</ele>
        <time>2016-11-12T13:18:12Z</time>
      </trkpt>
      <trkpt lat="42.74699" lon="1.86601">
        <ele>1719</ele>
        <time>2016-11-12T13:18:17Z</time>
      </trkpt>
      <trkpt lat="42.74698" lon="1.86601">
        <ele>1719</ele>
        <time>2016-11-12T13:18:22Z</time>
      </trkpt>
      <trkpt lat="42.74698" lon="1.86601">
        <ele>1719</ele>
        <time>2016-11-12T13:18:27Z</time>
      </trkpt>
      <trkpt lat="42.74698" lon="1.86601">
        <ele>1719</ele>
        <time>2016-11-12T13:18:32Z</time>
      </trkpt>
      <trkpt lat="42.74698" lon="1.86601">
        <ele>1719</ele>
        <time>2016-11-12T13:18:37Z</time>
      </trkpt>
      <trkpt lat="42.74698" lon="1.86601">
        <ele>1719</ele>
        <time>2016-11-12T13:18:42Z</time>
      </trkpt>
      <trkpt lat="42.74698" lon="1.86601">
        <ele>1719</ele>
        <time>2016-11-12T13:18:47Z</time>
      </trkpt>
      <trkpt lat="42.74698" lon="1.866">
        <ele>1719</ele>
        <time>2016-11-12T13:18:52Z</time>
      </trkpt>
      <trkpt lat="42.74698" lon="1.866">
        <ele>1719</ele>
        <time>2016-11-12T13:18:57Z</time>
      </trkpt>
      <trkpt lat="42.74698" lon="1.866">
        <ele>1719</ele>
        <time>2016-11-12T13:19:02Z</time>
      </trkpt>
      <trkpt lat="42.74698" lon="1.866">
        <ele>1719</ele>
        <time>2016-11-12T13:19:07Z</time>
      </trkpt>
      <trkpt lat="42.74698" lon="1.866">
        <ele>1719</ele>
        <time>2016-11-12T13:19:12Z</time>
      </trkpt>
      <trkpt lat="42.74697" lon="1.866">
        <ele>1719</ele>
        <time>2016-11-12T13:19:17Z</time>
      </trkpt>
      <trkpt lat="42.74697" lon="1.866">
        <ele>1719</ele>
        <time>2016-11-12T13:19:22Z</time>
      </trkpt>
      <trkpt lat="42.74697" lon="1.866">
        <ele>1719</ele>
        <time>2016-11-12T13:19:27Z</time>
      </trkpt>
      <trkpt lat="42.74697" lon="1.866">
        <ele>1719</ele>
        <time>2016-11-12T13:19:32Z</time>
      </trkpt>
      <trkpt lat="42.74697" lon="1.866">
        <ele>1719</ele>
        <time>2016-11-12T13:19:37Z</time>
      </trkpt>
      <trkpt lat="42.74697" lon="1.866">
        <ele>1719</ele>
        <time>2016-11-12T13:19:42Z</time>
      </trkpt>
      <trkpt lat="42.74697" lon="1.866">
        <ele>1719</ele>
        <time>2016-11-12T13:19:47Z</time>
      </trkpt>
      <trkpt lat="42.74697" lon="1.866">
        <ele>1719</ele>
        <time>2016-11-12T13:19:52Z</time>
      </trkpt>
      <trkpt lat="42.74697" lon="1.866">
        <ele>1719</ele>
        <time>2016-11-12T13:19:57Z</time>
      </trkpt>
      <trkpt lat="42.74697" lon="1.866">
        <ele>1719</ele>
        <time>2016-11-12T13:20:02Z</time>
      </trkpt>
      <trkpt lat="42.74696" lon="1.866">
        <ele>1719</ele>
        <time>2016-11-12T13:20:07Z</time>
      </trkpt>
      <trkpt lat="42.74697" lon="1.86602">
        <ele>1719</ele>
        <time>2016-11-12T13:20:12Z</time>
      </trkpt>
      <trkpt lat="42.74695" lon="1.86603">
        <ele>1719</ele>
        <time>2016-11-12T13:20:17Z</time>
      </trkpt>
      <trkpt lat="42.74695" lon="1.86602">
        <ele>1719</ele>
        <time>2016-11-12T13:20:22Z</time>
      </trkpt>
      <trkpt lat="42.74698" lon="1.86609">
        <ele>1719</ele>
        <time>2016-11-12T13:20:27Z</time>
      </trkpt>
      <trkpt lat="42.747" lon="1.86612">
        <ele>1719</ele>
        <time>2016-11-12T13:20:32Z</time>
      </trkpt>
      <trkpt lat="42.74705" lon="1.86615">
        <ele>1719</ele>
        <time>2016-11-12T13:20:37Z</time>
      </trkpt>
      <trkpt lat="42.74707" lon="1.86617">
        <ele>1719</ele>
        <time>2016-11-12T13:20:42Z</time>
      </trkpt>
      <trkpt lat="42.74707" lon="1.86617">
        <ele>1719</ele>
        <time>2016-11-12T13:20:47Z</time>
      </trkpt>
      <trkpt lat="42.74708" lon="1.86616">
        <ele>1719</ele>
        <time>2016-11-12T13:20:52Z</time>
      </trkpt>
      <trkpt lat="42.7471" lon="1.8662">
        <ele>1717</ele>
        <time>2016-11-12T13:20:57Z</time>
      </trkpt>
      <trkpt lat="42.74711" lon="1.86621">
        <ele>1717</ele>
        <time>2016-11-12T13:21:02Z</time>
      </trkpt>
      <trkpt lat="42.74713" lon="1.86623">
        <ele>1717</ele>
        <time>2016-11-12T13:21:07Z</time>
      </trkpt>
      <trkpt lat="42.74715" lon="1.86625">
        <ele>1707</ele>
        <time>2016-11-12T13:21:12Z</time>
      </trkpt>
      <trkpt lat="42.74714" lon="1.86625">
        <ele>1707</ele>
        <time>2016-11-12T13:21:17Z</time>
      </trkpt>
      <trkpt lat="42.74714" lon="1.86626">
        <ele>1707</ele>
        <time>2016-11-12T13:21:22Z</time>
      </trkpt>
      <trkpt lat="42.74714" lon="1.86627">
        <ele>1707</ele>
        <time>2016-11-12T13:21:27Z</time>
      </trkpt>
      <trkpt lat="42.74715" lon="1.86627">
        <ele>1707</ele>
        <time>2016-11-12T13:21:32Z</time>
      </trkpt>
      <trkpt lat="42.74715" lon="1.86627">
        <ele>1707</ele>
        <time>2016-11-12T13:21:37Z</time>
      </trkpt>
      <trkpt lat="42.74715" lon="1.86628">
        <ele>1707</ele>
        <time>2016-11-12T13:21:42Z</time>
      </trkpt>
      <trkpt lat="42.74715" lon="1.86627">
        <ele>1707</ele>
        <time>2016-11-12T13:21:47Z</time>
      </trkpt>
      <trkpt lat="42.74715" lon="1.86628">
        <ele>1707</ele>
        <time>2016-11-12T13:21:52Z</time>
      </trkpt>
      <trkpt lat="42.74715" lon="1.86627">
        <ele>1707</ele>
        <time>2016-11-12T13:21:57Z</time>
      </trkpt>
      <trkpt lat="42.74716" lon="1.86626">
        <ele>1707</ele>
        <time>2016-11-12T13:22:02Z</time>
      </trkpt>
      <trkpt lat="42.74719" lon="1.86628">
        <ele>1707</ele>
        <time>2016-11-12T13:22:07Z</time>
      </trkpt>
      <trkpt lat="42.74723" lon="1.8663">
        <ele>1707</ele>
        <time>2016-11-12T13:22:12Z</time>
      </trkpt>
      <trkpt lat="42.74727" lon="1.86631">
        <ele>1707</ele>
        <time>2016-11-12T13:22:17Z</time>
      </trkpt>
      <trkpt lat="42.74734" lon="1.86635">
        <ele>1707</ele>
        <time>2016-11-12T13:22:22Z</time>
      </trkpt>
      <trkpt lat="42.74738" lon="1.86637">
        <ele>1707</ele>
        <time>2016-11-12T13:22:27Z</time>
      </trkpt>
      <trkpt lat="42.74743" lon="1.86636">
        <ele>1707</ele>
        <time>2016-11-12T13:22:32Z</time>
      </trkpt>
      <trkpt lat="42.74747" lon="1.86636">
        <ele>1707</ele>
        <time>2016-11-12T13:22:37Z</time>
      </trkpt>
      <trkpt lat="42.74753" lon="1.86638">
        <ele>1707</ele>
        <time>2016-11-12T13:22:42Z</time>
      </trkpt>
      <trkpt lat="42.74758" lon="1.86638">
        <ele>1707</ele>
        <time>2016-11-12T13:22:47Z</time>
      </trkpt>
      <trkpt lat="42.74759" lon="1.86638">
        <ele>1707</ele>
        <time>2016-11-12T13:22:52Z</time>
      </trkpt>
      <trkpt lat="42.74764" lon="1.86639">
        <ele>1707</ele>
        <time>2016-11-12T13:22:57Z</time>
      </trkpt>
      <trkpt lat="42.74771" lon="1.86641">
        <ele>1707</ele>
        <time>2016-11-12T13:23:02Z</time>
      </trkpt>
      <trkpt lat="42.74773" lon="1.8664">
        <ele>1707</ele>
        <time>2016-11-12T13:23:07Z</time>
      </trkpt>
      <trkpt lat="42.74775" lon="1.86643">
        <ele>1707</ele>
        <time>2016-11-12T13:23:12Z</time>
      </trkpt>
      <trkpt lat="42.74777" lon="1.86643">
        <ele>1707</ele>
        <time>2016-11-12T13:23:17Z</time>
      </trkpt>
      <trkpt lat="42.74782" lon="1.86645">
        <ele>1707</ele>
        <time>2016-11-12T13:23:22Z</time>
      </trkpt>
      <trkpt lat="42.74789" lon="1.86649">
        <ele>1707</ele>
        <time>2016-11-12T13:23:27Z</time>
      </trkpt>
      <trkpt lat="42.7479" lon="1.86648">
        <ele>1707</ele>
        <time>2016-11-12T13:23:32Z</time>
      </trkpt>
      <trkpt lat="42.7479" lon="1.86648">
        <ele>1707</ele>
        <time>2016-11-12T13:23:37Z</time>
      </trkpt>
      <trkpt lat="42.74793" lon="1.86649">
        <ele>1701</ele>
        <time>2016-11-12T13:23:42Z</time>
      </trkpt>
      <trkpt lat="42.74795" lon="1.86651">
        <ele>1701</ele>
        <time>2016-11-12T13:23:47Z</time>
      </trkpt>
      <trkpt lat="42.74798" lon="1.86653">
        <ele>1701</ele>
        <time>2016-11-12T13:23:52Z</time>
      </trkpt>
      <trkpt lat="42.74803" lon="1.86654">
        <ele>1701</ele>
        <time>2016-11-12T13:23:57Z</time>
      </trkpt>
      <trkpt lat="42.74807" lon="1.86656">
        <ele>1701</ele>
        <time>2016-11-12T13:24:02Z</time>
      </trkpt>
      <trkpt lat="42.7481" lon="1.86657">
        <ele>1701</ele>
        <time>2016-11-12T13:24:07Z</time>
      </trkpt>
      <trkpt lat="42.74813" lon="1.86658">
        <ele>1701</ele>
        <time>2016-11-12T13:24:12Z</time>
      </trkpt>
      <trkpt lat="42.74815" lon="1.86658">
        <ele>1701</ele>
        <time>2016-11-12T13:24:17Z</time>
      </trkpt>
      <trkpt lat="42.74815" lon="1.86658">
        <ele>1701</ele>
        <time>2016-11-12T13:24:22Z</time>
      </trkpt>
      <trkpt lat="42.74815" lon="1.86658">
        <ele>1701</ele>
        <time>2016-11-12T13:24:27Z</time>
      </trkpt>
      <trkpt lat="42.74815" lon="1.86657">
        <ele>1701</ele>
        <time>2016-11-12T13:24:32Z</time>
      </trkpt>
      <trkpt lat="42.74815" lon="1.86657">
        <ele>1701</ele>
        <time>2016-11-12T13:24:37Z</time>
      </trkpt>
      <trkpt lat="42.74817" lon="1.86656">
        <ele>1701</ele>
        <time>2016-11-12T13:24:42Z</time>
      </trkpt>
      <trkpt lat="42.7482" lon="1.86658">
        <ele>1701</ele>
        <time>2016-11-12T13:24:47Z</time>
      </trkpt>
      <trkpt lat="42.74825" lon="1.86659">
        <ele>1701</ele>
        <time>2016-11-12T13:24:52Z</time>
      </trkpt>
      <trkpt lat="42.74827" lon="1.8666">
        <ele>1701</ele>
        <time>2016-11-12T13:24:57Z</time>
      </trkpt>
      <trkpt lat="42.74829" lon="1.8666">
        <ele>1701</ele>
        <time>2016-11-12T13:25:02Z</time>
      </trkpt>
      <trkpt lat="42.74833" lon="1.86662">
        <ele>1701</ele>
        <time>2016-11-12T13:25:07Z</time>
      </trkpt>
      <trkpt lat="42.74836" lon="1.86664">
        <ele>1701</ele>
        <time>2016-11-12T13:25:12Z</time>
      </trkpt>
      <trkpt lat="42.74839" lon="1.86667">
        <ele>1701</ele>
        <time>2016-11-12T13:25:17Z</time>
      </trkpt>
      <trkpt lat="42.74842" lon="1.86667">
        <ele>1701</ele>
        <time>2016-11-12T13:25:22Z</time>
      </trkpt>
      <trkpt lat="42.74844" lon="1.86667">
        <ele>1701</ele>
        <time>2016-11-12T13:25:27Z</time>
      </trkpt>
      <trkpt lat="42.74847" lon="1.86667">
        <ele>1701</ele>
        <time>2016-11-12T13:25:32Z</time>
      </trkpt>
      <trkpt lat="42.7485" lon="1.86665">
        <ele>1701</ele>
        <time>2016-11-12T13:25:37Z</time>
      </trkpt>
      <trkpt lat="42.74853" lon="1.86669">
        <ele>1701</ele>
        <time>2016-11-12T13:25:42Z</time>
      </trkpt>
      <trkpt lat="42.74855" lon="1.8667">
        <ele>1701</ele>
        <time>2016-11-12T13:25:47Z</time>
      </trkpt>
      <trkpt lat="42.74857" lon="1.86674">
        <ele>1701</ele>
        <time>2016-11-12T13:25:52Z</time>
      </trkpt>
      <trkpt lat="42.74858" lon="1.86674">
        <ele>1701</ele>
        <time>2016-11-12T13:25:57Z</time>
      </trkpt>
      <trkpt lat="42.7486" lon="1.86677">
        <ele>1701</ele>
        <time>2016-11-12T13:26:02Z</time>
      </trkpt>
      <trkpt lat="42.7486" lon="1.86681">
        <ele>1701</ele>
        <time>2016-11-12T13:26:07Z</time>
      </trkpt>
      <trkpt lat="42.7486" lon="1.86684">
        <ele>1701</ele>
        <time>2016-11-12T13:26:12Z</time>
      </trkpt>
      <trkpt lat="42.74859" lon="1.86689">
        <ele>1701</ele>
        <time>2016-11-12T13:26:17Z</time>
      </trkpt>
      <trkpt lat="42.74858" lon="1.86694">
        <ele>1701</ele>
        <time>2016-11-12T13:26:22Z</time>
      </trkpt>
      <trkpt lat="42.74857" lon="1.86696">
        <ele>1701</ele>
        <time>2016-11-12T13:26:27Z</time>
      </trkpt>
      <trkpt lat="42.7486" lon="1.86695">
        <ele>1701</ele>
        <time>2016-11-12T13:26:32Z</time>
      </trkpt>
      <trkpt lat="42.74861" lon="1.86696">
        <ele>1701</ele>
        <time>2016-11-12T13:26:37Z</time>
      </trkpt>
      <trkpt lat="42.74861" lon="1.86701">
        <ele>1701</ele>
        <time>2016-11-12T13:26:42Z</time>
      </trkpt>
      <trkpt lat="42.74862" lon="1.86704">
        <ele>1701</ele>
        <time>2016-11-12T13:26:47Z</time>
      </trkpt>
      <trkpt lat="42.74864" lon="1.86708">
        <ele>1701</ele>
        <time>2016-11-12T13:26:52Z</time>
      </trkpt>
      <trkpt lat="42.74865" lon="1.86711">
        <ele>1682</ele>
        <time>2016-11-12T13:26:57Z</time>
      </trkpt>
      <trkpt lat="42.74863" lon="1.86717">
        <ele>1682</ele>
        <time>2016-11-12T13:27:02Z</time>
      </trkpt>
      <trkpt lat="42.74863" lon="1.8672">
        <ele>1682</ele>
        <time>2016-11-12T13:27:07Z</time>
      </trkpt>
      <trkpt lat="42.74865" lon="1.8672">
        <ele>1682</ele>
        <time>2016-11-12T13:27:12Z</time>
      </trkpt>
      <trkpt lat="42.74867" lon="1.8672">
        <ele>1682</ele>
        <time>2016-11-12T13:27:17Z</time>
      </trkpt>
      <trkpt lat="42.74867" lon="1.86721">
        <ele>1682</ele>
        <time>2016-11-12T13:27:22Z</time>
      </trkpt>
      <trkpt lat="42.7487" lon="1.86721">
        <ele>1682</ele>
        <time>2016-11-12T13:27:27Z</time>
      </trkpt>
      <trkpt lat="42.7487" lon="1.86721">
        <ele>1682</ele>
        <time>2016-11-12T13:27:32Z</time>
      </trkpt>
      <trkpt lat="42.74871" lon="1.86721">
        <ele>1682</ele>
        <time>2016-11-12T13:27:37Z</time>
      </trkpt>
      <trkpt lat="42.74873" lon="1.86721">
        <ele>1682</ele>
        <time>2016-11-12T13:27:42Z</time>
      </trkpt>
      <trkpt lat="42.74875" lon="1.86722">
        <ele>1682</ele>
        <time>2016-11-12T13:27:47Z</time>
      </trkpt>
      <trkpt lat="42.74877" lon="1.86721">
        <ele>1672</ele>
        <time>2016-11-12T13:27:52Z</time>
      </trkpt>
      <trkpt lat="42.74881" lon="1.8672">
        <ele>1672</ele>
        <time>2016-11-12T13:27:57Z</time>
      </trkpt>
      <trkpt lat="42.74885" lon="1.86718">
        <ele>1672</ele>
        <time>2016-11-12T13:28:02Z</time>
      </trkpt>
      <trkpt lat="42.74888" lon="1.86715">
        <ele>1672</ele>
        <time>2016-11-12T13:28:07Z</time>
      </trkpt>
      <trkpt lat="42.74892" lon="1.86713">
        <ele>1672</ele>
        <time>2016-11-12T13:28:12Z</time>
      </trkpt>
      <trkpt lat="42.74896" lon="1.86709">
        <ele>1672</ele>
        <time>2016-11-12T13:28:17Z</time>
      </trkpt>
      <trkpt lat="42.74898" lon="1.86709">
        <ele>1672</ele>
        <time>2016-11-12T13:28:22Z</time>
      </trkpt>
      <trkpt lat="42.74901" lon="1.86709">
        <ele>1672</ele>
        <time>2016-11-12T13:28:27Z</time>
      </trkpt>
      <trkpt lat="42.74902" lon="1.86708">
        <ele>1683</ele>
        <time>2016-11-12T13:28:32Z</time>
      </trkpt>
      <trkpt lat="42.74906" lon="1.86707">
        <ele>1683</ele>
        <time>2016-11-12T13:28:37Z</time>
      </trkpt>
      <trkpt lat="42.74908" lon="1.86706">
        <ele>1683</ele>
        <time>2016-11-12T13:28:42Z</time>
      </trkpt>
      <trkpt lat="42.74911" lon="1.86701">
        <ele>1683</ele>
        <time>2016-11-12T13:28:47Z</time>
      </trkpt>
      <trkpt lat="42.74913" lon="1.86695">
        <ele>1683</ele>
        <time>2016-11-12T13:28:52Z</time>
      </trkpt>
      <trkpt lat="42.74917" lon="1.86689">
        <ele>1683</ele>
        <time>2016-11-12T13:28:57Z</time>
      </trkpt>
      <trkpt lat="42.74923" lon="1.86685">
        <ele>1683</ele>
        <time>2016-11-12T13:29:02Z</time>
      </trkpt>
      <trkpt lat="42.74926" lon="1.86684">
        <ele>1683</ele>
        <time>2016-11-12T13:29:07Z</time>
      </trkpt>
      <trkpt lat="42.7493" lon="1.86679">
        <ele>1683</ele>
        <time>2016-11-12T13:29:12Z</time>
      </trkpt>
      <trkpt lat="42.74931" lon="1.86676">
        <ele>1683</ele>
        <time>2016-11-12T13:29:17Z</time>
      </trkpt>
      <trkpt lat="42.74936" lon="1.86674">
        <ele>1683</ele>
        <time>2016-11-12T13:29:22Z</time>
      </trkpt>
      <trkpt lat="42.7494" lon="1.86669">
        <ele>1683</ele>
        <time>2016-11-12T13:29:27Z</time>
      </trkpt>
      <trkpt lat="42.74944" lon="1.86665">
        <ele>1683</ele>
        <time>2016-11-12T13:29:32Z</time>
      </trkpt>
      <trkpt lat="42.74946" lon="1.86662">
        <ele>1683</ele>
        <time>2016-11-12T13:29:37Z</time>
      </trkpt>
      <trkpt lat="42.74948" lon="1.86657">
        <ele>1683</ele>
        <time>2016-11-12T13:29:42Z</time>
      </trkpt>
      <trkpt lat="42.7495" lon="1.8665">
        <ele>1683</ele>
        <time>2016-11-12T13:29:47Z</time>
      </trkpt>
      <trkpt lat="42.74952" lon="1.86646">
        <ele>1683</ele>
        <time>2016-11-12T13:29:52Z</time>
      </trkpt>
      <trkpt lat="42.74951" lon="1.86644">
        <ele>1683</ele>
        <time>2016-11-12T13:29:57Z</time>
      </trkpt>
      <trkpt lat="42.74954" lon="1.86642">
        <ele>1683</ele>
        <time>2016-11-12T13:30:02Z</time>
      </trkpt>
      <trkpt lat="42.74955" lon="1.86642">
        <ele>1683</ele>
        <time>2016-11-12T13:30:07Z</time>
      </trkpt>
      <trkpt lat="42.74956" lon="1.86643">
        <ele>1683</ele>
        <time>2016-11-12T13:30:12Z</time>
      </trkpt>
      <trkpt lat="42.7496" lon="1.86646">
        <ele>1653</ele>
        <time>2016-11-12T13:30:17Z</time>
      </trkpt>
      <trkpt lat="42.74964" lon="1.86652">
        <ele>1653</ele>
        <time>2016-11-12T13:30:22Z</time>
      </trkpt>
      <trkpt lat="42.74966" lon="1.86659">
        <ele>1653</ele>
        <time>2016-11-12T13:30:27Z</time>
      </trkpt>
      <trkpt lat="42.74971" lon="1.86666">
        <ele>1653</ele>
        <time>2016-11-12T13:30:32Z</time>
      </trkpt>
      <trkpt lat="42.74975" lon="1.86675">
        <ele>1653</ele>
        <time>2016-11-12T13:30:37Z</time>
      </trkpt>
      <trkpt lat="42.7498" lon="1.8668">
        <ele>1653</ele>
        <time>2016-11-12T13:30:42Z</time>
      </trkpt>
      <trkpt lat="42.74982" lon="1.86685">
        <ele>1653</ele>
        <time>2016-11-12T13:30:47Z</time>
      </trkpt>
      <trkpt lat="42.74982" lon="1.86689">
        <ele>1653</ele>
        <time>2016-11-12T13:30:52Z</time>
      </trkpt>
      <trkpt lat="42.7498" lon="1.86695">
        <ele>1653</ele>
        <time>2016-11-12T13:30:57Z</time>
      </trkpt>
      <trkpt lat="42.74978" lon="1.86701">
        <ele>1653</ele>
        <time>2016-11-12T13:31:02Z</time>
      </trkpt>
      <trkpt lat="42.74978" lon="1.86703">
        <ele>1653</ele>
        <time>2016-11-12T13:31:07Z</time>
      </trkpt>
      <trkpt lat="42.74984" lon="1.86697">
        <ele>1653</ele>
        <time>2016-11-12T13:31:12Z</time>
      </trkpt>
      <trkpt lat="42.74986" lon="1.86694">
        <ele>1653</ele>
        <time>2016-11-12T13:31:17Z</time>
      </trkpt>
      <trkpt lat="42.74988" lon="1.86692">
        <ele>1653</ele>
        <time>2016-11-12T13:31:22Z</time>
      </trkpt>
      <trkpt lat="42.74989" lon="1.86688">
        <ele>1653</ele>
        <time>2016-11-12T13:31:27Z</time>
      </trkpt>
      <trkpt lat="42.74993" lon="1.86681">
        <ele>1653</ele>
        <time>2016-11-12T13:31:32Z</time>
      </trkpt>
      <trkpt lat="42.74997" lon="1.86678">
        <ele>1653</ele>
        <time>2016-11-12T13:31:37Z</time>
      </trkpt>
      <trkpt lat="42.75" lon="1.86675">
        <ele>1653</ele>
        <time>2016-11-12T13:31:42Z</time>
      </trkpt>
      <trkpt lat="42.75002" lon="1.86674">
        <ele>1653</ele>
        <time>2016-11-12T13:31:47Z</time>
      </trkpt>
      <trkpt lat="42.75003" lon="1.86671">
        <ele>1653</ele>
        <time>2016-11-12T13:31:52Z</time>
      </trkpt>
      <trkpt lat="42.75006" lon="1.86668">
        <ele>1653</ele>
        <time>2016-11-12T13:31:57Z</time>
      </trkpt>
      <trkpt lat="42.75009" lon="1.86662">
        <ele>1653</ele>
        <time>2016-11-12T13:32:02Z</time>
      </trkpt>
      <trkpt lat="42.75011" lon="1.86657">
        <ele>1653</ele>
        <time>2016-11-12T13:32:07Z</time>
      </trkpt>
      <trkpt lat="42.75014" lon="1.86651">
        <ele>1653</ele>
        <time>2016-11-12T13:32:12Z</time>
      </trkpt>
      <trkpt lat="42.75017" lon="1.86648">
        <ele>1653</ele>
        <time>2016-11-12T13:32:17Z</time>
      </trkpt>
      <trkpt lat="42.75019" lon="1.86647">
        <ele>1653</ele>
        <time>2016-11-12T13:32:22Z</time>
      </trkpt>
      <trkpt lat="42.75023" lon="1.86644">
        <ele>1653</ele>
        <time>2016-11-12T13:32:27Z</time>
      </trkpt>
      <trkpt lat="42.75026" lon="1.86641">
        <ele>1653</ele>
        <time>2016-11-12T13:32:32Z</time>
      </trkpt>
      <trkpt lat="42.75027" lon="1.86635">
        <ele>1653</ele>
        <time>2016-11-12T13:32:37Z</time>
      </trkpt>
      <trkpt lat="42.7503" lon="1.8663">
        <ele>1653</ele>
        <time>2016-11-12T13:32:42Z</time>
      </trkpt>
      <trkpt lat="42.75032" lon="1.86624">
        <ele>1649</ele>
        <time>2016-11-12T13:32:47Z</time>
      </trkpt>
      <trkpt lat="42.75036" lon="1.86617">
        <ele>1649</ele>
        <time>2016-11-12T13:32:52Z</time>
      </trkpt>
      <trkpt lat="42.75039" lon="1.86612">
        <ele>1649</ele>
        <time>2016-11-12T13:32:57Z</time>
      </trkpt>
      <trkpt lat="42.75043" lon="1.86609">
        <ele>1619</ele>
        <time>2016-11-12T13:33:02Z</time>
      </trkpt>
      <trkpt lat="42.75047" lon="1.8661">
        <ele>1619</ele>
        <time>2016-11-12T13:33:07Z</time>
      </trkpt>
      <trkpt lat="42.75048" lon="1.86611">
        <ele>1619</ele>
        <time>2016-11-12T13:33:12Z</time>
      </trkpt>
      <trkpt lat="42.7505" lon="1.86612">
        <ele>1619</ele>
        <time>2016-11-12T13:33:17Z</time>
      </trkpt>
      <trkpt lat="42.75055" lon="1.86618">
        <ele>1619</ele>
        <time>2016-11-12T13:33:22Z</time>
      </trkpt>
      <trkpt lat="42.75057" lon="1.86621">
        <ele>1619</ele>
        <time>2016-11-12T13:33:27Z</time>
      </trkpt>
      <trkpt lat="42.75063" lon="1.86624">
        <ele>1619</ele>
        <time>2016-11-12T13:33:32Z</time>
      </trkpt>
      <trkpt lat="42.75066" lon="1.86631">
        <ele>1620</ele>
        <time>2016-11-12T13:33:37Z</time>
      </trkpt>
      <trkpt lat="42.75068" lon="1.86636">
        <ele>1620</ele>
        <time>2016-11-12T13:33:42Z</time>
      </trkpt>
      <trkpt lat="42.75068" lon="1.86639">
        <ele>1620</ele>
        <time>2016-11-12T13:33:47Z</time>
      </trkpt>
      <trkpt lat="42.75067" lon="1.86637">
        <ele>1620</ele>
        <time>2016-11-12T13:33:52Z</time>
      </trkpt>
      <trkpt lat="42.7507" lon="1.86636">
        <ele>1620</ele>
        <time>2016-11-12T13:33:57Z</time>
      </trkpt>
      <trkpt lat="42.75071" lon="1.86634">
        <ele>1620</ele>
        <time>2016-11-12T13:34:02Z</time>
      </trkpt>
      <trkpt lat="42.75071" lon="1.86634">
        <ele>1620</ele>
        <time>2016-11-12T13:34:07Z</time>
      </trkpt>
      <trkpt lat="42.75074" lon="1.86634">
        <ele>1620</ele>
        <time>2016-11-12T13:34:12Z</time>
      </trkpt>
      <trkpt lat="42.75075" lon="1.86637">
        <ele>1620</ele>
        <time>2016-11-12T13:34:17Z</time>
      </trkpt>
      <trkpt lat="42.75078" lon="1.86638">
        <ele>1620</ele>
        <time>2016-11-12T13:34:22Z</time>
      </trkpt>
      <trkpt lat="42.7508" lon="1.86637">
        <ele>1620</ele>
        <time>2016-11-12T13:34:27Z</time>
      </trkpt>
      <trkpt lat="42.75083" lon="1.86637">
        <ele>1620</ele>
        <time>2016-11-12T13:34:32Z</time>
      </trkpt>
      <trkpt lat="42.75088" lon="1.86635">
        <ele>1620</ele>
        <time>2016-11-12T13:34:37Z</time>
      </trkpt>
      <trkpt lat="42.75096" lon="1.86635">
        <ele>1620</ele>
        <time>2016-11-12T13:34:42Z</time>
      </trkpt>
      <trkpt lat="42.751" lon="1.86635">
        <ele>1620</ele>
        <time>2016-11-12T13:34:47Z</time>
      </trkpt>
      <trkpt lat="42.75105" lon="1.86633">
        <ele>1620</ele>
        <time>2016-11-12T13:34:52Z</time>
      </trkpt>
      <trkpt lat="42.75111" lon="1.86634">
        <ele>1620</ele>
        <time>2016-11-12T13:34:57Z</time>
      </trkpt>
      <trkpt lat="42.75117" lon="1.86632">
        <ele>1620</ele>
        <time>2016-11-12T13:35:02Z</time>
      </trkpt>
      <trkpt lat="42.7512" lon="1.86629">
        <ele>1620</ele>
        <time>2016-11-12T13:35:07Z</time>
      </trkpt>
      <trkpt lat="42.75125" lon="1.86626">
        <ele>1620</ele>
        <time>2016-11-12T13:35:12Z</time>
      </trkpt>
      <trkpt lat="42.75131" lon="1.86622">
        <ele>1604</ele>
        <time>2016-11-12T13:35:17Z</time>
      </trkpt>
      <trkpt lat="42.75136" lon="1.86619">
        <ele>1604</ele>
        <time>2016-11-12T13:35:22Z</time>
      </trkpt>
      <trkpt lat="42.7514" lon="1.86616">
        <ele>1604</ele>
        <time>2016-11-12T13:35:27Z</time>
      </trkpt>
      <trkpt lat="42.75144" lon="1.86614">
        <ele>1604</ele>
        <time>2016-11-12T13:35:32Z</time>
      </trkpt>
      <trkpt lat="42.75149" lon="1.86612">
        <ele>1604</ele>
        <time>2016-11-12T13:35:37Z</time>
      </trkpt>
      <trkpt lat="42.75153" lon="1.86608">
        <ele>1604</ele>
        <time>2016-11-12T13:35:42Z</time>
      </trkpt>
      <trkpt lat="42.75159" lon="1.86606">
        <ele>1604</ele>
        <time>2016-11-12T13:35:47Z</time>
      </trkpt>
      <trkpt lat="42.75164" lon="1.86602">
        <ele>1604</ele>
        <time>2016-11-12T13:35:52Z</time>
      </trkpt>
      <trkpt lat="42.7517" lon="1.86598">
        <ele>1604</ele>
        <time>2016-11-12T13:35:57Z</time>
      </trkpt>
      <trkpt lat="42.75174" lon="1.86596">
        <ele>1604</ele>
        <time>2016-11-12T13:36:02Z</time>
      </trkpt>
      <trkpt lat="42.75177" lon="1.86593">
        <ele>1604</ele>
        <time>2016-11-12T13:36:07Z</time>
      </trkpt>
      <trkpt lat="42.75178" lon="1.86593">
        <ele>1604</ele>
        <time>2016-11-12T13:36:12Z</time>
      </trkpt>
      <trkpt lat="42.75178" lon="1.86593">
        <ele>1604</ele>
        <time>2016-11-12T13:36:17Z</time>
      </trkpt>
      <trkpt lat="42.75178" lon="1.86593">
        <ele>1604</ele>
        <time>2016-11-12T13:36:22Z</time>
      </trkpt>
      <trkpt lat="42.75179" lon="1.86593">
        <ele>1604</ele>
        <time>2016-11-12T13:36:27Z</time>
      </trkpt>
      <trkpt lat="42.75179" lon="1.86593">
        <ele>1604</ele>
        <time>2016-11-12T13:36:32Z</time>
      </trkpt>
      <trkpt lat="42.75182" lon="1.86592">
        <ele>1604</ele>
        <time>2016-11-12T13:36:37Z</time>
      </trkpt>
      <trkpt lat="42.75187" lon="1.86594">
        <ele>1604</ele>
        <time>2016-11-12T13:36:42Z</time>
      </trkpt>
      <trkpt lat="42.75192" lon="1.86595">
        <ele>1604</ele>
        <time>2016-11-12T13:36:47Z</time>
      </trkpt>
      <trkpt lat="42.75194" lon="1.86593">
        <ele>1604</ele>
        <time>2016-11-12T13:36:52Z</time>
      </trkpt>
      <trkpt lat="42.75196" lon="1.8659">
        <ele>1604</ele>
        <time>2016-11-12T13:36:57Z</time>
      </trkpt>
      <trkpt lat="42.75197" lon="1.86589">
        <ele>1604</ele>
        <time>2016-11-12T13:37:02Z</time>
      </trkpt>
      <trkpt lat="42.75197" lon="1.8659">
        <ele>1604</ele>
        <time>2016-11-12T13:37:07Z</time>
      </trkpt>
      <trkpt lat="42.75197" lon="1.8659">
        <ele>1604</ele>
        <time>2016-11-12T13:37:12Z</time>
      </trkpt>
      <trkpt lat="42.75197" lon="1.8659">
        <ele>1604</ele>
        <time>2016-11-12T13:37:17Z</time>
      </trkpt>
      <trkpt lat="42.75197" lon="1.8659">
        <ele>1604</ele>
        <time>2016-11-12T13:37:22Z</time>
      </trkpt>
      <trkpt lat="42.75197" lon="1.8659">
        <ele>1604</ele>
        <time>2016-11-12T13:37:27Z</time>
      </trkpt>
      <trkpt lat="42.75197" lon="1.86589">
        <ele>1604</ele>
        <time>2016-11-12T13:37:32Z</time>
      </trkpt>
      <trkpt lat="42.75197" lon="1.86589">
        <ele>1604</ele>
        <time>2016-11-12T13:37:37Z</time>
      </trkpt>
      <trkpt lat="42.75197" lon="1.86589">
        <ele>1604</ele>
        <time>2016-11-12T13:37:42Z</time>
      </trkpt>
      <trkpt lat="42.75197" lon="1.86589">
        <ele>1604</ele>
        <time>2016-11-12T13:37:47Z</time>
      </trkpt>
      <trkpt lat="42.75197" lon="1.86589">
        <ele>1604</ele>
        <time>2016-11-12T13:37:52Z</time>
      </trkpt>
      <trkpt lat="42.75198" lon="1.86588">
        <ele>1604</ele>
        <time>2016-11-12T13:37:57Z</time>
      </trkpt>
      <trkpt lat="42.75198" lon="1.86588">
        <ele>1604</ele>
        <time>2016-11-12T13:38:02Z</time>
      </trkpt>
      <trkpt lat="42.75198" lon="1.86588">
        <ele>1604</ele>
        <time>2016-11-12T13:38:07Z</time>
      </trkpt>
      <trkpt lat="42.75198" lon="1.86588">
        <ele>1604</ele>
        <time>2016-11-12T13:38:12Z</time>
      </trkpt>
      <trkpt lat="42.75198" lon="1.86588">
        <ele>1604</ele>
        <time>2016-11-12T13:38:17Z</time>
      </trkpt>
      <trkpt lat="42.75198" lon="1.86588">
        <ele>1604</ele>
        <time>2016-11-12T13:38:22Z</time>
      </trkpt>
      <trkpt lat="42.75198" lon="1.86588">
        <ele>1604</ele>
        <time>2016-11-12T13:38:27Z</time>
      </trkpt>
      <trkpt lat="42.75198" lon="1.86588">
        <ele>1604</ele>
        <time>2016-11-12T13:38:32Z</time>
      </trkpt>
      <trkpt lat="42.75198" lon="1.86588">
        <ele>1604</ele>
        <time>2016-11-12T13:38:37Z</time>
      </trkpt>
      <trkpt lat="42.75198" lon="1.86588">
        <ele>1604</ele>
        <time>2016-11-12T13:38:42Z</time>
      </trkpt>
      <trkpt lat="42.75201" lon="1.86593">
        <ele>1604</ele>
        <time>2016-11-12T13:38:47Z</time>
      </trkpt>
      <trkpt lat="42.75205" lon="1.86599">
        <ele>1604</ele>
        <time>2016-11-12T13:38:52Z</time>
      </trkpt>
      <trkpt lat="42.75209" lon="1.86603">
        <ele>1601</ele>
        <time>2016-11-12T13:38:57Z</time>
      </trkpt>
      <trkpt lat="42.75211" lon="1.86608">
        <ele>1601</ele>
        <time>2016-11-12T13:39:02Z</time>
      </trkpt>
      <trkpt lat="42.75214" lon="1.86612">
        <ele>1601</ele>
        <time>2016-11-12T13:39:07Z</time>
      </trkpt>
      <trkpt lat="42.75214" lon="1.86618">
        <ele>1601</ele>
        <time>2016-11-12T13:39:12Z</time>
      </trkpt>
      <trkpt lat="42.75214" lon="1.86618">
        <ele>1601</ele>
        <time>2016-11-12T13:39:17Z</time>
      </trkpt>
      <trkpt lat="42.75215" lon="1.86619">
        <ele>1601</ele>
        <time>2016-11-12T13:39:22Z</time>
      </trkpt>
      <trkpt lat="42.75215" lon="1.86619">
        <ele>1601</ele>
        <time>2016-11-12T13:39:27Z</time>
      </trkpt>
      <trkpt lat="42.75215" lon="1.86619">
        <ele>1601</ele>
        <time>2016-11-12T13:39:32Z</time>
      </trkpt>
      <trkpt lat="42.75215" lon="1.86619">
        <ele>1601</ele>
        <time>2016-11-12T13:39:37Z</time>
      </trkpt>
      <trkpt lat="42.75215" lon="1.86619">
        <ele>1601</ele>
        <time>2016-11-12T13:39:42Z</time>
      </trkpt>
      <trkpt lat="42.75215" lon="1.8662">
        <ele>1601</ele>
        <time>2016-11-12T13:39:47Z</time>
      </trkpt>
      <trkpt lat="42.75216" lon="1.8662">
        <ele>1601</ele>
        <time>2016-11-12T13:39:52Z</time>
      </trkpt>
      <trkpt lat="42.75216" lon="1.8662">
        <ele>1601</ele>
        <time>2016-11-12T13:39:57Z</time>
      </trkpt>
      <trkpt lat="42.75216" lon="1.8662">
        <ele>1601</ele>
        <time>2016-11-12T13:40:02Z</time>
      </trkpt>
      <trkpt lat="42.75216" lon="1.86619">
        <ele>1601</ele>
        <time>2016-11-12T13:40:07Z</time>
      </trkpt>
      <trkpt lat="42.75216" lon="1.86619">
        <ele>1601</ele>
        <time>2016-11-12T13:40:12Z</time>
      </trkpt>
      <trkpt lat="42.75215" lon="1.86619">
        <ele>1601</ele>
        <time>2016-11-12T13:40:17Z</time>
      </trkpt>
      <trkpt lat="42.75216" lon="1.86619">
        <ele>1601</ele>
        <time>2016-11-12T13:40:22Z</time>
      </trkpt>
      <trkpt lat="42.75216" lon="1.86619">
        <ele>1601</ele>
        <time>2016-11-12T13:40:27Z</time>
      </trkpt>
      <trkpt lat="42.75216" lon="1.8662">
        <ele>1601</ele>
        <time>2016-11-12T13:40:32Z</time>
      </trkpt>
      <trkpt lat="42.75216" lon="1.8662">
        <ele>1601</ele>
        <time>2016-11-12T13:40:37Z</time>
      </trkpt>
      <trkpt lat="42.75216" lon="1.8662">
        <ele>1601</ele>
        <time>2016-11-12T13:40:42Z</time>
      </trkpt>
      <trkpt lat="42.75216" lon="1.8662">
        <ele>1601</ele>
        <time>2016-11-12T13:40:47Z</time>
      </trkpt>
      <trkpt lat="42.75216" lon="1.8662">
        <ele>1601</ele>
        <time>2016-11-12T13:40:52Z</time>
      </trkpt>
      <trkpt lat="42.75216" lon="1.8662">
        <ele>1601</ele>
        <time>2016-11-12T13:40:57Z</time>
      </trkpt>
      <trkpt lat="42.75216" lon="1.8662">
        <ele>1601</ele>
        <time>2016-11-12T13:41:02Z</time>
      </trkpt>
      <trkpt lat="42.75215" lon="1.8662">
        <ele>1601</ele>
        <time>2016-11-12T13:41:07Z</time>
      </trkpt>
      <trkpt lat="42.75215" lon="1.86621">
        <ele>1601</ele>
        <time>2016-11-12T13:41:12Z</time>
      </trkpt>
      <trkpt lat="42.75215" lon="1.86621">
        <ele>1601</ele>
        <time>2016-11-12T13:41:17Z</time>
      </trkpt>
      <trkpt lat="42.75215" lon="1.86622">
        <ele>1601</ele>
        <time>2016-11-12T13:41:22Z</time>
      </trkpt>
      <trkpt lat="42.75216" lon="1.86622">
        <ele>1601</ele>
        <time>2016-11-12T13:41:27Z</time>
      </trkpt>
      <trkpt lat="42.75217" lon="1.86622">
        <ele>1601</ele>
        <time>2016-11-12T13:41:32Z</time>
      </trkpt>
      <trkpt lat="42.75215" lon="1.86619">
        <ele>1601</ele>
        <time>2016-11-12T13:41:37Z</time>
      </trkpt>
      <trkpt lat="42.75213" lon="1.86613">
        <ele>1601</ele>
        <time>2016-11-12T13:41:42Z</time>
      </trkpt>
      <trkpt lat="42.75209" lon="1.86611">
        <ele>1601</ele>
        <time>2016-11-12T13:41:47Z</time>
      </trkpt>
      <trkpt lat="42.75208" lon="1.86609">
        <ele>1604</ele>
        <time>2016-11-12T13:41:52Z</time>
      </trkpt>
      <trkpt lat="42.75206" lon="1.86602">
        <ele>1604</ele>
        <time>2016-11-12T13:41:57Z</time>
      </trkpt>
      <trkpt lat="42.75201" lon="1.86595">
        <ele>1604</ele>
        <time>2016-11-12T13:42:02Z</time>
      </trkpt>
      <trkpt lat="42.75194" lon="1.86588">
        <ele>1604</ele>
        <time>2016-11-12T13:42:07Z</time>
      </trkpt>
      <trkpt lat="42.75189" lon="1.86583">
        <ele>1604</ele>
        <time>2016-11-12T13:42:12Z</time>
      </trkpt>
      <trkpt lat="42.75184" lon="1.86577">
        <ele>1604</ele>
        <time>2016-11-12T13:42:17Z</time>
      </trkpt>
      <trkpt lat="42.75181" lon="1.86572">
        <ele>1604</ele>
        <time>2016-11-12T13:42:22Z</time>
      </trkpt>
      <trkpt lat="42.75176" lon="1.86567">
        <ele>1604</ele>
        <time>2016-11-12T13:42:27Z</time>
      </trkpt>
      <trkpt lat="42.75171" lon="1.8656">
        <ele>1604</ele>
        <time>2016-11-12T13:42:32Z</time>
      </trkpt>
      <trkpt lat="42.75167" lon="1.86554">
        <ele>1604</ele>
        <time>2016-11-12T13:42:37Z</time>
      </trkpt>
      <trkpt lat="42.75162" lon="1.86548">
        <ele>1604</ele>
        <time>2016-11-12T13:42:42Z</time>
      </trkpt>
      <trkpt lat="42.75159" lon="1.86543">
        <ele>1604</ele>
        <time>2016-11-12T13:42:47Z</time>
      </trkpt>
      <trkpt lat="42.75155" lon="1.86539">
        <ele>1599</ele>
        <time>2016-11-12T13:42:52Z</time>
      </trkpt>
      <trkpt lat="42.7515" lon="1.86536">
        <ele>1599</ele>
        <time>2016-11-12T13:42:57Z</time>
      </trkpt>
      <trkpt lat="42.75147" lon="1.86536">
        <ele>1599</ele>
        <time>2016-11-12T13:43:02Z</time>
      </trkpt>
      <trkpt lat="42.75143" lon="1.86535">
        <ele>1599</ele>
        <time>2016-11-12T13:43:07Z</time>
      </trkpt>
      <trkpt lat="42.75139" lon="1.86534">
        <ele>1599</ele>
        <time>2016-11-12T13:43:12Z</time>
      </trkpt>
      <trkpt lat="42.75135" lon="1.86531">
        <ele>1599</ele>
        <time>2016-11-12T13:43:17Z</time>
      </trkpt>
      <trkpt lat="42.75131" lon="1.86532">
        <ele>1599</ele>
        <time>2016-11-12T13:43:22Z</time>
      </trkpt>
      <trkpt lat="42.75127" lon="1.86532">
        <ele>1599</ele>
        <time>2016-11-12T13:43:27Z</time>
      </trkpt>
      <trkpt lat="42.75122" lon="1.86533">
        <ele>1614</ele>
        <time>2016-11-12T13:43:32Z</time>
      </trkpt>
      <trkpt lat="42.75121" lon="1.86533">
        <ele>1614</ele>
        <time>2016-11-12T13:43:37Z</time>
      </trkpt>
      <trkpt lat="42.75121" lon="1.86534">
        <ele>1614</ele>
        <time>2016-11-12T13:43:42Z</time>
      </trkpt>
      <trkpt lat="42.75118" lon="1.86533">
        <ele>1614</ele>
        <time>2016-11-12T13:43:47Z</time>
      </trkpt>
      <trkpt lat="42.75115" lon="1.86531">
        <ele>1614</ele>
        <time>2016-11-12T13:43:52Z</time>
      </trkpt>
      <trkpt lat="42.75112" lon="1.86529">
        <ele>1614</ele>
        <time>2016-11-12T13:43:57Z</time>
      </trkpt>
      <trkpt lat="42.7511" lon="1.86526">
        <ele>1614</ele>
        <time>2016-11-12T13:44:02Z</time>
      </trkpt>
      <trkpt lat="42.75107" lon="1.86523">
        <ele>1614</ele>
        <time>2016-11-12T13:44:07Z</time>
      </trkpt>
      <trkpt lat="42.75103" lon="1.8652">
        <ele>1614</ele>
        <time>2016-11-12T13:44:12Z</time>
      </trkpt>
      <trkpt lat="42.751" lon="1.86517">
        <ele>1614</ele>
        <time>2016-11-12T13:44:17Z</time>
      </trkpt>
      <trkpt lat="42.75097" lon="1.86516">
        <ele>1614</ele>
        <time>2016-11-12T13:44:22Z</time>
      </trkpt>
      <trkpt lat="42.75094" lon="1.86513">
        <ele>1614</ele>
        <time>2016-11-12T13:44:27Z</time>
      </trkpt>
      <trkpt lat="42.7509" lon="1.86512">
        <ele>1614</ele>
        <time>2016-11-12T13:44:32Z</time>
      </trkpt>
      <trkpt lat="42.75089" lon="1.86511">
        <ele>1614</ele>
        <time>2016-11-12T13:44:37Z</time>
      </trkpt>
      <trkpt lat="42.75087" lon="1.86508">
        <ele>1614</ele>
        <time>2016-11-12T13:44:42Z</time>
      </trkpt>
      <trkpt lat="42.75085" lon="1.86504">
        <ele>1614</ele>
        <time>2016-11-12T13:44:47Z</time>
      </trkpt>
      <trkpt lat="42.75084" lon="1.86502">
        <ele>1614</ele>
        <time>2016-11-12T13:44:52Z</time>
      </trkpt>
      <trkpt lat="42.75081" lon="1.865">
        <ele>1614</ele>
        <time>2016-11-12T13:44:57Z</time>
      </trkpt>
      <trkpt lat="42.75077" lon="1.865">
        <ele>1614</ele>
        <time>2016-11-12T13:45:02Z</time>
      </trkpt>
      <trkpt lat="42.75073" lon="1.86497">
        <ele>1614</ele>
        <time>2016-11-12T13:45:07Z</time>
      </trkpt>
      <trkpt lat="42.75068" lon="1.86492">
        <ele>1614</ele>
        <time>2016-11-12T13:45:12Z</time>
      </trkpt>
      <trkpt lat="42.75065" lon="1.86489">
        <ele>1614</ele>
        <time>2016-11-12T13:45:17Z</time>
      </trkpt>
      <trkpt lat="42.75063" lon="1.86487">
        <ele>1614</ele>
        <time>2016-11-12T13:45:22Z</time>
      </trkpt>
      <trkpt lat="42.7506" lon="1.86485">
        <ele>1614</ele>
        <time>2016-11-12T13:45:27Z</time>
      </trkpt>
      <trkpt lat="42.75057" lon="1.86485">
        <ele>1614</ele>
        <time>2016-11-12T13:45:32Z</time>
      </trkpt>
      <trkpt lat="42.75055" lon="1.86484">
        <ele>1614</ele>
        <time>2016-11-12T13:45:37Z</time>
      </trkpt>
      <trkpt lat="42.75052" lon="1.86484">
        <ele>1614</ele>
        <time>2016-11-12T13:45:42Z</time>
      </trkpt>
      <trkpt lat="42.7505" lon="1.86483">
        <ele>1614</ele>
        <time>2016-11-12T13:45:47Z</time>
      </trkpt>
      <trkpt lat="42.75047" lon="1.86481">
        <ele>1614</ele>
        <time>2016-11-12T13:45:52Z</time>
      </trkpt>
      <trkpt lat="42.75044" lon="1.86479">
        <ele>1614</ele>
        <time>2016-11-12T13:45:57Z</time>
      </trkpt>
      <trkpt lat="42.75041" lon="1.86477">
        <ele>1643</ele>
        <time>2016-11-12T13:46:02Z</time>
      </trkpt>
      <trkpt lat="42.75037" lon="1.86475">
        <ele>1643</ele>
        <time>2016-11-12T13:46:07Z</time>
      </trkpt>
      <trkpt lat="42.75034" lon="1.8647">
        <ele>1643</ele>
        <time>2016-11-12T13:46:12Z</time>
      </trkpt>
      <trkpt lat="42.75031" lon="1.86466">
        <ele>1643</ele>
        <time>2016-11-12T13:46:17Z</time>
      </trkpt>
      <trkpt lat="42.75031" lon="1.86464">
        <ele>1643</ele>
        <time>2016-11-12T13:46:22Z</time>
      </trkpt>
      <trkpt lat="42.75028" lon="1.86459">
        <ele>1643</ele>
        <time>2016-11-12T13:46:27Z</time>
      </trkpt>
      <trkpt lat="42.75025" lon="1.86457">
        <ele>1636</ele>
        <time>2016-11-12T13:46:32Z</time>
      </trkpt>
      <trkpt lat="42.75021" lon="1.86455">
        <ele>1636</ele>
        <time>2016-11-12T13:46:37Z</time>
      </trkpt>
      <trkpt lat="42.75019" lon="1.86455">
        <ele>1636</ele>
        <time>2016-11-12T13:46:42Z</time>
      </trkpt>
      <trkpt lat="42.75017" lon="1.86453">
        <ele>1636</ele>
        <time>2016-11-12T13:46:47Z</time>
      </trkpt>
      <trkpt lat="42.75015" lon="1.86452">
        <ele>1636</ele>
        <time>2016-11-12T13:46:52Z</time>
      </trkpt>
      <trkpt lat="42.75014" lon="1.86451">
        <ele>1636</ele>
        <time>2016-11-12T13:46:57Z</time>
      </trkpt>
      <trkpt lat="42.75013" lon="1.86448">
        <ele>1636</ele>
        <time>2016-11-12T13:47:02Z</time>
      </trkpt>
      <trkpt lat="42.75012" lon="1.86446">
        <ele>1636</ele>
        <time>2016-11-12T13:47:07Z</time>
      </trkpt>
      <trkpt lat="42.75011" lon="1.86446">
        <ele>1636</ele>
        <time>2016-11-12T13:47:12Z</time>
      </trkpt>
      <trkpt lat="42.7501" lon="1.86443">
        <ele>1636</ele>
        <time>2016-11-12T13:47:17Z</time>
      </trkpt>
      <trkpt lat="42.75007" lon="1.86437">
        <ele>1636</ele>
        <time>2016-11-12T13:47:22Z</time>
      </trkpt>
      <trkpt lat="42.75005" lon="1.86436">
        <ele>1636</ele>
        <time>2016-11-12T13:47:27Z</time>
      </trkpt>
      <trkpt lat="42.75005" lon="1.86436">
        <ele>1636</ele>
        <time>2016-11-12T13:47:32Z</time>
      </trkpt>
      <trkpt lat="42.75006" lon="1.86436">
        <ele>1636</ele>
        <time>2016-11-12T13:47:37Z</time>
      </trkpt>
      <trkpt lat="42.75006" lon="1.86435">
        <ele>1636</ele>
        <time>2016-11-12T13:47:42Z</time>
      </trkpt>
      <trkpt lat="42.75006" lon="1.86432">
        <ele>1636</ele>
        <time>2016-11-12T13:47:47Z</time>
      </trkpt>
      <trkpt lat="42.75003" lon="1.86429">
        <ele>1636</ele>
        <time>2016-11-12T13:47:52Z</time>
      </trkpt>
      <trkpt lat="42.75001" lon="1.86428">
        <ele>1636</ele>
        <time>2016-11-12T13:47:57Z</time>
      </trkpt>
      <trkpt lat="42.74999" lon="1.86427">
        <ele>1636</ele>
        <time>2016-11-12T13:48:02Z</time>
      </trkpt>
      <trkpt lat="42.74997" lon="1.86427">
        <ele>1636</ele>
        <time>2016-11-12T13:48:07Z</time>
      </trkpt>
      <trkpt lat="42.74996" lon="1.86426">
        <ele>1636</ele>
        <time>2016-11-12T13:48:12Z</time>
      </trkpt>
      <trkpt lat="42.74992" lon="1.86424">
        <ele>1636</ele>
        <time>2016-11-12T13:48:17Z</time>
      </trkpt>
      <trkpt lat="42.74992" lon="1.86424">
        <ele>1636</ele>
        <time>2016-11-12T13:48:22Z</time>
      </trkpt>
      <trkpt lat="42.7499" lon="1.86424">
        <ele>1636</ele>
        <time>2016-11-12T13:48:27Z</time>
      </trkpt>
      <trkpt lat="42.7499" lon="1.86424">
        <ele>1636</ele>
        <time>2016-11-12T13:48:32Z</time>
      </trkpt>
      <trkpt lat="42.7499" lon="1.86423">
        <ele>1636</ele>
        <time>2016-11-12T13:48:37Z</time>
      </trkpt>
      <trkpt lat="42.7499" lon="1.86424">
        <ele>1636</ele>
        <time>2016-11-12T13:48:42Z</time>
      </trkpt>
      <trkpt lat="42.74986" lon="1.86421">
        <ele>1636</ele>
        <time>2016-11-12T13:48:47Z</time>
      </trkpt>
      <trkpt lat="42.74986" lon="1.8642">
        <ele>1636</ele>
        <time>2016-11-12T13:48:52Z</time>
      </trkpt>
      <trkpt lat="42.74985" lon="1.86418">
        <ele>1636</ele>
        <time>2016-11-12T13:48:57Z</time>
      </trkpt>
      <trkpt lat="42.74984" lon="1.86415">
        <ele>1636</ele>
        <time>2016-11-12T13:49:02Z</time>
      </trkpt>
      <trkpt lat="42.74983" lon="1.86412">
        <ele>1636</ele>
        <time>2016-11-12T13:49:07Z</time>
      </trkpt>
      <trkpt lat="42.74981" lon="1.86409">
        <ele>1636</ele>
        <time>2016-11-12T13:49:12Z</time>
      </trkpt>
      <trkpt lat="42.74978" lon="1.86405">
        <ele>1636</ele>
        <time>2016-11-12T13:49:17Z</time>
      </trkpt>
      <trkpt lat="42.74975" lon="1.86402">
        <ele>1636</ele>
        <time>2016-11-12T13:49:22Z</time>
      </trkpt>
      <trkpt lat="42.74973" lon="1.864">
        <ele>1636</ele>
        <time>2016-11-12T13:49:27Z</time>
      </trkpt>
      <trkpt lat="42.74972" lon="1.86398">
        <ele>1636</ele>
        <time>2016-11-12T13:49:32Z</time>
      </trkpt>
      <trkpt lat="42.74969" lon="1.86396">
        <ele>1636</ele>
        <time>2016-11-12T13:49:37Z</time>
      </trkpt>
      <trkpt lat="42.74964" lon="1.8639">
        <ele>1636</ele>
        <time>2016-11-12T13:49:42Z</time>
      </trkpt>
      <trkpt lat="42.74962" lon="1.86385">
        <ele>1636</ele>
        <time>2016-11-12T13:49:47Z</time>
      </trkpt>
      <trkpt lat="42.7496" lon="1.86381">
        <ele>1636</ele>
        <time>2016-11-12T13:49:52Z</time>
      </trkpt>
      <trkpt lat="42.74959" lon="1.86379">
        <ele>1636</ele>
        <time>2016-11-12T13:49:57Z</time>
      </trkpt>
      <trkpt lat="42.74958" lon="1.86376">
        <ele>1662</ele>
        <time>2016-11-12T13:50:02Z</time>
      </trkpt>
      <trkpt lat="42.74956" lon="1.86376">
        <ele>1662</ele>
        <time>2016-11-12T13:50:07Z</time>
      </trkpt>
      <trkpt lat="42.74953" lon="1.86375">
        <ele>1662</ele>
        <time>2016-11-12T13:50:12Z</time>
      </trkpt>
      <trkpt lat="42.7495" lon="1.86375">
        <ele>1641</ele>
        <time>2016-11-12T13:50:17Z</time>
      </trkpt>
      <trkpt lat="42.74947" lon="1.86374">
        <ele>1641</ele>
        <time>2016-11-12T13:50:22Z</time>
      </trkpt>
      <trkpt lat="42.74943" lon="1.86374">
        <ele>1641</ele>
        <time>2016-11-12T13:50:27Z</time>
      </trkpt>
      <trkpt lat="42.74941" lon="1.86373">
        <ele>1641</ele>
        <time>2016-11-12T13:50:32Z</time>
      </trkpt>
      <trkpt lat="42.74938" lon="1.86371">
        <ele>1641</ele>
        <time>2016-11-12T13:50:37Z</time>
      </trkpt>
      <trkpt lat="42.74936" lon="1.8637">
        <ele>1641</ele>
        <time>2016-11-12T13:50:42Z</time>
      </trkpt>
      <trkpt lat="42.74935" lon="1.86371">
        <ele>1641</ele>
        <time>2016-11-12T13:50:47Z</time>
      </trkpt>
      <trkpt lat="42.74932" lon="1.8637">
        <ele>1641</ele>
        <time>2016-11-12T13:50:52Z</time>
      </trkpt>
      <trkpt lat="42.74928" lon="1.86368">
        <ele>1641</ele>
        <time>2016-11-12T13:50:57Z</time>
      </trkpt>
      <trkpt lat="42.74926" lon="1.86368">
        <ele>1641</ele>
        <time>2016-11-12T13:51:02Z</time>
      </trkpt>
      <trkpt lat="42.74922" lon="1.86369">
        <ele>1641</ele>
        <time>2016-11-12T13:51:07Z</time>
      </trkpt>
      <trkpt lat="42.74919" lon="1.86369">
        <ele>1641</ele>
        <time>2016-11-12T13:51:12Z</time>
      </trkpt>
      <trkpt lat="42.74916" lon="1.86369">
        <ele>1641</ele>
        <time>2016-11-12T13:51:17Z</time>
      </trkpt>
      <trkpt lat="42.74914" lon="1.8637">
        <ele>1641</ele>
        <time>2016-11-12T13:51:22Z</time>
      </trkpt>
      <trkpt lat="42.74913" lon="1.8637">
        <ele>1641</ele>
        <time>2016-11-12T13:51:27Z</time>
      </trkpt>
      <trkpt lat="42.74912" lon="1.86371">
        <ele>1641</ele>
        <time>2016-11-12T13:51:32Z</time>
      </trkpt>
      <trkpt lat="42.74911" lon="1.86372">
        <ele>1641</ele>
        <time>2016-11-12T13:51:37Z</time>
      </trkpt>
      <trkpt lat="42.7491" lon="1.86373">
        <ele>1641</ele>
        <time>2016-11-12T13:51:42Z</time>
      </trkpt>
      <trkpt lat="42.7491" lon="1.86373">
        <ele>1641</ele>
        <time>2016-11-12T13:51:47Z</time>
      </trkpt>
      <trkpt lat="42.7491" lon="1.86373">
        <ele>1641</ele>
        <time>2016-11-12T13:51:52Z</time>
      </trkpt>
      <trkpt lat="42.7491" lon="1.86373">
        <ele>1641</ele>
        <time>2016-11-12T13:51:57Z</time>
      </trkpt>
      <trkpt lat="42.7491" lon="1.86373">
        <ele>1641</ele>
        <time>2016-11-12T13:52:02Z</time>
      </trkpt>
      <trkpt lat="42.7491" lon="1.86374">
        <ele>1641</ele>
        <time>2016-11-12T13:52:07Z</time>
      </trkpt>
      <trkpt lat="42.7491" lon="1.86374">
        <ele>1641</ele>
        <time>2016-11-12T13:52:12Z</time>
      </trkpt>
      <trkpt lat="42.7491" lon="1.86373">
        <ele>1641</ele>
        <time>2016-11-12T13:52:17Z</time>
      </trkpt>
      <trkpt lat="42.74911" lon="1.86373">
        <ele>1641</ele>
        <time>2016-11-12T13:52:22Z</time>
      </trkpt>
      <trkpt lat="42.74911" lon="1.86371">
        <ele>1641</ele>
        <time>2016-11-12T13:52:27Z</time>
      </trkpt>
      <trkpt lat="42.74908" lon="1.86371">
        <ele>1641</ele>
        <time>2016-11-12T13:52:32Z</time>
      </trkpt>
      <trkpt lat="42.74907" lon="1.86371">
        <ele>1641</ele>
        <time>2016-11-12T13:52:37Z</time>
      </trkpt>
      <trkpt lat="42.74906" lon="1.8637">
        <ele>1641</ele>
        <time>2016-11-12T13:52:42Z</time>
      </trkpt>
      <trkpt lat="42.74903" lon="1.86371">
        <ele>1641</ele>
        <time>2016-11-12T13:52:47Z</time>
      </trkpt>
      <trkpt lat="42.74904" lon="1.86371">
        <ele>1641</ele>
        <time>2016-11-12T13:52:52Z</time>
      </trkpt>
      <trkpt lat="42.74902" lon="1.86371">
        <ele>1641</ele>
        <time>2016-11-12T13:52:57Z</time>
      </trkpt>
      <trkpt lat="42.74902" lon="1.86372">
        <ele>1641</ele>
        <time>2016-11-12T13:53:02Z</time>
      </trkpt>
      <trkpt lat="42.749" lon="1.86374">
        <ele>1641</ele>
        <time>2016-11-12T13:53:07Z</time>
      </trkpt>
      <trkpt lat="42.749" lon="1.86379">
        <ele>1662</ele>
        <time>2016-11-12T13:53:12Z</time>
      </trkpt>
      <trkpt lat="42.749" lon="1.86379">
        <ele>1662</ele>
        <time>2016-11-12T13:53:17Z</time>
      </trkpt>
      <trkpt lat="42.749" lon="1.86379">
        <ele>1662</ele>
        <time>2016-11-12T13:53:22Z</time>
      </trkpt>
      <trkpt lat="42.749" lon="1.86379">
        <ele>1662</ele>
        <time>2016-11-12T13:53:27Z</time>
      </trkpt>
      <trkpt lat="42.749" lon="1.86379">
        <ele>1662</ele>
        <time>2016-11-12T13:53:32Z</time>
      </trkpt>
      <trkpt lat="42.749" lon="1.86379">
        <ele>1662</ele>
        <time>2016-11-12T13:53:37Z</time>
      </trkpt>
      <trkpt lat="42.749" lon="1.86379">
        <ele>1662</ele>
        <time>2016-11-12T13:53:42Z</time>
      </trkpt>
      <trkpt lat="42.749" lon="1.86379">
        <ele>1662</ele>
        <time>2016-11-12T13:53:47Z</time>
      </trkpt>
      <trkpt lat="42.749" lon="1.86379">
        <ele>1662</ele>
        <time>2016-11-12T13:53:52Z</time>
      </trkpt>
      <trkpt lat="42.749" lon="1.86379">
        <ele>1662</ele>
        <time>2016-11-12T13:53:57Z</time>
      </trkpt>
      <trkpt lat="42.749" lon="1.86379">
        <ele>1662</ele>
        <time>2016-11-12T13:54:02Z</time>
      </trkpt>
      <trkpt lat="42.74899" lon="1.86379">
        <ele>1662</ele>
        <time>2016-11-12T13:54:07Z</time>
      </trkpt>
      <trkpt lat="42.74898" lon="1.86382">
        <ele>1662</ele>
        <time>2016-11-12T13:54:12Z</time>
      </trkpt>
      <trkpt lat="42.74897" lon="1.86386">
        <ele>1662</ele>
        <time>2016-11-12T13:54:17Z</time>
      </trkpt>
      <trkpt lat="42.74896" lon="1.86392">
        <ele>1662</ele>
        <time>2016-11-12T13:54:22Z</time>
      </trkpt>
      <trkpt lat="42.74895" lon="1.86395">
        <ele>1662</ele>
        <time>2016-11-12T13:54:27Z</time>
      </trkpt>
      <trkpt lat="42.74895" lon="1.86401">
        <ele>1662</ele>
        <time>2016-11-12T13:54:32Z</time>
      </trkpt>
      <trkpt lat="42.74895" lon="1.86404">
        <ele>1662</ele>
        <time>2016-11-12T13:54:37Z</time>
      </trkpt>
      <trkpt lat="42.74895" lon="1.86409">
        <ele>1662</ele>
        <time>2016-11-12T13:54:42Z</time>
      </trkpt>
      <trkpt lat="42.74894" lon="1.8641">
        <ele>1662</ele>
        <time>2016-11-12T13:54:47Z</time>
      </trkpt>
      <trkpt lat="42.74894" lon="1.86411">
        <ele>1662</ele>
        <time>2016-11-12T13:54:52Z</time>
      </trkpt>
      <trkpt lat="42.74894" lon="1.86414">
        <ele>1662</ele>
        <time>2016-11-12T13:54:57Z</time>
      </trkpt>
      <trkpt lat="42.74893" lon="1.86416">
        <ele>1662</ele>
        <time>2016-11-12T13:55:02Z</time>
      </trkpt>
      <trkpt lat="42.74892" lon="1.86418">
        <ele>1662</ele>
        <time>2016-11-12T13:55:07Z</time>
      </trkpt>
      <trkpt lat="42.74889" lon="1.8642">
        <ele>1662</ele>
        <time>2016-11-12T13:55:12Z</time>
      </trkpt>
      <trkpt lat="42.74886" lon="1.86424">
        <ele>1662</ele>
        <time>2016-11-12T13:55:17Z</time>
      </trkpt>
      <trkpt lat="42.74886" lon="1.86427">
        <ele>1662</ele>
        <time>2016-11-12T13:55:22Z</time>
      </trkpt>
      <trkpt lat="42.74886" lon="1.86427">
        <ele>1662</ele>
        <time>2016-11-12T13:55:27Z</time>
      </trkpt>
      <trkpt lat="42.74885" lon="1.86429">
        <ele>1662</ele>
        <time>2016-11-12T13:55:32Z</time>
      </trkpt>
      <trkpt lat="42.74886" lon="1.86432">
        <ele>1662</ele>
        <time>2016-11-12T13:55:37Z</time>
      </trkpt>
      <trkpt lat="42.74886" lon="1.86434">
        <ele>1662</ele>
        <time>2016-11-12T13:55:42Z</time>
      </trkpt>
      <trkpt lat="42.74885" lon="1.86437">
        <ele>1662</ele>
        <time>2016-11-12T13:55:47Z</time>
      </trkpt>
      <trkpt lat="42.74883" lon="1.86438">
        <ele>1662</ele>
        <time>2016-11-12T13:55:52Z</time>
      </trkpt>
      <trkpt lat="42.74884" lon="1.86442">
        <ele>1662</ele>
        <time>2016-11-12T13:55:57Z</time>
      </trkpt>
      <trkpt lat="42.74884" lon="1.86442">
        <ele>1662</ele>
        <time>2016-11-12T13:56:02Z</time>
      </trkpt>
      <trkpt lat="42.74884" lon="1.86443">
        <ele>1662</ele>
        <time>2016-11-12T13:56:07Z</time>
      </trkpt>
      <trkpt lat="42.74884" lon="1.86443">
        <ele>1662</ele>
        <time>2016-11-12T13:56:12Z</time>
      </trkpt>
      <trkpt lat="42.74884" lon="1.86443">
        <ele>1662</ele>
        <time>2016-11-12T13:56:17Z</time>
      </trkpt>
      <trkpt lat="42.74884" lon="1.86444">
        <ele>1662</ele>
        <time>2016-11-12T13:56:22Z</time>
      </trkpt>
      <trkpt lat="42.74884" lon="1.86444">
        <ele>1662</ele>
        <time>2016-11-12T13:56:27Z</time>
      </trkpt>
      <trkpt lat="42.74884" lon="1.86445">
        <ele>1662</ele>
        <time>2016-11-12T13:56:32Z</time>
      </trkpt>
      <trkpt lat="42.74884" lon="1.86445">
        <ele>1662</ele>
        <time>2016-11-12T13:56:37Z</time>
      </trkpt>
      <trkpt lat="42.74884" lon="1.86445">
        <ele>1662</ele>
        <time>2016-11-12T13:56:42Z</time>
      </trkpt>
      <trkpt lat="42.74884" lon="1.86445">
        <ele>1662</ele>
        <time>2016-11-12T13:56:47Z</time>
      </trkpt>
      <trkpt lat="42.74884" lon="1.86445">
        <ele>1662</ele>
        <time>2016-11-12T13:56:52Z</time>
      </trkpt>
      <trkpt lat="42.74884" lon="1.86446">
        <ele>1662</ele>
        <time>2016-11-12T13:56:57Z</time>
      </trkpt>
      <trkpt lat="42.74885" lon="1.86445">
        <ele>1662</ele>
        <time>2016-11-12T13:57:02Z</time>
      </trkpt>
      <trkpt lat="42.74885" lon="1.86445">
        <ele>1662</ele>
        <time>2016-11-12T13:57:07Z</time>
      </trkpt>
      <trkpt lat="42.74885" lon="1.86445">
        <ele>1662</ele>
        <time>2016-11-12T13:57:12Z</time>
      </trkpt>
      <trkpt lat="42.74883" lon="1.86446">
        <ele>1662</ele>
        <time>2016-11-12T13:57:17Z</time>
      </trkpt>
      <trkpt lat="42.74883" lon="1.86446">
        <ele>1662</ele>
        <time>2016-11-12T13:57:22Z</time>
      </trkpt>
      <trkpt lat="42.74883" lon="1.86445">
        <ele>1662</ele>
        <time>2016-11-12T13:57:27Z</time>
      </trkpt>
      <trkpt lat="42.74883" lon="1.86441">
        <ele>1662</ele>
        <time>2016-11-12T13:57:32Z</time>
      </trkpt>
      <trkpt lat="42.74884" lon="1.86437">
        <ele>1662</ele>
        <time>2016-11-12T13:57:37Z</time>
      </trkpt>
      <trkpt lat="42.74886" lon="1.86435">
        <ele>1662</ele>
        <time>2016-11-12T13:57:42Z</time>
      </trkpt>
      <trkpt lat="42.74886" lon="1.86435">
        <ele>1662</ele>
        <time>2016-11-12T13:57:47Z</time>
      </trkpt>
      <trkpt lat="42.74885" lon="1.86434">
        <ele>1662</ele>
        <time>2016-11-12T13:57:52Z</time>
      </trkpt>
      <trkpt lat="42.74886" lon="1.8643">
        <ele>1662</ele>
        <time>2016-11-12T13:57:57Z</time>
      </trkpt>
      <trkpt lat="42.74885" lon="1.86428">
        <ele>1662</ele>
        <time>2016-11-12T13:58:02Z</time>
      </trkpt>
      <trkpt lat="42.74885" lon="1.86424">
        <ele>1662</ele>
        <time>2016-11-12T13:58:07Z</time>
      </trkpt>
      <trkpt lat="42.74885" lon="1.86419">
        <ele>1662</ele>
        <time>2016-11-12T13:58:12Z</time>
      </trkpt>
      <trkpt lat="42.74886" lon="1.86414">
        <ele>1662</ele>
        <time>2016-11-12T13:58:17Z</time>
      </trkpt>
      <trkpt lat="42.74889" lon="1.8641">
        <ele>1662</ele>
        <time>2016-11-12T13:58:22Z</time>
      </trkpt>
      <trkpt lat="42.74891" lon="1.86407">
        <ele>1662</ele>
        <time>2016-11-12T13:58:27Z</time>
      </trkpt>
      <trkpt lat="42.74892" lon="1.86403">
        <ele>1662</ele>
        <time>2016-11-12T13:58:32Z</time>
      </trkpt>
      <trkpt lat="42.74895" lon="1.86399">
        <ele>1662</ele>
        <time>2016-11-12T13:58:37Z</time>
      </trkpt>
      <trkpt lat="42.74896" lon="1.86397">
        <ele>1662</ele>
        <time>2016-11-12T13:58:42Z</time>
      </trkpt>
      <trkpt lat="42.74897" lon="1.86394">
        <ele>1662</ele>
        <time>2016-11-12T13:58:47Z</time>
      </trkpt>
      <trkpt lat="42.74897" lon="1.86389">
        <ele>1662</ele>
        <time>2016-11-12T13:58:52Z</time>
      </trkpt>
      <trkpt lat="42.74899" lon="1.86385">
        <ele>1662</ele>
        <time>2016-11-12T13:58:57Z</time>
      </trkpt>
      <trkpt lat="42.74904" lon="1.86381">
        <ele>1662</ele>
        <time>2016-11-12T13:59:02Z</time>
      </trkpt>
      <trkpt lat="42.74906" lon="1.86376">
        <ele>1662</ele>
        <time>2016-11-12T13:59:07Z</time>
      </trkpt>
      <trkpt lat="42.74907" lon="1.86373">
        <ele>1641</ele>
        <time>2016-11-12T13:59:12Z</time>
      </trkpt>
      <trkpt lat="42.74908" lon="1.8637">
        <ele>1641</ele>
        <time>2016-11-12T13:59:17Z</time>
      </trkpt>
      <trkpt lat="42.74908" lon="1.86368">
        <ele>1641</ele>
        <time>2016-11-12T13:59:22Z</time>
      </trkpt>
      <trkpt lat="42.74909" lon="1.86367">
        <ele>1641</ele>
        <time>2016-11-12T13:59:27Z</time>
      </trkpt>
      <trkpt lat="42.74912" lon="1.86363">
        <ele>1641</ele>
        <time>2016-11-12T13:59:32Z</time>
      </trkpt>
      <trkpt lat="42.74914" lon="1.86361">
        <ele>1641</ele>
        <time>2016-11-12T13:59:37Z</time>
      </trkpt>
      <trkpt lat="42.74919" lon="1.86361">
        <ele>1641</ele>
        <time>2016-11-12T13:59:42Z</time>
      </trkpt>
      <trkpt lat="42.74923" lon="1.86361">
        <ele>1641</ele>
        <time>2016-11-12T13:59:47Z</time>
      </trkpt>
      <trkpt lat="42.74928" lon="1.86362">
        <ele>1641</ele>
        <time>2016-11-12T13:59:52Z</time>
      </trkpt>
      <trkpt lat="42.74933" lon="1.86363">
        <ele>1641</ele>
        <time>2016-11-12T13:59:57Z</time>
      </trkpt>
      <trkpt lat="42.74939" lon="1.86363">
        <ele>1641</ele>
        <time>2016-11-12T14:00:02Z</time>
      </trkpt>
      <trkpt lat="42.74945" lon="1.86362">
        <ele>1641</ele>
        <time>2016-11-12T14:00:07Z</time>
      </trkpt>
      <trkpt lat="42.74948" lon="1.86362">
        <ele>1641</ele>
        <time>2016-11-12T14:00:12Z</time>
      </trkpt>
      <trkpt lat="42.74954" lon="1.86365">
        <ele>1641</ele>
        <time>2016-11-12T14:00:17Z</time>
      </trkpt>
      <trkpt lat="42.74962" lon="1.86368">
        <ele>1621</ele>
        <time>2016-11-12T14:00:22Z</time>
      </trkpt>
      <trkpt lat="42.74964" lon="1.86375">
        <ele>1621</ele>
        <time>2016-11-12T14:00:27Z</time>
      </trkpt>
      <trkpt lat="42.7497" lon="1.86382">
        <ele>1636</ele>
        <time>2016-11-12T14:00:32Z</time>
      </trkpt>
      <trkpt lat="42.74977" lon="1.86388">
        <ele>1636</ele>
        <time>2016-11-12T14:00:37Z</time>
      </trkpt>
      <trkpt lat="42.74982" lon="1.86391">
        <ele>1636</ele>
        <time>2016-11-12T14:00:42Z</time>
      </trkpt>
      <trkpt lat="42.74987" lon="1.86395">
        <ele>1636</ele>
        <time>2016-11-12T14:00:47Z</time>
      </trkpt>
      <trkpt lat="42.74992" lon="1.86401">
        <ele>1636</ele>
        <time>2016-11-12T14:00:52Z</time>
      </trkpt>
      <trkpt lat="42.74995" lon="1.86408">
        <ele>1636</ele>
        <time>2016-11-12T14:00:57Z</time>
      </trkpt>
      <trkpt lat="42.74998" lon="1.86416">
        <ele>1636</ele>
        <time>2016-11-12T14:01:02Z</time>
      </trkpt>
      <trkpt lat="42.75" lon="1.86421">
        <ele>1636</ele>
        <time>2016-11-12T14:01:07Z</time>
      </trkpt>
      <trkpt lat="42.75002" lon="1.86422">
        <ele>1636</ele>
        <time>2016-11-12T14:01:12Z</time>
      </trkpt>
      <trkpt lat="42.75005" lon="1.86423">
        <ele>1636</ele>
        <time>2016-11-12T14:01:17Z</time>
      </trkpt>
      <trkpt lat="42.75006" lon="1.86425">
        <ele>1636</ele>
        <time>2016-11-12T14:01:22Z</time>
      </trkpt>
      <trkpt lat="42.75009" lon="1.8643">
        <ele>1636</ele>
        <time>2016-11-12T14:01:27Z</time>
      </trkpt>
      <trkpt lat="42.75008" lon="1.86434">
        <ele>1636</ele>
        <time>2016-11-12T14:01:32Z</time>
      </trkpt>
      <trkpt lat="42.7501" lon="1.86442">
        <ele>1636</ele>
        <time>2016-11-12T14:01:37Z</time>
      </trkpt>
      <trkpt lat="42.7501" lon="1.86446">
        <ele>1636</ele>
        <time>2016-11-12T14:01:42Z</time>
      </trkpt>
      <trkpt lat="42.75016" lon="1.86452">
        <ele>1636</ele>
        <time>2016-11-12T14:01:47Z</time>
      </trkpt>
      <trkpt lat="42.75023" lon="1.86454">
        <ele>1636</ele>
        <time>2016-11-12T14:01:52Z</time>
      </trkpt>
      <trkpt lat="42.7503" lon="1.86454">
        <ele>1636</ele>
        <time>2016-11-12T14:01:57Z</time>
      </trkpt>
      <trkpt lat="42.75036" lon="1.86452">
        <ele>1636</ele>
        <time>2016-11-12T14:02:02Z</time>
      </trkpt>
      <trkpt lat="42.7504" lon="1.86451">
        <ele>1636</ele>
        <time>2016-11-12T14:02:07Z</time>
      </trkpt>
      <trkpt lat="42.75041" lon="1.86449">
        <ele>1636</ele>
        <time>2016-11-12T14:02:12Z</time>
      </trkpt>
      <trkpt lat="42.75042" lon="1.86443">
        <ele>1609</ele>
        <time>2016-11-12T14:02:17Z</time>
      </trkpt>
      <trkpt lat="42.75044" lon="1.86436">
        <ele>1609</ele>
        <time>2016-11-12T14:02:22Z</time>
      </trkpt>
      <trkpt lat="42.75046" lon="1.86431">
        <ele>1609</ele>
        <time>2016-11-12T14:02:27Z</time>
      </trkpt>
      <trkpt lat="42.75046" lon="1.86425">
        <ele>1609</ele>
        <time>2016-11-12T14:02:32Z</time>
      </trkpt>
      <trkpt lat="42.75041" lon="1.86419">
        <ele>1636</ele>
        <time>2016-11-12T14:02:37Z</time>
      </trkpt>
      <trkpt lat="42.75039" lon="1.86413">
        <ele>1636</ele>
        <time>2016-11-12T14:02:42Z</time>
      </trkpt>
      <trkpt lat="42.75038" lon="1.86406">
        <ele>1636</ele>
        <time>2016-11-12T14:02:47Z</time>
      </trkpt>
      <trkpt lat="42.75035" lon="1.86399">
        <ele>1636</ele>
        <time>2016-11-12T14:02:52Z</time>
      </trkpt>
      <trkpt lat="42.75034" lon="1.86392">
        <ele>1636</ele>
        <time>2016-11-12T14:02:57Z</time>
      </trkpt>
      <trkpt lat="42.75035" lon="1.86386">
        <ele>1636</ele>
        <time>2016-11-12T14:03:02Z</time>
      </trkpt>
      <trkpt lat="42.75034" lon="1.86379">
        <ele>1636</ele>
        <time>2016-11-12T14:03:07Z</time>
      </trkpt>
      <trkpt lat="42.75034" lon="1.86374">
        <ele>1621</ele>
        <time>2016-11-12T14:03:12Z</time>
      </trkpt>
      <trkpt lat="42.75034" lon="1.86368">
        <ele>1621</ele>
        <time>2016-11-12T14:03:17Z</time>
      </trkpt>
      <trkpt lat="42.75033" lon="1.86361">
        <ele>1621</ele>
        <time>2016-11-12T14:03:22Z</time>
      </trkpt>
      <trkpt lat="42.75029" lon="1.86356">
        <ele>1621</ele>
        <time>2016-11-12T14:03:27Z</time>
      </trkpt>
      <trkpt lat="42.75026" lon="1.86352">
        <ele>1621</ele>
        <time>2016-11-12T14:03:32Z</time>
      </trkpt>
      <trkpt lat="42.75024" lon="1.86346">
        <ele>1621</ele>
        <time>2016-11-12T14:03:37Z</time>
      </trkpt>
      <trkpt lat="42.75022" lon="1.8634">
        <ele>1621</ele>
        <time>2016-11-12T14:03:42Z</time>
      </trkpt>
      <trkpt lat="42.75017" lon="1.86334">
        <ele>1621</ele>
        <time>2016-11-12T14:03:47Z</time>
      </trkpt>
      <trkpt lat="42.75013" lon="1.86329">
        <ele>1621</ele>
        <time>2016-11-12T14:03:52Z</time>
      </trkpt>
      <trkpt lat="42.75009" lon="1.86323">
        <ele>1621</ele>
        <time>2016-11-12T14:03:57Z</time>
      </trkpt>
      <trkpt lat="42.75005" lon="1.86318">
        <ele>1621</ele>
        <time>2016-11-12T14:04:02Z</time>
      </trkpt>
      <trkpt lat="42.75" lon="1.86311">
        <ele>1621</ele>
        <time>2016-11-12T14:04:07Z</time>
      </trkpt>
      <trkpt lat="42.74994" lon="1.86307">
        <ele>1621</ele>
        <time>2016-11-12T14:04:12Z</time>
      </trkpt>
      <trkpt lat="42.7499" lon="1.86302">
        <ele>1621</ele>
        <time>2016-11-12T14:04:17Z</time>
      </trkpt>
      <trkpt lat="42.74986" lon="1.863">
        <ele>1621</ele>
        <time>2016-11-12T14:04:22Z</time>
      </trkpt>
      <trkpt lat="42.74983" lon="1.86298">
        <ele>1621</ele>
        <time>2016-11-12T14:04:27Z</time>
      </trkpt>
      <trkpt lat="42.74981" lon="1.86296">
        <ele>1621</ele>
        <time>2016-11-12T14:04:32Z</time>
      </trkpt>
      <trkpt lat="42.74981" lon="1.86296">
        <ele>1621</ele>
        <time>2016-11-12T14:04:37Z</time>
      </trkpt>
      <trkpt lat="42.74981" lon="1.86295">
        <ele>1621</ele>
        <time>2016-11-12T14:04:42Z</time>
      </trkpt>
      <trkpt lat="42.74979" lon="1.86295">
        <ele>1621</ele>
        <time>2016-11-12T14:04:47Z</time>
      </trkpt>
      <trkpt lat="42.74975" lon="1.86292">
        <ele>1621</ele>
        <time>2016-11-12T14:04:52Z</time>
      </trkpt>
      <trkpt lat="42.74972" lon="1.86286">
        <ele>1602</ele>
        <time>2016-11-12T14:04:57Z</time>
      </trkpt>
      <trkpt lat="42.74968" lon="1.86281">
        <ele>1602</ele>
        <time>2016-11-12T14:05:02Z</time>
      </trkpt>
      <trkpt lat="42.74964" lon="1.86276">
        <ele>1602</ele>
        <time>2016-11-12T14:05:07Z</time>
      </trkpt>
      <trkpt lat="42.74959" lon="1.86273">
        <ele>1602</ele>
        <time>2016-11-12T14:05:12Z</time>
      </trkpt>
      <trkpt lat="42.74953" lon="1.86268">
        <ele>1617</ele>
        <time>2016-11-12T14:05:17Z</time>
      </trkpt>
      <trkpt lat="42.74948" lon="1.86265">
        <ele>1617</ele>
        <time>2016-11-12T14:05:22Z</time>
      </trkpt>
      <trkpt lat="42.74942" lon="1.86261">
        <ele>1617</ele>
        <time>2016-11-12T14:05:27Z</time>
      </trkpt>
      <trkpt lat="42.74936" lon="1.86254">
        <ele>1617</ele>
        <time>2016-11-12T14:05:32Z</time>
      </trkpt>
      <trkpt lat="42.7493" lon="1.8625">
        <ele>1617</ele>
        <time>2016-11-12T14:05:37Z</time>
      </trkpt>
      <trkpt lat="42.74925" lon="1.86246">
        <ele>1617</ele>
        <time>2016-11-12T14:05:42Z</time>
      </trkpt>
      <trkpt lat="42.7492" lon="1.86243">
        <ele>1617</ele>
        <time>2016-11-12T14:05:47Z</time>
      </trkpt>
      <trkpt lat="42.74916" lon="1.8624">
        <ele>1617</ele>
        <time>2016-11-12T14:05:52Z</time>
      </trkpt>
      <trkpt lat="42.7491" lon="1.86237">
        <ele>1617</ele>
        <time>2016-11-12T14:05:57Z</time>
      </trkpt>
      <trkpt lat="42.74905" lon="1.86234">
        <ele>1617</ele>
        <time>2016-11-12T14:06:02Z</time>
      </trkpt>
      <trkpt lat="42.74901" lon="1.86233">
        <ele>1617</ele>
        <time>2016-11-12T14:06:07Z</time>
      </trkpt>
      <trkpt lat="42.74896" lon="1.86229">
        <ele>1617</ele>
        <time>2016-11-12T14:06:12Z</time>
      </trkpt>
      <trkpt lat="42.74891" lon="1.86226">
        <ele>1617</ele>
        <time>2016-11-12T14:06:17Z</time>
      </trkpt>
      <trkpt lat="42.74885" lon="1.86225">
        <ele>1617</ele>
        <time>2016-11-12T14:06:22Z</time>
      </trkpt>
      <trkpt lat="42.74881" lon="1.86224">
        <ele>1617</ele>
        <time>2016-11-12T14:06:27Z</time>
      </trkpt>
      <trkpt lat="42.74875" lon="1.86221">
        <ele>1621</ele>
        <time>2016-11-12T14:06:32Z</time>
      </trkpt>
      <trkpt lat="42.74867" lon="1.8622">
        <ele>1621</ele>
        <time>2016-11-12T14:06:37Z</time>
      </trkpt>
      <trkpt lat="42.74862" lon="1.86219">
        <ele>1621</ele>
        <time>2016-11-12T14:06:42Z</time>
      </trkpt>
      <trkpt lat="42.74856" lon="1.86217">
        <ele>1621</ele>
        <time>2016-11-12T14:06:47Z</time>
      </trkpt>
      <trkpt lat="42.7485" lon="1.86215">
        <ele>1621</ele>
        <time>2016-11-12T14:06:52Z</time>
      </trkpt>
      <trkpt lat="42.74843" lon="1.86213">
        <ele>1621</ele>
        <time>2016-11-12T14:06:57Z</time>
      </trkpt>
      <trkpt lat="42.74837" lon="1.86213">
        <ele>1621</ele>
        <time>2016-11-12T14:07:02Z</time>
      </trkpt>
      <trkpt lat="42.74831" lon="1.86213">
        <ele>1621</ele>
        <time>2016-11-12T14:07:07Z</time>
      </trkpt>
      <trkpt lat="42.74823" lon="1.86216">
        <ele>1621</ele>
        <time>2016-11-12T14:07:12Z</time>
      </trkpt>
      <trkpt lat="42.74818" lon="1.86218">
        <ele>1621</ele>
        <time>2016-11-12T14:07:17Z</time>
      </trkpt>
      <trkpt lat="42.74812" lon="1.8622">
        <ele>1621</ele>
        <time>2016-11-12T14:07:22Z</time>
      </trkpt>
      <trkpt lat="42.74806" lon="1.86218">
        <ele>1621</ele>
        <time>2016-11-12T14:07:27Z</time>
      </trkpt>
      <trkpt lat="42.748" lon="1.86218">
        <ele>1621</ele>
        <time>2016-11-12T14:07:32Z</time>
      </trkpt>
      <trkpt lat="42.74793" lon="1.86218">
        <ele>1621</ele>
        <time>2016-11-12T14:07:37Z</time>
      </trkpt>
      <trkpt lat="42.74787" lon="1.86218">
        <ele>1629</ele>
        <time>2016-11-12T14:07:42Z</time>
      </trkpt>
      <trkpt lat="42.74782" lon="1.86216">
        <ele>1629</ele>
        <time>2016-11-12T14:07:47Z</time>
      </trkpt>
      <trkpt lat="42.74776" lon="1.86215">
        <ele>1629</ele>
        <time>2016-11-12T14:07:52Z</time>
      </trkpt>
      <trkpt lat="42.74769" lon="1.86212">
        <ele>1629</ele>
        <time>2016-11-12T14:07:57Z</time>
      </trkpt>
      <trkpt lat="42.74765" lon="1.86209">
        <ele>1629</ele>
        <time>2016-11-12T14:08:02Z</time>
      </trkpt>
      <trkpt lat="42.74759" lon="1.86205">
        <ele>1603</ele>
        <time>2016-11-12T14:08:07Z</time>
      </trkpt>
      <trkpt lat="42.74754" lon="1.862">
        <ele>1603</ele>
        <time>2016-11-12T14:08:12Z</time>
      </trkpt>
      <trkpt lat="42.74751" lon="1.86192">
        <ele>1603</ele>
        <time>2016-11-12T14:08:17Z</time>
      </trkpt>
      <trkpt lat="42.74746" lon="1.86186">
        <ele>1603</ele>
        <time>2016-11-12T14:08:22Z</time>
      </trkpt>
      <trkpt lat="42.74741" lon="1.86179">
        <ele>1603</ele>
        <time>2016-11-12T14:08:27Z</time>
      </trkpt>
      <trkpt lat="42.74736" lon="1.86173">
        <ele>1603</ele>
        <time>2016-11-12T14:08:32Z</time>
      </trkpt>
      <trkpt lat="42.74732" lon="1.86167">
        <ele>1603</ele>
        <time>2016-11-12T14:08:37Z</time>
      </trkpt>
      <trkpt lat="42.74729" lon="1.8616">
        <ele>1603</ele>
        <time>2016-11-12T14:08:42Z</time>
      </trkpt>
      <trkpt lat="42.74726" lon="1.86152">
        <ele>1603</ele>
        <time>2016-11-12T14:08:47Z</time>
      </trkpt>
      <trkpt lat="42.74724" lon="1.86144">
        <ele>1603</ele>
        <time>2016-11-12T14:08:52Z</time>
      </trkpt>
      <trkpt lat="42.7472" lon="1.86137">
        <ele>1603</ele>
        <time>2016-11-12T14:08:57Z</time>
      </trkpt>
      <trkpt lat="42.74716" lon="1.86132">
        <ele>1603</ele>
        <time>2016-11-12T14:09:02Z</time>
      </trkpt>
      <trkpt lat="42.74714" lon="1.86124">
        <ele>1583</ele>
        <time>2016-11-12T14:09:07Z</time>
      </trkpt>
      <trkpt lat="42.7471" lon="1.86117">
        <ele>1583</ele>
        <time>2016-11-12T14:09:12Z</time>
      </trkpt>
      <trkpt lat="42.74708" lon="1.86109">
        <ele>1583</ele>
        <time>2016-11-12T14:09:17Z</time>
      </trkpt>
      <trkpt lat="42.74705" lon="1.86103">
        <ele>1607</ele>
        <time>2016-11-12T14:09:22Z</time>
      </trkpt>
      <trkpt lat="42.74705" lon="1.861">
        <ele>1607</ele>
        <time>2016-11-12T14:09:27Z</time>
      </trkpt>
      <trkpt lat="42.74704" lon="1.86096">
        <ele>1607</ele>
        <time>2016-11-12T14:09:32Z</time>
      </trkpt>
      <trkpt lat="42.74701" lon="1.86088">
        <ele>1607</ele>
        <time>2016-11-12T14:09:37Z</time>
      </trkpt>
      <trkpt lat="42.74698" lon="1.86082">
        <ele>1607</ele>
        <time>2016-11-12T14:09:42Z</time>
      </trkpt>
      <trkpt lat="42.74697" lon="1.86081">
        <ele>1607</ele>
        <time>2016-11-12T14:09:47Z</time>
      </trkpt>
      <trkpt lat="42.74697" lon="1.8608">
        <ele>1607</ele>
        <time>2016-11-12T14:09:52Z</time>
      </trkpt>
      <trkpt lat="42.74697" lon="1.86081">
        <ele>1607</ele>
        <time>2016-11-12T14:09:57Z</time>
      </trkpt>
      <trkpt lat="42.74695" lon="1.86077">
        <ele>1607</ele>
        <time>2016-11-12T14:10:02Z</time>
      </trkpt>
      <trkpt lat="42.74692" lon="1.86072">
        <ele>1607</ele>
        <time>2016-11-12T14:10:07Z</time>
      </trkpt>
      <trkpt lat="42.74686" lon="1.86069">
        <ele>1607</ele>
        <time>2016-11-12T14:10:12Z</time>
      </trkpt>
      <trkpt lat="42.74679" lon="1.86067">
        <ele>1607</ele>
        <time>2016-11-12T14:10:17Z</time>
      </trkpt>
      <trkpt lat="42.74675" lon="1.86064">
        <ele>1607</ele>
        <time>2016-11-12T14:10:22Z</time>
      </trkpt>
      <trkpt lat="42.74668" lon="1.8606">
        <ele>1607</ele>
        <time>2016-11-12T14:10:27Z</time>
      </trkpt>
      <trkpt lat="42.74665" lon="1.86056">
        <ele>1607</ele>
        <time>2016-11-12T14:10:32Z</time>
      </trkpt>
      <trkpt lat="42.74659" lon="1.86051">
        <ele>1607</ele>
        <time>2016-11-12T14:10:37Z</time>
      </trkpt>
      <trkpt lat="42.74655" lon="1.86045">
        <ele>1607</ele>
        <time>2016-11-12T14:10:42Z</time>
      </trkpt>
      <trkpt lat="42.7465" lon="1.86042">
        <ele>1607</ele>
        <time>2016-11-12T14:10:47Z</time>
      </trkpt>
      <trkpt lat="42.74645" lon="1.86038">
        <ele>1577</ele>
        <time>2016-11-12T14:10:52Z</time>
      </trkpt>
      <trkpt lat="42.7464" lon="1.86034">
        <ele>1577</ele>
        <time>2016-11-12T14:10:57Z</time>
      </trkpt>
      <trkpt lat="42.74635" lon="1.86031">
        <ele>1577</ele>
        <time>2016-11-12T14:11:02Z</time>
      </trkpt>
      <trkpt lat="42.74631" lon="1.86028">
        <ele>1577</ele>
        <time>2016-11-12T14:11:07Z</time>
      </trkpt>
      <trkpt lat="42.74625" lon="1.86023">
        <ele>1595</ele>
        <time>2016-11-12T14:11:12Z</time>
      </trkpt>
      <trkpt lat="42.7462" lon="1.8602">
        <ele>1595</ele>
        <time>2016-11-12T14:11:17Z</time>
      </trkpt>
      <trkpt lat="42.74616" lon="1.86014">
        <ele>1595</ele>
        <time>2016-11-12T14:11:22Z</time>
      </trkpt>
      <trkpt lat="42.74609" lon="1.8601">
        <ele>1595</ele>
        <time>2016-11-12T14:11:27Z</time>
      </trkpt>
      <trkpt lat="42.74603" lon="1.86009">
        <ele>1595</ele>
        <time>2016-11-12T14:11:32Z</time>
      </trkpt>
      <trkpt lat="42.74597" lon="1.86008">
        <ele>1595</ele>
        <time>2016-11-12T14:11:37Z</time>
      </trkpt>
      <trkpt lat="42.74593" lon="1.86007">
        <ele>1595</ele>
        <time>2016-11-12T14:11:42Z</time>
      </trkpt>
      <trkpt lat="42.74587" lon="1.86006">
        <ele>1595</ele>
        <time>2016-11-12T14:11:47Z</time>
      </trkpt>
      <trkpt lat="42.7458" lon="1.86003">
        <ele>1595</ele>
        <time>2016-11-12T14:11:52Z</time>
      </trkpt>
      <trkpt lat="42.74574" lon="1.86002">
        <ele>1595</ele>
        <time>2016-11-12T14:11:57Z</time>
      </trkpt>
      <trkpt lat="42.74568" lon="1.86002">
        <ele>1595</ele>
        <time>2016-11-12T14:12:02Z</time>
      </trkpt>
      <trkpt lat="42.74563" lon="1.86001">
        <ele>1595</ele>
        <time>2016-11-12T14:12:07Z</time>
      </trkpt>
      <trkpt lat="42.74558" lon="1.86">
        <ele>1595</ele>
        <time>2016-11-12T14:12:12Z</time>
      </trkpt>
      <trkpt lat="42.74555" lon="1.86001">
        <ele>1595</ele>
        <time>2016-11-12T14:12:17Z</time>
      </trkpt>
      <trkpt lat="42.74549" lon="1.86002">
        <ele>1595</ele>
        <time>2016-11-12T14:12:22Z</time>
      </trkpt>
      <trkpt lat="42.74542" lon="1.86">
        <ele>1595</ele>
        <time>2016-11-12T14:12:27Z</time>
      </trkpt>
      <trkpt lat="42.74536" lon="1.86001">
        <ele>1589</ele>
        <time>2016-11-12T14:12:32Z</time>
      </trkpt>
      <trkpt lat="42.74529" lon="1.86001">
        <ele>1589</ele>
        <time>2016-11-12T14:12:37Z</time>
      </trkpt>
      <trkpt lat="42.74525" lon="1.86002">
        <ele>1589</ele>
        <time>2016-11-12T14:12:42Z</time>
      </trkpt>
      <trkpt lat="42.7452" lon="1.86002">
        <ele>1589</ele>
        <time>2016-11-12T14:12:47Z</time>
      </trkpt>
      <trkpt lat="42.74515" lon="1.86002">
        <ele>1589</ele>
        <time>2016-11-12T14:12:52Z</time>
      </trkpt>
      <trkpt lat="42.74508" lon="1.86004">
        <ele>1589</ele>
        <time>2016-11-12T14:12:57Z</time>
      </trkpt>
      <trkpt lat="42.74501" lon="1.86007">
        <ele>1589</ele>
        <time>2016-11-12T14:13:02Z</time>
      </trkpt>
      <trkpt lat="42.74494" lon="1.86007">
        <ele>1589</ele>
        <time>2016-11-12T14:13:07Z</time>
      </trkpt>
      <trkpt lat="42.7449" lon="1.86009">
        <ele>1589</ele>
        <time>2016-11-12T14:13:12Z</time>
      </trkpt>
      <trkpt lat="42.74484" lon="1.86013">
        <ele>1589</ele>
        <time>2016-11-12T14:13:17Z</time>
      </trkpt>
      <trkpt lat="42.74481" lon="1.86016">
        <ele>1589</ele>
        <time>2016-11-12T14:13:22Z</time>
      </trkpt>
      <trkpt lat="42.74473" lon="1.86021">
        <ele>1589</ele>
        <time>2016-11-12T14:13:27Z</time>
      </trkpt>
      <trkpt lat="42.74467" lon="1.86023">
        <ele>1589</ele>
        <time>2016-11-12T14:13:32Z</time>
      </trkpt>
      <trkpt lat="42.7446" lon="1.86027">
        <ele>1589</ele>
        <time>2016-11-12T14:13:37Z</time>
      </trkpt>
      <trkpt lat="42.74453" lon="1.86032">
        <ele>1578</ele>
        <time>2016-11-12T14:13:42Z</time>
      </trkpt>
      <trkpt lat="42.74445" lon="1.86036">
        <ele>1578</ele>
        <time>2016-11-12T14:13:47Z</time>
      </trkpt>
      <trkpt lat="42.74439" lon="1.86042">
        <ele>1591</ele>
        <time>2016-11-12T14:13:52Z</time>
      </trkpt>
      <trkpt lat="42.74432" lon="1.86046">
        <ele>1591</ele>
        <time>2016-11-12T14:13:57Z</time>
      </trkpt>
      <trkpt lat="42.74426" lon="1.86048">
        <ele>1591</ele>
        <time>2016-11-12T14:14:02Z</time>
      </trkpt>
      <trkpt lat="42.74419" lon="1.86051">
        <ele>1591</ele>
        <time>2016-11-12T14:14:07Z</time>
      </trkpt>
      <trkpt lat="42.74414" lon="1.86054">
        <ele>1591</ele>
        <time>2016-11-12T14:14:12Z</time>
      </trkpt>
      <trkpt lat="42.74409" lon="1.86057">
        <ele>1591</ele>
        <time>2016-11-12T14:14:17Z</time>
      </trkpt>
      <trkpt lat="42.74403" lon="1.86061">
        <ele>1591</ele>
        <time>2016-11-12T14:14:22Z</time>
      </trkpt>
      <trkpt lat="42.74396" lon="1.86066">
        <ele>1591</ele>
        <time>2016-11-12T14:14:27Z</time>
      </trkpt>
      <trkpt lat="42.7439" lon="1.86071">
        <ele>1591</ele>
        <time>2016-11-12T14:14:32Z</time>
      </trkpt>
      <trkpt lat="42.74385" lon="1.86075">
        <ele>1591</ele>
        <time>2016-11-12T14:14:37Z</time>
      </trkpt>
      <trkpt lat="42.7438" lon="1.86077">
        <ele>1591</ele>
        <time>2016-11-12T14:14:42Z</time>
      </trkpt>
      <trkpt lat="42.74375" lon="1.86082">
        <ele>1591</ele>
        <time>2016-11-12T14:14:47Z</time>
      </trkpt>
      <trkpt lat="42.7437" lon="1.86086">
        <ele>1579</ele>
        <time>2016-11-12T14:14:52Z</time>
      </trkpt>
      <trkpt lat="42.74365" lon="1.86089">
        <ele>1579</ele>
        <time>2016-11-12T14:14:57Z</time>
      </trkpt>
      <trkpt lat="42.74361" lon="1.86089">
        <ele>1579</ele>
        <time>2016-11-12T14:15:02Z</time>
      </trkpt>
      <trkpt lat="42.74356" lon="1.86089">
        <ele>1579</ele>
        <time>2016-11-12T14:15:07Z</time>
      </trkpt>
      <trkpt lat="42.74356" lon="1.86088">
        <ele>1579</ele>
        <time>2016-11-12T14:15:12Z</time>
      </trkpt>
      <trkpt lat="42.74356" lon="1.86088">
        <ele>1579</ele>
        <time>2016-11-12T14:15:17Z</time>
      </trkpt>
      <trkpt lat="42.74358" lon="1.86091">
        <ele>1579</ele>
        <time>2016-11-12T14:15:22Z</time>
      </trkpt>
      <trkpt lat="42.74358" lon="1.8609">
        <ele>1579</ele>
        <time>2016-11-12T14:15:27Z</time>
      </trkpt>
      <trkpt lat="42.74363" lon="1.86086">
        <ele>1579</ele>
        <time>2016-11-12T14:15:32Z</time>
      </trkpt>
      <trkpt lat="42.74363" lon="1.86086">
        <ele>1579</ele>
        <time>2016-11-12T14:15:37Z</time>
      </trkpt>
      <trkpt lat="42.74362" lon="1.86087">
        <ele>1579</ele>
        <time>2016-11-12T14:15:42Z</time>
      </trkpt>
      <trkpt lat="42.74361" lon="1.86085">
        <ele>1579</ele>
        <time>2016-11-12T14:15:47Z</time>
      </trkpt>
      <trkpt lat="42.74361" lon="1.86086">
        <ele>1579</ele>
        <time>2016-11-12T14:15:52Z</time>
      </trkpt>
      <trkpt lat="42.74361" lon="1.86086">
        <ele>1579</ele>
        <time>2016-11-12T14:15:57Z</time>
      </trkpt>
      <trkpt lat="42.74361" lon="1.86086">
        <ele>1579</ele>
        <time>2016-11-12T14:16:02Z</time>
      </trkpt>
      <trkpt lat="42.74361" lon="1.86085">
        <ele>1579</ele>
        <time>2016-11-12T14:16:07Z</time>
      </trkpt>
      <trkpt lat="42.74361" lon="1.86085">
        <ele>1579</ele>
        <time>2016-11-12T14:16:12Z</time>
      </trkpt>
      <trkpt lat="42.74361" lon="1.86086">
        <ele>1579</ele>
        <time>2016-11-12T14:16:17Z</time>
      </trkpt>
      <trkpt lat="42.74361" lon="1.86086">
        <ele>1579</ele>
        <time>2016-11-12T14:16:22Z</time>
      </trkpt>
      <trkpt lat="42.74361" lon="1.86086">
        <ele>1579</ele>
        <time>2016-11-12T14:16:27Z</time>
      </trkpt>
      <trkpt lat="42.74361" lon="1.86087">
        <ele>1579</ele>
        <time>2016-11-12T14:16:32Z</time>
      </trkpt>
      <trkpt lat="42.74361" lon="1.86087">
        <ele>1579</ele>
        <time>2016-11-12T14:16:37Z</time>
      </trkpt>
      <trkpt lat="42.74361" lon="1.86088">
        <ele>1579</ele>
        <time>2016-11-12T14:16:42Z</time>
      </trkpt>
      <trkpt lat="42.74361" lon="1.86088">
        <ele>1579</ele>
        <time>2016-11-12T14:16:47Z</time>
      </trkpt>
      <trkpt lat="42.74361" lon="1.86088">
        <ele>1579</ele>
        <time>2016-11-12T14:16:52Z</time>
      </trkpt>
      <trkpt lat="42.7436" lon="1.86088">
        <ele>1579</ele>
        <time>2016-11-12T14:16:57Z</time>
      </trkpt>
      <trkpt lat="42.7436" lon="1.86088">
        <ele>1579</ele>
        <time>2016-11-12T14:17:02Z</time>
      </trkpt>
      <trkpt lat="42.7436" lon="1.86089">
        <ele>1579</ele>
        <time>2016-11-12T14:17:07Z</time>
      </trkpt>
      <trkpt lat="42.74359" lon="1.86089">
        <ele>1579</ele>
        <time>2016-11-12T14:17:12Z</time>
      </trkpt>
      <trkpt lat="42.74359" lon="1.86091">
        <ele>1579</ele>
        <time>2016-11-12T14:17:17Z</time>
      </trkpt>
      <trkpt lat="42.74357" lon="1.86093">
        <ele>1579</ele>
        <time>2016-11-12T14:17:22Z</time>
      </trkpt>
      <trkpt lat="42.74357" lon="1.86094">
        <ele>1579</ele>
        <time>2016-11-12T14:17:27Z</time>
      </trkpt>
      <trkpt lat="42.74357" lon="1.86094">
        <ele>1579</ele>
        <time>2016-11-12T14:17:32Z</time>
      </trkpt>
      <trkpt lat="42.74357" lon="1.86095">
        <ele>1579</ele>
        <time>2016-11-12T14:17:37Z</time>
      </trkpt>
      <trkpt lat="42.74357" lon="1.86095">
        <ele>1579</ele>
        <time>2016-11-12T14:17:42Z</time>
      </trkpt>
      <trkpt lat="42.74357" lon="1.86095">
        <ele>1579</ele>
        <time>2016-11-12T14:17:47Z</time>
      </trkpt>
      <trkpt lat="42.74357" lon="1.86095">
        <ele>1579</ele>
        <time>2016-11-12T14:17:52Z</time>
      </trkpt>
      <trkpt lat="42.74357" lon="1.86095">
        <ele>1579</ele>
        <time>2016-11-12T14:17:57Z</time>
      </trkpt>
      <trkpt lat="42.74358" lon="1.86094">
        <ele>1579</ele>
        <time>2016-11-12T14:18:02Z</time>
      </trkpt>
      <trkpt lat="42.74358" lon="1.86094">
        <ele>1579</ele>
        <time>2016-11-12T14:18:07Z</time>
      </trkpt>
      <trkpt lat="42.74358" lon="1.86094">
        <ele>1579</ele>
        <time>2016-11-12T14:18:12Z</time>
      </trkpt>
      <trkpt lat="42.74358" lon="1.86093">
        <ele>1579</ele>
        <time>2016-11-12T14:18:17Z</time>
      </trkpt>
      <trkpt lat="42.74358" lon="1.86091">
        <ele>1579</ele>
        <time>2016-11-12T14:18:22Z</time>
      </trkpt>
      <trkpt lat="42.74358" lon="1.86086">
        <ele>1579</ele>
        <time>2016-11-12T14:18:27Z</time>
      </trkpt>
      <trkpt lat="42.74358" lon="1.86086">
        <ele>1579</ele>
        <time>2016-11-12T14:18:32Z</time>
      </trkpt>
      <trkpt lat="42.74358" lon="1.86085">
        <ele>1579</ele>
        <time>2016-11-12T14:18:37Z</time>
      </trkpt>
      <trkpt lat="42.74358" lon="1.86085">
        <ele>1579</ele>
        <time>2016-11-12T14:18:42Z</time>
      </trkpt>
      <trkpt lat="42.74358" lon="1.86084">
        <ele>1579</ele>
        <time>2016-11-12T14:18:47Z</time>
      </trkpt>
      <trkpt lat="42.74358" lon="1.86084">
        <ele>1579</ele>
        <time>2016-11-12T14:18:52Z</time>
      </trkpt>
      <trkpt lat="42.74359" lon="1.86084">
        <ele>1579</ele>
        <time>2016-11-12T14:18:57Z</time>
      </trkpt>
      <trkpt lat="42.74359" lon="1.86083">
        <ele>1579</ele>
        <time>2016-11-12T14:19:02Z</time>
      </trkpt>
      <trkpt lat="42.74361" lon="1.86086">
        <ele>1579</ele>
        <time>2016-11-12T14:19:07Z</time>
      </trkpt>
      <trkpt lat="42.74361" lon="1.86086">
        <ele>1579</ele>
        <time>2016-11-12T14:19:12Z</time>
      </trkpt>
      <trkpt lat="42.74361" lon="1.86085">
        <ele>1579</ele>
        <time>2016-11-12T14:19:17Z</time>
      </trkpt>
      <trkpt lat="42.74362" lon="1.86085">
        <ele>1579</ele>
        <time>2016-11-12T14:19:22Z</time>
      </trkpt>
      <trkpt lat="42.74362" lon="1.86084">
        <ele>1579</ele>
        <time>2016-11-12T14:19:27Z</time>
      </trkpt>
      <trkpt lat="42.74361" lon="1.86084">
        <ele>1579</ele>
        <time>2016-11-12T14:19:32Z</time>
      </trkpt>
      <trkpt lat="42.74362" lon="1.86083">
        <ele>1579</ele>
        <time>2016-11-12T14:19:37Z</time>
      </trkpt>
      <trkpt lat="42.74361" lon="1.86083">
        <ele>1579</ele>
        <time>2016-11-12T14:19:42Z</time>
      </trkpt>
      <trkpt lat="42.74361" lon="1.86083">
        <ele>1579</ele>
        <time>2016-11-12T14:19:47Z</time>
      </trkpt>
      <trkpt lat="42.74361" lon="1.86083">
        <ele>1579</ele>
        <time>2016-11-12T14:19:52Z</time>
      </trkpt>
      <trkpt lat="42.74361" lon="1.86084">
        <ele>1579</ele>
        <time>2016-11-12T14:19:57Z</time>
      </trkpt>
      <trkpt lat="42.74361" lon="1.86084">
        <ele>1579</ele>
        <time>2016-11-12T14:20:02Z</time>
      </trkpt>
      <trkpt lat="42.74361" lon="1.86084">
        <ele>1579</ele>
        <time>2016-11-12T14:20:07Z</time>
      </trkpt>
      <trkpt lat="42.74361" lon="1.86084">
        <ele>1579</ele>
        <time>2016-11-12T14:20:12Z</time>
      </trkpt>
      <trkpt lat="42.7436" lon="1.86082">
        <ele>1579</ele>
        <time>2016-11-12T14:20:17Z</time>
      </trkpt>
      <trkpt lat="42.7436" lon="1.86081">
        <ele>1579</ele>
        <time>2016-11-12T14:20:22Z</time>
      </trkpt>
      <trkpt lat="42.7436" lon="1.86081">
        <ele>1579</ele>
        <time>2016-11-12T14:20:27Z</time>
      </trkpt>
      <trkpt lat="42.7436" lon="1.8608">
        <ele>1579</ele>
        <time>2016-11-12T14:20:32Z</time>
      </trkpt>
      <trkpt lat="42.74361" lon="1.8608">
        <ele>1579</ele>
        <time>2016-11-12T14:20:37Z</time>
      </trkpt>
      <trkpt lat="42.74361" lon="1.8608">
        <ele>1579</ele>
        <time>2016-11-12T14:20:42Z</time>
      </trkpt>
      <trkpt lat="42.74362" lon="1.86084">
        <ele>1579</ele>
        <time>2016-11-12T14:20:47Z</time>
      </trkpt>
      <trkpt lat="42.74362" lon="1.86082">
        <ele>1579</ele>
        <time>2016-11-12T14:20:52Z</time>
      </trkpt>
      <trkpt lat="42.74362" lon="1.86081">
        <ele>1579</ele>
        <time>2016-11-12T14:20:57Z</time>
      </trkpt>
      <trkpt lat="42.74362" lon="1.86081">
        <ele>1579</ele>
        <time>2016-11-12T14:21:02Z</time>
      </trkpt>
      <trkpt lat="42.74362" lon="1.86081">
        <ele>1579</ele>
        <time>2016-11-12T14:21:07Z</time>
      </trkpt>
      <trkpt lat="42.74362" lon="1.86081">
        <ele>1579</ele>
        <time>2016-11-12T14:21:12Z</time>
      </trkpt>
      <trkpt lat="42.7436" lon="1.86083">
        <ele>1579</ele>
        <time>2016-11-12T14:21:17Z</time>
      </trkpt>
      <trkpt lat="42.7436" lon="1.86084">
        <ele>1579</ele>
        <time>2016-11-12T14:21:22Z</time>
      </trkpt>
      <trkpt lat="42.7436" lon="1.86084">
        <ele>1579</ele>
        <time>2016-11-12T14:21:27Z</time>
      </trkpt>
      <trkpt lat="42.7436" lon="1.86084">
        <ele>1579</ele>
        <time>2016-11-12T14:21:32Z</time>
      </trkpt>
      <trkpt lat="42.7436" lon="1.86084">
        <ele>1579</ele>
        <time>2016-11-12T14:21:37Z</time>
      </trkpt>
      <trkpt lat="42.74362" lon="1.86084">
        <ele>1579</ele>
        <time>2016-11-12T14:21:42Z</time>
      </trkpt>
      <trkpt lat="42.74362" lon="1.86083">
        <ele>1579</ele>
        <time>2016-11-12T14:21:47Z</time>
      </trkpt>
      <trkpt lat="42.74362" lon="1.86083">
        <ele>1579</ele>
        <time>2016-11-12T14:21:52Z</time>
      </trkpt>
      <trkpt lat="42.74362" lon="1.86084">
        <ele>1579</ele>
        <time>2016-11-12T14:21:57Z</time>
      </trkpt>
      <trkpt lat="42.74362" lon="1.86083">
        <ele>1579</ele>
        <time>2016-11-12T14:22:02Z</time>
      </trkpt>
      <trkpt lat="42.74363" lon="1.86083">
        <ele>1579</ele>
        <time>2016-11-12T14:22:07Z</time>
      </trkpt>
      <trkpt lat="42.74363" lon="1.86082">
        <ele>1579</ele>
        <time>2016-11-12T14:22:12Z</time>
      </trkpt>
      <trkpt lat="42.74363" lon="1.86082">
        <ele>1579</ele>
        <time>2016-11-12T14:22:17Z</time>
      </trkpt>
      <trkpt lat="42.74361" lon="1.8609">
        <ele>1579</ele>
        <time>2016-11-12T14:22:22Z</time>
      </trkpt>
      <trkpt lat="42.74357" lon="1.86096">
        <ele>1579</ele>
        <time>2016-11-12T14:22:27Z</time>
      </trkpt>
      <trkpt lat="42.74352" lon="1.86101">
        <ele>1579</ele>
        <time>2016-11-12T14:22:32Z</time>
      </trkpt>
      <trkpt lat="42.74347" lon="1.86106">
        <ele>1579</ele>
        <time>2016-11-12T14:22:37Z</time>
      </trkpt>
      <trkpt lat="42.74344" lon="1.86109">
        <ele>1579</ele>
        <time>2016-11-12T14:22:42Z</time>
      </trkpt>
      <trkpt lat="42.74341" lon="1.86112">
        <ele>1579</ele>
        <time>2016-11-12T14:22:47Z</time>
      </trkpt>
      <trkpt lat="42.74337" lon="1.86119">
        <ele>1579</ele>
        <time>2016-11-12T14:22:52Z</time>
      </trkpt>
      <trkpt lat="42.74333" lon="1.86123">
        <ele>1579</ele>
        <time>2016-11-12T14:22:57Z</time>
      </trkpt>
      <trkpt lat="42.74332" lon="1.86125">
        <ele>1579</ele>
        <time>2016-11-12T14:23:02Z</time>
      </trkpt>
      <trkpt lat="42.74324" lon="1.86123">
        <ele>1579</ele>
        <time>2016-11-12T14:23:07Z</time>
      </trkpt>
      <trkpt lat="42.74319" lon="1.86116">
        <ele>1579</ele>
        <time>2016-11-12T14:23:12Z</time>
      </trkpt>
      <trkpt lat="42.74316" lon="1.8611">
        <ele>1579</ele>
        <time>2016-11-12T14:23:17Z</time>
      </trkpt>
      <trkpt lat="42.74312" lon="1.86104">
        <ele>1579</ele>
        <time>2016-11-12T14:23:22Z</time>
      </trkpt>
      <trkpt lat="42.74309" lon="1.86101">
        <ele>1579</ele>
        <time>2016-11-12T14:23:27Z</time>
      </trkpt>
      <trkpt lat="42.74307" lon="1.86095">
        <ele>1579</ele>
        <time>2016-11-12T14:23:32Z</time>
      </trkpt>
      <trkpt lat="42.74303" lon="1.86089">
        <ele>1579</ele>
        <time>2016-11-12T14:23:37Z</time>
      </trkpt>
      <trkpt lat="42.743" lon="1.86083">
        <ele>1579</ele>
        <time>2016-11-12T14:23:42Z</time>
      </trkpt>
      <trkpt lat="42.74295" lon="1.86078">
        <ele>1579</ele>
        <time>2016-11-12T14:23:47Z</time>
      </trkpt>
      <trkpt lat="42.74292" lon="1.86073">
        <ele>1579</ele>
        <time>2016-11-12T14:23:52Z</time>
      </trkpt>
      <trkpt lat="42.7429" lon="1.86069">
        <ele>1577</ele>
        <time>2016-11-12T14:23:57Z</time>
      </trkpt>
      <trkpt lat="42.74285" lon="1.86066">
        <ele>1577</ele>
        <time>2016-11-12T14:24:02Z</time>
      </trkpt>
      <trkpt lat="42.7428" lon="1.86065">
        <ele>1577</ele>
        <time>2016-11-12T14:24:07Z</time>
      </trkpt>
      <trkpt lat="42.74275" lon="1.86062">
        <ele>1577</ele>
        <time>2016-11-12T14:24:12Z</time>
      </trkpt>
      <trkpt lat="42.74273" lon="1.86059">
        <ele>1577</ele>
        <time>2016-11-12T14:24:17Z</time>
      </trkpt>
      <trkpt lat="42.7427" lon="1.86055">
        <ele>1577</ele>
        <time>2016-11-12T14:24:22Z</time>
      </trkpt>
      <trkpt lat="42.74269" lon="1.86051">
        <ele>1577</ele>
        <time>2016-11-12T14:24:27Z</time>
      </trkpt>
      <trkpt lat="42.74264" lon="1.8605">
        <ele>1577</ele>
        <time>2016-11-12T14:24:32Z</time>
      </trkpt>
      <trkpt lat="42.7426" lon="1.86046">
        <ele>1577</ele>
        <time>2016-11-12T14:24:37Z</time>
      </trkpt>
      <trkpt lat="42.74255" lon="1.86043">
        <ele>1577</ele>
        <time>2016-11-12T14:24:42Z</time>
      </trkpt>
      <trkpt lat="42.74247" lon="1.8604">
        <ele>1580</ele>
        <time>2016-11-12T14:24:47Z</time>
      </trkpt>
      <trkpt lat="42.74242" lon="1.86038">
        <ele>1580</ele>
        <time>2016-11-12T14:24:52Z</time>
      </trkpt>
      <trkpt lat="42.74236" lon="1.86034">
        <ele>1580</ele>
        <time>2016-11-12T14:24:57Z</time>
      </trkpt>
      <trkpt lat="42.74233" lon="1.86031">
        <ele>1580</ele>
        <time>2016-11-12T14:25:02Z</time>
      </trkpt>
      <trkpt lat="42.7423" lon="1.86031">
        <ele>1580</ele>
        <time>2016-11-12T14:25:07Z</time>
      </trkpt>
      <trkpt lat="42.74229" lon="1.8603">
        <ele>1580</ele>
        <time>2016-11-12T14:25:12Z</time>
      </trkpt>
      <trkpt lat="42.74226" lon="1.86029">
        <ele>1580</ele>
        <time>2016-11-12T14:25:17Z</time>
      </trkpt>
      <trkpt lat="42.74222" lon="1.86028">
        <ele>1580</ele>
        <time>2016-11-12T14:25:22Z</time>
      </trkpt>
      <trkpt lat="42.74215" lon="1.86025">
        <ele>1580</ele>
        <time>2016-11-12T14:25:27Z</time>
      </trkpt>
      <trkpt lat="42.7421" lon="1.86022">
        <ele>1580</ele>
        <time>2016-11-12T14:25:32Z</time>
      </trkpt>
      <trkpt lat="42.74205" lon="1.86018">
        <ele>1582</ele>
        <time>2016-11-12T14:25:37Z</time>
      </trkpt>
      <trkpt lat="42.74202" lon="1.86016">
        <ele>1582</ele>
        <time>2016-11-12T14:25:42Z</time>
      </trkpt>
      <trkpt lat="42.74199" lon="1.8601">
        <ele>1582</ele>
        <time>2016-11-12T14:25:47Z</time>
      </trkpt>
      <trkpt lat="42.74195" lon="1.86004">
        <ele>1582</ele>
        <time>2016-11-12T14:25:52Z</time>
      </trkpt>
      <trkpt lat="42.74192" lon="1.86001">
        <ele>1582</ele>
        <time>2016-11-12T14:25:57Z</time>
      </trkpt>
      <trkpt lat="42.74188" lon="1.85995">
        <ele>1582</ele>
        <time>2016-11-12T14:26:02Z</time>
      </trkpt>
      <trkpt lat="42.74186" lon="1.85992">
        <ele>1582</ele>
        <time>2016-11-12T14:26:07Z</time>
      </trkpt>
      <trkpt lat="42.74184" lon="1.85988">
        <ele>1582</ele>
        <time>2016-11-12T14:26:12Z</time>
      </trkpt>
      <trkpt lat="42.74183" lon="1.85982">
        <ele>1582</ele>
        <time>2016-11-12T14:26:17Z</time>
      </trkpt>
      <trkpt lat="42.7418" lon="1.85977">
        <ele>1582</ele>
        <time>2016-11-12T14:26:22Z</time>
      </trkpt>
      <trkpt lat="42.74178" lon="1.85975">
        <ele>1582</ele>
        <time>2016-11-12T14:26:27Z</time>
      </trkpt>
      <trkpt lat="42.74178" lon="1.85975">
        <ele>1582</ele>
        <time>2016-11-12T14:26:32Z</time>
      </trkpt>
      <trkpt lat="42.74178" lon="1.85975">
        <ele>1582</ele>
        <time>2016-11-12T14:26:37Z</time>
      </trkpt>
      <trkpt lat="42.74178" lon="1.85975">
        <ele>1582</ele>
        <time>2016-11-12T14:26:42Z</time>
      </trkpt>
      <trkpt lat="42.74179" lon="1.85975">
        <ele>1582</ele>
        <time>2016-11-12T14:26:47Z</time>
      </trkpt>
      <trkpt lat="42.74178" lon="1.85968">
        <ele>1582</ele>
        <time>2016-11-12T14:26:52Z</time>
      </trkpt>
      <trkpt lat="42.74175" lon="1.85963">
        <ele>1582</ele>
        <time>2016-11-12T14:26:57Z</time>
      </trkpt>
      <trkpt lat="42.74174" lon="1.85961">
        <ele>1582</ele>
        <time>2016-11-12T14:27:02Z</time>
      </trkpt>
      <trkpt lat="42.74174" lon="1.85961">
        <ele>1582</ele>
        <time>2016-11-12T14:27:07Z</time>
      </trkpt>
      <trkpt lat="42.74172" lon="1.85953">
        <ele>1580</ele>
        <time>2016-11-12T14:27:12Z</time>
      </trkpt>
      <trkpt lat="42.74172" lon="1.85946">
        <ele>1580</ele>
        <time>2016-11-12T14:27:17Z</time>
      </trkpt>
      <trkpt lat="42.74171" lon="1.8594">
        <ele>1580</ele>
        <time>2016-11-12T14:27:22Z</time>
      </trkpt>
      <trkpt lat="42.7417" lon="1.85932">
        <ele>1580</ele>
        <time>2016-11-12T14:27:27Z</time>
      </trkpt>
      <trkpt lat="42.74171" lon="1.85925">
        <ele>1580</ele>
        <time>2016-11-12T14:27:32Z</time>
      </trkpt>
      <trkpt lat="42.74172" lon="1.85918">
        <ele>1580</ele>
        <time>2016-11-12T14:27:37Z</time>
      </trkpt>
      <trkpt lat="42.74172" lon="1.85911">
        <ele>1580</ele>
        <time>2016-11-12T14:27:42Z</time>
      </trkpt>
      <trkpt lat="42.74172" lon="1.85904">
        <ele>1580</ele>
        <time>2016-11-12T14:27:47Z</time>
      </trkpt>
      <trkpt lat="42.74174" lon="1.85898">
        <ele>1580</ele>
        <time>2016-11-12T14:27:52Z</time>
      </trkpt>
      <trkpt lat="42.74177" lon="1.85892">
        <ele>1580</ele>
        <time>2016-11-12T14:27:57Z</time>
      </trkpt>
      <trkpt lat="42.7418" lon="1.85887">
        <ele>1580</ele>
        <time>2016-11-12T14:28:02Z</time>
      </trkpt>
      <trkpt lat="42.74183" lon="1.85882">
        <ele>1580</ele>
        <time>2016-11-12T14:28:07Z</time>
      </trkpt>
      <trkpt lat="42.74185" lon="1.85876">
        <ele>1580</ele>
        <time>2016-11-12T14:28:12Z</time>
      </trkpt>
      <trkpt lat="42.74187" lon="1.8587">
        <ele>1579</ele>
        <time>2016-11-12T14:28:17Z</time>
      </trkpt>
      <trkpt lat="42.74189" lon="1.85864">
        <ele>1579</ele>
        <time>2016-11-12T14:28:22Z</time>
      </trkpt>
      <trkpt lat="42.7419" lon="1.85859">
        <ele>1579</ele>
        <time>2016-11-12T14:28:27Z</time>
      </trkpt>
      <trkpt lat="42.74192" lon="1.85853">
        <ele>1579</ele>
        <time>2016-11-12T14:28:32Z</time>
      </trkpt>
      <trkpt lat="42.74193" lon="1.85847">
        <ele>1579</ele>
        <time>2016-11-12T14:28:37Z</time>
      </trkpt>
      <trkpt lat="42.74193" lon="1.85842">
        <ele>1579</ele>
        <time>2016-11-12T14:28:42Z</time>
      </trkpt>
      <trkpt lat="42.74193" lon="1.85835">
        <ele>1579</ele>
        <time>2016-11-12T14:28:47Z</time>
      </trkpt>
      <trkpt lat="42.74192" lon="1.8583">
        <ele>1579</ele>
        <time>2016-11-12T14:28:52Z</time>
      </trkpt>
      <trkpt lat="42.74192" lon="1.85823">
        <ele>1579</ele>
        <time>2016-11-12T14:28:57Z</time>
      </trkpt>
      <trkpt lat="42.74192" lon="1.85818">
        <ele>1579</ele>
        <time>2016-11-12T14:29:02Z</time>
      </trkpt>
      <trkpt lat="42.74191" lon="1.85812">
        <ele>1579</ele>
        <time>2016-11-12T14:29:07Z</time>
      </trkpt>
      <trkpt lat="42.74191" lon="1.85807">
        <ele>1579</ele>
        <time>2016-11-12T14:29:12Z</time>
      </trkpt>
      <trkpt lat="42.74191" lon="1.85805">
        <ele>1579</ele>
        <time>2016-11-12T14:29:17Z</time>
      </trkpt>
      <trkpt lat="42.74191" lon="1.85805">
        <ele>1579</ele>
        <time>2016-11-12T14:29:22Z</time>
      </trkpt>
      <trkpt lat="42.74191" lon="1.85804">
        <ele>1579</ele>
        <time>2016-11-12T14:29:27Z</time>
      </trkpt>
      <trkpt lat="42.74191" lon="1.85804">
        <ele>1579</ele>
        <time>2016-11-12T14:29:32Z</time>
      </trkpt>
      <trkpt lat="42.74191" lon="1.85804">
        <ele>1579</ele>
        <time>2016-11-12T14:29:37Z</time>
      </trkpt>
      <trkpt lat="42.7419" lon="1.85804">
        <ele>1579</ele>
        <time>2016-11-12T14:29:42Z</time>
      </trkpt>
      <trkpt lat="42.7419" lon="1.85804">
        <ele>1579</ele>
        <time>2016-11-12T14:29:47Z</time>
      </trkpt>
      <trkpt lat="42.74191" lon="1.85805">
        <ele>1579</ele>
        <time>2016-11-12T14:29:52Z</time>
      </trkpt>
      <trkpt lat="42.74192" lon="1.85804">
        <ele>1579</ele>
        <time>2016-11-12T14:29:57Z</time>
      </trkpt>
      <trkpt lat="42.74192" lon="1.85803">
        <ele>1579</ele>
        <time>2016-11-12T14:30:02Z</time>
      </trkpt>
      <trkpt lat="42.74192" lon="1.85803">
        <ele>1579</ele>
        <time>2016-11-12T14:30:07Z</time>
      </trkpt>
      <trkpt lat="42.74192" lon="1.85803">
        <ele>1579</ele>
        <time>2016-11-12T14:30:12Z</time>
      </trkpt>
      <trkpt lat="42.74192" lon="1.85804">
        <ele>1579</ele>
        <time>2016-11-12T14:30:17Z</time>
      </trkpt>
      <trkpt lat="42.74193" lon="1.85803">
        <ele>1579</ele>
        <time>2016-11-12T14:30:22Z</time>
      </trkpt>
      <trkpt lat="42.74193" lon="1.85803">
        <ele>1579</ele>
        <time>2016-11-12T14:30:27Z</time>
      </trkpt>
      <trkpt lat="42.74194" lon="1.85803">
        <ele>1579</ele>
        <time>2016-11-12T14:30:32Z</time>
      </trkpt>
      <trkpt lat="42.74194" lon="1.85803">
        <ele>1579</ele>
        <time>2016-11-12T14:30:37Z</time>
      </trkpt>
      <trkpt lat="42.74195" lon="1.85803">
        <ele>1579</ele>
        <time>2016-11-12T14:30:42Z</time>
      </trkpt>
      <trkpt lat="42.74196" lon="1.85803">
        <ele>1579</ele>
        <time>2016-11-12T14:30:47Z</time>
      </trkpt>
      <trkpt lat="42.74196" lon="1.85803">
        <ele>1579</ele>
        <time>2016-11-12T14:30:52Z</time>
      </trkpt>
      <trkpt lat="42.74196" lon="1.85803">
        <ele>1579</ele>
        <time>2016-11-12T14:30:57Z</time>
      </trkpt>
      <trkpt lat="42.74196" lon="1.85803">
        <ele>1579</ele>
        <time>2016-11-12T14:31:02Z</time>
      </trkpt>
      <trkpt lat="42.74196" lon="1.85803">
        <ele>1579</ele>
        <time>2016-11-12T14:31:07Z</time>
      </trkpt>
      <trkpt lat="42.74196" lon="1.85802">
        <ele>1579</ele>
        <time>2016-11-12T14:31:12Z</time>
      </trkpt>
      <trkpt lat="42.74196" lon="1.85802">
        <ele>1579</ele>
        <time>2016-11-12T14:31:17Z</time>
      </trkpt>
      <trkpt lat="42.74196" lon="1.85802">
        <ele>1579</ele>
        <time>2016-11-12T14:31:22Z</time>
      </trkpt>
      <trkpt lat="42.74196" lon="1.85802">
        <ele>1579</ele>
        <time>2016-11-12T14:31:27Z</time>
      </trkpt>
      <trkpt lat="42.74196" lon="1.85802">
        <ele>1579</ele>
        <time>2016-11-12T14:31:32Z</time>
      </trkpt>
      <trkpt lat="42.74196" lon="1.85802">
        <ele>1579</ele>
        <time>2016-11-12T14:31:37Z</time>
      </trkpt>
      <trkpt lat="42.74196" lon="1.85802">
        <ele>1579</ele>
        <time>2016-11-12T14:31:42Z</time>
      </trkpt>
      <trkpt lat="42.74196" lon="1.85802">
        <ele>1579</ele>
        <time>2016-11-12T14:31:47Z</time>
      </trkpt>
      <trkpt lat="42.74196" lon="1.85802">
        <ele>1579</ele>
        <time>2016-11-12T14:31:52Z</time>
      </trkpt>
      <trkpt lat="42.74195" lon="1.85802">
        <ele>1579</ele>
        <time>2016-11-12T14:31:57Z</time>
      </trkpt>
      <trkpt lat="42.74195" lon="1.85802">
        <ele>1579</ele>
        <time>2016-11-12T14:32:02Z</time>
      </trkpt>
      <trkpt lat="42.74195" lon="1.85801">
        <ele>1579</ele>
        <time>2016-11-12T14:32:07Z</time>
      </trkpt>
      <trkpt lat="42.74196" lon="1.85801">
        <ele>1579</ele>
        <time>2016-11-12T14:32:12Z</time>
      </trkpt>
      <trkpt lat="42.74195" lon="1.858">
        <ele>1579</ele>
        <time>2016-11-12T14:32:17Z</time>
      </trkpt>
      <trkpt lat="42.74195" lon="1.858">
        <ele>1579</ele>
        <time>2016-11-12T14:32:22Z</time>
      </trkpt>
      <trkpt lat="42.74195" lon="1.858">
        <ele>1579</ele>
        <time>2016-11-12T14:32:27Z</time>
      </trkpt>
      <trkpt lat="42.74195" lon="1.858">
        <ele>1579</ele>
        <time>2016-11-12T14:32:32Z</time>
      </trkpt>
      <trkpt lat="42.74195" lon="1.85801">
        <ele>1579</ele>
        <time>2016-11-12T14:32:37Z</time>
      </trkpt>
      <trkpt lat="42.74196" lon="1.85799">
        <ele>1579</ele>
        <time>2016-11-12T14:32:42Z</time>
      </trkpt>
      <trkpt lat="42.74196" lon="1.85798">
        <ele>1579</ele>
        <time>2016-11-12T14:32:47Z</time>
      </trkpt>
      <trkpt lat="42.74197" lon="1.85797">
        <ele>1579</ele>
        <time>2016-11-12T14:32:52Z</time>
      </trkpt>
      <trkpt lat="42.74199" lon="1.85794">
        <ele>1579</ele>
        <time>2016-11-12T14:32:57Z</time>
      </trkpt>
      <trkpt lat="42.74201" lon="1.85789">
        <ele>1575</ele>
        <time>2016-11-12T14:33:02Z</time>
      </trkpt>
      <trkpt lat="42.74202" lon="1.85784">
        <ele>1575</ele>
        <time>2016-11-12T14:33:07Z</time>
      </trkpt>
      <trkpt lat="42.74202" lon="1.8578">
        <ele>1575</ele>
        <time>2016-11-12T14:33:12Z</time>
      </trkpt>
      <trkpt lat="42.74204" lon="1.85776">
        <ele>1575</ele>
        <time>2016-11-12T14:33:17Z</time>
      </trkpt>
      <trkpt lat="42.74205" lon="1.85771">
        <ele>1575</ele>
        <time>2016-11-12T14:33:22Z</time>
      </trkpt>
      <trkpt lat="42.74206" lon="1.85767">
        <ele>1575</ele>
        <time>2016-11-12T14:33:27Z</time>
      </trkpt>
      <trkpt lat="42.74206" lon="1.85764">
        <ele>1575</ele>
        <time>2016-11-12T14:33:32Z</time>
      </trkpt>
      <trkpt lat="42.74207" lon="1.85758">
        <ele>1575</ele>
        <time>2016-11-12T14:33:37Z</time>
      </trkpt>
      <trkpt lat="42.74208" lon="1.85752">
        <ele>1575</ele>
        <time>2016-11-12T14:33:42Z</time>
      </trkpt>
      <trkpt lat="42.74209" lon="1.85746">
        <ele>1574</ele>
        <time>2016-11-12T14:33:47Z</time>
      </trkpt>
      <trkpt lat="42.74209" lon="1.8574">
        <ele>1574</ele>
        <time>2016-11-12T14:33:52Z</time>
      </trkpt>
      <trkpt lat="42.7421" lon="1.85733">
        <ele>1574</ele>
        <time>2016-11-12T14:33:57Z</time>
      </trkpt>
      <trkpt lat="42.7421" lon="1.85727">
        <ele>1574</ele>
        <time>2016-11-12T14:34:02Z</time>
      </trkpt>
      <trkpt lat="42.74211" lon="1.8572">
        <ele>1574</ele>
        <time>2016-11-12T14:34:07Z</time>
      </trkpt>
      <trkpt lat="42.7421" lon="1.85712">
        <ele>1574</ele>
        <time>2016-11-12T14:34:12Z</time>
      </trkpt>
      <trkpt lat="42.7421" lon="1.85705">
        <ele>1570</ele>
        <time>2016-11-12T14:34:17Z</time>
      </trkpt>
      <trkpt lat="42.74208" lon="1.85698">
        <ele>1570</ele>
        <time>2016-11-12T14:34:22Z</time>
      </trkpt>
      <trkpt lat="42.74207" lon="1.85691">
        <ele>1570</ele>
        <time>2016-11-12T14:34:27Z</time>
      </trkpt>
      <trkpt lat="42.74206" lon="1.85685">
        <ele>1570</ele>
        <time>2016-11-12T14:34:32Z</time>
      </trkpt>
      <trkpt lat="42.74203" lon="1.85679">
        <ele>1570</ele>
        <time>2016-11-12T14:34:37Z</time>
      </trkpt>
      <trkpt lat="42.74202" lon="1.85673">
        <ele>1570</ele>
        <time>2016-11-12T14:34:42Z</time>
      </trkpt>
      <trkpt lat="42.74203" lon="1.85668">
        <ele>1570</ele>
        <time>2016-11-12T14:34:47Z</time>
      </trkpt>
      <trkpt lat="42.74201" lon="1.85661">
        <ele>1570</ele>
        <time>2016-11-12T14:34:52Z</time>
      </trkpt>
      <trkpt lat="42.742" lon="1.85656">
        <ele>1570</ele>
        <time>2016-11-12T14:34:57Z</time>
      </trkpt>
      <trkpt lat="42.742" lon="1.85651">
        <ele>1570</ele>
        <time>2016-11-12T14:35:02Z</time>
      </trkpt>
      <trkpt lat="42.74199" lon="1.85646">
        <ele>1570</ele>
        <time>2016-11-12T14:35:07Z</time>
      </trkpt>
      <trkpt lat="42.74198" lon="1.85639">
        <ele>1570</ele>
        <time>2016-11-12T14:35:12Z</time>
      </trkpt>
      <trkpt lat="42.74198" lon="1.85632">
        <ele>1570</ele>
        <time>2016-11-12T14:35:17Z</time>
      </trkpt>
      <trkpt lat="42.74198" lon="1.85626">
        <ele>1570</ele>
        <time>2016-11-12T14:35:22Z</time>
      </trkpt>
      <trkpt lat="42.74198" lon="1.8562">
        <ele>1560</ele>
        <time>2016-11-12T14:35:27Z</time>
      </trkpt>
      <trkpt lat="42.74198" lon="1.85613">
        <ele>1560</ele>
        <time>2016-11-12T14:35:32Z</time>
      </trkpt>
      <trkpt lat="42.74199" lon="1.85608">
        <ele>1560</ele>
        <time>2016-11-12T14:35:37Z</time>
      </trkpt>
      <trkpt lat="42.742" lon="1.856">
        <ele>1560</ele>
        <time>2016-11-12T14:35:42Z</time>
      </trkpt>
      <trkpt lat="42.742" lon="1.85593">
        <ele>1560</ele>
        <time>2016-11-12T14:35:47Z</time>
      </trkpt>
      <trkpt lat="42.74198" lon="1.85586">
        <ele>1560</ele>
        <time>2016-11-12T14:35:52Z</time>
      </trkpt>
      <trkpt lat="42.74198" lon="1.85582">
        <ele>1560</ele>
        <time>2016-11-12T14:35:57Z</time>
      </trkpt>
      <trkpt lat="42.74197" lon="1.85576">
        <ele>1560</ele>
        <time>2016-11-12T14:36:02Z</time>
      </trkpt>
      <trkpt lat="42.74196" lon="1.85569">
        <ele>1560</ele>
        <time>2016-11-12T14:36:07Z</time>
      </trkpt>
      <trkpt lat="42.74196" lon="1.85564">
        <ele>1560</ele>
        <time>2016-11-12T14:36:12Z</time>
      </trkpt>
      <trkpt lat="42.74196" lon="1.85557">
        <ele>1560</ele>
        <time>2016-11-12T14:36:17Z</time>
      </trkpt>
      <trkpt lat="42.74197" lon="1.8555">
        <ele>1560</ele>
        <time>2016-11-12T14:36:22Z</time>
      </trkpt>
      <trkpt lat="42.74198" lon="1.85544">
        <ele>1560</ele>
        <time>2016-11-12T14:36:27Z</time>
      </trkpt>
      <trkpt lat="42.74198" lon="1.85538">
        <ele>1549</ele>
        <time>2016-11-12T14:36:32Z</time>
      </trkpt>
      <trkpt lat="42.742" lon="1.85533">
        <ele>1549</ele>
        <time>2016-11-12T14:36:37Z</time>
      </trkpt>
      <trkpt lat="42.742" lon="1.85529">
        <ele>1549</ele>
        <time>2016-11-12T14:36:42Z</time>
      </trkpt>
      <trkpt lat="42.74202" lon="1.85522">
        <ele>1549</ele>
        <time>2016-11-12T14:36:47Z</time>
      </trkpt>
      <trkpt lat="42.74202" lon="1.85513">
        <ele>1549</ele>
        <time>2016-11-12T14:36:52Z</time>
      </trkpt>
      <trkpt lat="42.74201" lon="1.85507">
        <ele>1549</ele>
        <time>2016-11-12T14:36:57Z</time>
      </trkpt>
      <trkpt lat="42.742" lon="1.85501">
        <ele>1549</ele>
        <time>2016-11-12T14:37:02Z</time>
      </trkpt>
      <trkpt lat="42.74199" lon="1.85495">
        <ele>1549</ele>
        <time>2016-11-12T14:37:07Z</time>
      </trkpt>
      <trkpt lat="42.74198" lon="1.8549">
        <ele>1549</ele>
        <time>2016-11-12T14:37:12Z</time>
      </trkpt>
      <trkpt lat="42.74199" lon="1.85484">
        <ele>1549</ele>
        <time>2016-11-12T14:37:17Z</time>
      </trkpt>
      <trkpt lat="42.74196" lon="1.85477">
        <ele>1549</ele>
        <time>2016-11-12T14:37:22Z</time>
      </trkpt>
      <trkpt lat="42.74192" lon="1.85469">
        <ele>1549</ele>
        <time>2016-11-12T14:37:27Z</time>
      </trkpt>
      <trkpt lat="42.7419" lon="1.85463">
        <ele>1549</ele>
        <time>2016-11-12T14:37:32Z</time>
      </trkpt>
      <trkpt lat="42.74192" lon="1.85457">
        <ele>1547</ele>
        <time>2016-11-12T14:37:37Z</time>
      </trkpt>
      <trkpt lat="42.74197" lon="1.85454">
        <ele>1547</ele>
        <time>2016-11-12T14:37:42Z</time>
      </trkpt>
      <trkpt lat="42.74198" lon="1.85449">
        <ele>1547</ele>
        <time>2016-11-12T14:37:47Z</time>
      </trkpt>
      <trkpt lat="42.74197" lon="1.85441">
        <ele>1547</ele>
        <time>2016-11-12T14:37:52Z</time>
      </trkpt>
      <trkpt lat="42.74194" lon="1.85432">
        <ele>1547</ele>
        <time>2016-11-12T14:37:57Z</time>
      </trkpt>
      <trkpt lat="42.74192" lon="1.85426">
        <ele>1547</ele>
        <time>2016-11-12T14:38:02Z</time>
      </trkpt>
      <trkpt lat="42.74189" lon="1.8542">
        <ele>1547</ele>
        <time>2016-11-12T14:38:07Z</time>
      </trkpt>
      <trkpt lat="42.74187" lon="1.85414">
        <ele>1547</ele>
        <time>2016-11-12T14:38:12Z</time>
      </trkpt>
      <trkpt lat="42.74184" lon="1.85409">
        <ele>1547</ele>
        <time>2016-11-12T14:38:17Z</time>
      </trkpt>
      <trkpt lat="42.74183" lon="1.85403">
        <ele>1547</ele>
        <time>2016-11-12T14:38:22Z</time>
      </trkpt>
      <trkpt lat="42.74182" lon="1.85399">
        <ele>1547</ele>
        <time>2016-11-12T14:38:27Z</time>
      </trkpt>
      <trkpt lat="42.74183" lon="1.85393">
        <ele>1547</ele>
        <time>2016-11-12T14:38:32Z</time>
      </trkpt>
      <trkpt lat="42.74182" lon="1.85386">
        <ele>1547</ele>
        <time>2016-11-12T14:38:37Z</time>
      </trkpt>
      <trkpt lat="42.74182" lon="1.85381">
        <ele>1547</ele>
        <time>2016-11-12T14:38:42Z</time>
      </trkpt>
      <trkpt lat="42.74181" lon="1.85376">
        <ele>1547</ele>
        <time>2016-11-12T14:38:47Z</time>
      </trkpt>
      <trkpt lat="42.74179" lon="1.85369">
        <ele>1538</ele>
        <time>2016-11-12T14:38:52Z</time>
      </trkpt>
      <trkpt lat="42.7418" lon="1.85363">
        <ele>1538</ele>
        <time>2016-11-12T14:38:57Z</time>
      </trkpt>
      <trkpt lat="42.7418" lon="1.85356">
        <ele>1538</ele>
        <time>2016-11-12T14:39:02Z</time>
      </trkpt>
      <trkpt lat="42.74178" lon="1.85352">
        <ele>1538</ele>
        <time>2016-11-12T14:39:07Z</time>
      </trkpt>
      <trkpt lat="42.74176" lon="1.85345">
        <ele>1538</ele>
        <time>2016-11-12T14:39:12Z</time>
      </trkpt>
      <trkpt lat="42.74178" lon="1.8534">
        <ele>1538</ele>
        <time>2016-11-12T14:39:17Z</time>
      </trkpt>
      <trkpt lat="42.74181" lon="1.85335">
        <ele>1538</ele>
        <time>2016-11-12T14:39:22Z</time>
      </trkpt>
      <trkpt lat="42.74183" lon="1.85332">
        <ele>1538</ele>
        <time>2016-11-12T14:39:27Z</time>
      </trkpt>
      <trkpt lat="42.74186" lon="1.85329">
        <ele>1538</ele>
        <time>2016-11-12T14:39:32Z</time>
      </trkpt>
      <trkpt lat="42.74184" lon="1.85321">
        <ele>1538</ele>
        <time>2016-11-12T14:39:37Z</time>
      </trkpt>
      <trkpt lat="42.74181" lon="1.85312">
        <ele>1538</ele>
        <time>2016-11-12T14:39:42Z</time>
      </trkpt>
      <trkpt lat="42.74181" lon="1.85307">
        <ele>1538</ele>
        <time>2016-11-12T14:39:47Z</time>
      </trkpt>
      <trkpt lat="42.74179" lon="1.85302">
        <ele>1538</ele>
        <time>2016-11-12T14:39:52Z</time>
      </trkpt>
      <trkpt lat="42.74178" lon="1.85295">
        <ele>1538</ele>
        <time>2016-11-12T14:39:57Z</time>
      </trkpt>
      <trkpt lat="42.7418" lon="1.85289">
        <ele>1529</ele>
        <time>2016-11-12T14:40:02Z</time>
      </trkpt>
      <trkpt lat="42.74179" lon="1.8528">
        <ele>1529</ele>
        <time>2016-11-12T14:40:07Z</time>
      </trkpt>
      <trkpt lat="42.7418" lon="1.85272">
        <ele>1529</ele>
        <time>2016-11-12T14:40:12Z</time>
      </trkpt>
      <trkpt lat="42.7418" lon="1.85264">
        <ele>1529</ele>
        <time>2016-11-12T14:40:17Z</time>
      </trkpt>
      <trkpt lat="42.74181" lon="1.85257">
        <ele>1529</ele>
        <time>2016-11-12T14:40:22Z</time>
      </trkpt>
      <trkpt lat="42.74182" lon="1.8525">
        <ele>1529</ele>
        <time>2016-11-12T14:40:27Z</time>
      </trkpt>
      <trkpt lat="42.74181" lon="1.85245">
        <ele>1529</ele>
        <time>2016-11-12T14:40:32Z</time>
      </trkpt>
      <trkpt lat="42.7418" lon="1.85236">
        <ele>1529</ele>
        <time>2016-11-12T14:40:37Z</time>
      </trkpt>
      <trkpt lat="42.74181" lon="1.85228">
        <ele>1529</ele>
        <time>2016-11-12T14:40:42Z</time>
      </trkpt>
      <trkpt lat="42.74181" lon="1.8522">
        <ele>1529</ele>
        <time>2016-11-12T14:40:47Z</time>
      </trkpt>
      <trkpt lat="42.74181" lon="1.85213">
        <ele>1529</ele>
        <time>2016-11-12T14:40:52Z</time>
      </trkpt>
      <trkpt lat="42.74181" lon="1.85206">
        <ele>1523</ele>
        <time>2016-11-12T14:40:57Z</time>
      </trkpt>
      <trkpt lat="42.74182" lon="1.85198">
        <ele>1523</ele>
        <time>2016-11-12T14:41:02Z</time>
      </trkpt>
      <trkpt lat="42.74183" lon="1.85188">
        <ele>1523</ele>
        <time>2016-11-12T14:41:07Z</time>
      </trkpt>
      <trkpt lat="42.74182" lon="1.8518">
        <ele>1523</ele>
        <time>2016-11-12T14:41:12Z</time>
      </trkpt>
      <trkpt lat="42.74181" lon="1.85172">
        <ele>1523</ele>
        <time>2016-11-12T14:41:17Z</time>
      </trkpt>
      <trkpt lat="42.74179" lon="1.85167">
        <ele>1523</ele>
        <time>2016-11-12T14:41:22Z</time>
      </trkpt>
      <trkpt lat="42.74178" lon="1.85159">
        <ele>1523</ele>
        <time>2016-11-12T14:41:27Z</time>
      </trkpt>
      <trkpt lat="42.74177" lon="1.85151">
        <ele>1523</ele>
        <time>2016-11-12T14:41:32Z</time>
      </trkpt>
      <trkpt lat="42.74177" lon="1.85145">
        <ele>1523</ele>
        <time>2016-11-12T14:41:37Z</time>
      </trkpt>
      <trkpt lat="42.74178" lon="1.85139">
        <ele>1523</ele>
        <time>2016-11-12T14:41:42Z</time>
      </trkpt>
      <trkpt lat="42.74179" lon="1.8513">
        <ele>1523</ele>
        <time>2016-11-12T14:41:47Z</time>
      </trkpt>
      <trkpt lat="42.74179" lon="1.85124">
        <ele>1520</ele>
        <time>2016-11-12T14:41:52Z</time>
      </trkpt>
      <trkpt lat="42.74178" lon="1.85118">
        <ele>1520</ele>
        <time>2016-11-12T14:41:57Z</time>
      </trkpt>
      <trkpt lat="42.74178" lon="1.85111">
        <ele>1520</ele>
        <time>2016-11-12T14:42:02Z</time>
      </trkpt>
      <trkpt lat="42.7418" lon="1.85102">
        <ele>1520</ele>
        <time>2016-11-12T14:42:07Z</time>
      </trkpt>
      <trkpt lat="42.74179" lon="1.85093">
        <ele>1520</ele>
        <time>2016-11-12T14:42:12Z</time>
      </trkpt>
      <trkpt lat="42.7418" lon="1.85085">
        <ele>1520</ele>
        <time>2016-11-12T14:42:17Z</time>
      </trkpt>
      <trkpt lat="42.74178" lon="1.85076">
        <ele>1520</ele>
        <time>2016-11-12T14:42:22Z</time>
      </trkpt>
      <trkpt lat="42.74178" lon="1.85067">
        <ele>1520</ele>
        <time>2016-11-12T14:42:27Z</time>
      </trkpt>
      <trkpt lat="42.74179" lon="1.85059">
        <ele>1520</ele>
        <time>2016-11-12T14:42:32Z</time>
      </trkpt>
      <trkpt lat="42.74177" lon="1.85054">
        <ele>1520</ele>
        <time>2016-11-12T14:42:37Z</time>
      </trkpt>
      <trkpt lat="42.74176" lon="1.85048">
        <ele>1520</ele>
        <time>2016-11-12T14:42:42Z</time>
      </trkpt>
      <trkpt lat="42.74176" lon="1.85042">
        <ele>1520</ele>
        <time>2016-11-12T14:42:47Z</time>
      </trkpt>
      <trkpt lat="42.74178" lon="1.85036">
        <ele>1510</ele>
        <time>2016-11-12T14:42:52Z</time>
      </trkpt>
      <trkpt lat="42.7418" lon="1.8503">
        <ele>1510</ele>
        <time>2016-11-12T14:42:57Z</time>
      </trkpt>
      <trkpt lat="42.74181" lon="1.85024">
        <ele>1510</ele>
        <time>2016-11-12T14:43:02Z</time>
      </trkpt>
      <trkpt lat="42.74182" lon="1.85017">
        <ele>1510</ele>
        <time>2016-11-12T14:43:07Z</time>
      </trkpt>
      <trkpt lat="42.74181" lon="1.85009">
        <ele>1510</ele>
        <time>2016-11-12T14:43:12Z</time>
      </trkpt>
      <trkpt lat="42.74183" lon="1.85004">
        <ele>1510</ele>
        <time>2016-11-12T14:43:17Z</time>
      </trkpt>
      <trkpt lat="42.74182" lon="1.84998">
        <ele>1510</ele>
        <time>2016-11-12T14:43:22Z</time>
      </trkpt>
      <trkpt lat="42.74182" lon="1.84991">
        <ele>1510</ele>
        <time>2016-11-12T14:43:27Z</time>
      </trkpt>
      <trkpt lat="42.74183" lon="1.84985">
        <ele>1510</ele>
        <time>2016-11-12T14:43:32Z</time>
      </trkpt>
      <trkpt lat="42.74184" lon="1.84979">
        <ele>1510</ele>
        <time>2016-11-12T14:43:37Z</time>
      </trkpt>
      <trkpt lat="42.74184" lon="1.84977">
        <ele>1510</ele>
        <time>2016-11-12T14:43:42Z</time>
      </trkpt>
      <trkpt lat="42.74186" lon="1.84971">
        <ele>1510</ele>
        <time>2016-11-12T14:43:47Z</time>
      </trkpt>
      <trkpt lat="42.74187" lon="1.84965">
        <ele>1510</ele>
        <time>2016-11-12T14:43:52Z</time>
      </trkpt>
      <trkpt lat="42.74186" lon="1.84962">
        <ele>1510</ele>
        <time>2016-11-12T14:43:57Z</time>
      </trkpt>
      <trkpt lat="42.74184" lon="1.84958">
        <ele>1493</ele>
        <time>2016-11-12T14:44:02Z</time>
      </trkpt>
      <trkpt lat="42.74182" lon="1.84954">
        <ele>1493</ele>
        <time>2016-11-12T14:44:07Z</time>
      </trkpt>
      <trkpt lat="42.74184" lon="1.84949">
        <ele>1493</ele>
        <time>2016-11-12T14:44:12Z</time>
      </trkpt>
      <trkpt lat="42.74187" lon="1.84945">
        <ele>1493</ele>
        <time>2016-11-12T14:44:17Z</time>
      </trkpt>
      <trkpt lat="42.74188" lon="1.84939">
        <ele>1493</ele>
        <time>2016-11-12T14:44:22Z</time>
      </trkpt>
      <trkpt lat="42.74187" lon="1.84931">
        <ele>1493</ele>
        <time>2016-11-12T14:44:27Z</time>
      </trkpt>
      <trkpt lat="42.74186" lon="1.84923">
        <ele>1493</ele>
        <time>2016-11-12T14:44:32Z</time>
      </trkpt>
      <trkpt lat="42.74185" lon="1.84916">
        <ele>1493</ele>
        <time>2016-11-12T14:44:37Z</time>
      </trkpt>
      <trkpt lat="42.74184" lon="1.84908">
        <ele>1493</ele>
        <time>2016-11-12T14:44:42Z</time>
      </trkpt>
      <trkpt lat="42.74183" lon="1.84901">
        <ele>1493</ele>
        <time>2016-11-12T14:44:47Z</time>
      </trkpt>
      <trkpt lat="42.74183" lon="1.84893">
        <ele>1493</ele>
        <time>2016-11-12T14:44:52Z</time>
      </trkpt>
      <trkpt lat="42.74182" lon="1.84886">
        <ele>1493</ele>
        <time>2016-11-12T14:44:57Z</time>
      </trkpt>
      <trkpt lat="42.74181" lon="1.84879">
        <ele>1493</ele>
        <time>2016-11-12T14:45:02Z</time>
      </trkpt>
      <trkpt lat="42.74181" lon="1.84873">
        <ele>1480</ele>
        <time>2016-11-12T14:45:07Z</time>
      </trkpt>
      <trkpt lat="42.7418" lon="1.84869">
        <ele>1480</ele>
        <time>2016-11-12T14:45:12Z</time>
      </trkpt>
      <trkpt lat="42.74178" lon="1.84862">
        <ele>1480</ele>
        <time>2016-11-12T14:45:17Z</time>
      </trkpt>
      <trkpt lat="42.74179" lon="1.84854">
        <ele>1480</ele>
        <time>2016-11-12T14:45:22Z</time>
      </trkpt>
      <trkpt lat="42.74181" lon="1.84849">
        <ele>1480</ele>
        <time>2016-11-12T14:45:27Z</time>
      </trkpt>
      <trkpt lat="42.7418" lon="1.84841">
        <ele>1480</ele>
        <time>2016-11-12T14:45:32Z</time>
      </trkpt>
      <trkpt lat="42.7418" lon="1.84835">
        <ele>1480</ele>
        <time>2016-11-12T14:45:37Z</time>
      </trkpt>
      <trkpt lat="42.74179" lon="1.8483">
        <ele>1480</ele>
        <time>2016-11-12T14:45:42Z</time>
      </trkpt>
      <trkpt lat="42.74179" lon="1.84825">
        <ele>1480</ele>
        <time>2016-11-12T14:45:47Z</time>
      </trkpt>
      <trkpt lat="42.74179" lon="1.84818">
        <ele>1480</ele>
        <time>2016-11-12T14:45:52Z</time>
      </trkpt>
      <trkpt lat="42.7418" lon="1.84811">
        <ele>1480</ele>
        <time>2016-11-12T14:45:57Z</time>
      </trkpt>
      <trkpt lat="42.74181" lon="1.84805">
        <ele>1480</ele>
        <time>2016-11-12T14:46:02Z</time>
      </trkpt>
      <trkpt lat="42.7418" lon="1.848">
        <ele>1480</ele>
        <time>2016-11-12T14:46:07Z</time>
      </trkpt>
      <trkpt lat="42.7418" lon="1.848">
        <ele>1480</ele>
        <time>2016-11-12T14:46:12Z</time>
      </trkpt>
      <trkpt lat="42.7418" lon="1.848">
        <ele>1480</ele>
        <time>2016-11-12T14:46:17Z</time>
      </trkpt>
      <trkpt lat="42.7418" lon="1.848">
        <ele>1480</ele>
        <time>2016-11-12T14:46:22Z</time>
      </trkpt>
      <trkpt lat="42.7418" lon="1.848">
        <ele>1480</ele>
        <time>2016-11-12T14:46:27Z</time>
      </trkpt>
      <trkpt lat="42.7418" lon="1.848">
        <ele>1480</ele>
        <time>2016-11-12T14:46:32Z</time>
      </trkpt>
      <trkpt lat="42.7418" lon="1.848">
        <ele>1480</ele>
        <time>2016-11-12T14:46:37Z</time>
      </trkpt>
      <trkpt lat="42.7418" lon="1.848">
        <ele>1480</ele>
        <time>2016-11-12T14:46:42Z</time>
      </trkpt>
      <trkpt lat="42.7418" lon="1.84799">
        <ele>1480</ele>
        <time>2016-11-12T14:46:47Z</time>
      </trkpt>
      <trkpt lat="42.7418" lon="1.84799">
        <ele>1480</ele>
        <time>2016-11-12T14:46:52Z</time>
      </trkpt>
      <trkpt lat="42.7418" lon="1.84799">
        <ele>1480</ele>
        <time>2016-11-12T14:46:57Z</time>
      </trkpt>
      <trkpt lat="42.7418" lon="1.84799">
        <ele>1480</ele>
        <time>2016-11-12T14:47:02Z</time>
      </trkpt>
      <trkpt lat="42.7418" lon="1.84799">
        <ele>1480</ele>
        <time>2016-11-12T14:47:07Z</time>
      </trkpt>
      <trkpt lat="42.7418" lon="1.84799">
        <ele>1480</ele>
        <time>2016-11-12T14:47:12Z</time>
      </trkpt>
      <trkpt lat="42.7418" lon="1.84799">
        <ele>1480</ele>
        <time>2016-11-12T14:47:17Z</time>
      </trkpt>
      <trkpt lat="42.7418" lon="1.84799">
        <ele>1480</ele>
        <time>2016-11-12T14:47:22Z</time>
      </trkpt>
      <trkpt lat="42.7418" lon="1.84799">
        <ele>1480</ele>
        <time>2016-11-12T14:47:27Z</time>
      </trkpt>
      <trkpt lat="42.7418" lon="1.84799">
        <ele>1480</ele>
        <time>2016-11-12T14:47:32Z</time>
      </trkpt>
      <trkpt lat="42.7418" lon="1.84799">
        <ele>1480</ele>
        <time>2016-11-12T14:47:37Z</time>
      </trkpt>
      <trkpt lat="42.7418" lon="1.84799">
        <ele>1480</ele>
        <time>2016-11-12T14:47:42Z</time>
      </trkpt>
      <trkpt lat="42.7418" lon="1.84799">
        <ele>1480</ele>
        <time>2016-11-12T14:47:47Z</time>
      </trkpt>
      <trkpt lat="42.7418" lon="1.84799">
        <ele>1480</ele>
        <time>2016-11-12T14:47:52Z</time>
      </trkpt>
      <trkpt lat="42.7418" lon="1.84799">
        <ele>1480</ele>
        <time>2016-11-12T14:47:57Z</time>
      </trkpt>
      <trkpt lat="42.7418" lon="1.84799">
        <ele>1480</ele>
        <time>2016-11-12T14:48:02Z</time>
      </trkpt>
      <trkpt lat="42.7418" lon="1.84797">
        <ele>1480</ele>
        <time>2016-11-12T14:48:07Z</time>
      </trkpt>
      <trkpt lat="42.74179" lon="1.84793">
        <ele>1480</ele>
        <time>2016-11-12T14:48:12Z</time>
      </trkpt>
      <trkpt lat="42.74179" lon="1.84788">
        <ele>1467</ele>
        <time>2016-11-12T14:48:17Z</time>
      </trkpt>
      <trkpt lat="42.7418" lon="1.84781">
        <ele>1467</ele>
        <time>2016-11-12T14:48:22Z</time>
      </trkpt>
      <trkpt lat="42.7418" lon="1.84775">
        <ele>1467</ele>
        <time>2016-11-12T14:48:27Z</time>
      </trkpt>
      <trkpt lat="42.7418" lon="1.84767">
        <ele>1467</ele>
        <time>2016-11-12T14:48:32Z</time>
      </trkpt>
      <trkpt lat="42.7418" lon="1.84763">
        <ele>1467</ele>
        <time>2016-11-12T14:48:37Z</time>
      </trkpt>
      <trkpt lat="42.74181" lon="1.8476">
        <ele>1467</ele>
        <time>2016-11-12T14:48:42Z</time>
      </trkpt>
      <trkpt lat="42.74181" lon="1.84753">
        <ele>1467</ele>
        <time>2016-11-12T14:48:47Z</time>
      </trkpt>
      <trkpt lat="42.74181" lon="1.84747">
        <ele>1467</ele>
        <time>2016-11-12T14:48:52Z</time>
      </trkpt>
      <trkpt lat="42.74181" lon="1.8474">
        <ele>1467</ele>
        <time>2016-11-12T14:48:57Z</time>
      </trkpt>
      <trkpt lat="42.74181" lon="1.8474">
        <ele>1467</ele>
        <time>2016-11-12T14:49:02Z</time>
      </trkpt>
      <trkpt lat="42.74181" lon="1.84739">
        <ele>1467</ele>
        <time>2016-11-12T14:49:07Z</time>
      </trkpt>
      <trkpt lat="42.7418" lon="1.84734">
        <ele>1467</ele>
        <time>2016-11-12T14:49:12Z</time>
      </trkpt>
      <trkpt lat="42.7418" lon="1.84733">
        <ele>1467</ele>
        <time>2016-11-12T14:49:17Z</time>
      </trkpt>
      <trkpt lat="42.7418" lon="1.84733">
        <ele>1467</ele>
        <time>2016-11-12T14:49:22Z</time>
      </trkpt>
      <trkpt lat="42.7418" lon="1.84733">
        <ele>1467</ele>
        <time>2016-11-12T14:49:27Z</time>
      </trkpt>
      <trkpt lat="42.7418" lon="1.84733">
        <ele>1467</ele>
        <time>2016-11-12T14:49:32Z</time>
      </trkpt>
      <trkpt lat="42.7418" lon="1.84733">
        <ele>1467</ele>
        <time>2016-11-12T14:49:37Z</time>
      </trkpt>
      <trkpt lat="42.74179" lon="1.8473">
        <ele>1467</ele>
        <time>2016-11-12T14:49:42Z</time>
      </trkpt>
      <trkpt lat="42.74179" lon="1.84726">
        <ele>1467</ele>
        <time>2016-11-12T14:49:47Z</time>
      </trkpt>
      <trkpt lat="42.74179" lon="1.84725">
        <ele>1467</ele>
        <time>2016-11-12T14:49:52Z</time>
      </trkpt>
      <trkpt lat="42.74179" lon="1.84725">
        <ele>1467</ele>
        <time>2016-11-12T14:49:57Z</time>
      </trkpt>
      <trkpt lat="42.74179" lon="1.84725">
        <ele>1467</ele>
        <time>2016-11-12T14:50:02Z</time>
      </trkpt>
      <trkpt lat="42.74179" lon="1.84725">
        <ele>1467</ele>
        <time>2016-11-12T14:50:07Z</time>
      </trkpt>
      <trkpt lat="42.74179" lon="1.84725">
        <ele>1467</ele>
        <time>2016-11-12T14:50:12Z</time>
      </trkpt>
      <trkpt lat="42.74179" lon="1.84725">
        <ele>1467</ele>
        <time>2016-11-12T14:50:17Z</time>
      </trkpt>
      <trkpt lat="42.74179" lon="1.84725">
        <ele>1467</ele>
        <time>2016-11-12T14:50:22Z</time>
      </trkpt>
      <trkpt lat="42.74179" lon="1.84725">
        <ele>1467</ele>
        <time>2016-11-12T14:50:27Z</time>
      </trkpt>
      <trkpt lat="42.74179" lon="1.84724">
        <ele>1467</ele>
        <time>2016-11-12T14:50:32Z</time>
      </trkpt>
      <trkpt lat="42.74179" lon="1.84724">
        <ele>1467</ele>
        <time>2016-11-12T14:50:37Z</time>
      </trkpt>
      <trkpt lat="42.74179" lon="1.84724">
        <ele>1467</ele>
        <time>2016-11-12T14:50:42Z</time>
      </trkpt>
      <trkpt lat="42.74179" lon="1.84724">
        <ele>1467</ele>
        <time>2016-11-12T14:50:47Z</time>
      </trkpt>
      <trkpt lat="42.74179" lon="1.84724">
        <ele>1467</ele>
        <time>2016-11-12T14:50:52Z</time>
      </trkpt>
      <trkpt lat="42.74179" lon="1.84724">
        <ele>1467</ele>
        <time>2016-11-12T14:50:57Z</time>
      </trkpt>
      <trkpt lat="42.74179" lon="1.84723">
        <ele>1467</ele>
        <time>2016-11-12T14:51:02Z</time>
      </trkpt>
      <trkpt lat="42.74179" lon="1.84723">
        <ele>1467</ele>
        <time>2016-11-12T14:51:07Z</time>
      </trkpt>
      <trkpt lat="42.7418" lon="1.84723">
        <ele>1467</ele>
        <time>2016-11-12T14:51:12Z</time>
      </trkpt>
      <trkpt lat="42.7418" lon="1.84724">
        <ele>1467</ele>
        <time>2016-11-12T14:51:17Z</time>
      </trkpt>
      <trkpt lat="42.74181" lon="1.84724">
        <ele>1467</ele>
        <time>2016-11-12T14:51:22Z</time>
      </trkpt>
      <trkpt lat="42.74182" lon="1.84725">
        <ele>1467</ele>
        <time>2016-11-12T14:51:27Z</time>
      </trkpt>
      <trkpt lat="42.74182" lon="1.84725">
        <ele>1467</ele>
        <time>2016-11-12T14:51:32Z</time>
      </trkpt>
      <trkpt lat="42.74182" lon="1.84726">
        <ele>1467</ele>
        <time>2016-11-12T14:51:37Z</time>
      </trkpt>
      <trkpt lat="42.74183" lon="1.84726">
        <ele>1467</ele>
        <time>2016-11-12T14:51:42Z</time>
      </trkpt>
      <trkpt lat="42.74183" lon="1.84726">
        <ele>1467</ele>
        <time>2016-11-12T14:51:47Z</time>
      </trkpt>
      <trkpt lat="42.74183" lon="1.84726">
        <ele>1467</ele>
        <time>2016-11-12T14:51:52Z</time>
      </trkpt>
      <trkpt lat="42.74184" lon="1.84727">
        <ele>1467</ele>
        <time>2016-11-12T14:51:57Z</time>
      </trkpt>
      <trkpt lat="42.74184" lon="1.84727">
        <ele>1467</ele>
        <time>2016-11-12T14:52:02Z</time>
      </trkpt>
      <trkpt lat="42.74184" lon="1.84727">
        <ele>1467</ele>
        <time>2016-11-12T14:52:07Z</time>
      </trkpt>
      <trkpt lat="42.74184" lon="1.84727">
        <ele>1467</ele>
        <time>2016-11-12T14:52:12Z</time>
      </trkpt>
      <trkpt lat="42.74184" lon="1.84727">
        <ele>1467</ele>
        <time>2016-11-12T14:52:17Z</time>
      </trkpt>
      <trkpt lat="42.74184" lon="1.84727">
        <ele>1467</ele>
        <time>2016-11-12T14:52:22Z</time>
      </trkpt>
      <trkpt lat="42.74184" lon="1.84727">
        <ele>1467</ele>
        <time>2016-11-12T14:52:27Z</time>
      </trkpt>
      <trkpt lat="42.74184" lon="1.84728">
        <ele>1467</ele>
        <time>2016-11-12T14:52:32Z</time>
      </trkpt>
      <trkpt lat="42.74185" lon="1.84728">
        <ele>1467</ele>
        <time>2016-11-12T14:52:37Z</time>
      </trkpt>
      <trkpt lat="42.74185" lon="1.84728">
        <ele>1467</ele>
        <time>2016-11-12T14:52:42Z</time>
      </trkpt>
      <trkpt lat="42.74185" lon="1.84728">
        <ele>1467</ele>
        <time>2016-11-12T14:52:47Z</time>
      </trkpt>
      <trkpt lat="42.74185" lon="1.84728">
        <ele>1467</ele>
        <time>2016-11-12T14:52:52Z</time>
      </trkpt>
      <trkpt lat="42.74185" lon="1.84729">
        <ele>1467</ele>
        <time>2016-11-12T14:52:57Z</time>
      </trkpt>
      <trkpt lat="42.74185" lon="1.84729">
        <ele>1467</ele>
        <time>2016-11-12T14:53:02Z</time>
      </trkpt>
      <trkpt lat="42.74185" lon="1.84729">
        <ele>1467</ele>
        <time>2016-11-12T14:53:07Z</time>
      </trkpt>
      <trkpt lat="42.74185" lon="1.84729">
        <ele>1467</ele>
        <time>2016-11-12T14:53:12Z</time>
      </trkpt>
      <trkpt lat="42.74185" lon="1.84728">
        <ele>1467</ele>
        <time>2016-11-12T14:53:17Z</time>
      </trkpt>
      <trkpt lat="42.74185" lon="1.84728">
        <ele>1467</ele>
        <time>2016-11-12T14:53:22Z</time>
      </trkpt>
      <trkpt lat="42.74185" lon="1.84728">
        <ele>1467</ele>
        <time>2016-11-12T14:53:27Z</time>
      </trkpt>
      <trkpt lat="42.74185" lon="1.84728">
        <ele>1467</ele>
        <time>2016-11-12T14:53:32Z</time>
      </trkpt>
      <trkpt lat="42.74185" lon="1.84728">
        <ele>1467</ele>
        <time>2016-11-12T14:53:37Z</time>
      </trkpt>
      <trkpt lat="42.74185" lon="1.84729">
        <ele>1467</ele>
        <time>2016-11-12T14:53:42Z</time>
      </trkpt>
      <trkpt lat="42.74185" lon="1.84729">
        <ele>1467</ele>
        <time>2016-11-12T14:53:47Z</time>
      </trkpt>
      <trkpt lat="42.74185" lon="1.84729">
        <ele>1467</ele>
        <time>2016-11-12T14:53:52Z</time>
      </trkpt>
      <trkpt lat="42.74185" lon="1.84729">
        <ele>1467</ele>
        <time>2016-11-12T14:53:57Z</time>
      </trkpt>
      <trkpt lat="42.74185" lon="1.84729">
        <ele>1467</ele>
        <time>2016-11-12T14:54:02Z</time>
      </trkpt>
      <trkpt lat="42.74185" lon="1.84729">
        <ele>1467</ele>
        <time>2016-11-12T14:54:07Z</time>
      </trkpt>
      <trkpt lat="42.74185" lon="1.84728">
        <ele>1467</ele>
        <time>2016-11-12T14:54:12Z</time>
      </trkpt>
      <trkpt lat="42.74185" lon="1.84727">
        <ele>1467</ele>
        <time>2016-11-12T14:54:17Z</time>
      </trkpt>
      <trkpt lat="42.74185" lon="1.84726">
        <ele>1467</ele>
        <time>2016-11-12T14:54:22Z</time>
      </trkpt>
      <trkpt lat="42.74185" lon="1.84726">
        <ele>1467</ele>
        <time>2016-11-12T14:54:27Z</time>
      </trkpt>
      <trkpt lat="42.74185" lon="1.84726">
        <ele>1467</ele>
        <time>2016-11-12T14:54:32Z</time>
      </trkpt>
      <trkpt lat="42.74185" lon="1.84727">
        <ele>1467</ele>
        <time>2016-11-12T14:54:37Z</time>
      </trkpt>
      <trkpt lat="42.74185" lon="1.84727">
        <ele>1467</ele>
        <time>2016-11-12T14:54:42Z</time>
      </trkpt>
      <trkpt lat="42.74185" lon="1.84727">
        <ele>1467</ele>
        <time>2016-11-12T14:54:47Z</time>
      </trkpt>
      <trkpt lat="42.74186" lon="1.84727">
        <ele>1467</ele>
        <time>2016-11-12T14:54:52Z</time>
      </trkpt>
      <trkpt lat="42.74186" lon="1.84726">
        <ele>1467</ele>
        <time>2016-11-12T14:54:57Z</time>
      </trkpt>
      <trkpt lat="42.74186" lon="1.84727">
        <ele>1467</ele>
        <time>2016-11-12T14:55:02Z</time>
      </trkpt>
      <trkpt lat="42.74186" lon="1.84727">
        <ele>1467</ele>
        <time>2016-11-12T14:55:07Z</time>
      </trkpt>
      <trkpt lat="42.74185" lon="1.84727">
        <ele>1467</ele>
        <time>2016-11-12T14:55:12Z</time>
      </trkpt>
      <trkpt lat="42.74185" lon="1.84726">
        <ele>1467</ele>
        <time>2016-11-12T14:55:17Z</time>
      </trkpt>
      <trkpt lat="42.74185" lon="1.84726">
        <ele>1467</ele>
        <time>2016-11-12T14:55:22Z</time>
      </trkpt>
      <trkpt lat="42.74185" lon="1.84727">
        <ele>1467</ele>
        <time>2016-11-12T14:55:27Z</time>
      </trkpt>
      <trkpt lat="42.74186" lon="1.84727">
        <ele>1467</ele>
        <time>2016-11-12T14:55:32Z</time>
      </trkpt>
      <trkpt lat="42.74186" lon="1.84727">
        <ele>1467</ele>
        <time>2016-11-12T14:55:37Z</time>
      </trkpt>
      <trkpt lat="42.74186" lon="1.84727">
        <ele>1467</ele>
        <time>2016-11-12T14:55:42Z</time>
      </trkpt>
      <trkpt lat="42.74186" lon="1.84726">
        <ele>1467</ele>
        <time>2016-11-12T14:55:47Z</time>
      </trkpt>
      <trkpt lat="42.74186" lon="1.84726">
        <ele>1467</ele>
        <time>2016-11-12T14:55:52Z</time>
      </trkpt>
      <trkpt lat="42.74186" lon="1.84726">
        <ele>1467</ele>
        <time>2016-11-12T14:55:57Z</time>
      </trkpt>
      <trkpt lat="42.74186" lon="1.84726">
        <ele>1467</ele>
        <time>2016-11-12T14:56:02Z</time>
      </trkpt>
      <trkpt lat="42.74186" lon="1.84726">
        <ele>1467</ele>
        <time>2016-11-12T14:56:07Z</time>
      </trkpt>
      <trkpt lat="42.74186" lon="1.84726">
        <ele>1467</ele>
        <time>2016-11-12T14:56:12Z</time>
      </trkpt>
      <trkpt lat="42.74186" lon="1.84726">
        <ele>1467</ele>
        <time>2016-11-12T14:56:17Z</time>
      </trkpt>
      <trkpt lat="42.74186" lon="1.84726">
        <ele>1467</ele>
        <time>2016-11-12T14:56:22Z</time>
      </trkpt>
      <trkpt lat="42.74186" lon="1.84726">
        <ele>1467</ele>
        <time>2016-11-12T14:56:27Z</time>
      </trkpt>
      <trkpt lat="42.74186" lon="1.84726">
        <ele>1467</ele>
        <time>2016-11-12T14:56:32Z</time>
      </trkpt>
      <trkpt lat="42.74186" lon="1.84726">
        <ele>1467</ele>
        <time>2016-11-12T14:56:37Z</time>
      </trkpt>
      <trkpt lat="42.74186" lon="1.84726">
        <ele>1467</ele>
        <time>2016-11-12T14:56:42Z</time>
      </trkpt>
      <trkpt lat="42.74186" lon="1.84726">
        <ele>1467</ele>
        <time>2016-11-12T14:56:47Z</time>
      </trkpt>
      <trkpt lat="42.74186" lon="1.84726">
        <ele>1467</ele>
        <time>2016-11-12T14:56:52Z</time>
      </trkpt>
      <trkpt lat="42.74186" lon="1.84726">
        <ele>1467</ele>
        <time>2016-11-12T14:56:57Z</time>
      </trkpt>
      <trkpt lat="42.74186" lon="1.84725">
        <ele>1467</ele>
        <time>2016-11-12T14:57:02Z</time>
      </trkpt>
      <trkpt lat="42.74186" lon="1.84724">
        <ele>1467</ele>
        <time>2016-11-12T14:57:07Z</time>
      </trkpt>
      <trkpt lat="42.74186" lon="1.84725">
        <ele>1467</ele>
        <time>2016-11-12T14:57:12Z</time>
      </trkpt>
      <trkpt lat="42.74185" lon="1.84725">
        <ele>1467</ele>
        <time>2016-11-12T14:57:17Z</time>
      </trkpt>
      <trkpt lat="42.74185" lon="1.84723">
        <ele>1467</ele>
        <time>2016-11-12T14:57:22Z</time>
      </trkpt>
      <trkpt lat="42.74186" lon="1.84722">
        <ele>1467</ele>
        <time>2016-11-12T14:57:27Z</time>
      </trkpt>
      <trkpt lat="42.74187" lon="1.84721">
        <ele>1467</ele>
        <time>2016-11-12T14:57:32Z</time>
      </trkpt>
      <trkpt lat="42.74187" lon="1.8472">
        <ele>1467</ele>
        <time>2016-11-12T14:57:37Z</time>
      </trkpt>
      <trkpt lat="42.74187" lon="1.8472">
        <ele>1467</ele>
        <time>2016-11-12T14:57:42Z</time>
      </trkpt>
      <trkpt lat="42.74187" lon="1.8472">
        <ele>1467</ele>
        <time>2016-11-12T14:57:47Z</time>
      </trkpt>
      <trkpt lat="42.74187" lon="1.8472">
        <ele>1467</ele>
        <time>2016-11-12T14:57:52Z</time>
      </trkpt>
      <trkpt lat="42.74187" lon="1.8472">
        <ele>1467</ele>
        <time>2016-11-12T14:57:57Z</time>
      </trkpt>
      <trkpt lat="42.74186" lon="1.8472">
        <ele>1467</ele>
        <time>2016-11-12T14:58:02Z</time>
      </trkpt>
      <trkpt lat="42.74186" lon="1.8472">
        <ele>1467</ele>
        <time>2016-11-12T14:58:07Z</time>
      </trkpt>
      <trkpt lat="42.74186" lon="1.8472">
        <ele>1467</ele>
        <time>2016-11-12T14:58:12Z</time>
      </trkpt>
      <trkpt lat="42.74186" lon="1.8472">
        <ele>1467</ele>
        <time>2016-11-12T14:58:17Z</time>
      </trkpt>
      <trkpt lat="42.74186" lon="1.8472">
        <ele>1467</ele>
        <time>2016-11-12T14:58:22Z</time>
      </trkpt>
      <trkpt lat="42.74186" lon="1.84721">
        <ele>1467</ele>
        <time>2016-11-12T14:58:27Z</time>
      </trkpt>
      <trkpt lat="42.74187" lon="1.84721">
        <ele>1467</ele>
        <time>2016-11-12T14:58:32Z</time>
      </trkpt>
      <trkpt lat="42.74187" lon="1.84721">
        <ele>1467</ele>
        <time>2016-11-12T14:58:37Z</time>
      </trkpt>
      <trkpt lat="42.74188" lon="1.84722">
        <ele>1467</ele>
        <time>2016-11-12T14:58:42Z</time>
      </trkpt>
      <trkpt lat="42.74188" lon="1.84721">
        <ele>1467</ele>
        <time>2016-11-12T14:58:47Z</time>
      </trkpt>
      <trkpt lat="42.74188" lon="1.84721">
        <ele>1467</ele>
        <time>2016-11-12T14:58:52Z</time>
      </trkpt>
      <trkpt lat="42.74189" lon="1.84721">
        <ele>1467</ele>
        <time>2016-11-12T14:58:57Z</time>
      </trkpt>
      <trkpt lat="42.74189" lon="1.84721">
        <ele>1467</ele>
        <time>2016-11-12T14:59:02Z</time>
      </trkpt>
      <trkpt lat="42.74189" lon="1.84721">
        <ele>1467</ele>
        <time>2016-11-12T14:59:07Z</time>
      </trkpt>
      <trkpt lat="42.74189" lon="1.8472">
        <ele>1467</ele>
        <time>2016-11-12T14:59:12Z</time>
      </trkpt>
      <trkpt lat="42.74189" lon="1.8472">
        <ele>1467</ele>
        <time>2016-11-12T14:59:17Z</time>
      </trkpt>
      <trkpt lat="42.74189" lon="1.8472">
        <ele>1467</ele>
        <time>2016-11-12T14:59:22Z</time>
      </trkpt>
      <trkpt lat="42.74188" lon="1.8472">
        <ele>1467</ele>
        <time>2016-11-12T14:59:27Z</time>
      </trkpt>
      <trkpt lat="42.74189" lon="1.8472">
        <ele>1467</ele>
        <time>2016-11-12T14:59:32Z</time>
      </trkpt>
      <trkpt lat="42.74188" lon="1.84719">
        <ele>1467</ele>
        <time>2016-11-12T14:59:37Z</time>
      </trkpt>
      <trkpt lat="42.74188" lon="1.8472">
        <ele>1467</ele>
        <time>2016-11-12T14:59:42Z</time>
      </trkpt>
      <trkpt lat="42.74188" lon="1.8472">
        <ele>1467</ele>
        <time>2016-11-12T14:59:47Z</time>
      </trkpt>
      <trkpt lat="42.74188" lon="1.8472">
        <ele>1467</ele>
        <time>2016-11-12T14:59:52Z</time>
      </trkpt>
      <trkpt lat="42.74188" lon="1.8472">
        <ele>1467</ele>
        <time>2016-11-12T14:59:57Z</time>
      </trkpt>
      <trkpt lat="42.74188" lon="1.84719">
        <ele>1467</ele>
        <time>2016-11-12T15:00:02Z</time>
      </trkpt>
      <trkpt lat="42.74188" lon="1.8472">
        <ele>1467</ele>
        <time>2016-11-12T15:00:07Z</time>
      </trkpt>
      <trkpt lat="42.74188" lon="1.84719">
        <ele>1467</ele>
        <time>2016-11-12T15:00:12Z</time>
      </trkpt>
      <trkpt lat="42.74188" lon="1.84719">
        <ele>1467</ele>
        <time>2016-11-12T15:00:17Z</time>
      </trkpt>
      <trkpt lat="42.74188" lon="1.8472">
        <ele>1467</ele>
        <time>2016-11-12T15:00:22Z</time>
      </trkpt>
      <trkpt lat="42.74188" lon="1.84721">
        <ele>1467</ele>
        <time>2016-11-12T15:00:27Z</time>
      </trkpt>
      <trkpt lat="42.74188" lon="1.84721">
        <ele>1467</ele>
        <time>2016-11-12T15:00:32Z</time>
      </trkpt>
      <trkpt lat="42.74188" lon="1.84721">
        <ele>1467</ele>
        <time>2016-11-12T15:00:37Z</time>
      </trkpt>
      <trkpt lat="42.74188" lon="1.84721">
        <ele>1467</ele>
        <time>2016-11-12T15:00:42Z</time>
      </trkpt>
      <trkpt lat="42.74188" lon="1.84721">
        <ele>1467</ele>
        <time>2016-11-12T15:00:47Z</time>
      </trkpt>
      <trkpt lat="42.74188" lon="1.84721">
        <ele>1467</ele>
        <time>2016-11-12T15:00:52Z</time>
      </trkpt>
      <trkpt lat="42.74188" lon="1.84721">
        <ele>1467</ele>
        <time>2016-11-12T15:00:57Z</time>
      </trkpt>
      <trkpt lat="42.74188" lon="1.84721">
        <ele>1467</ele>
        <time>2016-11-12T15:01:02Z</time>
      </trkpt>
      <trkpt lat="42.74189" lon="1.84721">
        <ele>1467</ele>
        <time>2016-11-12T15:01:07Z</time>
      </trkpt>
      <trkpt lat="42.74189" lon="1.8472">
        <ele>1467</ele>
        <time>2016-11-12T15:01:12Z</time>
      </trkpt>
      <trkpt lat="42.74189" lon="1.84721">
        <ele>1467</ele>
        <time>2016-11-12T15:01:17Z</time>
      </trkpt>
      <trkpt lat="42.74189" lon="1.84722">
        <ele>1467</ele>
        <time>2016-11-12T15:01:22Z</time>
      </trkpt>
      <trkpt lat="42.74189" lon="1.84722">
        <ele>1467</ele>
        <time>2016-11-12T15:01:27Z</time>
      </trkpt>
      <trkpt lat="42.74189" lon="1.84722">
        <ele>1467</ele>
        <time>2016-11-12T15:01:32Z</time>
      </trkpt>
      <trkpt lat="42.74188" lon="1.84722">
        <ele>1467</ele>
        <time>2016-11-12T15:01:37Z</time>
      </trkpt>
      <trkpt lat="42.74189" lon="1.84721">
        <ele>1467</ele>
        <time>2016-11-12T15:01:42Z</time>
      </trkpt>
      <trkpt lat="42.74188" lon="1.84721">
        <ele>1467</ele>
        <time>2016-11-12T15:01:47Z</time>
      </trkpt>
      <trkpt lat="42.74188" lon="1.84721">
        <ele>1467</ele>
        <time>2016-11-12T15:01:52Z</time>
      </trkpt>
      <trkpt lat="42.74189" lon="1.84721">
        <ele>1467</ele>
        <time>2016-11-12T15:01:57Z</time>
      </trkpt>
      <trkpt lat="42.74188" lon="1.84721">
        <ele>1467</ele>
        <time>2016-11-12T15:02:02Z</time>
      </trkpt>
      <trkpt lat="42.74188" lon="1.84722">
        <ele>1467</ele>
        <time>2016-11-12T15:02:07Z</time>
      </trkpt>
      <trkpt lat="42.74188" lon="1.84722">
        <ele>1467</ele>
        <time>2016-11-12T15:02:12Z</time>
      </trkpt>
      <trkpt lat="42.74188" lon="1.84723">
        <ele>1467</ele>
        <time>2016-11-12T15:02:17Z</time>
      </trkpt>
      <trkpt lat="42.74188" lon="1.84724">
        <ele>1467</ele>
        <time>2016-11-12T15:02:22Z</time>
      </trkpt>
      <trkpt lat="42.74188" lon="1.84725">
        <ele>1467</ele>
        <time>2016-11-12T15:02:27Z</time>
      </trkpt>
      <trkpt lat="42.74187" lon="1.84725">
        <ele>1467</ele>
        <time>2016-11-12T15:02:32Z</time>
      </trkpt>
      <trkpt lat="42.74187" lon="1.84725">
        <ele>1467</ele>
        <time>2016-11-12T15:02:37Z</time>
      </trkpt>
      <trkpt lat="42.74187" lon="1.84725">
        <ele>1467</ele>
        <time>2016-11-12T15:02:42Z</time>
      </trkpt>
      <trkpt lat="42.74187" lon="1.84725">
        <ele>1467</ele>
        <time>2016-11-12T15:02:47Z</time>
      </trkpt>
      <trkpt lat="42.74187" lon="1.84725">
        <ele>1467</ele>
        <time>2016-11-12T15:02:52Z</time>
      </trkpt>
      <trkpt lat="42.74187" lon="1.84725">
        <ele>1467</ele>
        <time>2016-11-12T15:02:57Z</time>
      </trkpt>
      <trkpt lat="42.74187" lon="1.84724">
        <ele>1467</ele>
        <time>2016-11-12T15:03:02Z</time>
      </trkpt>
      <trkpt lat="42.74187" lon="1.84724">
        <ele>1467</ele>
        <time>2016-11-12T15:03:07Z</time>
      </trkpt>
      <trkpt lat="42.74186" lon="1.84724">
        <ele>1467</ele>
        <time>2016-11-12T15:03:12Z</time>
      </trkpt>
      <trkpt lat="42.74186" lon="1.84723">
        <ele>1467</ele>
        <time>2016-11-12T15:03:17Z</time>
      </trkpt>
      <trkpt lat="42.74186" lon="1.84723">
        <ele>1467</ele>
        <time>2016-11-12T15:03:22Z</time>
      </trkpt>
      <trkpt lat="42.74186" lon="1.84723">
        <ele>1467</ele>
        <time>2016-11-12T15:03:27Z</time>
      </trkpt>
      <trkpt lat="42.74185" lon="1.84723">
        <ele>1467</ele>
        <time>2016-11-12T15:03:32Z</time>
      </trkpt>
      <trkpt lat="42.74185" lon="1.84723">
        <ele>1467</ele>
        <time>2016-11-12T15:03:37Z</time>
      </trkpt>
      <trkpt lat="42.74185" lon="1.84723">
        <ele>1467</ele>
        <time>2016-11-12T15:03:42Z</time>
      </trkpt>
      <trkpt lat="42.74185" lon="1.84722">
        <ele>1467</ele>
        <time>2016-11-12T15:03:47Z</time>
      </trkpt>
      <trkpt lat="42.74185" lon="1.84722">
        <ele>1467</ele>
        <time>2016-11-12T15:03:52Z</time>
      </trkpt>
      <trkpt lat="42.74186" lon="1.84723">
        <ele>1467</ele>
        <time>2016-11-12T15:03:57Z</time>
      </trkpt>
      <trkpt lat="42.74186" lon="1.84722">
        <ele>1467</ele>
        <time>2016-11-12T15:04:02Z</time>
      </trkpt>
      <trkpt lat="42.74186" lon="1.84722">
        <ele>1467</ele>
        <time>2016-11-12T15:04:07Z</time>
      </trkpt>
      <trkpt lat="42.74187" lon="1.84722">
        <ele>1467</ele>
        <time>2016-11-12T15:04:12Z</time>
      </trkpt>
      <trkpt lat="42.74187" lon="1.84722">
        <ele>1467</ele>
        <time>2016-11-12T15:04:17Z</time>
      </trkpt>
      <trkpt lat="42.74187" lon="1.84722">
        <ele>1467</ele>
        <time>2016-11-12T15:04:22Z</time>
      </trkpt>
      <trkpt lat="42.74188" lon="1.84722">
        <ele>1467</ele>
        <time>2016-11-12T15:04:27Z</time>
      </trkpt>
      <trkpt lat="42.7419" lon="1.84723">
        <ele>1467</ele>
        <time>2016-11-12T15:04:32Z</time>
      </trkpt>
      <trkpt lat="42.7419" lon="1.84723">
        <ele>1467</ele>
        <time>2016-11-12T15:04:37Z</time>
      </trkpt>
      <trkpt lat="42.7419" lon="1.84724">
        <ele>1467</ele>
        <time>2016-11-12T15:04:42Z</time>
      </trkpt>
      <trkpt lat="42.74191" lon="1.84724">
        <ele>1467</ele>
        <time>2016-11-12T15:04:47Z</time>
      </trkpt>
      <trkpt lat="42.74191" lon="1.84724">
        <ele>1467</ele>
        <time>2016-11-12T15:04:52Z</time>
      </trkpt>
      <trkpt lat="42.74191" lon="1.84724">
        <ele>1467</ele>
        <time>2016-11-12T15:04:57Z</time>
      </trkpt>
      <trkpt lat="42.7419" lon="1.84723">
        <ele>1467</ele>
        <time>2016-11-12T15:05:02Z</time>
      </trkpt>
      <trkpt lat="42.7419" lon="1.84724">
        <ele>1467</ele>
        <time>2016-11-12T15:05:07Z</time>
      </trkpt>
      <trkpt lat="42.7419" lon="1.84723">
        <ele>1467</ele>
        <time>2016-11-12T15:05:12Z</time>
      </trkpt>
      <trkpt lat="42.74192" lon="1.84722">
        <ele>1467</ele>
        <time>2016-11-12T15:05:17Z</time>
      </trkpt>
      <trkpt lat="42.7419" lon="1.84722">
        <ele>1467</ele>
        <time>2016-11-12T15:05:22Z</time>
      </trkpt>
      <trkpt lat="42.7419" lon="1.84722">
        <ele>1467</ele>
        <time>2016-11-12T15:05:27Z</time>
      </trkpt>
      <trkpt lat="42.74189" lon="1.84719">
        <ele>1467</ele>
        <time>2016-11-12T15:05:32Z</time>
      </trkpt>
      <trkpt lat="42.74185" lon="1.8472">
        <ele>1467</ele>
        <time>2016-11-12T15:05:37Z</time>
      </trkpt>
      <trkpt lat="42.74183" lon="1.84717">
        <ele>1467</ele>
        <time>2016-11-12T15:05:42Z</time>
      </trkpt>
      <trkpt lat="42.74184" lon="1.84718">
        <ele>1467</ele>
        <time>2016-11-12T15:05:47Z</time>
      </trkpt>
      <trkpt lat="42.74184" lon="1.84718">
        <ele>1467</ele>
        <time>2016-11-12T15:05:52Z</time>
      </trkpt>
      <trkpt lat="42.74184" lon="1.84718">
        <ele>1467</ele>
        <time>2016-11-12T15:05:57Z</time>
      </trkpt>
      <trkpt lat="42.74184" lon="1.84719">
        <ele>1467</ele>
        <time>2016-11-12T15:06:02Z</time>
      </trkpt>
      <trkpt lat="42.74184" lon="1.84719">
        <ele>1467</ele>
        <time>2016-11-12T15:06:07Z</time>
      </trkpt>
      <trkpt lat="42.74185" lon="1.84719">
        <ele>1467</ele>
        <time>2016-11-12T15:06:12Z</time>
      </trkpt>
      <trkpt lat="42.74186" lon="1.8472">
        <ele>1467</ele>
        <time>2016-11-12T15:06:17Z</time>
      </trkpt>
      <trkpt lat="42.74187" lon="1.8472">
        <ele>1467</ele>
        <time>2016-11-12T15:06:22Z</time>
      </trkpt>
      <trkpt lat="42.74187" lon="1.8472">
        <ele>1467</ele>
        <time>2016-11-12T15:06:27Z</time>
      </trkpt>
      <trkpt lat="42.74187" lon="1.8472">
        <ele>1467</ele>
        <time>2016-11-12T15:06:32Z</time>
      </trkpt>
      <trkpt lat="42.74187" lon="1.84721">
        <ele>1467</ele>
        <time>2016-11-12T15:06:37Z</time>
      </trkpt>
      <trkpt lat="42.74188" lon="1.8472">
        <ele>1467</ele>
        <time>2016-11-12T15:06:42Z</time>
      </trkpt>
      <trkpt lat="42.74188" lon="1.84717">
        <ele>1467</ele>
        <time>2016-11-12T15:06:47Z</time>
      </trkpt>
      <trkpt lat="42.74189" lon="1.84715">
        <ele>1467</ele>
        <time>2016-11-12T15:06:52Z</time>
      </trkpt>
      <trkpt lat="42.74189" lon="1.84715">
        <ele>1467</ele>
        <time>2016-11-12T15:06:57Z</time>
      </trkpt>
      <trkpt lat="42.74188" lon="1.84715">
        <ele>1467</ele>
        <time>2016-11-12T15:07:02Z</time>
      </trkpt>
      <trkpt lat="42.74188" lon="1.84715">
        <ele>1467</ele>
        <time>2016-11-12T15:07:07Z</time>
      </trkpt>
      <trkpt lat="42.74187" lon="1.84716">
        <ele>1467</ele>
        <time>2016-11-12T15:07:12Z</time>
      </trkpt>
      <trkpt lat="42.74187" lon="1.8472">
        <ele>1467</ele>
        <time>2016-11-12T15:07:17Z</time>
      </trkpt>
      <trkpt lat="42.74187" lon="1.8472">
        <ele>1467</ele>
        <time>2016-11-12T15:07:22Z</time>
      </trkpt>
      <trkpt lat="42.74188" lon="1.84721">
        <ele>1467</ele>
        <time>2016-11-12T15:07:27Z</time>
      </trkpt>
      <trkpt lat="42.74187" lon="1.8472">
        <ele>1467</ele>
        <time>2016-11-12T15:07:32Z</time>
      </trkpt>
      <trkpt lat="42.74188" lon="1.84721">
        <ele>1467</ele>
        <time>2016-11-12T15:07:37Z</time>
      </trkpt>
      <trkpt lat="42.74188" lon="1.84722">
        <ele>1467</ele>
        <time>2016-11-12T15:07:42Z</time>
      </trkpt>
      <trkpt lat="42.74188" lon="1.84722">
        <ele>1467</ele>
        <time>2016-11-12T15:07:47Z</time>
      </trkpt>
      <trkpt lat="42.74188" lon="1.84722">
        <ele>1467</ele>
        <time>2016-11-12T15:07:52Z</time>
      </trkpt>
      <trkpt lat="42.74189" lon="1.84722">
        <ele>1467</ele>
        <time>2016-11-12T15:07:57Z</time>
      </trkpt>
      <trkpt lat="42.74189" lon="1.84722">
        <ele>1467</ele>
        <time>2016-11-12T15:08:02Z</time>
      </trkpt>
      <trkpt lat="42.74189" lon="1.84722">
        <ele>1467</ele>
        <time>2016-11-12T15:08:07Z</time>
      </trkpt>
      <trkpt lat="42.74189" lon="1.84722">
        <ele>1467</ele>
        <time>2016-11-12T15:08:12Z</time>
      </trkpt>
      <trkpt lat="42.74189" lon="1.84722">
        <ele>1467</ele>
        <time>2016-11-12T15:08:17Z</time>
      </trkpt>
      <trkpt lat="42.74189" lon="1.8472">
        <ele>1467</ele>
        <time>2016-11-12T15:08:22Z</time>
      </trkpt>
      <trkpt lat="42.74187" lon="1.84715">
        <ele>1467</ele>
        <time>2016-11-12T15:08:27Z</time>
      </trkpt>
      <trkpt lat="42.74187" lon="1.84708">
        <ele>1467</ele>
        <time>2016-11-12T15:08:32Z</time>
      </trkpt>
      <trkpt lat="42.74187" lon="1.84705">
        <ele>1454</ele>
        <time>2016-11-12T15:08:37Z</time>
      </trkpt>
      <trkpt lat="42.74187" lon="1.84697">
        <ele>1454</ele>
        <time>2016-11-12T15:08:42Z</time>
      </trkpt>
      <trkpt lat="42.74187" lon="1.8469">
        <ele>1454</ele>
        <time>2016-11-12T15:08:47Z</time>
      </trkpt>
      <trkpt lat="42.74187" lon="1.84686">
        <ele>1454</ele>
        <time>2016-11-12T15:08:52Z</time>
      </trkpt>
      <trkpt lat="42.74187" lon="1.84675">
        <ele>1454</ele>
        <time>2016-11-12T15:08:57Z</time>
      </trkpt>
      <trkpt lat="42.74185" lon="1.84666">
        <ele>1454</ele>
        <time>2016-11-12T15:09:02Z</time>
      </trkpt>
      <trkpt lat="42.74183" lon="1.84658">
        <ele>1454</ele>
        <time>2016-11-12T15:09:07Z</time>
      </trkpt>
      <trkpt lat="42.74183" lon="1.84651">
        <ele>1454</ele>
        <time>2016-11-12T15:09:12Z</time>
      </trkpt>
      <trkpt lat="42.74183" lon="1.84646">
        <ele>1454</ele>
        <time>2016-11-12T15:09:17Z</time>
      </trkpt>
      <trkpt lat="42.74183" lon="1.84637">
        <ele>1454</ele>
        <time>2016-11-12T15:09:22Z</time>
      </trkpt>
      <trkpt lat="42.74183" lon="1.8463">
        <ele>1454</ele>
        <time>2016-11-12T15:09:27Z</time>
      </trkpt>
      <trkpt lat="42.74182" lon="1.84622">
        <ele>1446</ele>
        <time>2016-11-12T15:09:32Z</time>
      </trkpt>
      <trkpt lat="42.74181" lon="1.84614">
        <ele>1446</ele>
        <time>2016-11-12T15:09:37Z</time>
      </trkpt>
      <trkpt lat="42.74179" lon="1.84605">
        <ele>1446</ele>
        <time>2016-11-12T15:09:42Z</time>
      </trkpt>
      <trkpt lat="42.74178" lon="1.84598">
        <ele>1446</ele>
        <time>2016-11-12T15:09:47Z</time>
      </trkpt>
      <trkpt lat="42.74178" lon="1.84589">
        <ele>1446</ele>
        <time>2016-11-12T15:09:52Z</time>
      </trkpt>
      <trkpt lat="42.74178" lon="1.8458">
        <ele>1446</ele>
        <time>2016-11-12T15:09:57Z</time>
      </trkpt>
      <trkpt lat="42.74178" lon="1.84572">
        <ele>1446</ele>
        <time>2016-11-12T15:10:02Z</time>
      </trkpt>
      <trkpt lat="42.74178" lon="1.84567">
        <ele>1446</ele>
        <time>2016-11-12T15:10:07Z</time>
      </trkpt>
      <trkpt lat="42.74178" lon="1.84557">
        <ele>1446</ele>
        <time>2016-11-12T15:10:12Z</time>
      </trkpt>
      <trkpt lat="42.74181" lon="1.84548">
        <ele>1446</ele>
        <time>2016-11-12T15:10:17Z</time>
      </trkpt>
      <trkpt lat="42.74182" lon="1.8454">
        <ele>1439</ele>
        <time>2016-11-12T15:10:22Z</time>
      </trkpt>
      <trkpt lat="42.74181" lon="1.84534">
        <ele>1439</ele>
        <time>2016-11-12T15:10:27Z</time>
      </trkpt>
      <trkpt lat="42.7418" lon="1.84525">
        <ele>1439</ele>
        <time>2016-11-12T15:10:32Z</time>
      </trkpt>
      <trkpt lat="42.74179" lon="1.84516">
        <ele>1439</ele>
        <time>2016-11-12T15:10:37Z</time>
      </trkpt>
      <trkpt lat="42.74178" lon="1.84507">
        <ele>1439</ele>
        <time>2016-11-12T15:10:42Z</time>
      </trkpt>
      <trkpt lat="42.74175" lon="1.845">
        <ele>1439</ele>
        <time>2016-11-12T15:10:47Z</time>
      </trkpt>
      <trkpt lat="42.74174" lon="1.84495">
        <ele>1439</ele>
        <time>2016-11-12T15:10:52Z</time>
      </trkpt>
      <trkpt lat="42.74175" lon="1.84487">
        <ele>1439</ele>
        <time>2016-11-12T15:10:57Z</time>
      </trkpt>
      <trkpt lat="42.74176" lon="1.8448">
        <ele>1439</ele>
        <time>2016-11-12T15:11:02Z</time>
      </trkpt>
      <trkpt lat="42.74178" lon="1.84472">
        <ele>1439</ele>
        <time>2016-11-12T15:11:07Z</time>
      </trkpt>
      <trkpt lat="42.74179" lon="1.84464">
        <ele>1439</ele>
        <time>2016-11-12T15:11:12Z</time>
      </trkpt>
      <trkpt lat="42.7418" lon="1.84456">
        <ele>1429</ele>
        <time>2016-11-12T15:11:17Z</time>
      </trkpt>
      <trkpt lat="42.7418" lon="1.84448">
        <ele>1429</ele>
        <time>2016-11-12T15:11:22Z</time>
      </trkpt>
      <trkpt lat="42.74179" lon="1.84441">
        <ele>1429</ele>
        <time>2016-11-12T15:11:27Z</time>
      </trkpt>
      <trkpt lat="42.74179" lon="1.84431">
        <ele>1429</ele>
        <time>2016-11-12T15:11:32Z</time>
      </trkpt>
      <trkpt lat="42.74179" lon="1.84424">
        <ele>1429</ele>
        <time>2016-11-12T15:11:37Z</time>
      </trkpt>
      <trkpt lat="42.74182" lon="1.84417">
        <ele>1429</ele>
        <time>2016-11-12T15:11:42Z</time>
      </trkpt>
      <trkpt lat="42.74182" lon="1.84407">
        <ele>1429</ele>
        <time>2016-11-12T15:11:47Z</time>
      </trkpt>
      <trkpt lat="42.74184" lon="1.84398">
        <ele>1429</ele>
        <time>2016-11-12T15:11:52Z</time>
      </trkpt>
      <trkpt lat="42.74184" lon="1.8439">
        <ele>1429</ele>
        <time>2016-11-12T15:11:57Z</time>
      </trkpt>
      <trkpt lat="42.74185" lon="1.84382">
        <ele>1429</ele>
        <time>2016-11-12T15:12:02Z</time>
      </trkpt>
      <trkpt lat="42.74186" lon="1.84375">
        <ele>1429</ele>
        <time>2016-11-12T15:12:07Z</time>
      </trkpt>
      <trkpt lat="42.74188" lon="1.84367">
        <ele>1419</ele>
        <time>2016-11-12T15:12:12Z</time>
      </trkpt>
      <trkpt lat="42.74189" lon="1.84359">
        <ele>1419</ele>
        <time>2016-11-12T15:12:17Z</time>
      </trkpt>
      <trkpt lat="42.7419" lon="1.84353">
        <ele>1419</ele>
        <time>2016-11-12T15:12:22Z</time>
      </trkpt>
      <trkpt lat="42.7419" lon="1.84346">
        <ele>1419</ele>
        <time>2016-11-12T15:12:27Z</time>
      </trkpt>
      <trkpt lat="42.7419" lon="1.84338">
        <ele>1419</ele>
        <time>2016-11-12T15:12:32Z</time>
      </trkpt>
      <trkpt lat="42.7419" lon="1.84331">
        <ele>1419</ele>
        <time>2016-11-12T15:12:37Z</time>
      </trkpt>
      <trkpt lat="42.74192" lon="1.84323">
        <ele>1419</ele>
        <time>2016-11-12T15:12:42Z</time>
      </trkpt>
      <trkpt lat="42.74193" lon="1.84316">
        <ele>1419</ele>
        <time>2016-11-12T15:12:47Z</time>
      </trkpt>
      <trkpt lat="42.74194" lon="1.84312">
        <ele>1419</ele>
        <time>2016-11-12T15:12:52Z</time>
      </trkpt>
      <trkpt lat="42.74194" lon="1.84307">
        <ele>1419</ele>
        <time>2016-11-12T15:12:57Z</time>
      </trkpt>
      <trkpt lat="42.74193" lon="1.84299">
        <ele>1419</ele>
        <time>2016-11-12T15:13:02Z</time>
      </trkpt>
      <trkpt lat="42.74193" lon="1.8429">
        <ele>1407</ele>
        <time>2016-11-12T15:13:07Z</time>
      </trkpt>
      <trkpt lat="42.74193" lon="1.84283">
        <ele>1407</ele>
        <time>2016-11-12T15:13:12Z</time>
      </trkpt>
      <trkpt lat="42.74192" lon="1.84275">
        <ele>1407</ele>
        <time>2016-11-12T15:13:17Z</time>
      </trkpt>
      <trkpt lat="42.74189" lon="1.84264">
        <ele>1407</ele>
        <time>2016-11-12T15:13:22Z</time>
      </trkpt>
      <trkpt lat="42.74188" lon="1.84256">
        <ele>1407</ele>
        <time>2016-11-12T15:13:27Z</time>
      </trkpt>
      <trkpt lat="42.74188" lon="1.84252">
        <ele>1407</ele>
        <time>2016-11-12T15:13:32Z</time>
      </trkpt>
      <trkpt lat="42.74186" lon="1.84245">
        <ele>1407</ele>
        <time>2016-11-12T15:13:37Z</time>
      </trkpt>
      <trkpt lat="42.74184" lon="1.84238">
        <ele>1407</ele>
        <time>2016-11-12T15:13:42Z</time>
      </trkpt>
      <trkpt lat="42.74182" lon="1.84232">
        <ele>1407</ele>
        <time>2016-11-12T15:13:47Z</time>
      </trkpt>
      <trkpt lat="42.74181" lon="1.84227">
        <ele>1407</ele>
        <time>2016-11-12T15:13:52Z</time>
      </trkpt>
      <trkpt lat="42.7418" lon="1.84222">
        <ele>1407</ele>
        <time>2016-11-12T15:13:57Z</time>
      </trkpt>
      <trkpt lat="42.74179" lon="1.84217">
        <ele>1407</ele>
        <time>2016-11-12T15:14:02Z</time>
      </trkpt>
      <trkpt lat="42.74177" lon="1.84215">
        <ele>1407</ele>
        <time>2016-11-12T15:14:07Z</time>
      </trkpt>
      <trkpt lat="42.74175" lon="1.84212">
        <ele>1407</ele>
        <time>2016-11-12T15:14:12Z</time>
      </trkpt>
      <trkpt lat="42.74173" lon="1.84207">
        <ele>1397</ele>
        <time>2016-11-12T15:14:17Z</time>
      </trkpt>
      <trkpt lat="42.74169" lon="1.84201">
        <ele>1397</ele>
        <time>2016-11-12T15:14:22Z</time>
      </trkpt>
      <trkpt lat="42.74167" lon="1.84197">
        <ele>1397</ele>
        <time>2016-11-12T15:14:27Z</time>
      </trkpt>
      <trkpt lat="42.74165" lon="1.84191">
        <ele>1397</ele>
        <time>2016-11-12T15:14:32Z</time>
      </trkpt>
      <trkpt lat="42.74162" lon="1.84187">
        <ele>1397</ele>
        <time>2016-11-12T15:14:37Z</time>
      </trkpt>
      <trkpt lat="42.74158" lon="1.84186">
        <ele>1397</ele>
        <time>2016-11-12T15:14:42Z</time>
      </trkpt>
      <trkpt lat="42.74155" lon="1.84178">
        <ele>1397</ele>
        <time>2016-11-12T15:14:47Z</time>
      </trkpt>
      <trkpt lat="42.74152" lon="1.84172">
        <ele>1397</ele>
        <time>2016-11-12T15:14:52Z</time>
      </trkpt>
      <trkpt lat="42.7415" lon="1.84169">
        <ele>1397</ele>
        <time>2016-11-12T15:14:57Z</time>
      </trkpt>
      <trkpt lat="42.74148" lon="1.84163">
        <ele>1397</ele>
        <time>2016-11-12T15:15:02Z</time>
      </trkpt>
      <trkpt lat="42.74146" lon="1.84156">
        <ele>1397</ele>
        <time>2016-11-12T15:15:07Z</time>
      </trkpt>
      <trkpt lat="42.74142" lon="1.84148">
        <ele>1397</ele>
        <time>2016-11-12T15:15:12Z</time>
      </trkpt>
      <trkpt lat="42.7414" lon="1.84144">
        <ele>1397</ele>
        <time>2016-11-12T15:15:17Z</time>
      </trkpt>
      <trkpt lat="42.74137" lon="1.84137">
        <ele>1397</ele>
        <time>2016-11-12T15:15:22Z</time>
      </trkpt>
      <trkpt lat="42.74135" lon="1.84128">
        <ele>1397</ele>
        <time>2016-11-12T15:15:27Z</time>
      </trkpt>
      <trkpt lat="42.74135" lon="1.84124">
        <ele>1383</ele>
        <time>2016-11-12T15:15:32Z</time>
      </trkpt>
      <trkpt lat="42.74134" lon="1.84115">
        <ele>1383</ele>
        <time>2016-11-12T15:15:37Z</time>
      </trkpt>
      <trkpt lat="42.74131" lon="1.84106">
        <ele>1383</ele>
        <time>2016-11-12T15:15:42Z</time>
      </trkpt>
      <trkpt lat="42.74131" lon="1.84099">
        <ele>1383</ele>
        <time>2016-11-12T15:15:47Z</time>
      </trkpt>
      <trkpt lat="42.74129" lon="1.84091">
        <ele>1383</ele>
        <time>2016-11-12T15:15:52Z</time>
      </trkpt>
      <trkpt lat="42.74126" lon="1.84083">
        <ele>1383</ele>
        <time>2016-11-12T15:15:57Z</time>
      </trkpt>
      <trkpt lat="42.74126" lon="1.84077">
        <ele>1383</ele>
        <time>2016-11-12T15:16:02Z</time>
      </trkpt>
      <trkpt lat="42.74123" lon="1.8407">
        <ele>1395</ele>
        <time>2016-11-12T15:16:07Z</time>
      </trkpt>
      <trkpt lat="42.74124" lon="1.84062">
        <ele>1395</ele>
        <time>2016-11-12T15:16:12Z</time>
      </trkpt>
      <trkpt lat="42.74122" lon="1.84055">
        <ele>1395</ele>
        <time>2016-11-12T15:16:17Z</time>
      </trkpt>
      <trkpt lat="42.74118" lon="1.84046">
        <ele>1395</ele>
        <time>2016-11-12T15:16:22Z</time>
      </trkpt>
      <trkpt lat="42.74114" lon="1.84038">
        <ele>1378</ele>
        <time>2016-11-12T15:16:27Z</time>
      </trkpt>
      <trkpt lat="42.74112" lon="1.84032">
        <ele>1378</ele>
        <time>2016-11-12T15:16:32Z</time>
      </trkpt>
      <trkpt lat="42.7411" lon="1.84027">
        <ele>1378</ele>
        <time>2016-11-12T15:16:37Z</time>
      </trkpt>
      <trkpt lat="42.74109" lon="1.84021">
        <ele>1378</ele>
        <time>2016-11-12T15:16:42Z</time>
      </trkpt>
      <trkpt lat="42.74108" lon="1.84017">
        <ele>1378</ele>
        <time>2016-11-12T15:16:47Z</time>
      </trkpt>
      <trkpt lat="42.74106" lon="1.84012">
        <ele>1378</ele>
        <time>2016-11-12T15:16:52Z</time>
      </trkpt>
      <trkpt lat="42.74105" lon="1.84005">
        <ele>1378</ele>
        <time>2016-11-12T15:16:57Z</time>
      </trkpt>
      <trkpt lat="42.74103" lon="1.84">
        <ele>1378</ele>
        <time>2016-11-12T15:17:02Z</time>
      </trkpt>
      <trkpt lat="42.74102" lon="1.83996">
        <ele>1378</ele>
        <time>2016-11-12T15:17:07Z</time>
      </trkpt>
      <trkpt lat="42.74103" lon="1.83988">
        <ele>1378</ele>
        <time>2016-11-12T15:17:12Z</time>
      </trkpt>
      <trkpt lat="42.74101" lon="1.83979">
        <ele>1378</ele>
        <time>2016-11-12T15:17:17Z</time>
      </trkpt>
      <trkpt lat="42.74099" lon="1.83971">
        <ele>1378</ele>
        <time>2016-11-12T15:17:22Z</time>
      </trkpt>
      <trkpt lat="42.74096" lon="1.83963">
        <ele>1378</ele>
        <time>2016-11-12T15:17:27Z</time>
      </trkpt>
      <trkpt lat="42.74093" lon="1.83955">
        <ele>1355</ele>
        <time>2016-11-12T15:17:32Z</time>
      </trkpt>
      <trkpt lat="42.74091" lon="1.83951">
        <ele>1355</ele>
        <time>2016-11-12T15:17:37Z</time>
      </trkpt>
      <trkpt lat="42.74092" lon="1.83949">
        <ele>1355</ele>
        <time>2016-11-12T15:17:42Z</time>
      </trkpt>
      <trkpt lat="42.74092" lon="1.83948">
        <ele>1355</ele>
        <time>2016-11-12T15:17:47Z</time>
      </trkpt>
      <trkpt lat="42.74089" lon="1.83942">
        <ele>1355</ele>
        <time>2016-11-12T15:17:52Z</time>
      </trkpt>
      <trkpt lat="42.74085" lon="1.83935">
        <ele>1355</ele>
        <time>2016-11-12T15:17:57Z</time>
      </trkpt>
      <trkpt lat="42.74083" lon="1.83931">
        <ele>1355</ele>
        <time>2016-11-12T15:18:02Z</time>
      </trkpt>
      <trkpt lat="42.74081" lon="1.83926">
        <ele>1355</ele>
        <time>2016-11-12T15:18:07Z</time>
      </trkpt>
      <trkpt lat="42.7408" lon="1.83921">
        <ele>1355</ele>
        <time>2016-11-12T15:18:12Z</time>
      </trkpt>
      <trkpt lat="42.74077" lon="1.83917">
        <ele>1355</ele>
        <time>2016-11-12T15:18:17Z</time>
      </trkpt>
      <trkpt lat="42.74073" lon="1.83913">
        <ele>1355</ele>
        <time>2016-11-12T15:18:22Z</time>
      </trkpt>
      <trkpt lat="42.74068" lon="1.83909">
        <ele>1355</ele>
        <time>2016-11-12T15:18:27Z</time>
      </trkpt>
      <trkpt lat="42.74066" lon="1.83903">
        <ele>1355</ele>
        <time>2016-11-12T15:18:32Z</time>
      </trkpt>
      <trkpt lat="42.74063" lon="1.83898">
        <ele>1355</ele>
        <time>2016-11-12T15:18:37Z</time>
      </trkpt>
      <trkpt lat="42.7406" lon="1.83894">
        <ele>1355</ele>
        <time>2016-11-12T15:18:42Z</time>
      </trkpt>
      <trkpt lat="42.74057" lon="1.8389">
        <ele>1355</ele>
        <time>2016-11-12T15:18:47Z</time>
      </trkpt>
      <trkpt lat="42.74056" lon="1.83886">
        <ele>1355</ele>
        <time>2016-11-12T15:18:52Z</time>
      </trkpt>
      <trkpt lat="42.74053" lon="1.83884">
        <ele>1355</ele>
        <time>2016-11-12T15:18:57Z</time>
      </trkpt>
      <trkpt lat="42.74049" lon="1.83879">
        <ele>1355</ele>
        <time>2016-11-12T15:19:02Z</time>
      </trkpt>
      <trkpt lat="42.74046" lon="1.83874">
        <ele>1329</ele>
        <time>2016-11-12T15:19:07Z</time>
      </trkpt>
      <trkpt lat="42.74043" lon="1.83872">
        <ele>1329</ele>
        <time>2016-11-12T15:19:12Z</time>
      </trkpt>
      <trkpt lat="42.74038" lon="1.83867">
        <ele>1328</ele>
        <time>2016-11-12T15:19:17Z</time>
      </trkpt>
      <trkpt lat="42.74035" lon="1.83863">
        <ele>1328</ele>
        <time>2016-11-12T15:19:22Z</time>
      </trkpt>
      <trkpt lat="42.74032" lon="1.83858">
        <ele>1328</ele>
        <time>2016-11-12T15:19:27Z</time>
      </trkpt>
      <trkpt lat="42.74028" lon="1.83854">
        <ele>1328</ele>
        <time>2016-11-12T15:19:32Z</time>
      </trkpt>
      <trkpt lat="42.74024" lon="1.8385">
        <ele>1328</ele>
        <time>2016-11-12T15:19:37Z</time>
      </trkpt>
      <trkpt lat="42.74019" lon="1.83847">
        <ele>1328</ele>
        <time>2016-11-12T15:19:42Z</time>
      </trkpt>
      <trkpt lat="42.74016" lon="1.83844">
        <ele>1328</ele>
        <time>2016-11-12T15:19:47Z</time>
      </trkpt>
      <trkpt lat="42.74012" lon="1.83843">
        <ele>1328</ele>
        <time>2016-11-12T15:19:52Z</time>
      </trkpt>
      <trkpt lat="42.74007" lon="1.83843">
        <ele>1328</ele>
        <time>2016-11-12T15:19:57Z</time>
      </trkpt>
      <trkpt lat="42.74002" lon="1.83849">
        <ele>1328</ele>
        <time>2016-11-12T15:20:02Z</time>
      </trkpt>
      <trkpt lat="42.73999" lon="1.83847">
        <ele>1328</ele>
        <time>2016-11-12T15:20:07Z</time>
      </trkpt>
      <trkpt lat="42.73997" lon="1.83842">
        <ele>1328</ele>
        <time>2016-11-12T15:20:12Z</time>
      </trkpt>
      <trkpt lat="42.73995" lon="1.83836">
        <ele>1328</ele>
        <time>2016-11-12T15:20:17Z</time>
      </trkpt>
      <trkpt lat="42.73992" lon="1.83835">
        <ele>1328</ele>
        <time>2016-11-12T15:20:22Z</time>
      </trkpt>
      <trkpt lat="42.73991" lon="1.83834">
        <ele>1328</ele>
        <time>2016-11-12T15:20:27Z</time>
      </trkpt>
      <trkpt lat="42.73986" lon="1.83831">
        <ele>1328</ele>
        <time>2016-11-12T15:20:32Z</time>
      </trkpt>
      <trkpt lat="42.73984" lon="1.83827">
        <ele>1328</ele>
        <time>2016-11-12T15:20:37Z</time>
      </trkpt>
      <trkpt lat="42.73983" lon="1.83826">
        <ele>1328</ele>
        <time>2016-11-12T15:20:42Z</time>
      </trkpt>
      <trkpt lat="42.73982" lon="1.83823">
        <ele>1328</ele>
        <time>2016-11-12T15:20:47Z</time>
      </trkpt>
      <trkpt lat="42.73978" lon="1.83821">
        <ele>1328</ele>
        <time>2016-11-12T15:20:52Z</time>
      </trkpt>
      <trkpt lat="42.73974" lon="1.83819">
        <ele>1328</ele>
        <time>2016-11-12T15:20:57Z</time>
      </trkpt>
      <trkpt lat="42.73971" lon="1.83818">
        <ele>1328</ele>
        <time>2016-11-12T15:21:02Z</time>
      </trkpt>
      <trkpt lat="42.73967" lon="1.83816">
        <ele>1328</ele>
        <time>2016-11-12T15:21:07Z</time>
      </trkpt>
      <trkpt lat="42.73963" lon="1.83814">
        <ele>1328</ele>
        <time>2016-11-12T15:21:12Z</time>
      </trkpt>
      <trkpt lat="42.73961" lon="1.83812">
        <ele>1328</ele>
        <time>2016-11-12T15:21:17Z</time>
      </trkpt>
      <trkpt lat="42.73958" lon="1.83809">
        <ele>1307</ele>
        <time>2016-11-12T15:21:22Z</time>
      </trkpt>
      <trkpt lat="42.73955" lon="1.83807">
        <ele>1307</ele>
        <time>2016-11-12T15:21:27Z</time>
      </trkpt>
      <trkpt lat="42.73951" lon="1.83806">
        <ele>1307</ele>
        <time>2016-11-12T15:21:32Z</time>
      </trkpt>
      <trkpt lat="42.73948" lon="1.83801">
        <ele>1307</ele>
        <time>2016-11-12T15:21:37Z</time>
      </trkpt>
      <trkpt lat="42.73947" lon="1.83799">
        <ele>1307</ele>
        <time>2016-11-12T15:21:42Z</time>
      </trkpt>
      <trkpt lat="42.73945" lon="1.83798">
        <ele>1307</ele>
        <time>2016-11-12T15:21:47Z</time>
      </trkpt>
      <trkpt lat="42.73944" lon="1.83798">
        <ele>1307</ele>
        <time>2016-11-12T15:21:52Z</time>
      </trkpt>
      <trkpt lat="42.7394" lon="1.83797">
        <ele>1307</ele>
        <time>2016-11-12T15:21:57Z</time>
      </trkpt>
      <trkpt lat="42.73938" lon="1.83796">
        <ele>1307</ele>
        <time>2016-11-12T15:22:02Z</time>
      </trkpt>
      <trkpt lat="42.73933" lon="1.83796">
        <ele>1307</ele>
        <time>2016-11-12T15:22:07Z</time>
      </trkpt>
      <trkpt lat="42.73928" lon="1.83796">
        <ele>1307</ele>
        <time>2016-11-12T15:22:12Z</time>
      </trkpt>
      <trkpt lat="42.73922" lon="1.83798">
        <ele>1307</ele>
        <time>2016-11-12T15:22:17Z</time>
      </trkpt>
      <trkpt lat="42.73918" lon="1.83799">
        <ele>1307</ele>
        <time>2016-11-12T15:22:22Z</time>
      </trkpt>
      <trkpt lat="42.73915" lon="1.83794">
        <ele>1307</ele>
        <time>2016-11-12T15:22:27Z</time>
      </trkpt>
      <trkpt lat="42.73912" lon="1.83793">
        <ele>1307</ele>
        <time>2016-11-12T15:22:32Z</time>
      </trkpt>
      <trkpt lat="42.73909" lon="1.83792">
        <ele>1307</ele>
        <time>2016-11-12T15:22:37Z</time>
      </trkpt>
      <trkpt lat="42.73904" lon="1.83789">
        <ele>1285</ele>
        <time>2016-11-12T15:22:42Z</time>
      </trkpt>
      <trkpt lat="42.73902" lon="1.83787">
        <ele>1285</ele>
        <time>2016-11-12T15:22:47Z</time>
      </trkpt>
      <trkpt lat="42.739" lon="1.83787">
        <ele>1285</ele>
        <time>2016-11-12T15:22:52Z</time>
      </trkpt>
      <trkpt lat="42.73896" lon="1.83783">
        <ele>1285</ele>
        <time>2016-11-12T15:22:57Z</time>
      </trkpt>
      <trkpt lat="42.73894" lon="1.83779">
        <ele>1285</ele>
        <time>2016-11-12T15:23:02Z</time>
      </trkpt>
      <trkpt lat="42.73891" lon="1.83776">
        <ele>1285</ele>
        <time>2016-11-12T15:23:07Z</time>
      </trkpt>
      <trkpt lat="42.73889" lon="1.83773">
        <ele>1285</ele>
        <time>2016-11-12T15:23:12Z</time>
      </trkpt>
      <trkpt lat="42.73887" lon="1.8377">
        <ele>1285</ele>
        <time>2016-11-12T15:23:17Z</time>
      </trkpt>
      <trkpt lat="42.73886" lon="1.83767">
        <ele>1285</ele>
        <time>2016-11-12T15:23:22Z</time>
      </trkpt>
      <trkpt lat="42.73884" lon="1.83761">
        <ele>1285</ele>
        <time>2016-11-12T15:23:27Z</time>
      </trkpt>
      <trkpt lat="42.73882" lon="1.83756">
        <ele>1285</ele>
        <time>2016-11-12T15:23:32Z</time>
      </trkpt>
      <trkpt lat="42.7388" lon="1.83751">
        <ele>1285</ele>
        <time>2016-11-12T15:23:37Z</time>
      </trkpt>
      <trkpt lat="42.73878" lon="1.83746">
        <ele>1285</ele>
        <time>2016-11-12T15:23:42Z</time>
      </trkpt>
      <trkpt lat="42.73877" lon="1.83741">
        <ele>1285</ele>
        <time>2016-11-12T15:23:47Z</time>
      </trkpt>
      <trkpt lat="42.73877" lon="1.83736">
        <ele>1285</ele>
        <time>2016-11-12T15:23:52Z</time>
      </trkpt>
      <trkpt lat="42.73874" lon="1.83727">
        <ele>1269</ele>
        <time>2016-11-12T15:23:57Z</time>
      </trkpt>
      <trkpt lat="42.73871" lon="1.83719">
        <ele>1269</ele>
        <time>2016-11-12T15:24:02Z</time>
      </trkpt>
      <trkpt lat="42.73869" lon="1.83711">
        <ele>1269</ele>
        <time>2016-11-12T15:24:07Z</time>
      </trkpt>
      <trkpt lat="42.73871" lon="1.83703">
        <ele>1252</ele>
        <time>2016-11-12T15:24:12Z</time>
      </trkpt>
      <trkpt lat="42.73874" lon="1.83697">
        <ele>1252</ele>
        <time>2016-11-12T15:24:17Z</time>
      </trkpt>
      <trkpt lat="42.73877" lon="1.83693">
        <ele>1264</ele>
        <time>2016-11-12T15:24:22Z</time>
      </trkpt>
      <trkpt lat="42.73882" lon="1.83688">
        <ele>1264</ele>
        <time>2016-11-12T15:24:27Z</time>
      </trkpt>
      <trkpt lat="42.73887" lon="1.83682">
        <ele>1264</ele>
        <time>2016-11-12T15:24:32Z</time>
      </trkpt>
      <trkpt lat="42.73891" lon="1.83677">
        <ele>1264</ele>
        <time>2016-11-12T15:24:37Z</time>
      </trkpt>
      <trkpt lat="42.73894" lon="1.83675">
        <ele>1264</ele>
        <time>2016-11-12T15:24:42Z</time>
      </trkpt>
      <trkpt lat="42.73897" lon="1.83673">
        <ele>1264</ele>
        <time>2016-11-12T15:24:47Z</time>
      </trkpt>
      <trkpt lat="42.73902" lon="1.83668">
        <ele>1264</ele>
        <time>2016-11-12T15:24:52Z</time>
      </trkpt>
      <trkpt lat="42.73907" lon="1.83665">
        <ele>1264</ele>
        <time>2016-11-12T15:24:57Z</time>
      </trkpt>
      <trkpt lat="42.73914" lon="1.83659">
        <ele>1264</ele>
        <time>2016-11-12T15:25:02Z</time>
      </trkpt>
      <trkpt lat="42.73917" lon="1.83656">
        <ele>1264</ele>
        <time>2016-11-12T15:25:07Z</time>
      </trkpt>
      <trkpt lat="42.73919" lon="1.83655">
        <ele>1264</ele>
        <time>2016-11-12T15:25:12Z</time>
      </trkpt>
      <trkpt lat="42.73925" lon="1.8365">
        <ele>1264</ele>
        <time>2016-11-12T15:25:17Z</time>
      </trkpt>
      <trkpt lat="42.73931" lon="1.83646">
        <ele>1264</ele>
        <time>2016-11-12T15:25:22Z</time>
      </trkpt>
      <trkpt lat="42.73939" lon="1.83642">
        <ele>1264</ele>
        <time>2016-11-12T15:25:27Z</time>
      </trkpt>
      <trkpt lat="42.73943" lon="1.8364">
        <ele>1264</ele>
        <time>2016-11-12T15:25:32Z</time>
      </trkpt>
      <trkpt lat="42.73947" lon="1.83636">
        <ele>1264</ele>
        <time>2016-11-12T15:25:37Z</time>
      </trkpt>
      <trkpt lat="42.73952" lon="1.83632">
        <ele>1264</ele>
        <time>2016-11-12T15:25:42Z</time>
      </trkpt>
      <trkpt lat="42.73954" lon="1.8363">
        <ele>1264</ele>
        <time>2016-11-12T15:25:47Z</time>
      </trkpt>
      <trkpt lat="42.73958" lon="1.83627">
        <ele>1264</ele>
        <time>2016-11-12T15:25:52Z</time>
      </trkpt>
      <trkpt lat="42.73964" lon="1.83623">
        <ele>1237</ele>
        <time>2016-11-12T15:25:57Z</time>
      </trkpt>
      <trkpt lat="42.73969" lon="1.8362">
        <ele>1237</ele>
        <time>2016-11-12T15:26:02Z</time>
      </trkpt>
      <trkpt lat="42.73975" lon="1.83616">
        <ele>1237</ele>
        <time>2016-11-12T15:26:07Z</time>
      </trkpt>
      <trkpt lat="42.73978" lon="1.83614">
        <ele>1237</ele>
        <time>2016-11-12T15:26:12Z</time>
      </trkpt>
      <trkpt lat="42.73983" lon="1.83615">
        <ele>1237</ele>
        <time>2016-11-12T15:26:17Z</time>
      </trkpt>
      <trkpt lat="42.7399" lon="1.83613">
        <ele>1237</ele>
        <time>2016-11-12T15:26:22Z</time>
      </trkpt>
      <trkpt lat="42.73995" lon="1.83613">
        <ele>1237</ele>
        <time>2016-11-12T15:26:27Z</time>
      </trkpt>
      <trkpt lat="42.74003" lon="1.83613">
        <ele>1237</ele>
        <time>2016-11-12T15:26:32Z</time>
      </trkpt>
      <trkpt lat="42.74006" lon="1.83612">
        <ele>1237</ele>
        <time>2016-11-12T15:26:37Z</time>
      </trkpt>
      <trkpt lat="42.74009" lon="1.83608">
        <ele>1237</ele>
        <time>2016-11-12T15:26:42Z</time>
      </trkpt>
      <trkpt lat="42.74012" lon="1.83605">
        <ele>1237</ele>
        <time>2016-11-12T15:26:47Z</time>
      </trkpt>
      <trkpt lat="42.74015" lon="1.83606">
        <ele>1237</ele>
        <time>2016-11-12T15:26:52Z</time>
      </trkpt>
      <trkpt lat="42.7402" lon="1.83606">
        <ele>1237</ele>
        <time>2016-11-12T15:26:57Z</time>
      </trkpt>
      <trkpt lat="42.74026" lon="1.83603">
        <ele>1237</ele>
        <time>2016-11-12T15:27:02Z</time>
      </trkpt>
      <trkpt lat="42.74031" lon="1.83602">
        <ele>1237</ele>
        <time>2016-11-12T15:27:07Z</time>
      </trkpt>
      <trkpt lat="42.74034" lon="1.83601">
        <ele>1237</ele>
        <time>2016-11-12T15:27:12Z</time>
      </trkpt>
      <trkpt lat="42.74034" lon="1.83599">
        <ele>1237</ele>
        <time>2016-11-12T15:27:17Z</time>
      </trkpt>
      <trkpt lat="42.74031" lon="1.83594">
        <ele>1237</ele>
        <time>2016-11-12T15:27:22Z</time>
      </trkpt>
      <trkpt lat="42.74029" lon="1.83591">
        <ele>1237</ele>
        <time>2016-11-12T15:27:27Z</time>
      </trkpt>
      <trkpt lat="42.74027" lon="1.83588">
        <ele>1237</ele>
        <time>2016-11-12T15:27:32Z</time>
      </trkpt>
      <trkpt lat="42.74024" lon="1.83585">
        <ele>1237</ele>
        <time>2016-11-12T15:27:37Z</time>
      </trkpt>
      <trkpt lat="42.74022" lon="1.83582">
        <ele>1237</ele>
        <time>2016-11-12T15:27:42Z</time>
      </trkpt>
      <trkpt lat="42.74019" lon="1.83579">
        <ele>1237</ele>
        <time>2016-11-12T15:27:47Z</time>
      </trkpt>
      <trkpt lat="42.74016" lon="1.83576">
        <ele>1237</ele>
        <time>2016-11-12T15:27:52Z</time>
      </trkpt>
      <trkpt lat="42.74012" lon="1.83571">
        <ele>1237</ele>
        <time>2016-11-12T15:27:57Z</time>
      </trkpt>
      <trkpt lat="42.74006" lon="1.83567">
        <ele>1237</ele>
        <time>2016-11-12T15:28:02Z</time>
      </trkpt>
      <trkpt lat="42.73998" lon="1.83563">
        <ele>1237</ele>
        <time>2016-11-12T15:28:07Z</time>
      </trkpt>
      <trkpt lat="42.73992" lon="1.83561">
        <ele>1237</ele>
        <time>2016-11-12T15:28:12Z</time>
      </trkpt>
      <trkpt lat="42.7399" lon="1.8356">
        <ele>1237</ele>
        <time>2016-11-12T15:28:17Z</time>
      </trkpt>
      <trkpt lat="42.73987" lon="1.83559">
        <ele>1237</ele>
        <time>2016-11-12T15:28:22Z</time>
      </trkpt>
      <trkpt lat="42.73983" lon="1.83561">
        <ele>1237</ele>
        <time>2016-11-12T15:28:27Z</time>
      </trkpt>
      <trkpt lat="42.73979" lon="1.83563">
        <ele>1237</ele>
        <time>2016-11-12T15:28:32Z</time>
      </trkpt>
      <trkpt lat="42.73978" lon="1.83564">
        <ele>1237</ele>
        <time>2016-11-12T15:28:37Z</time>
      </trkpt>
      <trkpt lat="42.73976" lon="1.83563">
        <ele>1237</ele>
        <time>2016-11-12T15:28:42Z</time>
      </trkpt>
      <trkpt lat="42.73974" lon="1.83562">
        <ele>1237</ele>
        <time>2016-11-12T15:28:47Z</time>
      </trkpt>
      <trkpt lat="42.73974" lon="1.83559">
        <ele>1237</ele>
        <time>2016-11-12T15:28:52Z</time>
      </trkpt>
      <trkpt lat="42.73974" lon="1.83556">
        <ele>1237</ele>
        <time>2016-11-12T15:28:57Z</time>
      </trkpt>
      <trkpt lat="42.73975" lon="1.83549">
        <ele>1237</ele>
        <time>2016-11-12T15:29:02Z</time>
      </trkpt>
      <trkpt lat="42.73976" lon="1.83547">
        <ele>1237</ele>
        <time>2016-11-12T15:29:07Z</time>
      </trkpt>
      <trkpt lat="42.73978" lon="1.83545">
        <ele>1237</ele>
        <time>2016-11-12T15:29:12Z</time>
      </trkpt>
      <trkpt lat="42.73979" lon="1.83544">
        <ele>1237</ele>
        <time>2016-11-12T15:29:17Z</time>
      </trkpt>
      <trkpt lat="42.73979" lon="1.83542">
        <ele>1237</ele>
        <time>2016-11-12T15:29:22Z</time>
      </trkpt>
      <trkpt lat="42.73978" lon="1.8354">
        <ele>1210</ele>
        <time>2016-11-12T15:29:27Z</time>
      </trkpt>
      <trkpt lat="42.73979" lon="1.83537">
        <ele>1210</ele>
        <time>2016-11-12T15:29:32Z</time>
      </trkpt>
      <trkpt lat="42.7398" lon="1.83535">
        <ele>1210</ele>
        <time>2016-11-12T15:29:37Z</time>
      </trkpt>
      <trkpt lat="42.7398" lon="1.83532">
        <ele>1210</ele>
        <time>2016-11-12T15:29:42Z</time>
      </trkpt>
      <trkpt lat="42.73982" lon="1.83527">
        <ele>1210</ele>
        <time>2016-11-12T15:29:47Z</time>
      </trkpt>
      <trkpt lat="42.73983" lon="1.83525">
        <ele>1210</ele>
        <time>2016-11-12T15:29:52Z</time>
      </trkpt>
      <trkpt lat="42.73984" lon="1.83524">
        <ele>1210</ele>
        <time>2016-11-12T15:29:57Z</time>
      </trkpt>
      <trkpt lat="42.73985" lon="1.83521">
        <ele>1210</ele>
        <time>2016-11-12T15:30:02Z</time>
      </trkpt>
      <trkpt lat="42.73986" lon="1.83518">
        <ele>1210</ele>
        <time>2016-11-12T15:30:07Z</time>
      </trkpt>
      <trkpt lat="42.73985" lon="1.83512">
        <ele>1210</ele>
        <time>2016-11-12T15:30:12Z</time>
      </trkpt>
      <trkpt lat="42.73988" lon="1.83511">
        <ele>1210</ele>
        <time>2016-11-12T15:30:17Z</time>
      </trkpt>
      <trkpt lat="42.73988" lon="1.8351">
        <ele>1210</ele>
        <time>2016-11-12T15:30:22Z</time>
      </trkpt>
      <trkpt lat="42.7399" lon="1.83508">
        <ele>1210</ele>
        <time>2016-11-12T15:30:27Z</time>
      </trkpt>
      <trkpt lat="42.7399" lon="1.83506">
        <ele>1210</ele>
        <time>2016-11-12T15:30:32Z</time>
      </trkpt>
      <trkpt lat="42.73988" lon="1.835">
        <ele>1210</ele>
        <time>2016-11-12T15:30:37Z</time>
      </trkpt>
      <trkpt lat="42.73986" lon="1.83495">
        <ele>1210</ele>
        <time>2016-11-12T15:30:42Z</time>
      </trkpt>
      <trkpt lat="42.73987" lon="1.8349">
        <ele>1210</ele>
        <time>2016-11-12T15:30:47Z</time>
      </trkpt>
      <trkpt lat="42.73988" lon="1.83486">
        <ele>1210</ele>
        <time>2016-11-12T15:30:52Z</time>
      </trkpt>
      <trkpt lat="42.73988" lon="1.83483">
        <ele>1210</ele>
        <time>2016-11-12T15:30:57Z</time>
      </trkpt>
      <trkpt lat="42.73986" lon="1.83481">
        <ele>1210</ele>
        <time>2016-11-12T15:31:02Z</time>
      </trkpt>
      <trkpt lat="42.73985" lon="1.83482">
        <ele>1210</ele>
        <time>2016-11-12T15:31:07Z</time>
      </trkpt>
      <trkpt lat="42.7398" lon="1.8348">
        <ele>1210</ele>
        <time>2016-11-12T15:31:12Z</time>
      </trkpt>
      <trkpt lat="42.73976" lon="1.83478">
        <ele>1210</ele>
        <time>2016-11-12T15:31:17Z</time>
      </trkpt>
      <trkpt lat="42.73973" lon="1.83477">
        <ele>1210</ele>
        <time>2016-11-12T15:31:22Z</time>
      </trkpt>
      <trkpt lat="42.7397" lon="1.83476">
        <ele>1210</ele>
        <time>2016-11-12T15:31:27Z</time>
      </trkpt>
      <trkpt lat="42.73967" lon="1.83474">
        <ele>1210</ele>
        <time>2016-11-12T15:31:32Z</time>
      </trkpt>
      <trkpt lat="42.73962" lon="1.8347">
        <ele>1210</ele>
        <time>2016-11-12T15:31:37Z</time>
      </trkpt>
      <trkpt lat="42.73959" lon="1.83469">
        <ele>1210</ele>
        <time>2016-11-12T15:31:42Z</time>
      </trkpt>
      <trkpt lat="42.73958" lon="1.83469">
        <ele>1213</ele>
        <time>2016-11-12T15:31:47Z</time>
      </trkpt>
      <trkpt lat="42.73957" lon="1.83469">
        <ele>1213</ele>
        <time>2016-11-12T15:31:52Z</time>
      </trkpt>
      <trkpt lat="42.73953" lon="1.83467">
        <ele>1213</ele>
        <time>2016-11-12T15:31:57Z</time>
      </trkpt>
      <trkpt lat="42.73951" lon="1.83468">
        <ele>1213</ele>
        <time>2016-11-12T15:32:02Z</time>
      </trkpt>
      <trkpt lat="42.73951" lon="1.83468">
        <ele>1213</ele>
        <time>2016-11-12T15:32:07Z</time>
      </trkpt>
      <trkpt lat="42.73951" lon="1.83466">
        <ele>1213</ele>
        <time>2016-11-12T15:32:12Z</time>
      </trkpt>
      <trkpt lat="42.73951" lon="1.83464">
        <ele>1213</ele>
        <time>2016-11-12T15:32:17Z</time>
      </trkpt>
      <trkpt lat="42.73948" lon="1.83458">
        <ele>1180</ele>
        <time>2016-11-12T15:32:22Z</time>
      </trkpt>
      <trkpt lat="42.73948" lon="1.83457">
        <ele>1180</ele>
        <time>2016-11-12T15:32:27Z</time>
      </trkpt>
      <trkpt lat="42.73948" lon="1.83452">
        <ele>1180</ele>
        <time>2016-11-12T15:32:32Z</time>
      </trkpt>
      <trkpt lat="42.73952" lon="1.83444">
        <ele>1180</ele>
        <time>2016-11-12T15:32:37Z</time>
      </trkpt>
      <trkpt lat="42.73954" lon="1.83437">
        <ele>1180</ele>
        <time>2016-11-12T15:32:42Z</time>
      </trkpt>
      <trkpt lat="42.73954" lon="1.83437">
        <ele>1180</ele>
        <time>2016-11-12T15:32:47Z</time>
      </trkpt>
      <trkpt lat="42.73954" lon="1.83437">
        <ele>1180</ele>
        <time>2016-11-12T15:32:52Z</time>
      </trkpt>
      <trkpt lat="42.73951" lon="1.83434">
        <ele>1180</ele>
        <time>2016-11-12T15:32:57Z</time>
      </trkpt>
      <trkpt lat="42.73947" lon="1.83432">
        <ele>1180</ele>
        <time>2016-11-12T15:33:02Z</time>
      </trkpt>
      <trkpt lat="42.73941" lon="1.8343">
        <ele>1180</ele>
        <time>2016-11-12T15:33:07Z</time>
      </trkpt>
      <trkpt lat="42.73937" lon="1.83427">
        <ele>1180</ele>
        <time>2016-11-12T15:33:12Z</time>
      </trkpt>
      <trkpt lat="42.73932" lon="1.83424">
        <ele>1180</ele>
        <time>2016-11-12T15:33:17Z</time>
      </trkpt>
      <trkpt lat="42.73929" lon="1.83422">
        <ele>1180</ele>
        <time>2016-11-12T15:33:22Z</time>
      </trkpt>
      <trkpt lat="42.73924" lon="1.83421">
        <ele>1180</ele>
        <time>2016-11-12T15:33:27Z</time>
      </trkpt>
      <trkpt lat="42.7392" lon="1.83423">
        <ele>1180</ele>
        <time>2016-11-12T15:33:32Z</time>
      </trkpt>
      <trkpt lat="42.73917" lon="1.83419">
        <ele>1180</ele>
        <time>2016-11-12T15:33:37Z</time>
      </trkpt>
      <trkpt lat="42.73921" lon="1.83414">
        <ele>1180</ele>
        <time>2016-11-12T15:33:42Z</time>
      </trkpt>
      <trkpt lat="42.73926" lon="1.83408">
        <ele>1180</ele>
        <time>2016-11-12T15:33:47Z</time>
      </trkpt>
      <trkpt lat="42.73929" lon="1.83404">
        <ele>1180</ele>
        <time>2016-11-12T15:33:52Z</time>
      </trkpt>
      <trkpt lat="42.73932" lon="1.83401">
        <ele>1180</ele>
        <time>2016-11-12T15:33:57Z</time>
      </trkpt>
      <trkpt lat="42.73938" lon="1.83396">
        <ele>1180</ele>
        <time>2016-11-12T15:34:02Z</time>
      </trkpt>
      <trkpt lat="42.73944" lon="1.83394">
        <ele>1180</ele>
        <time>2016-11-12T15:34:07Z</time>
      </trkpt>
      <trkpt lat="42.73945" lon="1.83392">
        <ele>1180</ele>
        <time>2016-11-12T15:34:12Z</time>
      </trkpt>
      <trkpt lat="42.73948" lon="1.83389">
        <ele>1180</ele>
        <time>2016-11-12T15:34:17Z</time>
      </trkpt>
      <trkpt lat="42.73954" lon="1.83382">
        <ele>1180</ele>
        <time>2016-11-12T15:34:22Z</time>
      </trkpt>
      <trkpt lat="42.73954" lon="1.83381">
        <ele>1180</ele>
        <time>2016-11-12T15:34:27Z</time>
      </trkpt>
      <trkpt lat="42.73954" lon="1.8338">
        <ele>1180</ele>
        <time>2016-11-12T15:34:32Z</time>
      </trkpt>
      <trkpt lat="42.73953" lon="1.83378">
        <ele>1180</ele>
        <time>2016-11-12T15:34:37Z</time>
      </trkpt>
      <trkpt lat="42.7395" lon="1.83376">
        <ele>1180</ele>
        <time>2016-11-12T15:34:42Z</time>
      </trkpt>
      <trkpt lat="42.73947" lon="1.83375">
        <ele>1180</ele>
        <time>2016-11-12T15:34:47Z</time>
      </trkpt>
      <trkpt lat="42.73946" lon="1.83372">
        <ele>1153</ele>
        <time>2016-11-12T15:34:52Z</time>
      </trkpt>
      <trkpt lat="42.73947" lon="1.8337">
        <ele>1153</ele>
        <time>2016-11-12T15:34:57Z</time>
      </trkpt>
      <trkpt lat="42.73951" lon="1.83365">
        <ele>1153</ele>
        <time>2016-11-12T15:35:02Z</time>
      </trkpt>
      <trkpt lat="42.7395" lon="1.83365">
        <ele>1153</ele>
        <time>2016-11-12T15:35:07Z</time>
      </trkpt>
      <trkpt lat="42.73946" lon="1.83366">
        <ele>1153</ele>
        <time>2016-11-12T15:35:12Z</time>
      </trkpt>
      <trkpt lat="42.73942" lon="1.83366">
        <ele>1153</ele>
        <time>2016-11-12T15:35:17Z</time>
      </trkpt>
      <trkpt lat="42.73936" lon="1.83367">
        <ele>1153</ele>
        <time>2016-11-12T15:35:22Z</time>
      </trkpt>
      <trkpt lat="42.73931" lon="1.83368">
        <ele>1153</ele>
        <time>2016-11-12T15:35:27Z</time>
      </trkpt>
      <trkpt lat="42.73926" lon="1.83372">
        <ele>1153</ele>
        <time>2016-11-12T15:35:32Z</time>
      </trkpt>
      <trkpt lat="42.73922" lon="1.83373">
        <ele>1153</ele>
        <time>2016-11-12T15:35:37Z</time>
      </trkpt>
      <trkpt lat="42.7392" lon="1.83372">
        <ele>1153</ele>
        <time>2016-11-12T15:35:42Z</time>
      </trkpt>
      <trkpt lat="42.73919" lon="1.8337">
        <ele>1153</ele>
        <time>2016-11-12T15:35:47Z</time>
      </trkpt>
      <trkpt lat="42.73919" lon="1.83366">
        <ele>1153</ele>
        <time>2016-11-12T15:35:52Z</time>
      </trkpt>
      <trkpt lat="42.73919" lon="1.83365">
        <ele>1153</ele>
        <time>2016-11-12T15:35:57Z</time>
      </trkpt>
      <trkpt lat="42.73921" lon="1.83366">
        <ele>1153</ele>
        <time>2016-11-12T15:36:02Z</time>
      </trkpt>
      <trkpt lat="42.73922" lon="1.83366">
        <ele>1153</ele>
        <time>2016-11-12T15:36:07Z</time>
      </trkpt>
      <trkpt lat="42.73922" lon="1.83364">
        <ele>1153</ele>
        <time>2016-11-12T15:36:12Z</time>
      </trkpt>
      <trkpt lat="42.73922" lon="1.83364">
        <ele>1153</ele>
        <time>2016-11-12T15:36:17Z</time>
      </trkpt>
      <trkpt lat="42.73922" lon="1.83361">
        <ele>1153</ele>
        <time>2016-11-12T15:36:22Z</time>
      </trkpt>
      <trkpt lat="42.73923" lon="1.8336">
        <ele>1153</ele>
        <time>2016-11-12T15:36:27Z</time>
      </trkpt>
      <trkpt lat="42.73924" lon="1.83358">
        <ele>1153</ele>
        <time>2016-11-12T15:36:32Z</time>
      </trkpt>
      <trkpt lat="42.73924" lon="1.83358">
        <ele>1153</ele>
        <time>2016-11-12T15:36:37Z</time>
      </trkpt>
      <trkpt lat="42.73923" lon="1.83358">
        <ele>1153</ele>
        <time>2016-11-12T15:36:42Z</time>
      </trkpt>
      <trkpt lat="42.73921" lon="1.83359">
        <ele>1153</ele>
        <time>2016-11-12T15:36:47Z</time>
      </trkpt>
      <trkpt lat="42.73917" lon="1.8336">
        <ele>1153</ele>
        <time>2016-11-12T15:36:52Z</time>
      </trkpt>
      <trkpt lat="42.73912" lon="1.83359">
        <ele>1153</ele>
        <time>2016-11-12T15:36:57Z</time>
      </trkpt>
      <trkpt lat="42.73912" lon="1.83359">
        <ele>1153</ele>
        <time>2016-11-12T15:37:02Z</time>
      </trkpt>
      <trkpt lat="42.73911" lon="1.8336">
        <ele>1153</ele>
        <time>2016-11-12T15:37:07Z</time>
      </trkpt>
      <trkpt lat="42.73911" lon="1.8336">
        <ele>1153</ele>
        <time>2016-11-12T15:37:12Z</time>
      </trkpt>
      <trkpt lat="42.73911" lon="1.83361">
        <ele>1153</ele>
        <time>2016-11-12T15:37:17Z</time>
      </trkpt>
      <trkpt lat="42.7391" lon="1.83361">
        <ele>1153</ele>
        <time>2016-11-12T15:37:22Z</time>
      </trkpt>
      <trkpt lat="42.73911" lon="1.83359">
        <ele>1153</ele>
        <time>2016-11-12T15:37:27Z</time>
      </trkpt>
      <trkpt lat="42.7391" lon="1.83358">
        <ele>1153</ele>
        <time>2016-11-12T15:37:32Z</time>
      </trkpt>
      <trkpt lat="42.73911" lon="1.8335">
        <ele>1153</ele>
        <time>2016-11-12T15:37:37Z</time>
      </trkpt>
      <trkpt lat="42.73911" lon="1.83347">
        <ele>1153</ele>
        <time>2016-11-12T15:37:42Z</time>
      </trkpt>
      <trkpt lat="42.73914" lon="1.83342">
        <ele>1153</ele>
        <time>2016-11-12T15:37:47Z</time>
      </trkpt>
      <trkpt lat="42.73917" lon="1.83334">
        <ele>1153</ele>
        <time>2016-11-12T15:37:52Z</time>
      </trkpt>
      <trkpt lat="42.73917" lon="1.8333">
        <ele>1153</ele>
        <time>2016-11-12T15:37:57Z</time>
      </trkpt>
      <trkpt lat="42.73915" lon="1.83325">
        <ele>1153</ele>
        <time>2016-11-12T15:38:02Z</time>
      </trkpt>
      <trkpt lat="42.73914" lon="1.83324">
        <ele>1153</ele>
        <time>2016-11-12T15:38:07Z</time>
      </trkpt>
      <trkpt lat="42.73914" lon="1.83321">
        <ele>1153</ele>
        <time>2016-11-12T15:38:12Z</time>
      </trkpt>
      <trkpt lat="42.73918" lon="1.83317">
        <ele>1153</ele>
        <time>2016-11-12T15:38:17Z</time>
      </trkpt>
      <trkpt lat="42.73918" lon="1.83316">
        <ele>1153</ele>
        <time>2016-11-12T15:38:22Z</time>
      </trkpt>
      <trkpt lat="42.73915" lon="1.83311">
        <ele>1153</ele>
        <time>2016-11-12T15:38:27Z</time>
      </trkpt>
      <trkpt lat="42.73916" lon="1.83307">
        <ele>1153</ele>
        <time>2016-11-12T15:38:32Z</time>
      </trkpt>
      <trkpt lat="42.73916" lon="1.83309">
        <ele>1153</ele>
        <time>2016-11-12T15:38:37Z</time>
      </trkpt>
      <trkpt lat="42.73914" lon="1.83309">
        <ele>1153</ele>
        <time>2016-11-12T15:38:42Z</time>
      </trkpt>
      <trkpt lat="42.7391" lon="1.83307">
        <ele>1153</ele>
        <time>2016-11-12T15:38:47Z</time>
      </trkpt>
      <trkpt lat="42.73904" lon="1.83305">
        <ele>1153</ele>
        <time>2016-11-12T15:38:52Z</time>
      </trkpt>
      <trkpt lat="42.73901" lon="1.83302">
        <ele>1153</ele>
        <time>2016-11-12T15:38:57Z</time>
      </trkpt>
      <trkpt lat="42.73899" lon="1.83297">
        <ele>1153</ele>
        <time>2016-11-12T15:39:02Z</time>
      </trkpt>
      <trkpt lat="42.73899" lon="1.83292">
        <ele>1153</ele>
        <time>2016-11-12T15:39:07Z</time>
      </trkpt>
      <trkpt lat="42.73899" lon="1.8329">
        <ele>1124</ele>
        <time>2016-11-12T15:39:12Z</time>
      </trkpt>
      <trkpt lat="42.73898" lon="1.83289">
        <ele>1124</ele>
        <time>2016-11-12T15:39:17Z</time>
      </trkpt>
      <trkpt lat="42.73897" lon="1.83288">
        <ele>1124</ele>
        <time>2016-11-12T15:39:22Z</time>
      </trkpt>
      <trkpt lat="42.73897" lon="1.83288">
        <ele>1124</ele>
        <time>2016-11-12T15:39:27Z</time>
      </trkpt>
      <trkpt lat="42.73896" lon="1.83285">
        <ele>1124</ele>
        <time>2016-11-12T15:39:32Z</time>
      </trkpt>
      <trkpt lat="42.73894" lon="1.83284">
        <ele>1124</ele>
        <time>2016-11-12T15:39:37Z</time>
      </trkpt>
      <trkpt lat="42.73891" lon="1.83281">
        <ele>1124</ele>
        <time>2016-11-12T15:39:42Z</time>
      </trkpt>
      <trkpt lat="42.73887" lon="1.83279">
        <ele>1124</ele>
        <time>2016-11-12T15:39:47Z</time>
      </trkpt>
      <trkpt lat="42.73884" lon="1.83277">
        <ele>1124</ele>
        <time>2016-11-12T15:39:52Z</time>
      </trkpt>
      <trkpt lat="42.73881" lon="1.83274">
        <ele>1124</ele>
        <time>2016-11-12T15:39:57Z</time>
      </trkpt>
      <trkpt lat="42.73874" lon="1.83272">
        <ele>1118</ele>
        <time>2016-11-12T15:40:02Z</time>
      </trkpt>
      <trkpt lat="42.73868" lon="1.83266">
        <ele>1118</ele>
        <time>2016-11-12T15:40:07Z</time>
      </trkpt>
      <trkpt lat="42.73865" lon="1.83259">
        <ele>1118</ele>
        <time>2016-11-12T15:40:12Z</time>
      </trkpt>
      <trkpt lat="42.7387" lon="1.83255">
        <ele>1118</ele>
        <time>2016-11-12T15:40:17Z</time>
      </trkpt>
      <trkpt lat="42.73874" lon="1.83252">
        <ele>1118</ele>
        <time>2016-11-12T15:40:22Z</time>
      </trkpt>
      <trkpt lat="42.73874" lon="1.83253">
        <ele>1118</ele>
        <time>2016-11-12T15:40:27Z</time>
      </trkpt>
      <trkpt lat="42.73871" lon="1.83246">
        <ele>1118</ele>
        <time>2016-11-12T15:40:32Z</time>
      </trkpt>
      <trkpt lat="42.73866" lon="1.83244">
        <ele>1118</ele>
        <time>2016-11-12T15:40:37Z</time>
      </trkpt>
      <trkpt lat="42.73859" lon="1.83238">
        <ele>1118</ele>
        <time>2016-11-12T15:40:42Z</time>
      </trkpt>
      <trkpt lat="42.73855" lon="1.83236">
        <ele>1118</ele>
        <time>2016-11-12T15:40:47Z</time>
      </trkpt>
      <trkpt lat="42.73852" lon="1.83236">
        <ele>1118</ele>
        <time>2016-11-12T15:40:52Z</time>
      </trkpt>
      <trkpt lat="42.73848" lon="1.83236">
        <ele>1118</ele>
        <time>2016-11-12T15:40:57Z</time>
      </trkpt>
      <trkpt lat="42.73843" lon="1.83232">
        <ele>1118</ele>
        <time>2016-11-12T15:41:02Z</time>
      </trkpt>
      <trkpt lat="42.73838" lon="1.83231">
        <ele>1118</ele>
        <time>2016-11-12T15:41:07Z</time>
      </trkpt>
      <trkpt lat="42.73832" lon="1.8323">
        <ele>1118</ele>
        <time>2016-11-12T15:41:12Z</time>
      </trkpt>
      <trkpt lat="42.73827" lon="1.8323">
        <ele>1118</ele>
        <time>2016-11-12T15:41:17Z</time>
      </trkpt>
      <trkpt lat="42.73821" lon="1.83232">
        <ele>1118</ele>
        <time>2016-11-12T15:41:22Z</time>
      </trkpt>
      <trkpt lat="42.73816" lon="1.83234">
        <ele>1118</ele>
        <time>2016-11-12T15:41:27Z</time>
      </trkpt>
      <trkpt lat="42.73812" lon="1.8323">
        <ele>1118</ele>
        <time>2016-11-12T15:41:32Z</time>
      </trkpt>
      <trkpt lat="42.73808" lon="1.83225">
        <ele>1118</ele>
        <time>2016-11-12T15:41:37Z</time>
      </trkpt>
      <trkpt lat="42.73802" lon="1.83222">
        <ele>1118</ele>
        <time>2016-11-12T15:41:42Z</time>
      </trkpt>
      <trkpt lat="42.73795" lon="1.83226">
        <ele>1118</ele>
        <time>2016-11-12T15:41:47Z</time>
      </trkpt>
      <trkpt lat="42.73787" lon="1.8323">
        <ele>1108</ele>
        <time>2016-11-12T15:41:52Z</time>
      </trkpt>
      <trkpt lat="42.7378" lon="1.83231">
        <ele>1108</ele>
        <time>2016-11-12T15:41:57Z</time>
      </trkpt>
      <trkpt lat="42.73775" lon="1.83231">
        <ele>1108</ele>
        <time>2016-11-12T15:42:02Z</time>
      </trkpt>
      <trkpt lat="42.73768" lon="1.83233">
        <ele>1108</ele>
        <time>2016-11-12T15:42:07Z</time>
      </trkpt>
      <trkpt lat="42.73761" lon="1.83233">
        <ele>1108</ele>
        <time>2016-11-12T15:42:12Z</time>
      </trkpt>
      <trkpt lat="42.73757" lon="1.83233">
        <ele>1108</ele>
        <time>2016-11-12T15:42:17Z</time>
      </trkpt>
      <trkpt lat="42.73751" lon="1.83235">
        <ele>1108</ele>
        <time>2016-11-12T15:42:22Z</time>
      </trkpt>
      <trkpt lat="42.73744" lon="1.83234">
        <ele>1108</ele>
        <time>2016-11-12T15:42:27Z</time>
      </trkpt>
      <trkpt lat="42.73739" lon="1.83232">
        <ele>1108</ele>
        <time>2016-11-12T15:42:32Z</time>
      </trkpt>
      <trkpt lat="42.73733" lon="1.83229">
        <ele>1108</ele>
        <time>2016-11-12T15:42:37Z</time>
      </trkpt>
      <trkpt lat="42.73728" lon="1.83229">
        <ele>1108</ele>
        <time>2016-11-12T15:42:42Z</time>
      </trkpt>
      <trkpt lat="42.73723" lon="1.83223">
        <ele>1108</ele>
        <time>2016-11-12T15:42:47Z</time>
      </trkpt>
      <trkpt lat="42.73715" lon="1.83218">
        <ele>1108</ele>
        <time>2016-11-12T15:42:52Z</time>
      </trkpt>
      <trkpt lat="42.73708" lon="1.83214">
        <ele>1108</ele>
        <time>2016-11-12T15:42:57Z</time>
      </trkpt>
      <trkpt lat="42.73702" lon="1.83211">
        <ele>1108</ele>
        <time>2016-11-12T15:43:02Z</time>
      </trkpt>
      <trkpt lat="42.73695" lon="1.83206">
        <ele>1083</ele>
        <time>2016-11-12T15:43:07Z</time>
      </trkpt>
      <trkpt lat="42.73688" lon="1.832">
        <ele>1083</ele>
        <time>2016-11-12T15:43:12Z</time>
      </trkpt>
      <trkpt lat="42.73685" lon="1.83193">
        <ele>1083</ele>
        <time>2016-11-12T15:43:17Z</time>
      </trkpt>
      <trkpt lat="42.73681" lon="1.83181">
        <ele>1083</ele>
        <time>2016-11-12T15:43:22Z</time>
      </trkpt>
      <trkpt lat="42.73677" lon="1.83174">
        <ele>1083</ele>
        <time>2016-11-12T15:43:27Z</time>
      </trkpt>
      <trkpt lat="42.73672" lon="1.83167">
        <ele>1083</ele>
        <time>2016-11-12T15:43:32Z</time>
      </trkpt>
      <trkpt lat="42.73667" lon="1.83164">
        <ele>1083</ele>
        <time>2016-11-12T15:43:37Z</time>
      </trkpt>
      <trkpt lat="42.73666" lon="1.83166">
        <ele>1083</ele>
        <time>2016-11-12T15:43:42Z</time>
      </trkpt>
      <trkpt lat="42.73666" lon="1.83166">
        <ele>1083</ele>
        <time>2016-11-12T15:43:47Z</time>
      </trkpt>
      <trkpt lat="42.73662" lon="1.83168">
        <ele>1083</ele>
        <time>2016-11-12T15:43:52Z</time>
      </trkpt>
      <trkpt lat="42.7366" lon="1.83171">
        <ele>1083</ele>
        <time>2016-11-12T15:43:57Z</time>
      </trkpt>
      <trkpt lat="42.73656" lon="1.83174">
        <ele>1083</ele>
        <time>2016-11-12T15:44:02Z</time>
      </trkpt>
      <trkpt lat="42.73653" lon="1.83178">
        <ele>1083</ele>
        <time>2016-11-12T15:44:07Z</time>
      </trkpt>
      <trkpt lat="42.73649" lon="1.8318">
        <ele>1083</ele>
        <time>2016-11-12T15:44:12Z</time>
      </trkpt>
      <trkpt lat="42.73644" lon="1.83183">
        <ele>1083</ele>
        <time>2016-11-12T15:44:17Z</time>
      </trkpt>
      <trkpt lat="42.73637" lon="1.83186">
        <ele>1083</ele>
        <time>2016-11-12T15:44:22Z</time>
      </trkpt>
      <trkpt lat="42.73632" lon="1.8319">
        <ele>1083</ele>
        <time>2016-11-12T15:44:27Z</time>
      </trkpt>
      <trkpt lat="42.73627" lon="1.83193">
        <ele>1083</ele>
        <time>2016-11-12T15:44:32Z</time>
      </trkpt>
      <trkpt lat="42.73623" lon="1.83199">
        <ele>1058</ele>
        <time>2016-11-12T15:44:37Z</time>
      </trkpt>
      <trkpt lat="42.7362" lon="1.83207">
        <ele>1058</ele>
        <time>2016-11-12T15:44:42Z</time>
      </trkpt>
      <trkpt lat="42.73618" lon="1.83217">
        <ele>1084</ele>
        <time>2016-11-12T15:44:47Z</time>
      </trkpt>
      <trkpt lat="42.73615" lon="1.83226">
        <ele>1084</ele>
        <time>2016-11-12T15:44:52Z</time>
      </trkpt>
      <trkpt lat="42.73613" lon="1.83233">
        <ele>1084</ele>
        <time>2016-11-12T15:44:57Z</time>
      </trkpt>
      <trkpt lat="42.73609" lon="1.83239">
        <ele>1084</ele>
        <time>2016-11-12T15:45:02Z</time>
      </trkpt>
      <trkpt lat="42.73607" lon="1.83244">
        <ele>1084</ele>
        <time>2016-11-12T15:45:07Z</time>
      </trkpt>
      <trkpt lat="42.73604" lon="1.83249">
        <ele>1084</ele>
        <time>2016-11-12T15:45:12Z</time>
      </trkpt>
      <trkpt lat="42.736" lon="1.83258">
        <ele>1084</ele>
        <time>2016-11-12T15:45:17Z</time>
      </trkpt>
      <trkpt lat="42.73597" lon="1.83265">
        <ele>1084</ele>
        <time>2016-11-12T15:45:22Z</time>
      </trkpt>
      <trkpt lat="42.73595" lon="1.83267">
        <ele>1084</ele>
        <time>2016-11-12T15:45:27Z</time>
      </trkpt>
      <trkpt lat="42.73595" lon="1.83268">
        <ele>1084</ele>
        <time>2016-11-12T15:45:32Z</time>
      </trkpt>
      <trkpt lat="42.73595" lon="1.83269">
        <ele>1084</ele>
        <time>2016-11-12T15:45:37Z</time>
      </trkpt>
      <trkpt lat="42.73595" lon="1.83269">
        <ele>1084</ele>
        <time>2016-11-12T15:45:42Z</time>
      </trkpt>
      <trkpt lat="42.73595" lon="1.83269">
        <ele>1084</ele>
        <time>2016-11-12T15:45:47Z</time>
      </trkpt>
      <trkpt lat="42.73595" lon="1.83269">
        <ele>1084</ele>
        <time>2016-11-12T15:45:52Z</time>
      </trkpt>
      <trkpt lat="42.73595" lon="1.83269">
        <ele>1084</ele>
        <time>2016-11-12T15:45:57Z</time>
      </trkpt>
      <trkpt lat="42.73595" lon="1.83269">
        <ele>1084</ele>
        <time>2016-11-12T15:46:02Z</time>
      </trkpt>
      <trkpt lat="42.73595" lon="1.83276">
        <ele>1084</ele>
        <time>2016-11-12T15:46:07Z</time>
      </trkpt>
      <trkpt lat="42.73595" lon="1.83276">
        <ele>1084</ele>
        <time>2016-11-12T15:46:12Z</time>
      </trkpt>
      <trkpt lat="42.73594" lon="1.83276">
        <ele>1084</ele>
        <time>2016-11-12T15:46:17Z</time>
      </trkpt>
      <trkpt lat="42.73594" lon="1.83273">
        <ele>1084</ele>
        <time>2016-11-12T15:46:22Z</time>
      </trkpt>
      <trkpt lat="42.73594" lon="1.8327">
        <ele>1084</ele>
        <time>2016-11-12T15:46:27Z</time>
      </trkpt>
      <trkpt lat="42.73594" lon="1.83268">
        <ele>1084</ele>
        <time>2016-11-12T15:46:32Z</time>
      </trkpt>
      <trkpt lat="42.73594" lon="1.83268">
        <ele>1084</ele>
        <time>2016-11-12T15:46:37Z</time>
      </trkpt>
      <trkpt lat="42.73594" lon="1.83268">
        <ele>1084</ele>
        <time>2016-11-12T15:46:42Z</time>
      </trkpt>
      <trkpt lat="42.73594" lon="1.83268">
        <ele>1084</ele>
        <time>2016-11-12T15:46:47Z</time>
      </trkpt>
      <trkpt lat="42.73594" lon="1.83268">
        <ele>1084</ele>
        <time>2016-11-12T15:46:52Z</time>
      </trkpt>
      <trkpt lat="42.73594" lon="1.83269">
        <ele>1084</ele>
        <time>2016-11-12T15:46:57Z</time>
      </trkpt>
      <trkpt lat="42.73595" lon="1.83269">
        <ele>1084</ele>
        <time>2016-11-12T15:47:02Z</time>
      </trkpt>
      <trkpt lat="42.73595" lon="1.8327">
        <ele>1084</ele>
        <time>2016-11-12T15:47:07Z</time>
      </trkpt>
      <trkpt lat="42.73591" lon="1.83273">
        <ele>1084</ele>
        <time>2016-11-12T15:47:12Z</time>
      </trkpt>
      <trkpt lat="42.73587" lon="1.83279">
        <ele>1084</ele>
        <time>2016-11-12T15:47:17Z</time>
      </trkpt>
      <trkpt lat="42.73585" lon="1.83281">
        <ele>1084</ele>
        <time>2016-11-12T15:47:22Z</time>
      </trkpt>
      <trkpt lat="42.73582" lon="1.83286">
        <ele>1084</ele>
        <time>2016-11-12T15:47:27Z</time>
      </trkpt>
      <trkpt lat="42.73579" lon="1.83292">
        <ele>1090</ele>
        <time>2016-11-12T15:47:32Z</time>
      </trkpt>
      <trkpt lat="42.73577" lon="1.83298">
        <ele>1090</ele>
        <time>2016-11-12T15:47:37Z</time>
      </trkpt>
      <trkpt lat="42.73575" lon="1.83306">
        <ele>1090</ele>
        <time>2016-11-12T15:47:42Z</time>
      </trkpt>
      <trkpt lat="42.73573" lon="1.83314">
        <ele>1090</ele>
        <time>2016-11-12T15:47:47Z</time>
      </trkpt>
      <trkpt lat="42.73571" lon="1.83321">
        <ele>1090</ele>
        <time>2016-11-12T15:47:52Z</time>
      </trkpt>
      <trkpt lat="42.73568" lon="1.83327">
        <ele>1090</ele>
        <time>2016-11-12T15:47:57Z</time>
      </trkpt>
      <trkpt lat="42.73567" lon="1.83334">
        <ele>1090</ele>
        <time>2016-11-12T15:48:02Z</time>
      </trkpt>
      <trkpt lat="42.73564" lon="1.83342">
        <ele>1090</ele>
        <time>2016-11-12T15:48:07Z</time>
      </trkpt>
      <trkpt lat="42.73561" lon="1.8335">
        <ele>1090</ele>
        <time>2016-11-12T15:48:12Z</time>
      </trkpt>
      <trkpt lat="42.73557" lon="1.83356">
        <ele>1090</ele>
        <time>2016-11-12T15:48:17Z</time>
      </trkpt>
      <trkpt lat="42.73552" lon="1.83363">
        <ele>1090</ele>
        <time>2016-11-12T15:48:22Z</time>
      </trkpt>
      <trkpt lat="42.73548" lon="1.8337">
        <ele>1090</ele>
        <time>2016-11-12T15:48:27Z</time>
      </trkpt>
      <trkpt lat="42.73544" lon="1.83374">
        <ele>1090</ele>
        <time>2016-11-12T15:48:32Z</time>
      </trkpt>
      <trkpt lat="42.73541" lon="1.83378">
        <ele>1060</ele>
        <time>2016-11-12T15:48:37Z</time>
      </trkpt>
      <trkpt lat="42.73539" lon="1.83387">
        <ele>1060</ele>
        <time>2016-11-12T15:48:42Z</time>
      </trkpt>
      <trkpt lat="42.73537" lon="1.83393">
        <ele>1060</ele>
        <time>2016-11-12T15:48:47Z</time>
      </trkpt>
      <trkpt lat="42.73532" lon="1.83398">
        <ele>1060</ele>
        <time>2016-11-12T15:48:52Z</time>
      </trkpt>
      <trkpt lat="42.73528" lon="1.83401">
        <ele>1060</ele>
        <time>2016-11-12T15:48:57Z</time>
      </trkpt>
      <trkpt lat="42.73524" lon="1.83406">
        <ele>1060</ele>
        <time>2016-11-12T15:49:02Z</time>
      </trkpt>
      <trkpt lat="42.73521" lon="1.83414">
        <ele>1060</ele>
        <time>2016-11-12T15:49:07Z</time>
      </trkpt>
      <trkpt lat="42.73518" lon="1.83421">
        <ele>1060</ele>
        <time>2016-11-12T15:49:12Z</time>
      </trkpt>
      <trkpt lat="42.73516" lon="1.83427">
        <ele>1060</ele>
        <time>2016-11-12T15:49:17Z</time>
      </trkpt>
      <trkpt lat="42.73516" lon="1.83432">
        <ele>1060</ele>
        <time>2016-11-12T15:49:22Z</time>
      </trkpt>
      <trkpt lat="42.73514" lon="1.83436">
        <ele>1060</ele>
        <time>2016-11-12T15:49:27Z</time>
      </trkpt>
      <trkpt lat="42.73508" lon="1.83441">
        <ele>1060</ele>
        <time>2016-11-12T15:49:32Z</time>
      </trkpt>
      <trkpt lat="42.73504" lon="1.83444">
        <ele>1060</ele>
        <time>2016-11-12T15:49:37Z</time>
      </trkpt>
      <trkpt lat="42.735" lon="1.83451">
        <ele>1060</ele>
        <time>2016-11-12T15:49:42Z</time>
      </trkpt>
      <trkpt lat="42.73498" lon="1.83455">
        <ele>1060</ele>
        <time>2016-11-12T15:49:47Z</time>
      </trkpt>
      <trkpt lat="42.73496" lon="1.83461">
        <ele>1066</ele>
        <time>2016-11-12T15:49:52Z</time>
      </trkpt>
      <trkpt lat="42.73493" lon="1.83466">
        <ele>1066</ele>
        <time>2016-11-12T15:49:57Z</time>
      </trkpt>
      <trkpt lat="42.73493" lon="1.83472">
        <ele>1066</ele>
        <time>2016-11-12T15:50:02Z</time>
      </trkpt>
      <trkpt lat="42.73491" lon="1.83481">
        <ele>1066</ele>
        <time>2016-11-12T15:50:07Z</time>
      </trkpt>
      <trkpt lat="42.73489" lon="1.83488">
        <ele>1066</ele>
        <time>2016-11-12T15:50:12Z</time>
      </trkpt>
      <trkpt lat="42.73486" lon="1.83495">
        <ele>1066</ele>
        <time>2016-11-12T15:50:17Z</time>
      </trkpt>
      <trkpt lat="42.73481" lon="1.83502">
        <ele>1066</ele>
        <time>2016-11-12T15:50:22Z</time>
      </trkpt>
      <trkpt lat="42.73478" lon="1.83512">
        <ele>1066</ele>
        <time>2016-11-12T15:50:27Z</time>
      </trkpt>
      <trkpt lat="42.73476" lon="1.83519">
        <ele>1066</ele>
        <time>2016-11-12T15:50:32Z</time>
      </trkpt>
      <trkpt lat="42.73474" lon="1.83523">
        <ele>1066</ele>
        <time>2016-11-12T15:50:37Z</time>
      </trkpt>
      <trkpt lat="42.73469" lon="1.83527">
        <ele>1066</ele>
        <time>2016-11-12T15:50:42Z</time>
      </trkpt>
      <trkpt lat="42.73467" lon="1.83531">
        <ele>1066</ele>
        <time>2016-11-12T15:50:47Z</time>
      </trkpt>
      <trkpt lat="42.73464" lon="1.83533">
        <ele>1066</ele>
        <time>2016-11-12T15:50:52Z</time>
      </trkpt>
      <trkpt lat="42.7346" lon="1.83536">
        <ele>1066</ele>
        <time>2016-11-12T15:50:57Z</time>
      </trkpt>
      <trkpt lat="42.73456" lon="1.83536">
        <ele>1033</ele>
        <time>2016-11-12T15:51:02Z</time>
      </trkpt>
      <trkpt lat="42.73448" lon="1.83539">
        <ele>1033</ele>
        <time>2016-11-12T15:51:07Z</time>
      </trkpt>
      <trkpt lat="42.73442" lon="1.83543">
        <ele>1042</ele>
        <time>2016-11-12T15:51:12Z</time>
      </trkpt>
      <trkpt lat="42.73439" lon="1.83547">
        <ele>1042</ele>
        <time>2016-11-12T15:51:17Z</time>
      </trkpt>
      <trkpt lat="42.73432" lon="1.83551">
        <ele>1042</ele>
        <time>2016-11-12T15:51:22Z</time>
      </trkpt>
      <trkpt lat="42.7343" lon="1.83558">
        <ele>1042</ele>
        <time>2016-11-12T15:51:27Z</time>
      </trkpt>
      <trkpt lat="42.7343" lon="1.83562">
        <ele>1042</ele>
        <time>2016-11-12T15:51:32Z</time>
      </trkpt>
      <trkpt lat="42.73428" lon="1.83566">
        <ele>1042</ele>
        <time>2016-11-12T15:51:37Z</time>
      </trkpt>
      <trkpt lat="42.73428" lon="1.83569">
        <ele>1042</ele>
        <time>2016-11-12T15:51:42Z</time>
      </trkpt>
      <trkpt lat="42.73424" lon="1.83564">
        <ele>1042</ele>
        <time>2016-11-12T15:51:47Z</time>
      </trkpt>
      <trkpt lat="42.73424" lon="1.83561">
        <ele>1042</ele>
        <time>2016-11-12T15:51:52Z</time>
      </trkpt>
      <trkpt lat="42.73423" lon="1.83558">
        <ele>1042</ele>
        <time>2016-11-12T15:51:57Z</time>
      </trkpt>
      <trkpt lat="42.73422" lon="1.83555">
        <ele>1042</ele>
        <time>2016-11-12T15:52:02Z</time>
      </trkpt>
      <trkpt lat="42.73419" lon="1.83552">
        <ele>1042</ele>
        <time>2016-11-12T15:52:07Z</time>
      </trkpt>
      <trkpt lat="42.73419" lon="1.83554">
        <ele>1042</ele>
        <time>2016-11-12T15:52:12Z</time>
      </trkpt>
      <trkpt lat="42.73416" lon="1.83563">
        <ele>1042</ele>
        <time>2016-11-12T15:52:17Z</time>
      </trkpt>
      <trkpt lat="42.73413" lon="1.83567">
        <ele>1042</ele>
        <time>2016-11-12T15:52:22Z</time>
      </trkpt>
      <trkpt lat="42.73411" lon="1.83572">
        <ele>1042</ele>
        <time>2016-11-12T15:52:27Z</time>
      </trkpt>
      <trkpt lat="42.73411" lon="1.83573">
        <ele>1042</ele>
        <time>2016-11-12T15:52:32Z</time>
      </trkpt>
      <trkpt lat="42.73408" lon="1.83579">
        <ele>1042</ele>
        <time>2016-11-12T15:52:37Z</time>
      </trkpt>
      <trkpt lat="42.73407" lon="1.83582">
        <ele>1042</ele>
        <time>2016-11-12T15:52:42Z</time>
      </trkpt>
      <trkpt lat="42.73407" lon="1.83585">
        <ele>1042</ele>
        <time>2016-11-12T15:52:47Z</time>
      </trkpt>
      <trkpt lat="42.73407" lon="1.83586">
        <ele>1042</ele>
        <time>2016-11-12T15:52:52Z</time>
      </trkpt>
      <trkpt lat="42.73405" lon="1.83587">
        <ele>1042</ele>
        <time>2016-11-12T15:52:57Z</time>
      </trkpt>
      <trkpt lat="42.73404" lon="1.83588">
        <ele>1042</ele>
        <time>2016-11-12T15:53:02Z</time>
      </trkpt>
      <trkpt lat="42.73401" lon="1.83594">
        <ele>1042</ele>
        <time>2016-11-12T15:53:07Z</time>
      </trkpt>
      <trkpt lat="42.73397" lon="1.83601">
        <ele>1042</ele>
        <time>2016-11-12T15:53:12Z</time>
      </trkpt>
      <trkpt lat="42.73392" lon="1.83606">
        <ele>1042</ele>
        <time>2016-11-12T15:53:17Z</time>
      </trkpt>
      <trkpt lat="42.73389" lon="1.8361">
        <ele>1042</ele>
        <time>2016-11-12T15:53:22Z</time>
      </trkpt>
      <trkpt lat="42.73386" lon="1.83614">
        <ele>1042</ele>
        <time>2016-11-12T15:53:27Z</time>
      </trkpt>
      <trkpt lat="42.73384" lon="1.83619">
        <ele>1042</ele>
        <time>2016-11-12T15:53:32Z</time>
      </trkpt>
      <trkpt lat="42.73381" lon="1.83622">
        <ele>1042</ele>
        <time>2016-11-12T15:53:37Z</time>
      </trkpt>
      <trkpt lat="42.73377" lon="1.83626">
        <ele>1048</ele>
        <time>2016-11-12T15:53:42Z</time>
      </trkpt>
      <trkpt lat="42.73373" lon="1.8363">
        <ele>1014</ele>
        <time>2016-11-12T15:53:47Z</time>
      </trkpt>
      <trkpt lat="42.73372" lon="1.83631">
        <ele>1014</ele>
        <time>2016-11-12T15:53:52Z</time>
      </trkpt>
      <trkpt lat="42.73371" lon="1.83634">
        <ele>1014</ele>
        <time>2016-11-12T15:53:57Z</time>
      </trkpt>
      <trkpt lat="42.73371" lon="1.83634">
        <ele>1014</ele>
        <time>2016-11-12T15:54:02Z</time>
      </trkpt>
      <trkpt lat="42.73369" lon="1.83636">
        <ele>1014</ele>
        <time>2016-11-12T15:54:07Z</time>
      </trkpt>
      <trkpt lat="42.73369" lon="1.83637">
        <ele>1014</ele>
        <time>2016-11-12T15:54:12Z</time>
      </trkpt>
      <trkpt lat="42.73366" lon="1.83642">
        <ele>1014</ele>
        <time>2016-11-12T15:54:17Z</time>
      </trkpt>
      <trkpt lat="42.73362" lon="1.83649">
        <ele>1014</ele>
        <time>2016-11-12T15:54:22Z</time>
      </trkpt>
      <trkpt lat="42.73357" lon="1.83652">
        <ele>1014</ele>
        <time>2016-11-12T15:54:27Z</time>
      </trkpt>
      <trkpt lat="42.73354" lon="1.83656">
        <ele>1014</ele>
        <time>2016-11-12T15:54:32Z</time>
      </trkpt>
      <trkpt lat="42.7335" lon="1.83662">
        <ele>1014</ele>
        <time>2016-11-12T15:54:37Z</time>
      </trkpt>
      <trkpt lat="42.73347" lon="1.83667">
        <ele>1014</ele>
        <time>2016-11-12T15:54:42Z</time>
      </trkpt>
      <trkpt lat="42.73343" lon="1.83674">
        <ele>1014</ele>
        <time>2016-11-12T15:54:47Z</time>
      </trkpt>
      <trkpt lat="42.7334" lon="1.83682">
        <ele>1014</ele>
        <time>2016-11-12T15:54:52Z</time>
      </trkpt>
      <trkpt lat="42.73338" lon="1.83687">
        <ele>1014</ele>
        <time>2016-11-12T15:54:57Z</time>
      </trkpt>
      <trkpt lat="42.73336" lon="1.83693">
        <ele>1014</ele>
        <time>2016-11-12T15:55:02Z</time>
      </trkpt>
      <trkpt lat="42.73335" lon="1.83699">
        <ele>1014</ele>
        <time>2016-11-12T15:55:07Z</time>
      </trkpt>
      <trkpt lat="42.73334" lon="1.83707">
        <ele>1014</ele>
        <time>2016-11-12T15:55:12Z</time>
      </trkpt>
      <trkpt lat="42.73334" lon="1.8371">
        <ele>1019</ele>
        <time>2016-11-12T15:55:17Z</time>
      </trkpt>
      <trkpt lat="42.73333" lon="1.83712">
        <ele>1019</ele>
        <time>2016-11-12T15:55:22Z</time>
      </trkpt>
      <trkpt lat="42.73331" lon="1.83723">
        <ele>1019</ele>
        <time>2016-11-12T15:55:27Z</time>
      </trkpt>
      <trkpt lat="42.73331" lon="1.83733">
        <ele>1019</ele>
        <time>2016-11-12T15:55:32Z</time>
      </trkpt>
      <trkpt lat="42.73333" lon="1.83738">
        <ele>1019</ele>
        <time>2016-11-12T15:55:37Z</time>
      </trkpt>
      <trkpt lat="42.73334" lon="1.83744">
        <ele>1019</ele>
        <time>2016-11-12T15:55:42Z</time>
      </trkpt>
      <trkpt lat="42.73334" lon="1.8375">
        <ele>1019</ele>
        <time>2016-11-12T15:55:47Z</time>
      </trkpt>
      <trkpt lat="42.73334" lon="1.83758">
        <ele>1019</ele>
        <time>2016-11-12T15:55:52Z</time>
      </trkpt>
      <trkpt lat="42.73336" lon="1.83766">
        <ele>1019</ele>
        <time>2016-11-12T15:55:57Z</time>
      </trkpt>
      <trkpt lat="42.73336" lon="1.83773">
        <ele>1019</ele>
        <time>2016-11-12T15:56:02Z</time>
      </trkpt>
      <trkpt lat="42.73337" lon="1.8378">
        <ele>1019</ele>
        <time>2016-11-12T15:56:07Z</time>
      </trkpt>
      <trkpt lat="42.73338" lon="1.83786">
        <ele>1019</ele>
        <time>2016-11-12T15:56:12Z</time>
      </trkpt>
      <trkpt lat="42.73339" lon="1.83792">
        <ele>1023</ele>
        <time>2016-11-12T15:56:17Z</time>
      </trkpt>
      <trkpt lat="42.73341" lon="1.83798">
        <ele>1023</ele>
        <time>2016-11-12T15:56:22Z</time>
      </trkpt>
      <trkpt lat="42.73344" lon="1.83805">
        <ele>1023</ele>
        <time>2016-11-12T15:56:27Z</time>
      </trkpt>
      <trkpt lat="42.73344" lon="1.83816">
        <ele>1023</ele>
        <time>2016-11-12T15:56:32Z</time>
      </trkpt>
      <trkpt lat="42.73344" lon="1.83824">
        <ele>1023</ele>
        <time>2016-11-12T15:56:37Z</time>
      </trkpt>
      <trkpt lat="42.73342" lon="1.83832">
        <ele>1023</ele>
        <time>2016-11-12T15:56:42Z</time>
      </trkpt>
      <trkpt lat="42.7334" lon="1.83838">
        <ele>1023</ele>
        <time>2016-11-12T15:56:47Z</time>
      </trkpt>
      <trkpt lat="42.73337" lon="1.83844">
        <ele>1023</ele>
        <time>2016-11-12T15:56:52Z</time>
      </trkpt>
      <trkpt lat="42.73336" lon="1.83852">
        <ele>1023</ele>
        <time>2016-11-12T15:56:57Z</time>
      </trkpt>
      <trkpt lat="42.73334" lon="1.83858">
        <ele>1023</ele>
        <time>2016-11-12T15:57:02Z</time>
      </trkpt>
      <trkpt lat="42.73333" lon="1.83864">
        <ele>1023</ele>
        <time>2016-11-12T15:57:07Z</time>
      </trkpt>
      <trkpt lat="42.73333" lon="1.83873">
        <ele>1023</ele>
        <time>2016-11-12T15:57:12Z</time>
      </trkpt>
      <trkpt lat="42.73333" lon="1.8388">
        <ele>1029</ele>
        <time>2016-11-12T15:57:17Z</time>
      </trkpt>
      <trkpt lat="42.73332" lon="1.83887">
        <ele>1029</ele>
        <time>2016-11-12T15:57:22Z</time>
      </trkpt>
      <trkpt lat="42.7333" lon="1.83892">
        <ele>1029</ele>
        <time>2016-11-12T15:57:27Z</time>
      </trkpt>
      <trkpt lat="42.73328" lon="1.83898">
        <ele>1029</ele>
        <time>2016-11-12T15:57:32Z</time>
      </trkpt>
      <trkpt lat="42.73325" lon="1.83907">
        <ele>1029</ele>
        <time>2016-11-12T15:57:37Z</time>
      </trkpt>
      <trkpt lat="42.73322" lon="1.83915">
        <ele>1029</ele>
        <time>2016-11-12T15:57:42Z</time>
      </trkpt>
      <trkpt lat="42.73319" lon="1.83922">
        <ele>1029</ele>
        <time>2016-11-12T15:57:47Z</time>
      </trkpt>
      <trkpt lat="42.73317" lon="1.83928">
        <ele>1029</ele>
        <time>2016-11-12T15:57:52Z</time>
      </trkpt>
      <trkpt lat="42.73314" lon="1.83933">
        <ele>1029</ele>
        <time>2016-11-12T15:57:57Z</time>
      </trkpt>
      <trkpt lat="42.7331" lon="1.83943">
        <ele>1029</ele>
        <time>2016-11-12T15:58:02Z</time>
      </trkpt>
      <trkpt lat="42.73307" lon="1.83951">
        <ele>1029</ele>
        <time>2016-11-12T15:58:07Z</time>
      </trkpt>
      <trkpt lat="42.73304" lon="1.83956">
        <ele>1029</ele>
        <time>2016-11-12T15:58:12Z</time>
      </trkpt>
      <trkpt lat="42.73302" lon="1.83963">
        <ele>1034</ele>
        <time>2016-11-12T15:58:17Z</time>
      </trkpt>
      <trkpt lat="42.73302" lon="1.83972">
        <ele>1034</ele>
        <time>2016-11-12T15:58:22Z</time>
      </trkpt>
      <trkpt lat="42.73303" lon="1.83977">
        <ele>1034</ele>
        <time>2016-11-12T15:58:27Z</time>
      </trkpt>
      <trkpt lat="42.73304" lon="1.83983">
        <ele>1034</ele>
        <time>2016-11-12T15:58:32Z</time>
      </trkpt>
      <trkpt lat="42.73304" lon="1.83988">
        <ele>1034</ele>
        <time>2016-11-12T15:58:37Z</time>
      </trkpt>
      <trkpt lat="42.73308" lon="1.83993">
        <ele>1034</ele>
        <time>2016-11-12T15:58:42Z</time>
      </trkpt>
      <trkpt lat="42.7331" lon="1.84001">
        <ele>1034</ele>
        <time>2016-11-12T15:58:47Z</time>
      </trkpt>
      <trkpt lat="42.73313" lon="1.8401">
        <ele>1034</ele>
        <time>2016-11-12T15:58:52Z</time>
      </trkpt>
      <trkpt lat="42.73315" lon="1.84016">
        <ele>1034</ele>
        <time>2016-11-12T15:58:57Z</time>
      </trkpt>
      <trkpt lat="42.73317" lon="1.84023">
        <ele>1034</ele>
        <time>2016-11-12T15:59:02Z</time>
      </trkpt>
      <trkpt lat="42.73319" lon="1.84033">
        <ele>1034</ele>
        <time>2016-11-12T15:59:07Z</time>
      </trkpt>
      <trkpt lat="42.73321" lon="1.84034">
        <ele>1034</ele>
        <time>2016-11-12T15:59:12Z</time>
      </trkpt>
      <trkpt lat="42.73323" lon="1.84041">
        <ele>1034</ele>
        <time>2016-11-12T15:59:17Z</time>
      </trkpt>
      <trkpt lat="42.73325" lon="1.84046">
        <ele>1037</ele>
        <time>2016-11-12T15:59:22Z</time>
      </trkpt>
      <trkpt lat="42.73326" lon="1.84051">
        <ele>1037</ele>
        <time>2016-11-12T15:59:27Z</time>
      </trkpt>
      <trkpt lat="42.73327" lon="1.8406">
        <ele>1037</ele>
        <time>2016-11-12T15:59:32Z</time>
      </trkpt>
      <trkpt lat="42.73328" lon="1.84065">
        <ele>1037</ele>
        <time>2016-11-12T15:59:37Z</time>
      </trkpt>
      <trkpt lat="42.73328" lon="1.84071">
        <ele>1037</ele>
        <time>2016-11-12T15:59:42Z</time>
      </trkpt>
      <trkpt lat="42.73328" lon="1.84074">
        <ele>1037</ele>
        <time>2016-11-12T15:59:47Z</time>
      </trkpt>
      <trkpt lat="42.7333" lon="1.84076">
        <ele>1037</ele>
        <time>2016-11-12T15:59:52Z</time>
      </trkpt>
      <trkpt lat="42.73331" lon="1.84081">
        <ele>1037</ele>
        <time>2016-11-12T15:59:57Z</time>
      </trkpt>
      <trkpt lat="42.73331" lon="1.84085">
        <ele>1037</ele>
        <time>2016-11-12T16:00:02Z</time>
      </trkpt>
      <trkpt lat="42.73329" lon="1.84092">
        <ele>1037</ele>
        <time>2016-11-12T16:00:07Z</time>
      </trkpt>
      <trkpt lat="42.73327" lon="1.841">
        <ele>1037</ele>
        <time>2016-11-12T16:00:12Z</time>
      </trkpt>
      <trkpt lat="42.73326" lon="1.84107">
        <ele>1037</ele>
        <time>2016-11-12T16:00:17Z</time>
      </trkpt>
      <trkpt lat="42.73324" lon="1.84112">
        <ele>1037</ele>
        <time>2016-11-12T16:00:22Z</time>
      </trkpt>
      <trkpt lat="42.7332" lon="1.84118">
        <ele>1037</ele>
        <time>2016-11-12T16:00:27Z</time>
      </trkpt>
      <trkpt lat="42.73317" lon="1.84124">
        <ele>1037</ele>
        <time>2016-11-12T16:00:32Z</time>
      </trkpt>
      <trkpt lat="42.73315" lon="1.84132">
        <ele>1043</ele>
        <time>2016-11-12T16:00:37Z</time>
      </trkpt>
      <trkpt lat="42.73312" lon="1.84138">
        <ele>1043</ele>
        <time>2016-11-12T16:00:42Z</time>
      </trkpt>
      <trkpt lat="42.7331" lon="1.84142">
        <ele>1043</ele>
        <time>2016-11-12T16:00:47Z</time>
      </trkpt>
      <trkpt lat="42.73308" lon="1.84149">
        <ele>1043</ele>
        <time>2016-11-12T16:00:52Z</time>
      </trkpt>
      <trkpt lat="42.73305" lon="1.84155">
        <ele>1043</ele>
        <time>2016-11-12T16:00:57Z</time>
      </trkpt>
      <trkpt lat="42.73303" lon="1.84162">
        <ele>1043</ele>
        <time>2016-11-12T16:01:02Z</time>
      </trkpt>
      <trkpt lat="42.73299" lon="1.84165">
        <ele>1043</ele>
        <time>2016-11-12T16:01:07Z</time>
      </trkpt>
      <trkpt lat="42.73294" lon="1.84172">
        <ele>1043</ele>
        <time>2016-11-12T16:01:12Z</time>
      </trkpt>
      <trkpt lat="42.7329" lon="1.84177">
        <ele>1020</ele>
        <time>2016-11-12T16:01:17Z</time>
      </trkpt>
      <trkpt lat="42.73288" lon="1.84183">
        <ele>1020</ele>
        <time>2016-11-12T16:01:22Z</time>
      </trkpt>
      <trkpt lat="42.73286" lon="1.8419">
        <ele>1020</ele>
        <time>2016-11-12T16:01:27Z</time>
      </trkpt>
      <trkpt lat="42.73281" lon="1.84195">
        <ele>1020</ele>
        <time>2016-11-12T16:01:32Z</time>
      </trkpt>
      <trkpt lat="42.7328" lon="1.84198">
        <ele>1020</ele>
        <time>2016-11-12T16:01:37Z</time>
      </trkpt>
      <trkpt lat="42.73276" lon="1.84202">
        <ele>1020</ele>
        <time>2016-11-12T16:01:42Z</time>
      </trkpt>
      <trkpt lat="42.73272" lon="1.84206">
        <ele>1020</ele>
        <time>2016-11-12T16:01:47Z</time>
      </trkpt>
      <trkpt lat="42.7327" lon="1.84213">
        <ele>1029</ele>
        <time>2016-11-12T16:01:52Z</time>
      </trkpt>
      <trkpt lat="42.73267" lon="1.84219">
        <ele>1029</ele>
        <time>2016-11-12T16:01:57Z</time>
      </trkpt>
      <trkpt lat="42.73264" lon="1.84222">
        <ele>1029</ele>
        <time>2016-11-12T16:02:02Z</time>
      </trkpt>
      <trkpt lat="42.73261" lon="1.84228">
        <ele>1029</ele>
        <time>2016-11-12T16:02:07Z</time>
      </trkpt>
      <trkpt lat="42.73259" lon="1.84236">
        <ele>1029</ele>
        <time>2016-11-12T16:02:12Z</time>
      </trkpt>
      <trkpt lat="42.73257" lon="1.84243">
        <ele>1029</ele>
        <time>2016-11-12T16:02:17Z</time>
      </trkpt>
      <trkpt lat="42.73255" lon="1.84248">
        <ele>1029</ele>
        <time>2016-11-12T16:02:22Z</time>
      </trkpt>
      <trkpt lat="42.73249" lon="1.84254">
        <ele>1029</ele>
        <time>2016-11-12T16:02:27Z</time>
      </trkpt>
      <trkpt lat="42.73244" lon="1.84257">
        <ele>1029</ele>
        <time>2016-11-12T16:02:32Z</time>
      </trkpt>
      <trkpt lat="42.73239" lon="1.84259">
        <ele>1029</ele>
        <time>2016-11-12T16:02:37Z</time>
      </trkpt>
      <trkpt lat="42.73234" lon="1.84261">
        <ele>1029</ele>
        <time>2016-11-12T16:02:42Z</time>
      </trkpt>
      <trkpt lat="42.73229" lon="1.84262">
        <ele>1029</ele>
        <time>2016-11-12T16:02:47Z</time>
      </trkpt>
      <trkpt lat="42.73225" lon="1.84264">
        <ele>1029</ele>
        <time>2016-11-12T16:02:52Z</time>
      </trkpt>
      <trkpt lat="42.7322" lon="1.84263">
        <ele>1029</ele>
        <time>2016-11-12T16:02:57Z</time>
      </trkpt>
      <trkpt lat="42.73214" lon="1.84262">
        <ele>1029</ele>
        <time>2016-11-12T16:03:02Z</time>
      </trkpt>
      <trkpt lat="42.73208" lon="1.84262">
        <ele>1016</ele>
        <time>2016-11-12T16:03:07Z</time>
      </trkpt>
      <trkpt lat="42.732" lon="1.84269">
        <ele>1016</ele>
        <time>2016-11-12T16:03:12Z</time>
      </trkpt>
      <trkpt lat="42.73196" lon="1.84271">
        <ele>1016</ele>
        <time>2016-11-12T16:03:17Z</time>
      </trkpt>
      <trkpt lat="42.7319" lon="1.84276">
        <ele>1016</ele>
        <time>2016-11-12T16:03:22Z</time>
      </trkpt>
      <trkpt lat="42.73186" lon="1.8428">
        <ele>1016</ele>
        <time>2016-11-12T16:03:27Z</time>
      </trkpt>
      <trkpt lat="42.73182" lon="1.84285">
        <ele>1016</ele>
        <time>2016-11-12T16:03:32Z</time>
      </trkpt>
      <trkpt lat="42.73178" lon="1.84289">
        <ele>1016</ele>
        <time>2016-11-12T16:03:37Z</time>
      </trkpt>
      <trkpt lat="42.73176" lon="1.84295">
        <ele>1028</ele>
        <time>2016-11-12T16:03:42Z</time>
      </trkpt>
      <trkpt lat="42.73172" lon="1.84302">
        <ele>1028</ele>
        <time>2016-11-12T16:03:47Z</time>
      </trkpt>
      <trkpt lat="42.73167" lon="1.84308">
        <ele>1028</ele>
        <time>2016-11-12T16:03:52Z</time>
      </trkpt>
      <trkpt lat="42.73162" lon="1.84314">
        <ele>1028</ele>
        <time>2016-11-12T16:03:57Z</time>
      </trkpt>
      <trkpt lat="42.73156" lon="1.84317">
        <ele>1028</ele>
        <time>2016-11-12T16:04:02Z</time>
      </trkpt>
      <trkpt lat="42.73152" lon="1.84321">
        <ele>1028</ele>
        <time>2016-11-12T16:04:07Z</time>
      </trkpt>
      <trkpt lat="42.73148" lon="1.84323">
        <ele>1028</ele>
        <time>2016-11-12T16:04:12Z</time>
      </trkpt>
      <trkpt lat="42.73141" lon="1.84326">
        <ele>1028</ele>
        <time>2016-11-12T16:04:17Z</time>
      </trkpt>
      <trkpt lat="42.73134" lon="1.84329">
        <ele>1028</ele>
        <time>2016-11-12T16:04:22Z</time>
      </trkpt>
      <trkpt lat="42.7313" lon="1.84332">
        <ele>1028</ele>
        <time>2016-11-12T16:04:27Z</time>
      </trkpt>
      <trkpt lat="42.73125" lon="1.84336">
        <ele>1028</ele>
        <time>2016-11-12T16:04:32Z</time>
      </trkpt>
      <trkpt lat="42.7312" lon="1.84339">
        <ele>1022</ele>
        <time>2016-11-12T16:04:37Z</time>
      </trkpt>
      <trkpt lat="42.73115" lon="1.84343">
        <ele>1022</ele>
        <time>2016-11-12T16:04:42Z</time>
      </trkpt>
      <trkpt lat="42.73107" lon="1.84346">
        <ele>1022</ele>
        <time>2016-11-12T16:04:47Z</time>
      </trkpt>
      <trkpt lat="42.731" lon="1.84347">
        <ele>1022</ele>
        <time>2016-11-12T16:04:52Z</time>
      </trkpt>
      <trkpt lat="42.73095" lon="1.84348">
        <ele>1022</ele>
        <time>2016-11-12T16:04:57Z</time>
      </trkpt>
      <trkpt lat="42.73089" lon="1.84349">
        <ele>1022</ele>
        <time>2016-11-12T16:05:02Z</time>
      </trkpt>
      <trkpt lat="42.73084" lon="1.84355">
        <ele>1022</ele>
        <time>2016-11-12T16:05:07Z</time>
      </trkpt>
      <trkpt lat="42.73083" lon="1.84359">
        <ele>1022</ele>
        <time>2016-11-12T16:05:12Z</time>
      </trkpt>
      <trkpt lat="42.73081" lon="1.84364">
        <ele>1022</ele>
        <time>2016-11-12T16:05:17Z</time>
      </trkpt>
      <trkpt lat="42.73078" lon="1.84368">
        <ele>1022</ele>
        <time>2016-11-12T16:05:22Z</time>
      </trkpt>
      <trkpt lat="42.73073" lon="1.8437">
        <ele>1022</ele>
        <time>2016-11-12T16:05:27Z</time>
      </trkpt>
      <trkpt lat="42.73069" lon="1.84372">
        <ele>1022</ele>
        <time>2016-11-12T16:05:32Z</time>
      </trkpt>
      <trkpt lat="42.73066" lon="1.84375">
        <ele>1022</ele>
        <time>2016-11-12T16:05:37Z</time>
      </trkpt>
      <trkpt lat="42.73063" lon="1.84375">
        <ele>1022</ele>
        <time>2016-11-12T16:05:42Z</time>
      </trkpt>
      <trkpt lat="42.73059" lon="1.8438">
        <ele>1027</ele>
        <time>2016-11-12T16:05:47Z</time>
      </trkpt>
      <trkpt lat="42.73055" lon="1.84387">
        <ele>1027</ele>
        <time>2016-11-12T16:05:52Z</time>
      </trkpt>
      <trkpt lat="42.73052" lon="1.84389">
        <ele>1027</ele>
        <time>2016-11-12T16:05:57Z</time>
      </trkpt>
      <trkpt lat="42.73047" lon="1.84391">
        <ele>1027</ele>
        <time>2016-11-12T16:06:02Z</time>
      </trkpt>
      <trkpt lat="42.73043" lon="1.84398">
        <ele>1027</ele>
        <time>2016-11-12T16:06:07Z</time>
      </trkpt>
      <trkpt lat="42.73042" lon="1.84408">
        <ele>1027</ele>
        <time>2016-11-12T16:06:12Z</time>
      </trkpt>
      <trkpt lat="42.73039" lon="1.84414">
        <ele>1027</ele>
        <time>2016-11-12T16:06:17Z</time>
      </trkpt>
      <trkpt lat="42.73039" lon="1.8442">
        <ele>1027</ele>
        <time>2016-11-12T16:06:22Z</time>
      </trkpt>
      <trkpt lat="42.73037" lon="1.84428">
        <ele>1027</ele>
        <time>2016-11-12T16:06:27Z</time>
      </trkpt>
      <trkpt lat="42.73036" lon="1.84434">
        <ele>1027</ele>
        <time>2016-11-12T16:06:32Z</time>
      </trkpt>
      <trkpt lat="42.73032" lon="1.84439">
        <ele>1027</ele>
        <time>2016-11-12T16:06:37Z</time>
      </trkpt>
      <trkpt lat="42.7303" lon="1.84445">
        <ele>1027</ele>
        <time>2016-11-12T16:06:42Z</time>
      </trkpt>
      <trkpt lat="42.7303" lon="1.84454">
        <ele>1027</ele>
        <time>2016-11-12T16:06:47Z</time>
      </trkpt>
      <trkpt lat="42.73029" lon="1.84464">
        <ele>1026</ele>
        <time>2016-11-12T16:06:52Z</time>
      </trkpt>
      <trkpt lat="42.73026" lon="1.84472">
        <ele>1026</ele>
        <time>2016-11-12T16:06:57Z</time>
      </trkpt>
      <trkpt lat="42.73022" lon="1.84478">
        <ele>1026</ele>
        <time>2016-11-12T16:07:02Z</time>
      </trkpt>
      <trkpt lat="42.7302" lon="1.84484">
        <ele>1026</ele>
        <time>2016-11-12T16:07:07Z</time>
      </trkpt>
      <trkpt lat="42.73017" lon="1.8449">
        <ele>1026</ele>
        <time>2016-11-12T16:07:12Z</time>
      </trkpt>
      <trkpt lat="42.73013" lon="1.84496">
        <ele>1026</ele>
        <time>2016-11-12T16:07:17Z</time>
      </trkpt>
      <trkpt lat="42.73011" lon="1.84501">
        <ele>1026</ele>
        <time>2016-11-12T16:07:22Z</time>
      </trkpt>
      <trkpt lat="42.73009" lon="1.84507">
        <ele>1026</ele>
        <time>2016-11-12T16:07:27Z</time>
      </trkpt>
      <trkpt lat="42.73008" lon="1.84509">
        <ele>1026</ele>
        <time>2016-11-12T16:07:32Z</time>
      </trkpt>
      <trkpt lat="42.73007" lon="1.84513">
        <ele>1026</ele>
        <time>2016-11-12T16:07:37Z</time>
      </trkpt>
      <trkpt lat="42.73008" lon="1.84522">
        <ele>1026</ele>
        <time>2016-11-12T16:07:42Z</time>
      </trkpt>
      <trkpt lat="42.73008" lon="1.84529">
        <ele>1026</ele>
        <time>2016-11-12T16:07:47Z</time>
      </trkpt>
      <trkpt lat="42.7301" lon="1.84537">
        <ele>1026</ele>
        <time>2016-11-12T16:07:52Z</time>
      </trkpt>
      <trkpt lat="42.73012" lon="1.84543">
        <ele>1032</ele>
        <time>2016-11-12T16:07:57Z</time>
      </trkpt>
      <trkpt lat="42.73013" lon="1.84549">
        <ele>1032</ele>
        <time>2016-11-12T16:08:02Z</time>
      </trkpt>
      <trkpt lat="42.73013" lon="1.84554">
        <ele>1032</ele>
        <time>2016-11-12T16:08:07Z</time>
      </trkpt>
      <trkpt lat="42.73013" lon="1.84557">
        <ele>1032</ele>
        <time>2016-11-12T16:08:12Z</time>
      </trkpt>
      <trkpt lat="42.73014" lon="1.84563">
        <ele>1032</ele>
        <time>2016-11-12T16:08:17Z</time>
      </trkpt>
      <trkpt lat="42.73014" lon="1.84569">
        <ele>1032</ele>
        <time>2016-11-12T16:08:22Z</time>
      </trkpt>
      <trkpt lat="42.73014" lon="1.84577">
        <ele>1032</ele>
        <time>2016-11-12T16:08:27Z</time>
      </trkpt>
      <trkpt lat="42.73014" lon="1.84581">
        <ele>1032</ele>
        <time>2016-11-12T16:08:32Z</time>
      </trkpt>
      <trkpt lat="42.73015" lon="1.84588">
        <ele>1032</ele>
        <time>2016-11-12T16:08:37Z</time>
      </trkpt>
      <trkpt lat="42.73016" lon="1.84596">
        <ele>1032</ele>
        <time>2016-11-12T16:08:42Z</time>
      </trkpt>
      <trkpt lat="42.73017" lon="1.84602">
        <ele>1032</ele>
        <time>2016-11-12T16:08:47Z</time>
      </trkpt>
      <trkpt lat="42.73018" lon="1.84608">
        <ele>1032</ele>
        <time>2016-11-12T16:08:52Z</time>
      </trkpt>
      <trkpt lat="42.73017" lon="1.84614">
        <ele>1032</ele>
        <time>2016-11-12T16:08:57Z</time>
      </trkpt>
      <trkpt lat="42.73017" lon="1.84621">
        <ele>1032</ele>
        <time>2016-11-12T16:09:02Z</time>
      </trkpt>
      <trkpt lat="42.73018" lon="1.84626">
        <ele>1034</ele>
        <time>2016-11-12T16:09:07Z</time>
      </trkpt>
      <trkpt lat="42.73017" lon="1.84631">
        <ele>1034</ele>
        <time>2016-11-12T16:09:12Z</time>
      </trkpt>
      <trkpt lat="42.73017" lon="1.84638">
        <ele>1034</ele>
        <time>2016-11-12T16:09:17Z</time>
      </trkpt>
      <trkpt lat="42.73015" lon="1.84645">
        <ele>1034</ele>
        <time>2016-11-12T16:09:22Z</time>
      </trkpt>
      <trkpt lat="42.73013" lon="1.84654">
        <ele>1034</ele>
        <time>2016-11-12T16:09:27Z</time>
      </trkpt>
      <trkpt lat="42.73013" lon="1.84661">
        <ele>1034</ele>
        <time>2016-11-12T16:09:32Z</time>
      </trkpt>
      <trkpt lat="42.7301" lon="1.84669">
        <ele>1034</ele>
        <time>2016-11-12T16:09:37Z</time>
      </trkpt>
      <trkpt lat="42.73008" lon="1.84675">
        <ele>1034</ele>
        <time>2016-11-12T16:09:42Z</time>
      </trkpt>
      <trkpt lat="42.73008" lon="1.84682">
        <ele>1034</ele>
        <time>2016-11-12T16:09:47Z</time>
      </trkpt>
      <trkpt lat="42.73008" lon="1.84688">
        <ele>1034</ele>
        <time>2016-11-12T16:09:52Z</time>
      </trkpt>
      <trkpt lat="42.73009" lon="1.84695">
        <ele>1034</ele>
        <time>2016-11-12T16:09:57Z</time>
      </trkpt>
      <trkpt lat="42.73009" lon="1.84704">
        <ele>1034</ele>
        <time>2016-11-12T16:10:02Z</time>
      </trkpt>
      <trkpt lat="42.73009" lon="1.84711">
        <ele>1036</ele>
        <time>2016-11-12T16:10:07Z</time>
      </trkpt>
      <trkpt lat="42.73009" lon="1.8472">
        <ele>1036</ele>
        <time>2016-11-12T16:10:12Z</time>
      </trkpt>
      <trkpt lat="42.73009" lon="1.84726">
        <ele>1036</ele>
        <time>2016-11-12T16:10:17Z</time>
      </trkpt>
      <trkpt lat="42.73009" lon="1.84733">
        <ele>1036</ele>
        <time>2016-11-12T16:10:22Z</time>
      </trkpt>
      <trkpt lat="42.73008" lon="1.8474">
        <ele>1036</ele>
        <time>2016-11-12T16:10:27Z</time>
      </trkpt>
      <trkpt lat="42.73007" lon="1.84745">
        <ele>1036</ele>
        <time>2016-11-12T16:10:32Z</time>
      </trkpt>
      <trkpt lat="42.73004" lon="1.84753">
        <ele>1036</ele>
        <time>2016-11-12T16:10:37Z</time>
      </trkpt>
      <trkpt lat="42.73001" lon="1.84761">
        <ele>1036</ele>
        <time>2016-11-12T16:10:42Z</time>
      </trkpt>
      <trkpt lat="42.72999" lon="1.84764">
        <ele>1036</ele>
        <time>2016-11-12T16:10:47Z</time>
      </trkpt>
      <trkpt lat="42.72995" lon="1.84769">
        <ele>1036</ele>
        <time>2016-11-12T16:10:52Z</time>
      </trkpt>
      <trkpt lat="42.72991" lon="1.84776">
        <ele>1036</ele>
        <time>2016-11-12T16:10:57Z</time>
      </trkpt>
      <trkpt lat="42.72985" lon="1.84782">
        <ele>1036</ele>
        <time>2016-11-12T16:11:02Z</time>
      </trkpt>
      <trkpt lat="42.72979" lon="1.84788">
        <ele>1036</ele>
        <time>2016-11-12T16:11:07Z</time>
      </trkpt>
      <trkpt lat="42.72974" lon="1.84793">
        <ele>1040</ele>
        <time>2016-11-12T16:11:12Z</time>
      </trkpt>
      <trkpt lat="42.72972" lon="1.84797">
        <ele>1040</ele>
        <time>2016-11-12T16:11:17Z</time>
      </trkpt>
      <trkpt lat="42.72969" lon="1.84801">
        <ele>1040</ele>
        <time>2016-11-12T16:11:22Z</time>
      </trkpt>
      <trkpt lat="42.72965" lon="1.8481">
        <ele>1040</ele>
        <time>2016-11-12T16:11:27Z</time>
      </trkpt>
      <trkpt lat="42.72961" lon="1.84816">
        <ele>1040</ele>
        <time>2016-11-12T16:11:32Z</time>
      </trkpt>
      <trkpt lat="42.7296" lon="1.8482">
        <ele>1040</ele>
        <time>2016-11-12T16:11:37Z</time>
      </trkpt>
      <trkpt lat="42.72958" lon="1.84828">
        <ele>1034</ele>
        <time>2016-11-12T16:11:42Z</time>
      </trkpt>
      <trkpt lat="42.72955" lon="1.84835">
        <ele>1034</ele>
        <time>2016-11-12T16:11:47Z</time>
      </trkpt>
      <trkpt lat="42.72954" lon="1.84841">
        <ele>1034</ele>
        <time>2016-11-12T16:11:52Z</time>
      </trkpt>
      <trkpt lat="42.7295" lon="1.84847">
        <ele>1034</ele>
        <time>2016-11-12T16:11:57Z</time>
      </trkpt>
      <trkpt lat="42.72946" lon="1.84852">
        <ele>1034</ele>
        <time>2016-11-12T16:12:02Z</time>
      </trkpt>
      <trkpt lat="42.72944" lon="1.84855">
        <ele>1034</ele>
        <time>2016-11-12T16:12:07Z</time>
      </trkpt>
      <trkpt lat="42.72942" lon="1.84858">
        <ele>1034</ele>
        <time>2016-11-12T16:12:12Z</time>
      </trkpt>
      <trkpt lat="42.72939" lon="1.84865">
        <ele>1034</ele>
        <time>2016-11-12T16:12:17Z</time>
      </trkpt>
      <trkpt lat="42.72937" lon="1.84873">
        <ele>1034</ele>
        <time>2016-11-12T16:12:22Z</time>
      </trkpt>
      <trkpt lat="42.72936" lon="1.8488">
        <ele>1038</ele>
        <time>2016-11-12T16:12:27Z</time>
      </trkpt>
      <trkpt lat="42.72936" lon="1.84887">
        <ele>1038</ele>
        <time>2016-11-12T16:12:32Z</time>
      </trkpt>
      <trkpt lat="42.72935" lon="1.84894">
        <ele>1038</ele>
        <time>2016-11-12T16:12:37Z</time>
      </trkpt>
      <trkpt lat="42.72935" lon="1.849">
        <ele>1038</ele>
        <time>2016-11-12T16:12:42Z</time>
      </trkpt>
      <trkpt lat="42.72935" lon="1.84906">
        <ele>1038</ele>
        <time>2016-11-12T16:12:47Z</time>
      </trkpt>
      <trkpt lat="42.72934" lon="1.84912">
        <ele>1038</ele>
        <time>2016-11-12T16:12:52Z</time>
      </trkpt>
      <trkpt lat="42.72932" lon="1.84918">
        <ele>1038</ele>
        <time>2016-11-12T16:12:57Z</time>
      </trkpt>
      <trkpt lat="42.72932" lon="1.84925">
        <ele>1038</ele>
        <time>2016-11-12T16:13:02Z</time>
      </trkpt>
      <trkpt lat="42.72932" lon="1.84932">
        <ele>1038</ele>
        <time>2016-11-12T16:13:07Z</time>
      </trkpt>
      <trkpt lat="42.72931" lon="1.84937">
        <ele>1038</ele>
        <time>2016-11-12T16:13:12Z</time>
      </trkpt>
      <trkpt lat="42.72931" lon="1.84942">
        <ele>1038</ele>
        <time>2016-11-12T16:13:17Z</time>
      </trkpt>
      <trkpt lat="42.72931" lon="1.84947">
        <ele>1038</ele>
        <time>2016-11-12T16:13:22Z</time>
      </trkpt>
      <trkpt lat="42.72931" lon="1.84954">
        <ele>1038</ele>
        <time>2016-11-12T16:13:27Z</time>
      </trkpt>
      <trkpt lat="42.72934" lon="1.84961">
        <ele>1049</ele>
        <time>2016-11-12T16:13:32Z</time>
      </trkpt>
      <trkpt lat="42.72935" lon="1.84967">
        <ele>1049</ele>
        <time>2016-11-12T16:13:37Z</time>
      </trkpt>
      <trkpt lat="42.72937" lon="1.84971">
        <ele>1049</ele>
        <time>2016-11-12T16:13:42Z</time>
      </trkpt>
      <trkpt lat="42.72938" lon="1.84972">
        <ele>1049</ele>
        <time>2016-11-12T16:13:47Z</time>
      </trkpt>
      <trkpt lat="42.72941" lon="1.84974">
        <ele>1049</ele>
        <time>2016-11-12T16:13:52Z</time>
      </trkpt>
      <trkpt lat="42.72944" lon="1.84977">
        <ele>1049</ele>
        <time>2016-11-12T16:13:57Z</time>
      </trkpt>
      <trkpt lat="42.7295" lon="1.84981">
        <ele>1049</ele>
        <time>2016-11-12T16:14:02Z</time>
      </trkpt>
      <trkpt lat="42.72954" lon="1.84982">
        <ele>1049</ele>
        <time>2016-11-12T16:14:07Z</time>
      </trkpt>
      <trkpt lat="42.72958" lon="1.84985">
        <ele>1049</ele>
        <time>2016-11-12T16:14:12Z</time>
      </trkpt>
      <trkpt lat="42.7296" lon="1.84989">
        <ele>1053</ele>
        <time>2016-11-12T16:14:17Z</time>
      </trkpt>
      <trkpt lat="42.72964" lon="1.84994">
        <ele>1053</ele>
        <time>2016-11-12T16:14:22Z</time>
      </trkpt>
      <trkpt lat="42.72969" lon="1.84999">
        <ele>1053</ele>
        <time>2016-11-12T16:14:27Z</time>
      </trkpt>
      <trkpt lat="42.72973" lon="1.85002">
        <ele>1053</ele>
        <time>2016-11-12T16:14:32Z</time>
      </trkpt>
      <trkpt lat="42.72977" lon="1.85006">
        <ele>1053</ele>
        <time>2016-11-12T16:14:37Z</time>
      </trkpt>
      <trkpt lat="42.72981" lon="1.85011">
        <ele>1053</ele>
        <time>2016-11-12T16:14:42Z</time>
      </trkpt>
      <trkpt lat="42.72983" lon="1.85016">
        <ele>1053</ele>
        <time>2016-11-12T16:14:47Z</time>
      </trkpt>
      <trkpt lat="42.72987" lon="1.85026">
        <ele>1053</ele>
        <time>2016-11-12T16:14:52Z</time>
      </trkpt>
      <trkpt lat="42.72991" lon="1.85032">
        <ele>1053</ele>
        <time>2016-11-12T16:14:57Z</time>
      </trkpt>
      <trkpt lat="42.72994" lon="1.85037">
        <ele>1053</ele>
        <time>2016-11-12T16:15:02Z</time>
      </trkpt>
      <trkpt lat="42.72998" lon="1.85042">
        <ele>1057</ele>
        <time>2016-11-12T16:15:07Z</time>
      </trkpt>
      <trkpt lat="42.73" lon="1.85047">
        <ele>1057</ele>
        <time>2016-11-12T16:15:12Z</time>
      </trkpt>
      <trkpt lat="42.73003" lon="1.85052">
        <ele>1057</ele>
        <time>2016-11-12T16:15:17Z</time>
      </trkpt>
      <trkpt lat="42.73007" lon="1.8506">
        <ele>1057</ele>
        <time>2016-11-12T16:15:22Z</time>
      </trkpt>
      <trkpt lat="42.73007" lon="1.85066">
        <ele>1057</ele>
        <time>2016-11-12T16:15:27Z</time>
      </trkpt>
      <trkpt lat="42.73011" lon="1.85075">
        <ele>1057</ele>
        <time>2016-11-12T16:15:32Z</time>
      </trkpt>
      <trkpt lat="42.73014" lon="1.85084">
        <ele>1057</ele>
        <time>2016-11-12T16:15:37Z</time>
      </trkpt>
      <trkpt lat="42.73015" lon="1.85091">
        <ele>1057</ele>
        <time>2016-11-12T16:15:42Z</time>
      </trkpt>
      <trkpt lat="42.73017" lon="1.85099">
        <ele>1057</ele>
        <time>2016-11-12T16:15:47Z</time>
      </trkpt>
      <trkpt lat="42.7302" lon="1.85106">
        <ele>1057</ele>
        <time>2016-11-12T16:15:52Z</time>
      </trkpt>
      <trkpt lat="42.73022" lon="1.85115">
        <ele>1057</ele>
        <time>2016-11-12T16:15:57Z</time>
      </trkpt>
      <trkpt lat="42.73025" lon="1.85124">
        <ele>1057</ele>
        <time>2016-11-12T16:16:02Z</time>
      </trkpt>
      <trkpt lat="42.73027" lon="1.85133">
        <ele>1062</ele>
        <time>2016-11-12T16:16:07Z</time>
      </trkpt>
      <trkpt lat="42.73029" lon="1.85142">
        <ele>1062</ele>
        <time>2016-11-12T16:16:12Z</time>
      </trkpt>
      <trkpt lat="42.73031" lon="1.85148">
        <ele>1062</ele>
        <time>2016-11-12T16:16:17Z</time>
      </trkpt>
      <trkpt lat="42.73033" lon="1.85154">
        <ele>1062</ele>
        <time>2016-11-12T16:16:22Z</time>
      </trkpt>
      <trkpt lat="42.73034" lon="1.85158">
        <ele>1062</ele>
        <time>2016-11-12T16:16:27Z</time>
      </trkpt>
      <trkpt lat="42.73034" lon="1.85158">
        <ele>1062</ele>
        <time>2016-11-12T16:16:32Z</time>
      </trkpt>
      <trkpt lat="42.73035" lon="1.85158">
        <ele>1062</ele>
        <time>2016-11-12T16:16:37Z</time>
      </trkpt>
      <trkpt lat="42.73035" lon="1.85158">
        <ele>1062</ele>
        <time>2016-11-12T16:16:42Z</time>
      </trkpt>
      <trkpt lat="42.73035" lon="1.85158">
        <ele>1062</ele>
        <time>2016-11-12T16:16:47Z</time>
      </trkpt>
      <trkpt lat="42.73035" lon="1.85158">
        <ele>1062</ele>
        <time>2016-11-12T16:16:52Z</time>
      </trkpt>
      <trkpt lat="42.73035" lon="1.85157">
        <ele>1062</ele>
        <time>2016-11-12T16:16:57Z</time>
      </trkpt>
      <trkpt lat="42.73035" lon="1.85157">
        <ele>1062</ele>
        <time>2016-11-12T16:17:02Z</time>
      </trkpt>
      <trkpt lat="42.73035" lon="1.85157">
        <ele>1062</ele>
        <time>2016-11-12T16:17:07Z</time>
      </trkpt>
      <trkpt lat="42.73035" lon="1.85157">
        <ele>1062</ele>
        <time>2016-11-12T16:17:12Z</time>
      </trkpt>
      <trkpt lat="42.73035" lon="1.85158">
        <ele>1062</ele>
        <time>2016-11-12T16:17:17Z</time>
      </trkpt>
      <trkpt lat="42.73035" lon="1.85158">
        <ele>1062</ele>
        <time>2016-11-12T16:17:22Z</time>
      </trkpt>
      <trkpt lat="42.73035" lon="1.85158">
        <ele>1062</ele>
        <time>2016-11-12T16:17:27Z</time>
      </trkpt>
      <trkpt lat="42.73035" lon="1.85158">
        <ele>1062</ele>
        <time>2016-11-12T16:17:32Z</time>
      </trkpt>
      <trkpt lat="42.73037" lon="1.85159">
        <ele>1062</ele>
        <time>2016-11-12T16:17:37Z</time>
      </trkpt>
      <trkpt lat="42.73037" lon="1.85159">
        <ele>1062</ele>
        <time>2016-11-12T16:17:42Z</time>
      </trkpt>
      <trkpt lat="42.73036" lon="1.85156">
        <ele>1062</ele>
        <time>2016-11-12T16:17:47Z</time>
      </trkpt>
      <trkpt lat="42.73036" lon="1.85155">
        <ele>1062</ele>
        <time>2016-11-12T16:17:52Z</time>
      </trkpt>
      <trkpt lat="42.73036" lon="1.85155">
        <ele>1062</ele>
        <time>2016-11-12T16:17:57Z</time>
      </trkpt>
      <trkpt lat="42.73036" lon="1.85155">
        <ele>1062</ele>
        <time>2016-11-12T16:18:02Z</time>
      </trkpt>
      <trkpt lat="42.73036" lon="1.85155">
        <ele>1062</ele>
        <time>2016-11-12T16:18:07Z</time>
      </trkpt>
      <trkpt lat="42.73036" lon="1.85155">
        <ele>1062</ele>
        <time>2016-11-12T16:18:12Z</time>
      </trkpt>
      <trkpt lat="42.73036" lon="1.85154">
        <ele>1062</ele>
        <time>2016-11-12T16:18:17Z</time>
      </trkpt>
      <trkpt lat="42.73036" lon="1.85154">
        <ele>1062</ele>
        <time>2016-11-12T16:18:22Z</time>
      </trkpt>
      <trkpt lat="42.73036" lon="1.85154">
        <ele>1062</ele>
        <time>2016-11-12T16:18:27Z</time>
      </trkpt>
      <trkpt lat="42.73034" lon="1.85152">
        <ele>1062</ele>
        <time>2016-11-12T16:18:32Z</time>
      </trkpt>
      <trkpt lat="42.73034" lon="1.85151">
        <ele>1062</ele>
        <time>2016-11-12T16:18:37Z</time>
      </trkpt>
      <trkpt lat="42.73034" lon="1.85151">
        <ele>1062</ele>
        <time>2016-11-12T16:18:42Z</time>
      </trkpt>
      <trkpt lat="42.73034" lon="1.85151">
        <ele>1062</ele>
        <time>2016-11-12T16:18:47Z</time>
      </trkpt>
      <trkpt lat="42.73034" lon="1.85151">
        <ele>1062</ele>
        <time>2016-11-12T16:18:52Z</time>
      </trkpt>
      <trkpt lat="42.73034" lon="1.85151">
        <ele>1062</ele>
        <time>2016-11-12T16:18:57Z</time>
      </trkpt>
      <trkpt lat="42.73033" lon="1.85154">
        <ele>1062</ele>
        <time>2016-11-12T16:19:02Z</time>
      </trkpt>
      <trkpt lat="42.73034" lon="1.85154">
        <ele>1062</ele>
        <time>2016-11-12T16:19:07Z</time>
      </trkpt>
      <trkpt lat="42.73034" lon="1.85153">
        <ele>1062</ele>
        <time>2016-11-12T16:19:12Z</time>
      </trkpt>
      <trkpt lat="42.73034" lon="1.85154">
        <ele>1062</ele>
        <time>2016-11-12T16:19:17Z</time>
      </trkpt>
      <trkpt lat="42.73037" lon="1.85157">
        <ele>1062</ele>
        <time>2016-11-12T16:19:22Z</time>
      </trkpt>
      <trkpt lat="42.73037" lon="1.85156">
        <ele>1062</ele>
        <time>2016-11-12T16:19:27Z</time>
      </trkpt>
      <trkpt lat="42.73038" lon="1.85157">
        <ele>1062</ele>
        <time>2016-11-12T16:19:32Z</time>
      </trkpt>
      <trkpt lat="42.73038" lon="1.85156">
        <ele>1062</ele>
        <time>2016-11-12T16:19:37Z</time>
      </trkpt>
      <trkpt lat="42.73038" lon="1.85155">
        <ele>1062</ele>
        <time>2016-11-12T16:19:42Z</time>
      </trkpt>
      <trkpt lat="42.73038" lon="1.85155">
        <ele>1062</ele>
        <time>2016-11-12T16:19:47Z</time>
      </trkpt>
      <trkpt lat="42.73037" lon="1.85154">
        <ele>1062</ele>
        <time>2016-11-12T16:19:52Z</time>
      </trkpt>
      <trkpt lat="42.73038" lon="1.85155">
        <ele>1062</ele>
        <time>2016-11-12T16:19:57Z</time>
      </trkpt>
      <trkpt lat="42.73038" lon="1.85155">
        <ele>1062</ele>
        <time>2016-11-12T16:20:02Z</time>
      </trkpt>
      <trkpt lat="42.73038" lon="1.85154">
        <ele>1062</ele>
        <time>2016-11-12T16:20:07Z</time>
      </trkpt>
      <trkpt lat="42.73038" lon="1.85154">
        <ele>1062</ele>
        <time>2016-11-12T16:20:12Z</time>
      </trkpt>
      <trkpt lat="42.73038" lon="1.85154">
        <ele>1062</ele>
        <time>2016-11-12T16:20:17Z</time>
      </trkpt>
      <trkpt lat="42.73038" lon="1.85154">
        <ele>1062</ele>
        <time>2016-11-12T16:20:22Z</time>
      </trkpt>
      <trkpt lat="42.73038" lon="1.85154">
        <ele>1062</ele>
        <time>2016-11-12T16:20:27Z</time>
      </trkpt>
      <trkpt lat="42.73038" lon="1.85154">
        <ele>1062</ele>
        <time>2016-11-12T16:20:32Z</time>
      </trkpt>
      <trkpt lat="42.73038" lon="1.85155">
        <ele>1062</ele>
        <time>2016-11-12T16:20:37Z</time>
      </trkpt>
      <trkpt lat="42.73038" lon="1.85154">
        <ele>1062</ele>
        <time>2016-11-12T16:20:42Z</time>
      </trkpt>
      <trkpt lat="42.73038" lon="1.85154">
        <ele>1062</ele>
        <time>2016-11-12T16:20:47Z</time>
      </trkpt>
      <trkpt lat="42.73038" lon="1.85154">
        <ele>1062</ele>
        <time>2016-11-12T16:20:52Z</time>
      </trkpt>
      <trkpt lat="42.73037" lon="1.85153">
        <ele>1062</ele>
        <time>2016-11-12T16:20:57Z</time>
      </trkpt>
      <trkpt lat="42.73035" lon="1.85152">
        <ele>1062</ele>
        <time>2016-11-12T16:21:02Z</time>
      </trkpt>
      <trkpt lat="42.73035" lon="1.85152">
        <ele>1062</ele>
        <time>2016-11-12T16:21:07Z</time>
      </trkpt>
      <trkpt lat="42.73035" lon="1.85152">
        <ele>1062</ele>
        <time>2016-11-12T16:21:12Z</time>
      </trkpt>
      <trkpt lat="42.73034" lon="1.85154">
        <ele>1062</ele>
        <time>2016-11-12T16:21:17Z</time>
      </trkpt>
      <trkpt lat="42.73033" lon="1.85155">
        <ele>1062</ele>
        <time>2016-11-12T16:21:22Z</time>
      </trkpt>
      <trkpt lat="42.73033" lon="1.85159">
        <ele>1062</ele>
        <time>2016-11-12T16:21:27Z</time>
      </trkpt>
      <trkpt lat="42.73033" lon="1.85159">
        <ele>1062</ele>
        <time>2016-11-12T16:21:32Z</time>
      </trkpt>
      <trkpt lat="42.73033" lon="1.85158">
        <ele>1062</ele>
        <time>2016-11-12T16:21:37Z</time>
      </trkpt>
      <trkpt lat="42.73033" lon="1.85158">
        <ele>1062</ele>
        <time>2016-11-12T16:21:42Z</time>
      </trkpt>
      <trkpt lat="42.73033" lon="1.85158">
        <ele>1062</ele>
        <time>2016-11-12T16:21:47Z</time>
      </trkpt>
      <trkpt lat="42.73033" lon="1.85158">
        <ele>1062</ele>
        <time>2016-11-12T16:21:52Z</time>
      </trkpt>
      <trkpt lat="42.73033" lon="1.85158">
        <ele>1062</ele>
        <time>2016-11-12T16:21:57Z</time>
      </trkpt>
      <trkpt lat="42.73033" lon="1.8516">
        <ele>1062</ele>
        <time>2016-11-12T16:22:02Z</time>
      </trkpt>
      <trkpt lat="42.73032" lon="1.85163">
        <ele>1062</ele>
        <time>2016-11-12T16:22:07Z</time>
      </trkpt>
      <trkpt lat="42.73032" lon="1.85162">
        <ele>1062</ele>
        <time>2016-11-12T16:22:12Z</time>
      </trkpt>
      <trkpt lat="42.73031" lon="1.85159">
        <ele>1062</ele>
        <time>2016-11-12T16:22:17Z</time>
      </trkpt>
      <trkpt lat="42.73032" lon="1.85157">
        <ele>1062</ele>
        <time>2016-11-12T16:22:22Z</time>
      </trkpt>
      <trkpt lat="42.73032" lon="1.85157">
        <ele>1062</ele>
        <time>2016-11-12T16:22:27Z</time>
      </trkpt>
      <trkpt lat="42.73033" lon="1.85156">
        <ele>1062</ele>
        <time>2016-11-12T16:22:32Z</time>
      </trkpt>
      <trkpt lat="42.73033" lon="1.85156">
        <ele>1062</ele>
        <time>2016-11-12T16:22:37Z</time>
      </trkpt>
      <trkpt lat="42.73033" lon="1.85156">
        <ele>1062</ele>
        <time>2016-11-12T16:22:42Z</time>
      </trkpt>
      <trkpt lat="42.73033" lon="1.85156">
        <ele>1062</ele>
        <time>2016-11-12T16:22:47Z</time>
      </trkpt>
      <trkpt lat="42.73033" lon="1.85156">
        <ele>1062</ele>
        <time>2016-11-12T16:22:52Z</time>
      </trkpt>
      <trkpt lat="42.73033" lon="1.85155">
        <ele>1062</ele>
        <time>2016-11-12T16:22:57Z</time>
      </trkpt>
      <trkpt lat="42.73033" lon="1.85154">
        <ele>1062</ele>
        <time>2016-11-12T16:23:02Z</time>
      </trkpt>
      <trkpt lat="42.73033" lon="1.85154">
        <ele>1062</ele>
        <time>2016-11-12T16:23:07Z</time>
      </trkpt>
      <trkpt lat="42.73033" lon="1.85155">
        <ele>1062</ele>
        <time>2016-11-12T16:23:12Z</time>
      </trkpt>
      <trkpt lat="42.73034" lon="1.85155">
        <ele>1062</ele>
        <time>2016-11-12T16:23:17Z</time>
      </trkpt>
      <trkpt lat="42.73034" lon="1.85155">
        <ele>1062</ele>
        <time>2016-11-12T16:23:22Z</time>
      </trkpt>
      <trkpt lat="42.73034" lon="1.85155">
        <ele>1062</ele>
        <time>2016-11-12T16:23:27Z</time>
      </trkpt>
      <trkpt lat="42.73034" lon="1.85155">
        <ele>1062</ele>
        <time>2016-11-12T16:23:32Z</time>
      </trkpt>
      <trkpt lat="42.73034" lon="1.85155">
        <ele>1062</ele>
        <time>2016-11-12T16:23:37Z</time>
      </trkpt>
      <trkpt lat="42.73033" lon="1.85157">
        <ele>1062</ele>
        <time>2016-11-12T16:23:42Z</time>
      </trkpt>
      <trkpt lat="42.73033" lon="1.85156">
        <ele>1062</ele>
        <time>2016-11-12T16:23:47Z</time>
      </trkpt>
      <trkpt lat="42.73033" lon="1.85156">
        <ele>1062</ele>
        <time>2016-11-12T16:23:52Z</time>
      </trkpt>
      <trkpt lat="42.73033" lon="1.85156">
        <ele>1062</ele>
        <time>2016-11-12T16:23:57Z</time>
      </trkpt>
      <trkpt lat="42.73032" lon="1.85154">
        <ele>1062</ele>
        <time>2016-11-12T16:24:02Z</time>
      </trkpt>
      <trkpt lat="42.73032" lon="1.85154">
        <ele>1062</ele>
        <time>2016-11-12T16:24:07Z</time>
      </trkpt>
      <trkpt lat="42.73032" lon="1.85154">
        <ele>1062</ele>
        <time>2016-11-12T16:24:12Z</time>
      </trkpt>
      <trkpt lat="42.73032" lon="1.85154">
        <ele>1062</ele>
        <time>2016-11-12T16:24:17Z</time>
      </trkpt>
      <trkpt lat="42.73031" lon="1.85154">
        <ele>1062</ele>
        <time>2016-11-12T16:24:22Z</time>
      </trkpt>
      <trkpt lat="42.73031" lon="1.85154">
        <ele>1062</ele>
        <time>2016-11-12T16:24:27Z</time>
      </trkpt>
      <trkpt lat="42.73031" lon="1.85154">
        <ele>1062</ele>
        <time>2016-11-12T16:24:32Z</time>
      </trkpt>
      <trkpt lat="42.73031" lon="1.85153">
        <ele>1062</ele>
        <time>2016-11-12T16:24:37Z</time>
      </trkpt>
      <trkpt lat="42.73031" lon="1.85153">
        <ele>1062</ele>
        <time>2016-11-12T16:24:42Z</time>
      </trkpt>
      <trkpt lat="42.7303" lon="1.85153">
        <ele>1062</ele>
        <time>2016-11-12T16:24:47Z</time>
      </trkpt>
      <trkpt lat="42.7303" lon="1.85153">
        <ele>1062</ele>
        <time>2016-11-12T16:24:52Z</time>
      </trkpt>
      <trkpt lat="42.7303" lon="1.85153">
        <ele>1062</ele>
        <time>2016-11-12T16:24:57Z</time>
      </trkpt>
      <trkpt lat="42.73032" lon="1.85158">
        <ele>1062</ele>
        <time>2016-11-12T16:25:02Z</time>
      </trkpt>
      <trkpt lat="42.73035" lon="1.85162">
        <ele>1062</ele>
        <time>2016-11-12T16:25:07Z</time>
      </trkpt>
      <trkpt lat="42.73036" lon="1.85164">
        <ele>1062</ele>
        <time>2016-11-12T16:25:12Z</time>
      </trkpt>
      <trkpt lat="42.73037" lon="1.85164">
        <ele>1062</ele>
        <time>2016-11-12T16:25:17Z</time>
      </trkpt>
      <trkpt lat="42.73038" lon="1.85163">
        <ele>1062</ele>
        <time>2016-11-12T16:25:22Z</time>
      </trkpt>
      <trkpt lat="42.7304" lon="1.85166">
        <ele>1062</ele>
        <time>2016-11-12T16:25:27Z</time>
      </trkpt>
      <trkpt lat="42.7304" lon="1.85166">
        <ele>1062</ele>
        <time>2016-11-12T16:25:32Z</time>
      </trkpt>
      <trkpt lat="42.73039" lon="1.85161">
        <ele>1062</ele>
        <time>2016-11-12T16:25:37Z</time>
      </trkpt>
      <trkpt lat="42.73036" lon="1.85157">
        <ele>1062</ele>
        <time>2016-11-12T16:25:42Z</time>
      </trkpt>
      <trkpt lat="42.73036" lon="1.85155">
        <ele>1062</ele>
        <time>2016-11-12T16:25:47Z</time>
      </trkpt>
      <trkpt lat="42.73041" lon="1.85155">
        <ele>1062</ele>
        <time>2016-11-12T16:25:52Z</time>
      </trkpt>
      <trkpt lat="42.73043" lon="1.85156">
        <ele>1066</ele>
        <time>2016-11-12T16:25:57Z</time>
      </trkpt>
      <trkpt lat="42.73043" lon="1.85156">
        <ele>1066</ele>
        <time>2016-11-12T16:26:02Z</time>
      </trkpt>
      <trkpt lat="42.73043" lon="1.85155">
        <ele>1066</ele>
        <time>2016-11-12T16:26:07Z</time>
      </trkpt>
      <trkpt lat="42.73042" lon="1.85155">
        <ele>1066</ele>
        <time>2016-11-12T16:26:12Z</time>
      </trkpt>
      <trkpt lat="42.73042" lon="1.85155">
        <ele>1066</ele>
        <time>2016-11-12T16:26:17Z</time>
      </trkpt>
      <trkpt lat="42.73042" lon="1.85155">
        <ele>1066</ele>
        <time>2016-11-12T16:26:22Z</time>
      </trkpt>
      <trkpt lat="42.73041" lon="1.85155">
        <ele>1062</ele>
        <time>2016-11-12T16:26:27Z</time>
      </trkpt>
      <trkpt lat="42.73042" lon="1.85154">
        <ele>1062</ele>
        <time>2016-11-12T16:26:32Z</time>
      </trkpt>
      <trkpt lat="42.73041" lon="1.85154">
        <ele>1062</ele>
        <time>2016-11-12T16:26:37Z</time>
      </trkpt>
      <trkpt lat="42.7304" lon="1.85153">
        <ele>1062</ele>
        <time>2016-11-12T16:26:42Z</time>
      </trkpt>
      <trkpt lat="42.73039" lon="1.85152">
        <ele>1062</ele>
        <time>2016-11-12T16:26:47Z</time>
      </trkpt>
      <trkpt lat="42.73039" lon="1.85152">
        <ele>1062</ele>
        <time>2016-11-12T16:26:52Z</time>
      </trkpt>
      <trkpt lat="42.73038" lon="1.85153">
        <ele>1062</ele>
        <time>2016-11-12T16:26:57Z</time>
      </trkpt>
      <trkpt lat="42.73038" lon="1.85153">
        <ele>1062</ele>
        <time>2016-11-12T16:27:02Z</time>
      </trkpt>
      <trkpt lat="42.73037" lon="1.85153">
        <ele>1062</ele>
        <time>2016-11-12T16:27:07Z</time>
      </trkpt>
      <trkpt lat="42.73037" lon="1.85153">
        <ele>1062</ele>
        <time>2016-11-12T16:27:12Z</time>
      </trkpt>
      <trkpt lat="42.73037" lon="1.85153">
        <ele>1062</ele>
        <time>2016-11-12T16:27:17Z</time>
      </trkpt>
      <trkpt lat="42.73036" lon="1.85154">
        <ele>1062</ele>
        <time>2016-11-12T16:27:22Z</time>
      </trkpt>
      <trkpt lat="42.73036" lon="1.85154">
        <ele>1062</ele>
        <time>2016-11-12T16:27:27Z</time>
      </trkpt>
      <trkpt lat="42.73036" lon="1.85153">
        <ele>1062</ele>
        <time>2016-11-12T16:27:32Z</time>
      </trkpt>
      <trkpt lat="42.73036" lon="1.85154">
        <ele>1062</ele>
        <time>2016-11-12T16:27:37Z</time>
      </trkpt>
      <trkpt lat="42.73035" lon="1.85154">
        <ele>1062</ele>
        <time>2016-11-12T16:27:42Z</time>
      </trkpt>
      <trkpt lat="42.73035" lon="1.85154">
        <ele>1062</ele>
        <time>2016-11-12T16:27:47Z</time>
      </trkpt>
      <trkpt lat="42.73035" lon="1.85154">
        <ele>1062</ele>
        <time>2016-11-12T16:27:52Z</time>
      </trkpt>
      <trkpt lat="42.73035" lon="1.85154">
        <ele>1062</ele>
        <time>2016-11-12T16:27:57Z</time>
      </trkpt>
      <trkpt lat="42.73034" lon="1.85153">
        <ele>1062</ele>
        <time>2016-11-12T16:28:02Z</time>
      </trkpt>
      <trkpt lat="42.73034" lon="1.85153">
        <ele>1062</ele>
        <time>2016-11-12T16:28:07Z</time>
      </trkpt>
      <trkpt lat="42.73034" lon="1.85153">
        <ele>1062</ele>
        <time>2016-11-12T16:28:12Z</time>
      </trkpt>
      <trkpt lat="42.73034" lon="1.85153">
        <ele>1062</ele>
        <time>2016-11-12T16:28:17Z</time>
      </trkpt>
      <trkpt lat="42.73034" lon="1.85153">
        <ele>1062</ele>
        <time>2016-11-12T16:28:22Z</time>
      </trkpt>
      <trkpt lat="42.73034" lon="1.85154">
        <ele>1062</ele>
        <time>2016-11-12T16:28:27Z</time>
      </trkpt>
      <trkpt lat="42.73034" lon="1.85154">
        <ele>1062</ele>
        <time>2016-11-12T16:28:32Z</time>
      </trkpt>
      <trkpt lat="42.73034" lon="1.85154">
        <ele>1062</ele>
        <time>2016-11-12T16:28:37Z</time>
      </trkpt>
      <trkpt lat="42.73033" lon="1.85153">
        <ele>1062</ele>
        <time>2016-11-12T16:28:42Z</time>
      </trkpt>
      <trkpt lat="42.73032" lon="1.85152">
        <ele>1062</ele>
        <time>2016-11-12T16:28:47Z</time>
      </trkpt>
      <trkpt lat="42.73031" lon="1.85151">
        <ele>1062</ele>
        <time>2016-11-12T16:28:52Z</time>
      </trkpt>
      <trkpt lat="42.73032" lon="1.85153">
        <ele>1062</ele>
        <time>2016-11-12T16:28:57Z</time>
      </trkpt>
      <trkpt lat="42.73032" lon="1.85157">
        <ele>1062</ele>
        <time>2016-11-12T16:29:02Z</time>
      </trkpt>
      <trkpt lat="42.73033" lon="1.85161">
        <ele>1062</ele>
        <time>2016-11-12T16:29:07Z</time>
      </trkpt>
      <trkpt lat="42.73033" lon="1.8516">
        <ele>1062</ele>
        <time>2016-11-12T16:29:12Z</time>
      </trkpt>
      <trkpt lat="42.73034" lon="1.8516">
        <ele>1062</ele>
        <time>2016-11-12T16:29:17Z</time>
      </trkpt>
      <trkpt lat="42.73034" lon="1.8516">
        <ele>1062</ele>
        <time>2016-11-12T16:29:22Z</time>
      </trkpt>
      <trkpt lat="42.73034" lon="1.8516">
        <ele>1062</ele>
        <time>2016-11-12T16:29:27Z</time>
      </trkpt>
      <trkpt lat="42.73034" lon="1.85161">
        <ele>1062</ele>
        <time>2016-11-12T16:29:32Z</time>
      </trkpt>
      <trkpt lat="42.73035" lon="1.85161">
        <ele>1062</ele>
        <time>2016-11-12T16:29:37Z</time>
      </trkpt>
      <trkpt lat="42.73034" lon="1.85161">
        <ele>1062</ele>
        <time>2016-11-12T16:29:42Z</time>
      </trkpt>
      <trkpt lat="42.73034" lon="1.85161">
        <ele>1062</ele>
        <time>2016-11-12T16:29:47Z</time>
      </trkpt>
      <trkpt lat="42.73034" lon="1.85161">
        <ele>1062</ele>
        <time>2016-11-12T16:29:52Z</time>
      </trkpt>
      <trkpt lat="42.73034" lon="1.85161">
        <ele>1062</ele>
        <time>2016-11-12T16:29:57Z</time>
      </trkpt>
      <trkpt lat="42.73034" lon="1.85161">
        <ele>1062</ele>
        <time>2016-11-12T16:30:02Z</time>
      </trkpt>
      <trkpt lat="42.73034" lon="1.85161">
        <ele>1062</ele>
        <time>2016-11-12T16:30:07Z</time>
      </trkpt>
      <trkpt lat="42.73034" lon="1.85162">
        <ele>1062</ele>
        <time>2016-11-12T16:30:12Z</time>
      </trkpt>
      <trkpt lat="42.73034" lon="1.85162">
        <ele>1062</ele>
        <time>2016-11-12T16:30:17Z</time>
      </trkpt>
      <trkpt lat="42.73034" lon="1.85161">
        <ele>1062</ele>
        <time>2016-11-12T16:30:22Z</time>
      </trkpt>
      <trkpt lat="42.73034" lon="1.85161">
        <ele>1062</ele>
        <time>2016-11-12T16:30:27Z</time>
      </trkpt>
      <trkpt lat="42.73034" lon="1.85161">
        <ele>1062</ele>
        <time>2016-11-12T16:30:32Z</time>
      </trkpt>
      <trkpt lat="42.73034" lon="1.85161">
        <ele>1062</ele>
        <time>2016-11-12T16:30:37Z</time>
      </trkpt>
      <trkpt lat="42.73034" lon="1.85161">
        <ele>1062</ele>
        <time>2016-11-12T16:30:42Z</time>
      </trkpt>
      <trkpt lat="42.73034" lon="1.85161">
        <ele>1062</ele>
        <time>2016-11-12T16:30:47Z</time>
      </trkpt>
      <trkpt lat="42.73034" lon="1.8516">
        <ele>1062</ele>
        <time>2016-11-12T16:30:52Z</time>
      </trkpt>
      <trkpt lat="42.73034" lon="1.8516">
        <ele>1062</ele>
        <time>2016-11-12T16:30:57Z</time>
      </trkpt>
      <trkpt lat="42.73033" lon="1.8516">
        <ele>1062</ele>
        <time>2016-11-12T16:31:02Z</time>
      </trkpt>
      <trkpt lat="42.73033" lon="1.8516">
        <ele>1062</ele>
        <time>2016-11-12T16:31:07Z</time>
      </trkpt>
      <trkpt lat="42.73033" lon="1.8516">
        <ele>1062</ele>
        <time>2016-11-12T16:31:12Z</time>
      </trkpt>
      <trkpt lat="42.73033" lon="1.8516">
        <ele>1062</ele>
        <time>2016-11-12T16:31:17Z</time>
      </trkpt>
      <trkpt lat="42.73033" lon="1.8516">
        <ele>1062</ele>
        <time>2016-11-12T16:31:22Z</time>
      </trkpt>
      <trkpt lat="42.73033" lon="1.8516">
        <ele>1062</ele>
        <time>2016-11-12T16:31:27Z</time>
      </trkpt>
      <trkpt lat="42.73033" lon="1.8516">
        <ele>1062</ele>
        <time>2016-11-12T16:31:32Z</time>
      </trkpt>
      <trkpt lat="42.73033" lon="1.8516">
        <ele>1062</ele>
        <time>2016-11-12T16:31:37Z</time>
      </trkpt>
      <trkpt lat="42.73033" lon="1.8516">
        <ele>1062</ele>
        <time>2016-11-12T16:31:42Z</time>
      </trkpt>
      <trkpt lat="42.73033" lon="1.8516">
        <ele>1062</ele>
        <time>2016-11-12T16:31:47Z</time>
      </trkpt>
      <trkpt lat="42.73033" lon="1.85161">
        <ele>1062</ele>
        <time>2016-11-12T16:31:52Z</time>
      </trkpt>
      <trkpt lat="42.73033" lon="1.85161">
        <ele>1062</ele>
        <time>2016-11-12T16:31:57Z</time>
      </trkpt>
      <trkpt lat="42.73033" lon="1.85161">
        <ele>1062</ele>
        <time>2016-11-12T16:32:02Z</time>
      </trkpt>
      <trkpt lat="42.73032" lon="1.8516">
        <ele>1062</ele>
        <time>2016-11-12T16:32:07Z</time>
      </trkpt>
      <trkpt lat="42.73033" lon="1.85159">
        <ele>1062</ele>
        <time>2016-11-12T16:32:12Z</time>
      </trkpt>
      <trkpt lat="42.73033" lon="1.85163">
        <ele>1062</ele>
        <time>2016-11-12T16:32:17Z</time>
      </trkpt>
      <trkpt lat="42.73034" lon="1.85163">
        <ele>1062</ele>
        <time>2016-11-12T16:32:22Z</time>
      </trkpt>
      <trkpt lat="42.73034" lon="1.85163">
        <ele>1062</ele>
        <time>2016-11-12T16:32:27Z</time>
      </trkpt>
      <trkpt lat="42.73034" lon="1.85162">
        <ele>1062</ele>
        <time>2016-11-12T16:32:32Z</time>
      </trkpt>
      <trkpt lat="42.73035" lon="1.85162">
        <ele>1062</ele>
        <time>2016-11-12T16:32:37Z</time>
      </trkpt>
      <trkpt lat="42.73035" lon="1.85162">
        <ele>1062</ele>
        <time>2016-11-12T16:32:42Z</time>
      </trkpt>
      <trkpt lat="42.73035" lon="1.85162">
        <ele>1062</ele>
        <time>2016-11-12T16:32:47Z</time>
      </trkpt>
      <trkpt lat="42.73034" lon="1.85158">
        <ele>1062</ele>
        <time>2016-11-12T16:32:52Z</time>
      </trkpt>
      <trkpt lat="42.73034" lon="1.85156">
        <ele>1062</ele>
        <time>2016-11-12T16:32:57Z</time>
      </trkpt>
      <trkpt lat="42.73034" lon="1.85156">
        <ele>1062</ele>
        <time>2016-11-12T16:33:02Z</time>
      </trkpt>
      <trkpt lat="42.73035" lon="1.85159">
        <ele>1062</ele>
        <time>2016-11-12T16:33:07Z</time>
      </trkpt>
      <trkpt lat="42.73035" lon="1.8516">
        <ele>1062</ele>
        <time>2016-11-12T16:33:12Z</time>
      </trkpt>
      <trkpt lat="42.73034" lon="1.85161">
        <ele>1062</ele>
        <time>2016-11-12T16:33:17Z</time>
      </trkpt>
      <trkpt lat="42.73037" lon="1.85163">
        <ele>1062</ele>
        <time>2016-11-12T16:33:22Z</time>
      </trkpt>
      <trkpt lat="42.73036" lon="1.85165">
        <ele>1062</ele>
        <time>2016-11-12T16:33:27Z</time>
      </trkpt>
      <trkpt lat="42.73035" lon="1.85165">
        <ele>1062</ele>
        <time>2016-11-12T16:33:32Z</time>
      </trkpt>
      <trkpt lat="42.73035" lon="1.85163">
        <ele>1062</ele>
        <time>2016-11-12T16:33:37Z</time>
      </trkpt>
      <trkpt lat="42.73036" lon="1.85162">
        <ele>1062</ele>
        <time>2016-11-12T16:33:42Z</time>
      </trkpt>
      <trkpt lat="42.73036" lon="1.85162">
        <ele>1062</ele>
        <time>2016-11-12T16:33:47Z</time>
      </trkpt>
      <trkpt lat="42.73035" lon="1.85163">
        <ele>1062</ele>
        <time>2016-11-12T16:33:52Z</time>
      </trkpt>
      <trkpt lat="42.73035" lon="1.85163">
        <ele>1062</ele>
        <time>2016-11-12T16:33:57Z</time>
      </trkpt>
      <trkpt lat="42.73035" lon="1.85163">
        <ele>1062</ele>
        <time>2016-11-12T16:34:02Z</time>
      </trkpt>
      <trkpt lat="42.73035" lon="1.85162">
        <ele>1062</ele>
        <time>2016-11-12T16:34:07Z</time>
      </trkpt>
      <trkpt lat="42.73034" lon="1.85161">
        <ele>1062</ele>
        <time>2016-11-12T16:34:12Z</time>
      </trkpt>
      <trkpt lat="42.73034" lon="1.85161">
        <ele>1062</ele>
        <time>2016-11-12T16:34:17Z</time>
      </trkpt>
      <trkpt lat="42.73034" lon="1.8516">
        <ele>1062</ele>
        <time>2016-11-12T16:34:22Z</time>
      </trkpt>
      <trkpt lat="42.73034" lon="1.8516">
        <ele>1062</ele>
        <time>2016-11-12T16:34:27Z</time>
      </trkpt>
      <trkpt lat="42.73031" lon="1.85157">
        <ele>1062</ele>
        <time>2016-11-12T16:34:32Z</time>
      </trkpt>
      <trkpt lat="42.73031" lon="1.85149">
        <ele>1062</ele>
        <time>2016-11-12T16:34:37Z</time>
      </trkpt>
      <trkpt lat="42.73018" lon="1.8512">
        <ele>1057</ele>
        <time>2016-11-12T16:34:42Z</time>
      </trkpt>
      <trkpt lat="42.73012" lon="1.851">
        <ele>1057</ele>
        <time>2016-11-12T16:34:47Z</time>
      </trkpt>
    </trkseg>
  </trk>
</gpx>